<?xml version="1.0" encoding="UTF-8" standalone="no" ?>
<gpx xmlns="http://www.topografix.com/GPX/1/1" xmlns:xsi="http://www.w3.org/2001/XMLSchema-instance" xsi:schemaLocation="http://www.topografix.com/GPX/1/1 http://www.topografix.com/GPX/1/1/gpx.xsd" version="1.1" creator="VisuGPX - https://www.visugpx.com">
  <metadata>
    <name>Rallye de l\'Ain à Cheval - Etape 3</name>
    <desc><![CDATA[Innimont - Virignin (arrivée du Rallye)]]></desc>
  </metadata>
  <trk>
    <name><![CDATA[Rallye de l\'Ain à Cheval - Etape 3_1]]></name>
    <trkseg>
      <trkpt lat="45.78485" lon="5.57478">
        <ele>887.5</ele>
        <time>2015-05-16T10:26:21Z</time>
      </trkpt>
      <trkpt lat="45.78481" lon="5.57446">
        <ele>889.26104629073</ele>
        <time>2015-05-16T10:26:26Z</time>
      </trkpt>
      <trkpt lat="45.78475" lon="5.57446">
        <ele>889.26104629073</ele>
        <time>2015-05-16T10:26:31Z</time>
      </trkpt>
      <trkpt lat="45.78469" lon="5.5745">
        <ele>890.50283049096</ele>
        <time>2015-05-16T10:26:36Z</time>
      </trkpt>
      <trkpt lat="45.78465" lon="5.57448">
        <ele>890.50283049096</ele>
        <time>2015-05-16T10:26:41Z</time>
      </trkpt>
      <trkpt lat="45.78461" lon="5.57447">
        <ele>890.50283049096</ele>
        <time>2015-05-16T10:26:46Z</time>
      </trkpt>
      <trkpt lat="45.78459" lon="5.57447">
        <ele>892.83409884099</ele>
        <time>2015-05-16T10:26:51Z</time>
      </trkpt>
      <trkpt lat="45.78459" lon="5.57449">
        <ele>892.83409884099</ele>
        <time>2015-05-16T10:26:56Z</time>
      </trkpt>
      <trkpt lat="45.78459" lon="5.57449">
        <ele>892.83409884099</ele>
        <time>2015-05-16T10:27:01Z</time>
      </trkpt>
      <trkpt lat="45.78457" lon="5.57447">
        <ele>892.83409884099</ele>
        <time>2015-05-16T10:27:06Z</time>
      </trkpt>
      <trkpt lat="45.78455" lon="5.57441">
        <ele>895.24964981869</ele>
        <time>2015-05-16T10:27:11Z</time>
      </trkpt>
      <trkpt lat="45.78455" lon="5.57437">
        <ele>895.24964981869</ele>
        <time>2015-05-16T10:27:16Z</time>
      </trkpt>
      <trkpt lat="45.78455" lon="5.57439">
        <ele>895.24964981869</ele>
        <time>2015-05-16T10:27:21Z</time>
      </trkpt>
      <trkpt lat="45.78455" lon="5.5744">
        <ele>895.24964981869</ele>
        <time>2015-05-16T10:27:26Z</time>
      </trkpt>
      <trkpt lat="45.78455" lon="5.57441">
        <ele>895.24964981869</ele>
        <time>2015-05-16T10:27:31Z</time>
      </trkpt>
      <trkpt lat="45.78455" lon="5.57441">
        <ele>895.24964981869</ele>
        <time>2015-05-16T10:27:36Z</time>
      </trkpt>
      <trkpt lat="45.78455" lon="5.57441">
        <ele>895.24964981869</ele>
        <time>2015-05-16T10:27:41Z</time>
      </trkpt>
      <trkpt lat="45.78455" lon="5.57441">
        <ele>895.24964981869</ele>
        <time>2015-05-16T10:27:46Z</time>
      </trkpt>
      <trkpt lat="45.78455" lon="5.57441">
        <ele>895.24964981869</ele>
        <time>2015-05-16T10:27:51Z</time>
      </trkpt>
      <trkpt lat="45.78455" lon="5.57441">
        <ele>895.24964981869</ele>
        <time>2015-05-16T10:27:56Z</time>
      </trkpt>
      <trkpt lat="45.78454" lon="5.5744">
        <ele>895.24964981869</ele>
        <time>2015-05-16T10:28:01Z</time>
      </trkpt>
      <trkpt lat="45.78453" lon="5.57441">
        <ele>895.24964981869</ele>
        <time>2015-05-16T10:28:06Z</time>
      </trkpt>
      <trkpt lat="45.78453" lon="5.57441">
        <ele>895.24964981869</ele>
        <time>2015-05-16T10:28:11Z</time>
      </trkpt>
      <trkpt lat="45.78454" lon="5.5744">
        <ele>895.24964981869</ele>
        <time>2015-05-16T10:28:16Z</time>
      </trkpt>
      <trkpt lat="45.78456" lon="5.5744">
        <ele>898.7260313045</ele>
        <time>2015-05-16T10:28:21Z</time>
      </trkpt>
      <trkpt lat="45.78456" lon="5.5744">
        <ele>898.7260313045</ele>
        <time>2015-05-16T10:28:26Z</time>
      </trkpt>
      <trkpt lat="45.78455" lon="5.5744">
        <ele>898.7260313045</ele>
        <time>2015-05-16T10:28:31Z</time>
      </trkpt>
      <trkpt lat="45.78451" lon="5.57437">
        <ele>898.7260313045</ele>
        <time>2015-05-16T10:28:36Z</time>
      </trkpt>
      <trkpt lat="45.78445" lon="5.57434">
        <ele>902.00731958889</ele>
        <time>2015-05-16T10:28:41Z</time>
      </trkpt>
      <trkpt lat="45.7844" lon="5.57432">
        <ele>902.00731958889</ele>
        <time>2015-05-16T10:28:46Z</time>
      </trkpt>
      <trkpt lat="45.78435" lon="5.57425">
        <ele>905.49742585146</ele>
        <time>2015-05-16T10:28:51Z</time>
      </trkpt>
      <trkpt lat="45.78428" lon="5.5742">
        <ele>905.49742585146</ele>
        <time>2015-05-16T10:28:56Z</time>
      </trkpt>
      <trkpt lat="45.78422" lon="5.57419">
        <ele>907.75532354062</ele>
        <time>2015-05-16T10:29:01Z</time>
      </trkpt>
      <trkpt lat="45.78418" lon="5.57419">
        <ele>907.75532354062</ele>
        <time>2015-05-16T10:29:06Z</time>
      </trkpt>
      <trkpt lat="45.7841" lon="5.57416">
        <ele>910.37308760912</ele>
        <time>2015-05-16T10:29:11Z</time>
      </trkpt>
      <trkpt lat="45.78403" lon="5.57417">
        <ele>910.37308760912</ele>
        <time>2015-05-16T10:29:16Z</time>
      </trkpt>
      <trkpt lat="45.78397" lon="5.57416">
        <ele>912.05088960148</ele>
        <time>2015-05-16T10:29:21Z</time>
      </trkpt>
      <trkpt lat="45.78391" lon="5.57416">
        <ele>912.05088960148</ele>
        <time>2015-05-16T10:29:26Z</time>
      </trkpt>
      <trkpt lat="45.78384" lon="5.57414">
        <ele>913.01290560438</ele>
        <time>2015-05-16T10:29:31Z</time>
      </trkpt>
      <trkpt lat="45.78377" lon="5.57412">
        <ele>913.01290560438</ele>
        <time>2015-05-16T10:29:36Z</time>
      </trkpt>
      <trkpt lat="45.7837" lon="5.57407">
        <ele>913.01572927294</ele>
        <time>2015-05-16T10:29:41Z</time>
      </trkpt>
      <trkpt lat="45.78365" lon="5.57399">
        <ele>913.01572927294</ele>
        <time>2015-05-16T10:29:46Z</time>
      </trkpt>
      <trkpt lat="45.7836" lon="5.57393">
        <ele>912.85059091696</ele>
        <time>2015-05-16T10:29:51Z</time>
      </trkpt>
      <trkpt lat="45.78355" lon="5.57384">
        <ele>912.85059091696</ele>
        <time>2015-05-16T10:29:56Z</time>
      </trkpt>
      <trkpt lat="45.78352" lon="5.57382">
        <ele>912.74009536343</ele>
        <time>2015-05-16T10:30:01Z</time>
      </trkpt>
      <trkpt lat="45.78346" lon="5.57378">
        <ele>912.74009536343</ele>
        <time>2015-05-16T10:30:06Z</time>
      </trkpt>
      <trkpt lat="45.7834" lon="5.57375">
        <ele>911.65724162968</ele>
        <time>2015-05-16T10:30:11Z</time>
      </trkpt>
      <trkpt lat="45.78335" lon="5.57372">
        <ele>911.65724162968</ele>
        <time>2015-05-16T10:30:16Z</time>
      </trkpt>
      <trkpt lat="45.78332" lon="5.5737">
        <ele>909.52446108216</ele>
        <time>2015-05-16T10:30:21Z</time>
      </trkpt>
      <trkpt lat="45.78325" lon="5.57371">
        <ele>909.52446108216</ele>
        <time>2015-05-16T10:30:26Z</time>
      </trkpt>
      <trkpt lat="45.78317" lon="5.5737">
        <ele>908.19113739524</ele>
        <time>2015-05-16T10:30:31Z</time>
      </trkpt>
      <trkpt lat="45.78314" lon="5.57368">
        <ele>908.19113739524</ele>
        <time>2015-05-16T10:30:36Z</time>
      </trkpt>
      <trkpt lat="45.78307" lon="5.57369">
        <ele>906.98546906746</ele>
        <time>2015-05-16T10:30:41Z</time>
      </trkpt>
      <trkpt lat="45.78299" lon="5.57369">
        <ele>906.98546906746</ele>
        <time>2015-05-16T10:30:46Z</time>
      </trkpt>
      <trkpt lat="45.78294" lon="5.5737">
        <ele>906.14893255257</ele>
        <time>2015-05-16T10:30:51Z</time>
      </trkpt>
      <trkpt lat="45.78289" lon="5.57369">
        <ele>906.14893255257</ele>
        <time>2015-05-16T10:30:56Z</time>
      </trkpt>
      <trkpt lat="45.78282" lon="5.57371">
        <ele>905.30184035935</ele>
        <time>2015-05-16T10:31:01Z</time>
      </trkpt>
      <trkpt lat="45.78276" lon="5.57368">
        <ele>905.30184035935</ele>
        <time>2015-05-16T10:31:06Z</time>
      </trkpt>
      <trkpt lat="45.7827" lon="5.57364">
        <ele>903.89094037587</ele>
        <time>2015-05-16T10:31:11Z</time>
      </trkpt>
      <trkpt lat="45.78265" lon="5.57357">
        <ele>903.89094037587</ele>
        <time>2015-05-16T10:31:16Z</time>
      </trkpt>
      <trkpt lat="45.78261" lon="5.57351">
        <ele>902.20836780679</ele>
        <time>2015-05-16T10:31:21Z</time>
      </trkpt>
      <trkpt lat="45.78257" lon="5.57345">
        <ele>902.20836780679</ele>
        <time>2015-05-16T10:31:26Z</time>
      </trkpt>
      <trkpt lat="45.78252" lon="5.57337">
        <ele>901.29979917995</ele>
        <time>2015-05-16T10:31:31Z</time>
      </trkpt>
      <trkpt lat="45.78246" lon="5.57338">
        <ele>901.29979917995</ele>
        <time>2015-05-16T10:31:36Z</time>
      </trkpt>
      <trkpt lat="45.78239" lon="5.57338">
        <ele>900.06521264272</ele>
        <time>2015-05-16T10:31:41Z</time>
      </trkpt>
      <trkpt lat="45.78232" lon="5.57337">
        <ele>900.06521264272</ele>
        <time>2015-05-16T10:31:46Z</time>
      </trkpt>
      <trkpt lat="45.78227" lon="5.5734">
        <ele>898.99521396912</ele>
        <time>2015-05-16T10:31:51Z</time>
      </trkpt>
      <trkpt lat="45.78226" lon="5.57341">
        <ele>898.99521396912</ele>
        <time>2015-05-16T10:31:56Z</time>
      </trkpt>
      <trkpt lat="45.78219" lon="5.57344">
        <ele>898.99521396912</ele>
        <time>2015-05-16T10:32:01Z</time>
      </trkpt>
      <trkpt lat="45.78213" lon="5.57348">
        <ele>898.59199452215</ele>
        <time>2015-05-16T10:32:06Z</time>
      </trkpt>
      <trkpt lat="45.78208" lon="5.57357">
        <ele>898.59199452215</ele>
        <time>2015-05-16T10:32:11Z</time>
      </trkpt>
      <trkpt lat="45.78204" lon="5.57366">
        <ele>898.33188897937</ele>
        <time>2015-05-16T10:32:16Z</time>
      </trkpt>
      <trkpt lat="45.78199" lon="5.57372">
        <ele>898.33188897937</ele>
        <time>2015-05-16T10:32:21Z</time>
      </trkpt>
      <trkpt lat="45.78194" lon="5.57377">
        <ele>897.29644785456</ele>
        <time>2015-05-16T10:32:26Z</time>
      </trkpt>
      <trkpt lat="45.7819" lon="5.57381">
        <ele>897.29644785456</ele>
        <time>2015-05-16T10:32:31Z</time>
      </trkpt>
      <trkpt lat="45.78187" lon="5.57386">
        <ele>896.29825386159</ele>
        <time>2015-05-16T10:32:36Z</time>
      </trkpt>
      <trkpt lat="45.78182" lon="5.57391">
        <ele>896.29825386159</ele>
        <time>2015-05-16T10:32:41Z</time>
      </trkpt>
      <trkpt lat="45.7818" lon="5.57394">
        <ele>896.29825386159</ele>
        <time>2015-05-16T10:32:46Z</time>
      </trkpt>
      <trkpt lat="45.78176" lon="5.57399">
        <ele>895.36026312707</ele>
        <time>2015-05-16T10:32:51Z</time>
      </trkpt>
      <trkpt lat="45.78171" lon="5.57407">
        <ele>895.36026312707</ele>
        <time>2015-05-16T10:32:56Z</time>
      </trkpt>
      <trkpt lat="45.78166" lon="5.57417">
        <ele>894.39273474153</ele>
        <time>2015-05-16T10:33:01Z</time>
      </trkpt>
      <trkpt lat="45.7816" lon="5.57428">
        <ele>893.7856146073</ele>
        <time>2015-05-16T10:33:06Z</time>
      </trkpt>
      <trkpt lat="45.78155" lon="5.5744">
        <ele>893.41525268829</ele>
        <time>2015-05-16T10:33:11Z</time>
      </trkpt>
      <trkpt lat="45.78151" lon="5.57449">
        <ele>893.41525268829</ele>
        <time>2015-05-16T10:33:16Z</time>
      </trkpt>
      <trkpt lat="45.78146" lon="5.57455">
        <ele>892.59826667619</ele>
        <time>2015-05-16T10:33:21Z</time>
      </trkpt>
      <trkpt lat="45.7814" lon="5.5746">
        <ele>892.59826667619</ele>
        <time>2015-05-16T10:33:26Z</time>
      </trkpt>
      <trkpt lat="45.78134" lon="5.57463">
        <ele>891.85358431287</ele>
        <time>2015-05-16T10:33:31Z</time>
      </trkpt>
      <trkpt lat="45.78127" lon="5.57467">
        <ele>891.85358431287</ele>
        <time>2015-05-16T10:33:36Z</time>
      </trkpt>
      <trkpt lat="45.78121" lon="5.57469">
        <ele>891.05287165622</ele>
        <time>2015-05-16T10:33:41Z</time>
      </trkpt>
      <trkpt lat="45.78113" lon="5.57473">
        <ele>891.05287165622</ele>
        <time>2015-05-16T10:33:46Z</time>
      </trkpt>
      <trkpt lat="45.78104" lon="5.57477">
        <ele>890.75228099889</ele>
        <time>2015-05-16T10:33:51Z</time>
      </trkpt>
      <trkpt lat="45.78096" lon="5.57482">
        <ele>890.51446656479</ele>
        <time>2015-05-16T10:33:56Z</time>
      </trkpt>
      <trkpt lat="45.78089" lon="5.57489">
        <ele>890.51446656479</ele>
        <time>2015-05-16T10:34:01Z</time>
      </trkpt>
      <trkpt lat="45.78083" lon="5.57495">
        <ele>890.36738320709</ele>
        <time>2015-05-16T10:34:06Z</time>
      </trkpt>
      <trkpt lat="45.78079" lon="5.57503">
        <ele>890.36738320709</ele>
        <time>2015-05-16T10:34:11Z</time>
      </trkpt>
      <trkpt lat="45.78076" lon="5.57511">
        <ele>889.64767572066</ele>
        <time>2015-05-16T10:34:16Z</time>
      </trkpt>
      <trkpt lat="45.78076" lon="5.57516">
        <ele>889.64767572066</ele>
        <time>2015-05-16T10:34:21Z</time>
      </trkpt>
      <trkpt lat="45.78076" lon="5.57518">
        <ele>889.64767572066</ele>
        <time>2015-05-16T10:34:26Z</time>
      </trkpt>
      <trkpt lat="45.78073" lon="5.57527">
        <ele>888.79791925288</ele>
        <time>2015-05-16T10:34:31Z</time>
      </trkpt>
      <trkpt lat="45.78071" lon="5.57536">
        <ele>888.79791925288</ele>
        <time>2015-05-16T10:34:36Z</time>
      </trkpt>
      <trkpt lat="45.7807" lon="5.57546">
        <ele>887.68567569234</ele>
        <time>2015-05-16T10:34:41Z</time>
      </trkpt>
      <trkpt lat="45.78069" lon="5.57557">
        <ele>887.68567569234</ele>
        <time>2015-05-16T10:34:46Z</time>
      </trkpt>
      <trkpt lat="45.78066" lon="5.57567">
        <ele>886.68517621628</ele>
        <time>2015-05-16T10:34:51Z</time>
      </trkpt>
      <trkpt lat="45.78065" lon="5.5757">
        <ele>886.68517621628</ele>
        <time>2015-05-16T10:34:56Z</time>
      </trkpt>
      <trkpt lat="45.78065" lon="5.57572">
        <ele>886.68517621628</ele>
        <time>2015-05-16T10:35:01Z</time>
      </trkpt>
      <trkpt lat="45.78061" lon="5.57582">
        <ele>885.60464034725</ele>
        <time>2015-05-16T10:35:06Z</time>
      </trkpt>
      <trkpt lat="45.78057" lon="5.57595">
        <ele>884.66340565254</ele>
        <time>2015-05-16T10:35:11Z</time>
      </trkpt>
      <trkpt lat="45.78052" lon="5.57606">
        <ele>884.66340565254</ele>
        <time>2015-05-16T10:35:16Z</time>
      </trkpt>
      <trkpt lat="45.78047" lon="5.57616">
        <ele>883.67989244958</ele>
        <time>2015-05-16T10:35:21Z</time>
      </trkpt>
      <trkpt lat="45.78043" lon="5.57625">
        <ele>883.67989244958</ele>
        <time>2015-05-16T10:35:26Z</time>
      </trkpt>
      <trkpt lat="45.78039" lon="5.57633">
        <ele>882.55803379078</ele>
        <time>2015-05-16T10:35:31Z</time>
      </trkpt>
      <trkpt lat="45.78033" lon="5.57639">
        <ele>882.55803379078</ele>
        <time>2015-05-16T10:35:36Z</time>
      </trkpt>
      <trkpt lat="45.78029" lon="5.57644">
        <ele>881.26829790804</ele>
        <time>2015-05-16T10:35:41Z</time>
      </trkpt>
      <trkpt lat="45.78023" lon="5.57648">
        <ele>881.26829790804</ele>
        <time>2015-05-16T10:35:46Z</time>
      </trkpt>
      <trkpt lat="45.78018" lon="5.57651">
        <ele>880.0395138146</ele>
        <time>2015-05-16T10:35:51Z</time>
      </trkpt>
      <trkpt lat="45.78012" lon="5.57652">
        <ele>880.0395138146</ele>
        <time>2015-05-16T10:35:56Z</time>
      </trkpt>
      <trkpt lat="45.78012" lon="5.57652">
        <ele>880.0395138146</ele>
        <time>2015-05-16T10:36:01Z</time>
      </trkpt>
      <trkpt lat="45.78012" lon="5.57651">
        <ele>880.0395138146</ele>
        <time>2015-05-16T10:36:06Z</time>
      </trkpt>
      <trkpt lat="45.78012" lon="5.57651">
        <ele>880.0395138146</ele>
        <time>2015-05-16T10:36:11Z</time>
      </trkpt>
      <trkpt lat="45.78012" lon="5.57651">
        <ele>880.0395138146</ele>
        <time>2015-05-16T10:36:16Z</time>
      </trkpt>
      <trkpt lat="45.78012" lon="5.57651">
        <ele>880.0395138146</ele>
        <time>2015-05-16T10:36:21Z</time>
      </trkpt>
      <trkpt lat="45.78012" lon="5.57651">
        <ele>880.0395138146</ele>
        <time>2015-05-16T10:36:26Z</time>
      </trkpt>
      <trkpt lat="45.78012" lon="5.57651">
        <ele>880.0395138146</ele>
        <time>2015-05-16T10:36:31Z</time>
      </trkpt>
      <trkpt lat="45.78012" lon="5.57651">
        <ele>880.0395138146</ele>
        <time>2015-05-16T10:36:36Z</time>
      </trkpt>
      <trkpt lat="45.78012" lon="5.57651">
        <ele>880.0395138146</ele>
        <time>2015-05-16T10:36:41Z</time>
      </trkpt>
      <trkpt lat="45.78012" lon="5.57651">
        <ele>880.0395138146</ele>
        <time>2015-05-16T10:36:46Z</time>
      </trkpt>
      <trkpt lat="45.78012" lon="5.57651">
        <ele>880.0395138146</ele>
        <time>2015-05-16T10:36:51Z</time>
      </trkpt>
      <trkpt lat="45.78012" lon="5.57651">
        <ele>880.0395138146</ele>
        <time>2015-05-16T10:36:56Z</time>
      </trkpt>
      <trkpt lat="45.78012" lon="5.57651">
        <ele>880.0395138146</ele>
        <time>2015-05-16T10:37:01Z</time>
      </trkpt>
      <trkpt lat="45.78012" lon="5.57651">
        <ele>880.0395138146</ele>
        <time>2015-05-16T10:37:06Z</time>
      </trkpt>
      <trkpt lat="45.78012" lon="5.57651">
        <ele>880.0395138146</ele>
        <time>2015-05-16T10:37:11Z</time>
      </trkpt>
      <trkpt lat="45.78012" lon="5.57651">
        <ele>880.0395138146</ele>
        <time>2015-05-16T10:37:16Z</time>
      </trkpt>
      <trkpt lat="45.78012" lon="5.57651">
        <ele>880.0395138146</ele>
        <time>2015-05-16T10:37:21Z</time>
      </trkpt>
      <trkpt lat="45.78012" lon="5.57651">
        <ele>880.0395138146</ele>
        <time>2015-05-16T10:37:26Z</time>
      </trkpt>
      <trkpt lat="45.78008" lon="5.57651">
        <ele>878.63215698086</ele>
        <time>2015-05-16T10:37:31Z</time>
      </trkpt>
      <trkpt lat="45.78003" lon="5.57652">
        <ele>878.63215698086</ele>
        <time>2015-05-16T10:37:36Z</time>
      </trkpt>
      <trkpt lat="45.77997" lon="5.57649">
        <ele>876.85431669828</ele>
        <time>2015-05-16T10:37:41Z</time>
      </trkpt>
      <trkpt lat="45.77992" lon="5.57649">
        <ele>876.85431669828</ele>
        <time>2015-05-16T10:37:46Z</time>
      </trkpt>
      <trkpt lat="45.77986" lon="5.57651">
        <ele>875.2996593917</ele>
        <time>2015-05-16T10:37:51Z</time>
      </trkpt>
      <trkpt lat="45.77979" lon="5.57651">
        <ele>875.2996593917</ele>
        <time>2015-05-16T10:37:56Z</time>
      </trkpt>
      <trkpt lat="45.77971" lon="5.5765">
        <ele>873.35343458862</ele>
        <time>2015-05-16T10:38:01Z</time>
      </trkpt>
      <trkpt lat="45.77964" lon="5.5765">
        <ele>873.35343458862</ele>
        <time>2015-05-16T10:38:06Z</time>
      </trkpt>
      <trkpt lat="45.77957" lon="5.5765">
        <ele>872.44126524514</ele>
        <time>2015-05-16T10:38:11Z</time>
      </trkpt>
      <trkpt lat="45.77949" lon="5.57649">
        <ele>872.44126524514</ele>
        <time>2015-05-16T10:38:16Z</time>
      </trkpt>
      <trkpt lat="45.77943" lon="5.57646">
        <ele>871.77632728192</ele>
        <time>2015-05-16T10:38:21Z</time>
      </trkpt>
      <trkpt lat="45.77938" lon="5.57643">
        <ele>871.77632728192</ele>
        <time>2015-05-16T10:38:26Z</time>
      </trkpt>
      <trkpt lat="45.77933" lon="5.57637">
        <ele>871.35575493507</ele>
        <time>2015-05-16T10:38:31Z</time>
      </trkpt>
      <trkpt lat="45.77929" lon="5.57631">
        <ele>871.35575493507</ele>
        <time>2015-05-16T10:38:36Z</time>
      </trkpt>
      <trkpt lat="45.77924" lon="5.57627">
        <ele>870.54458579337</ele>
        <time>2015-05-16T10:38:41Z</time>
      </trkpt>
      <trkpt lat="45.77918" lon="5.57623">
        <ele>870.54458579337</ele>
        <time>2015-05-16T10:38:46Z</time>
      </trkpt>
      <trkpt lat="45.77911" lon="5.57623">
        <ele>869.46642849639</ele>
        <time>2015-05-16T10:38:51Z</time>
      </trkpt>
      <trkpt lat="45.77905" lon="5.57623">
        <ele>869.46642849639</ele>
        <time>2015-05-16T10:38:56Z</time>
      </trkpt>
      <trkpt lat="45.77898" lon="5.5762">
        <ele>868.57974176095</ele>
        <time>2015-05-16T10:39:01Z</time>
      </trkpt>
      <trkpt lat="45.77892" lon="5.57619">
        <ele>868.57974176095</ele>
        <time>2015-05-16T10:39:06Z</time>
      </trkpt>
      <trkpt lat="45.77887" lon="5.57622">
        <ele>866.70634261533</ele>
        <time>2015-05-16T10:39:11Z</time>
      </trkpt>
      <trkpt lat="45.77885" lon="5.57623">
        <ele>866.70634261533</ele>
        <time>2015-05-16T10:39:16Z</time>
      </trkpt>
      <trkpt lat="45.77882" lon="5.57624">
        <ele>866.70634261533</ele>
        <time>2015-05-16T10:39:21Z</time>
      </trkpt>
      <trkpt lat="45.77878" lon="5.5763">
        <ele>865.37652648621</ele>
        <time>2015-05-16T10:39:26Z</time>
      </trkpt>
      <trkpt lat="45.77871" lon="5.57631">
        <ele>865.37652648621</ele>
        <time>2015-05-16T10:39:31Z</time>
      </trkpt>
      <trkpt lat="45.77866" lon="5.57633">
        <ele>864.05854746495</ele>
        <time>2015-05-16T10:39:36Z</time>
      </trkpt>
      <trkpt lat="45.77855" lon="5.57632">
        <ele>863.24334713851</ele>
        <time>2015-05-16T10:39:41Z</time>
      </trkpt>
      <trkpt lat="45.77848" lon="5.57631">
        <ele>863.24334713851</ele>
        <time>2015-05-16T10:39:46Z</time>
      </trkpt>
      <trkpt lat="45.77842" lon="5.57629">
        <ele>862.71385490576</ele>
        <time>2015-05-16T10:39:51Z</time>
      </trkpt>
      <trkpt lat="45.77838" lon="5.57627">
        <ele>862.71385490576</ele>
        <time>2015-05-16T10:39:56Z</time>
      </trkpt>
      <trkpt lat="45.77833" lon="5.57625">
        <ele>862.27039030775</ele>
        <time>2015-05-16T10:40:01Z</time>
      </trkpt>
      <trkpt lat="45.77827" lon="5.57621">
        <ele>862.27039030775</ele>
        <time>2015-05-16T10:40:06Z</time>
      </trkpt>
      <trkpt lat="45.77826" lon="5.5762">
        <ele>862.27039030775</ele>
        <time>2015-05-16T10:40:11Z</time>
      </trkpt>
      <trkpt lat="45.77823" lon="5.5762">
        <ele>861.78853385603</ele>
        <time>2015-05-16T10:40:16Z</time>
      </trkpt>
      <trkpt lat="45.77817" lon="5.57619">
        <ele>861.78853385603</ele>
        <time>2015-05-16T10:40:21Z</time>
      </trkpt>
      <trkpt lat="45.7781" lon="5.57616">
        <ele>860.96342217801</ele>
        <time>2015-05-16T10:40:26Z</time>
      </trkpt>
      <trkpt lat="45.77802" lon="5.57611">
        <ele>860.96342217801</ele>
        <time>2015-05-16T10:40:31Z</time>
      </trkpt>
      <trkpt lat="45.77794" lon="5.57609">
        <ele>861.21517230661</ele>
        <time>2015-05-16T10:40:36Z</time>
      </trkpt>
      <trkpt lat="45.77784" lon="5.5761">
        <ele>861.25752508346</ele>
        <time>2015-05-16T10:40:41Z</time>
      </trkpt>
      <trkpt lat="45.7778" lon="5.5761">
        <ele>861.25752508346</ele>
        <time>2015-05-16T10:40:46Z</time>
      </trkpt>
      <trkpt lat="45.77777" lon="5.5761">
        <ele>861.25752508346</ele>
        <time>2015-05-16T10:40:51Z</time>
      </trkpt>
      <trkpt lat="45.7777" lon="5.57607">
        <ele>860.65358522168</ele>
        <time>2015-05-16T10:40:56Z</time>
      </trkpt>
      <trkpt lat="45.7776" lon="5.576">
        <ele>860.48876629702</ele>
        <time>2015-05-16T10:41:01Z</time>
      </trkpt>
      <trkpt lat="45.77753" lon="5.57594">
        <ele>860.48876629702</ele>
        <time>2015-05-16T10:41:06Z</time>
      </trkpt>
      <trkpt lat="45.7775" lon="5.57593">
        <ele>860.75693467806</ele>
        <time>2015-05-16T10:41:11Z</time>
      </trkpt>
      <trkpt lat="45.77742" lon="5.57594">
        <ele>860.75693467806</ele>
        <time>2015-05-16T10:41:16Z</time>
      </trkpt>
      <trkpt lat="45.77734" lon="5.57594">
        <ele>860.52207373946</ele>
        <time>2015-05-16T10:41:21Z</time>
      </trkpt>
      <trkpt lat="45.77725" lon="5.57596">
        <ele>860.52207373946</ele>
        <time>2015-05-16T10:41:26Z</time>
      </trkpt>
      <trkpt lat="45.77717" lon="5.576">
        <ele>859.27119703857</ele>
        <time>2015-05-16T10:41:31Z</time>
      </trkpt>
      <trkpt lat="45.77712" lon="5.57606">
        <ele>859.27119703857</ele>
        <time>2015-05-16T10:41:36Z</time>
      </trkpt>
      <trkpt lat="45.77705" lon="5.57612">
        <ele>858.70675435641</ele>
        <time>2015-05-16T10:41:41Z</time>
      </trkpt>
      <trkpt lat="45.77699" lon="5.57616">
        <ele>858.70675435641</ele>
        <time>2015-05-16T10:41:46Z</time>
      </trkpt>
      <trkpt lat="45.77692" lon="5.57617">
        <ele>857.87885220537</ele>
        <time>2015-05-16T10:41:51Z</time>
      </trkpt>
      <trkpt lat="45.77685" lon="5.57619">
        <ele>857.87885220537</ele>
        <time>2015-05-16T10:41:56Z</time>
      </trkpt>
      <trkpt lat="45.77678" lon="5.5762">
        <ele>857.6179424322</ele>
        <time>2015-05-16T10:42:01Z</time>
      </trkpt>
      <trkpt lat="45.77671" lon="5.57622">
        <ele>857.6179424322</ele>
        <time>2015-05-16T10:42:06Z</time>
      </trkpt>
      <trkpt lat="45.77668" lon="5.57623">
        <ele>857.47557958919</ele>
        <time>2015-05-16T10:42:11Z</time>
      </trkpt>
      <trkpt lat="45.7766" lon="5.57626">
        <ele>857.47557958919</ele>
        <time>2015-05-16T10:42:16Z</time>
      </trkpt>
      <trkpt lat="45.77653" lon="5.57629">
        <ele>856.82053589152</ele>
        <time>2015-05-16T10:42:21Z</time>
      </trkpt>
      <trkpt lat="45.77646" lon="5.57631">
        <ele>856.82053589152</ele>
        <time>2015-05-16T10:42:26Z</time>
      </trkpt>
      <trkpt lat="45.7764" lon="5.57635">
        <ele>856.22539478671</ele>
        <time>2015-05-16T10:42:31Z</time>
      </trkpt>
      <trkpt lat="45.77634" lon="5.57635">
        <ele>856.22539478671</ele>
        <time>2015-05-16T10:42:36Z</time>
      </trkpt>
      <trkpt lat="45.77628" lon="5.57637">
        <ele>857.1285255436</ele>
        <time>2015-05-16T10:42:41Z</time>
      </trkpt>
      <trkpt lat="45.77621" lon="5.57639">
        <ele>857.1285255436</ele>
        <time>2015-05-16T10:42:46Z</time>
      </trkpt>
      <trkpt lat="45.77614" lon="5.57643">
        <ele>858.17361611103</ele>
        <time>2015-05-16T10:42:51Z</time>
      </trkpt>
      <trkpt lat="45.77607" lon="5.57647">
        <ele>858.17361611103</ele>
        <time>2015-05-16T10:42:56Z</time>
      </trkpt>
      <trkpt lat="45.77601" lon="5.57649">
        <ele>859.56187891666</ele>
        <time>2015-05-16T10:43:01Z</time>
      </trkpt>
      <trkpt lat="45.77595" lon="5.57649">
        <ele>859.56187891666</ele>
        <time>2015-05-16T10:43:06Z</time>
      </trkpt>
      <trkpt lat="45.77588" lon="5.57647">
        <ele>860.64228294701</ele>
        <time>2015-05-16T10:43:11Z</time>
      </trkpt>
      <trkpt lat="45.77583" lon="5.57641">
        <ele>860.64228294701</ele>
        <time>2015-05-16T10:43:16Z</time>
      </trkpt>
      <trkpt lat="45.77584" lon="5.57632">
        <ele>860.84164434803</ele>
        <time>2015-05-16T10:43:21Z</time>
      </trkpt>
      <trkpt lat="45.77588" lon="5.57625">
        <ele>860.84164434803</ele>
        <time>2015-05-16T10:43:26Z</time>
      </trkpt>
      <trkpt lat="45.77591" lon="5.57619">
        <ele>860.69835235421</ele>
        <time>2015-05-16T10:43:31Z</time>
      </trkpt>
      <trkpt lat="45.77592" lon="5.57608">
        <ele>860.69835235421</ele>
        <time>2015-05-16T10:43:36Z</time>
      </trkpt>
      <trkpt lat="45.77588" lon="5.57601">
        <ele>860.82736174493</ele>
        <time>2015-05-16T10:43:41Z</time>
      </trkpt>
      <trkpt lat="45.77584" lon="5.57604">
        <ele>860.82736174493</ele>
        <time>2015-05-16T10:43:46Z</time>
      </trkpt>
      <trkpt lat="45.7758" lon="5.57609">
        <ele>861.59582504204</ele>
        <time>2015-05-16T10:43:51Z</time>
      </trkpt>
      <trkpt lat="45.77576" lon="5.57615">
        <ele>861.59582504204</ele>
        <time>2015-05-16T10:43:56Z</time>
      </trkpt>
      <trkpt lat="45.77571" lon="5.57625">
        <ele>862.18877331228</ele>
        <time>2015-05-16T10:44:01Z</time>
      </trkpt>
      <trkpt lat="45.77565" lon="5.57636">
        <ele>862.84648475785</ele>
        <time>2015-05-16T10:44:06Z</time>
      </trkpt>
      <trkpt lat="45.77559" lon="5.57644">
        <ele>862.84648475785</ele>
        <time>2015-05-16T10:44:11Z</time>
      </trkpt>
      <trkpt lat="45.77552" lon="5.5765">
        <ele>863.64728709671</ele>
        <time>2015-05-16T10:44:16Z</time>
      </trkpt>
      <trkpt lat="45.77547" lon="5.57655">
        <ele>863.64728709671</ele>
        <time>2015-05-16T10:44:21Z</time>
      </trkpt>
      <trkpt lat="45.77542" lon="5.57659">
        <ele>863.9712529152</ele>
        <time>2015-05-16T10:44:26Z</time>
      </trkpt>
      <trkpt lat="45.77537" lon="5.57666">
        <ele>863.9712529152</ele>
        <time>2015-05-16T10:44:31Z</time>
      </trkpt>
      <trkpt lat="45.77532" lon="5.57672">
        <ele>863.67794078455</ele>
        <time>2015-05-16T10:44:36Z</time>
      </trkpt>
      <trkpt lat="45.77532" lon="5.57673">
        <ele>863.67794078455</ele>
        <time>2015-05-16T10:44:41Z</time>
      </trkpt>
      <trkpt lat="45.77533" lon="5.57671">
        <ele>863.67794078455</ele>
        <time>2015-05-16T10:44:46Z</time>
      </trkpt>
      <trkpt lat="45.77531" lon="5.57674">
        <ele>863.67794078455</ele>
        <time>2015-05-16T10:44:51Z</time>
      </trkpt>
      <trkpt lat="45.77527" lon="5.5768">
        <ele>862.71112574583</ele>
        <time>2015-05-16T10:44:56Z</time>
      </trkpt>
      <trkpt lat="45.77526" lon="5.57682">
        <ele>862.71112574583</ele>
        <time>2015-05-16T10:45:01Z</time>
      </trkpt>
      <trkpt lat="45.77524" lon="5.57688">
        <ele>862.71112574583</ele>
        <time>2015-05-16T10:45:06Z</time>
      </trkpt>
      <trkpt lat="45.77521" lon="5.57693">
        <ele>862.27544944</ele>
        <time>2015-05-16T10:45:11Z</time>
      </trkpt>
      <trkpt lat="45.77517" lon="5.57701">
        <ele>862.27544944</ele>
        <time>2015-05-16T10:45:16Z</time>
      </trkpt>
      <trkpt lat="45.77512" lon="5.57711">
        <ele>861.65400839858</ele>
        <time>2015-05-16T10:45:21Z</time>
      </trkpt>
      <trkpt lat="45.77508" lon="5.57718">
        <ele>861.65400839858</ele>
        <time>2015-05-16T10:45:26Z</time>
      </trkpt>
      <trkpt lat="45.77504" lon="5.57724">
        <ele>861.20716763543</ele>
        <time>2015-05-16T10:45:31Z</time>
      </trkpt>
      <trkpt lat="45.775" lon="5.57729">
        <ele>861.20716763543</ele>
        <time>2015-05-16T10:45:36Z</time>
      </trkpt>
      <trkpt lat="45.77494" lon="5.57732">
        <ele>860.74912835328</ele>
        <time>2015-05-16T10:45:41Z</time>
      </trkpt>
      <trkpt lat="45.77488" lon="5.57735">
        <ele>860.74912835328</ele>
        <time>2015-05-16T10:45:46Z</time>
      </trkpt>
      <trkpt lat="45.77483" lon="5.57741">
        <ele>859.99241845015</ele>
        <time>2015-05-16T10:45:51Z</time>
      </trkpt>
      <trkpt lat="45.77478" lon="5.57747">
        <ele>859.99241845015</ele>
        <time>2015-05-16T10:45:56Z</time>
      </trkpt>
      <trkpt lat="45.77473" lon="5.57753">
        <ele>858.67157663612</ele>
        <time>2015-05-16T10:46:01Z</time>
      </trkpt>
      <trkpt lat="45.77469" lon="5.57757">
        <ele>858.67157663612</ele>
        <time>2015-05-16T10:46:06Z</time>
      </trkpt>
      <trkpt lat="45.77463" lon="5.57764">
        <ele>857.06156863706</ele>
        <time>2015-05-16T10:46:11Z</time>
      </trkpt>
      <trkpt lat="45.7746" lon="5.57771">
        <ele>857.06156863706</ele>
        <time>2015-05-16T10:46:16Z</time>
      </trkpt>
      <trkpt lat="45.77454" lon="5.57777">
        <ele>854.81216957048</ele>
        <time>2015-05-16T10:46:21Z</time>
      </trkpt>
      <trkpt lat="45.77448" lon="5.57782">
        <ele>854.81216957048</ele>
        <time>2015-05-16T10:46:26Z</time>
      </trkpt>
      <trkpt lat="45.77441" lon="5.57786">
        <ele>852.20654280641</ele>
        <time>2015-05-16T10:46:31Z</time>
      </trkpt>
      <trkpt lat="45.77434" lon="5.57786">
        <ele>852.20654280641</ele>
        <time>2015-05-16T10:46:36Z</time>
      </trkpt>
      <trkpt lat="45.77427" lon="5.57783">
        <ele>849.89744586654</ele>
        <time>2015-05-16T10:46:41Z</time>
      </trkpt>
      <trkpt lat="45.77421" lon="5.57779">
        <ele>849.89744586654</ele>
        <time>2015-05-16T10:46:46Z</time>
      </trkpt>
      <trkpt lat="45.77414" lon="5.57774">
        <ele>848.04160393065</ele>
        <time>2015-05-16T10:46:51Z</time>
      </trkpt>
      <trkpt lat="45.77407" lon="5.57772">
        <ele>848.04160393065</ele>
        <time>2015-05-16T10:46:56Z</time>
      </trkpt>
      <trkpt lat="45.77401" lon="5.57769">
        <ele>846.13387163545</ele>
        <time>2015-05-16T10:47:01Z</time>
      </trkpt>
      <trkpt lat="45.77396" lon="5.57767">
        <ele>846.13387163545</ele>
        <time>2015-05-16T10:47:06Z</time>
      </trkpt>
      <trkpt lat="45.77391" lon="5.57762">
        <ele>844.83129725832</ele>
        <time>2015-05-16T10:47:11Z</time>
      </trkpt>
      <trkpt lat="45.77386" lon="5.57755">
        <ele>844.83129725832</ele>
        <time>2015-05-16T10:47:16Z</time>
      </trkpt>
      <trkpt lat="45.77382" lon="5.57746">
        <ele>844.27929357686</ele>
        <time>2015-05-16T10:47:21Z</time>
      </trkpt>
      <trkpt lat="45.77376" lon="5.57743">
        <ele>844.27929357686</ele>
        <time>2015-05-16T10:47:26Z</time>
      </trkpt>
      <trkpt lat="45.77372" lon="5.5774">
        <ele>843.51444725546</ele>
        <time>2015-05-16T10:47:31Z</time>
      </trkpt>
      <trkpt lat="45.77369" lon="5.57734">
        <ele>843.51444725546</ele>
        <time>2015-05-16T10:47:36Z</time>
      </trkpt>
      <trkpt lat="45.77365" lon="5.57729">
        <ele>842.87052993991</ele>
        <time>2015-05-16T10:47:41Z</time>
      </trkpt>
      <trkpt lat="45.7736" lon="5.57723">
        <ele>842.87052993991</ele>
        <time>2015-05-16T10:47:46Z</time>
      </trkpt>
      <trkpt lat="45.77356" lon="5.57716">
        <ele>842.22376377122</ele>
        <time>2015-05-16T10:47:51Z</time>
      </trkpt>
      <trkpt lat="45.77351" lon="5.57711">
        <ele>842.22376377122</ele>
        <time>2015-05-16T10:47:56Z</time>
      </trkpt>
      <trkpt lat="45.77345" lon="5.57708">
        <ele>842.18035117925</ele>
        <time>2015-05-16T10:48:01Z</time>
      </trkpt>
      <trkpt lat="45.7734" lon="5.57703">
        <ele>842.18035117925</ele>
        <time>2015-05-16T10:48:06Z</time>
      </trkpt>
      <trkpt lat="45.77335" lon="5.57699">
        <ele>843.06942330959</ele>
        <time>2015-05-16T10:48:11Z</time>
      </trkpt>
      <trkpt lat="45.77332" lon="5.57702">
        <ele>843.06942330959</ele>
        <time>2015-05-16T10:48:16Z</time>
      </trkpt>
      <trkpt lat="45.77329" lon="5.57707">
        <ele>843.06942330959</ele>
        <time>2015-05-16T10:48:21Z</time>
      </trkpt>
      <trkpt lat="45.77325" lon="5.57713">
        <ele>844.53005691533</ele>
        <time>2015-05-16T10:48:26Z</time>
      </trkpt>
      <trkpt lat="45.77324" lon="5.57718">
        <ele>844.53005691533</ele>
        <time>2015-05-16T10:48:31Z</time>
      </trkpt>
      <trkpt lat="45.77319" lon="5.57724">
        <ele>846.03888537488</ele>
        <time>2015-05-16T10:48:36Z</time>
      </trkpt>
      <trkpt lat="45.77315" lon="5.57729">
        <ele>846.03888537488</ele>
        <time>2015-05-16T10:48:41Z</time>
      </trkpt>
      <trkpt lat="45.7731" lon="5.57735">
        <ele>847.2406815705</ele>
        <time>2015-05-16T10:48:46Z</time>
      </trkpt>
      <trkpt lat="45.77304" lon="5.57739">
        <ele>847.2406815705</ele>
        <time>2015-05-16T10:48:51Z</time>
      </trkpt>
      <trkpt lat="45.77297" lon="5.57741">
        <ele>847.53335745462</ele>
        <time>2015-05-16T10:48:56Z</time>
      </trkpt>
      <trkpt lat="45.77289" lon="5.5774">
        <ele>847.53335745462</ele>
        <time>2015-05-16T10:49:01Z</time>
      </trkpt>
      <trkpt lat="45.77283" lon="5.57741">
        <ele>847.64457331655</ele>
        <time>2015-05-16T10:49:06Z</time>
      </trkpt>
      <trkpt lat="45.77278" lon="5.57742">
        <ele>847.64457331655</ele>
        <time>2015-05-16T10:49:11Z</time>
      </trkpt>
      <trkpt lat="45.77272" lon="5.57741">
        <ele>848.50841111898</ele>
        <time>2015-05-16T10:49:16Z</time>
      </trkpt>
      <trkpt lat="45.77266" lon="5.57741">
        <ele>848.50841111898</ele>
        <time>2015-05-16T10:49:21Z</time>
      </trkpt>
      <trkpt lat="45.7726" lon="5.57738">
        <ele>849.24413506098</ele>
        <time>2015-05-16T10:49:26Z</time>
      </trkpt>
      <trkpt lat="45.77253" lon="5.57735">
        <ele>849.24413506098</ele>
        <time>2015-05-16T10:49:31Z</time>
      </trkpt>
      <trkpt lat="45.77245" lon="5.57732">
        <ele>850.44867872754</ele>
        <time>2015-05-16T10:49:36Z</time>
      </trkpt>
      <trkpt lat="45.77239" lon="5.5773">
        <ele>850.44867872754</ele>
        <time>2015-05-16T10:49:41Z</time>
      </trkpt>
      <trkpt lat="45.77233" lon="5.57729">
        <ele>851.56403396309</ele>
        <time>2015-05-16T10:49:46Z</time>
      </trkpt>
      <trkpt lat="45.77229" lon="5.57729">
        <ele>851.56403396309</ele>
        <time>2015-05-16T10:49:51Z</time>
      </trkpt>
      <trkpt lat="45.77226" lon="5.57729">
        <ele>851.56403396309</ele>
        <time>2015-05-16T10:49:56Z</time>
      </trkpt>
      <trkpt lat="45.77222" lon="5.57731">
        <ele>851.43939764814</ele>
        <time>2015-05-16T10:50:01Z</time>
      </trkpt>
      <trkpt lat="45.77218" lon="5.57734">
        <ele>851.43939764814</ele>
        <time>2015-05-16T10:50:06Z</time>
      </trkpt>
      <trkpt lat="45.77215" lon="5.57736">
        <ele>851.43939764814</ele>
        <time>2015-05-16T10:50:11Z</time>
      </trkpt>
      <trkpt lat="45.77209" lon="5.57741">
        <ele>850.48214441459</ele>
        <time>2015-05-16T10:50:16Z</time>
      </trkpt>
      <trkpt lat="45.77205" lon="5.57747">
        <ele>850.48214441459</ele>
        <time>2015-05-16T10:50:21Z</time>
      </trkpt>
      <trkpt lat="45.77199" lon="5.57752">
        <ele>848.89913708522</ele>
        <time>2015-05-16T10:50:26Z</time>
      </trkpt>
      <trkpt lat="45.77196" lon="5.57754">
        <ele>848.89913708522</ele>
        <time>2015-05-16T10:50:31Z</time>
      </trkpt>
      <trkpt lat="45.77195" lon="5.57754">
        <ele>848.89913708522</ele>
        <time>2015-05-16T10:50:36Z</time>
      </trkpt>
      <trkpt lat="45.77195" lon="5.57754">
        <ele>848.89913708522</ele>
        <time>2015-05-16T10:50:41Z</time>
      </trkpt>
      <trkpt lat="45.77195" lon="5.57754">
        <ele>848.89913708522</ele>
        <time>2015-05-16T10:50:46Z</time>
      </trkpt>
      <trkpt lat="45.77195" lon="5.57754">
        <ele>848.89913708522</ele>
        <time>2015-05-16T10:50:51Z</time>
      </trkpt>
      <trkpt lat="45.77192" lon="5.5776">
        <ele>847.35941667011</ele>
        <time>2015-05-16T10:50:56Z</time>
      </trkpt>
      <trkpt lat="45.77184" lon="5.57761">
        <ele>847.35941667011</ele>
        <time>2015-05-16T10:51:01Z</time>
      </trkpt>
      <trkpt lat="45.77174" lon="5.57757">
        <ele>845.70454411262</ele>
        <time>2015-05-16T10:51:06Z</time>
      </trkpt>
      <trkpt lat="45.77167" lon="5.57753">
        <ele>845.70454411262</ele>
        <time>2015-05-16T10:51:11Z</time>
      </trkpt>
      <trkpt lat="45.77161" lon="5.57751">
        <ele>844.6527636139</ele>
        <time>2015-05-16T10:51:16Z</time>
      </trkpt>
      <trkpt lat="45.77156" lon="5.57749">
        <ele>844.6527636139</ele>
        <time>2015-05-16T10:51:21Z</time>
      </trkpt>
      <trkpt lat="45.7715" lon="5.57746">
        <ele>843.48437915668</ele>
        <time>2015-05-16T10:51:26Z</time>
      </trkpt>
      <trkpt lat="45.77143" lon="5.57744">
        <ele>843.48437915668</ele>
        <time>2015-05-16T10:51:31Z</time>
      </trkpt>
      <trkpt lat="45.77136" lon="5.57741">
        <ele>842.18142266771</ele>
        <time>2015-05-16T10:51:36Z</time>
      </trkpt>
      <trkpt lat="45.7713" lon="5.57739">
        <ele>842.18142266771</ele>
        <time>2015-05-16T10:51:41Z</time>
      </trkpt>
      <trkpt lat="45.77124" lon="5.57738">
        <ele>840.33851825538</ele>
        <time>2015-05-16T10:51:46Z</time>
      </trkpt>
      <trkpt lat="45.77121" lon="5.57738">
        <ele>840.33851825538</ele>
        <time>2015-05-16T10:51:51Z</time>
      </trkpt>
      <trkpt lat="45.77118" lon="5.57738">
        <ele>840.33851825538</ele>
        <time>2015-05-16T10:51:56Z</time>
      </trkpt>
      <trkpt lat="45.77117" lon="5.57735">
        <ele>840.33851825538</ele>
        <time>2015-05-16T10:52:01Z</time>
      </trkpt>
      <trkpt lat="45.77116" lon="5.57734">
        <ele>839.62797542672</ele>
        <time>2015-05-16T10:52:06Z</time>
      </trkpt>
      <trkpt lat="45.77116" lon="5.57733">
        <ele>839.62797542672</ele>
        <time>2015-05-16T10:52:11Z</time>
      </trkpt>
      <trkpt lat="45.77116" lon="5.57733">
        <ele>839.62797542672</ele>
        <time>2015-05-16T10:52:16Z</time>
      </trkpt>
      <trkpt lat="45.77114" lon="5.57735">
        <ele>839.62797542672</ele>
        <time>2015-05-16T10:52:21Z</time>
      </trkpt>
      <trkpt lat="45.77112" lon="5.57735">
        <ele>839.62797542672</ele>
        <time>2015-05-16T10:52:26Z</time>
      </trkpt>
      <trkpt lat="45.7711" lon="5.57736">
        <ele>839.62797542672</ele>
        <time>2015-05-16T10:52:31Z</time>
      </trkpt>
      <trkpt lat="45.77109" lon="5.57737">
        <ele>839.62797542672</ele>
        <time>2015-05-16T10:52:36Z</time>
      </trkpt>
      <trkpt lat="45.77108" lon="5.57738">
        <ele>839.36231811033</ele>
        <time>2015-05-16T10:52:41Z</time>
      </trkpt>
      <trkpt lat="45.77108" lon="5.57737">
        <ele>839.36231811033</ele>
        <time>2015-05-16T10:52:46Z</time>
      </trkpt>
      <trkpt lat="45.77109" lon="5.57738">
        <ele>839.36231811033</ele>
        <time>2015-05-16T10:52:51Z</time>
      </trkpt>
      <trkpt lat="45.77109" lon="5.57737">
        <ele>839.36231811033</ele>
        <time>2015-05-16T10:52:56Z</time>
      </trkpt>
      <trkpt lat="45.77109" lon="5.57739">
        <ele>839.36231811033</ele>
        <time>2015-05-16T10:53:01Z</time>
      </trkpt>
      <trkpt lat="45.77109" lon="5.57739">
        <ele>839.36231811033</ele>
        <time>2015-05-16T10:53:06Z</time>
      </trkpt>
      <trkpt lat="45.77109" lon="5.57737">
        <ele>839.36231811033</ele>
        <time>2015-05-16T10:53:11Z</time>
      </trkpt>
      <trkpt lat="45.77109" lon="5.57737">
        <ele>839.36231811033</ele>
        <time>2015-05-16T10:53:16Z</time>
      </trkpt>
      <trkpt lat="45.77109" lon="5.57737">
        <ele>839.36231811033</ele>
        <time>2015-05-16T10:53:21Z</time>
      </trkpt>
      <trkpt lat="45.77109" lon="5.57737">
        <ele>839.36231811033</ele>
        <time>2015-05-16T10:53:26Z</time>
      </trkpt>
      <trkpt lat="45.77109" lon="5.57737">
        <ele>839.36231811033</ele>
        <time>2015-05-16T10:53:31Z</time>
      </trkpt>
      <trkpt lat="45.77109" lon="5.57737">
        <ele>839.36231811033</ele>
        <time>2015-05-16T10:53:36Z</time>
      </trkpt>
      <trkpt lat="45.77109" lon="5.57737">
        <ele>839.36231811033</ele>
        <time>2015-05-16T10:53:41Z</time>
      </trkpt>
      <trkpt lat="45.77109" lon="5.57737">
        <ele>839.36231811033</ele>
        <time>2015-05-16T10:53:46Z</time>
      </trkpt>
      <trkpt lat="45.77109" lon="5.57739">
        <ele>839.36231811033</ele>
        <time>2015-05-16T10:53:51Z</time>
      </trkpt>
      <trkpt lat="45.77109" lon="5.5774">
        <ele>839.36231811033</ele>
        <time>2015-05-16T10:53:56Z</time>
      </trkpt>
      <trkpt lat="45.77108" lon="5.5774">
        <ele>839.36231811033</ele>
        <time>2015-05-16T10:54:01Z</time>
      </trkpt>
      <trkpt lat="45.77108" lon="5.5774">
        <ele>839.36231811033</ele>
        <time>2015-05-16T10:54:06Z</time>
      </trkpt>
      <trkpt lat="45.77108" lon="5.5774">
        <ele>839.36231811033</ele>
        <time>2015-05-16T10:54:11Z</time>
      </trkpt>
      <trkpt lat="45.77108" lon="5.5774">
        <ele>839.36231811033</ele>
        <time>2015-05-16T10:54:16Z</time>
      </trkpt>
      <trkpt lat="45.77108" lon="5.57739">
        <ele>839.36231811033</ele>
        <time>2015-05-16T10:54:21Z</time>
      </trkpt>
      <trkpt lat="45.77105" lon="5.57737">
        <ele>839.88327660824</ele>
        <time>2015-05-16T10:54:26Z</time>
      </trkpt>
      <trkpt lat="45.77104" lon="5.57733">
        <ele>839.88327660824</ele>
        <time>2015-05-16T10:54:31Z</time>
      </trkpt>
      <trkpt lat="45.77103" lon="5.57731">
        <ele>839.88327660824</ele>
        <time>2015-05-16T10:54:36Z</time>
      </trkpt>
      <trkpt lat="45.77102" lon="5.5773">
        <ele>839.88327660824</ele>
        <time>2015-05-16T10:54:41Z</time>
      </trkpt>
      <trkpt lat="45.77101" lon="5.57727">
        <ele>839.88327660824</ele>
        <time>2015-05-16T10:54:46Z</time>
      </trkpt>
      <trkpt lat="45.771" lon="5.57725">
        <ele>840.59734859217</ele>
        <time>2015-05-16T10:54:51Z</time>
      </trkpt>
      <trkpt lat="45.77099" lon="5.57724">
        <ele>840.59734859217</ele>
        <time>2015-05-16T10:54:56Z</time>
      </trkpt>
      <trkpt lat="45.77099" lon="5.57724">
        <ele>840.59734859217</ele>
        <time>2015-05-16T10:55:01Z</time>
      </trkpt>
      <trkpt lat="45.77098" lon="5.57723">
        <ele>840.59734859217</ele>
        <time>2015-05-16T10:55:06Z</time>
      </trkpt>
      <trkpt lat="45.77098" lon="5.57721">
        <ele>840.59734859217</ele>
        <time>2015-05-16T10:55:11Z</time>
      </trkpt>
      <trkpt lat="45.77098" lon="5.57719">
        <ele>840.59734859217</ele>
        <time>2015-05-16T10:55:16Z</time>
      </trkpt>
      <trkpt lat="45.77098" lon="5.57719">
        <ele>840.59734859217</ele>
        <time>2015-05-16T10:55:21Z</time>
      </trkpt>
      <trkpt lat="45.77098" lon="5.57719">
        <ele>840.59734859217</ele>
        <time>2015-05-16T10:55:26Z</time>
      </trkpt>
      <trkpt lat="45.77096" lon="5.57718">
        <ele>840.59734859217</ele>
        <time>2015-05-16T10:55:31Z</time>
      </trkpt>
      <trkpt lat="45.77094" lon="5.57715">
        <ele>840.70908565361</ele>
        <time>2015-05-16T10:55:36Z</time>
      </trkpt>
      <trkpt lat="45.77092" lon="5.57714">
        <ele>840.70908565361</ele>
        <time>2015-05-16T10:55:41Z</time>
      </trkpt>
      <trkpt lat="45.77092" lon="5.57714">
        <ele>840.70908565361</ele>
        <time>2015-05-16T10:55:46Z</time>
      </trkpt>
      <trkpt lat="45.77092" lon="5.57714">
        <ele>840.70908565361</ele>
        <time>2015-05-16T10:55:51Z</time>
      </trkpt>
      <trkpt lat="45.77088" lon="5.57714">
        <ele>840.70908565361</ele>
        <time>2015-05-16T10:55:56Z</time>
      </trkpt>
      <trkpt lat="45.77084" lon="5.57713">
        <ele>840.89546504565</ele>
        <time>2015-05-16T10:56:01Z</time>
      </trkpt>
      <trkpt lat="45.77083" lon="5.57711">
        <ele>840.89546504565</ele>
        <time>2015-05-16T10:56:06Z</time>
      </trkpt>
      <trkpt lat="45.77082" lon="5.5771">
        <ele>840.89546504565</ele>
        <time>2015-05-16T10:56:11Z</time>
      </trkpt>
      <trkpt lat="45.77079" lon="5.57709">
        <ele>840.89546504565</ele>
        <time>2015-05-16T10:56:16Z</time>
      </trkpt>
      <trkpt lat="45.77074" lon="5.57707">
        <ele>840.60179959273</ele>
        <time>2015-05-16T10:56:21Z</time>
      </trkpt>
      <trkpt lat="45.77071" lon="5.57705">
        <ele>840.60179959273</ele>
        <time>2015-05-16T10:56:26Z</time>
      </trkpt>
      <trkpt lat="45.77069" lon="5.57705">
        <ele>840.60179959273</ele>
        <time>2015-05-16T10:56:31Z</time>
      </trkpt>
      <trkpt lat="45.77069" lon="5.57705">
        <ele>840.60179959273</ele>
        <time>2015-05-16T10:56:36Z</time>
      </trkpt>
      <trkpt lat="45.77068" lon="5.57705">
        <ele>840.60179959273</ele>
        <time>2015-05-16T10:56:41Z</time>
      </trkpt>
      <trkpt lat="45.77066" lon="5.57703">
        <ele>840.60179959273</ele>
        <time>2015-05-16T10:56:46Z</time>
      </trkpt>
      <trkpt lat="45.77063" lon="5.57703">
        <ele>839.47402305162</ele>
        <time>2015-05-16T10:56:51Z</time>
      </trkpt>
      <trkpt lat="45.7706" lon="5.57702">
        <ele>839.47402305162</ele>
        <time>2015-05-16T10:56:56Z</time>
      </trkpt>
      <trkpt lat="45.77058" lon="5.57701">
        <ele>839.47402305162</ele>
        <time>2015-05-16T10:57:01Z</time>
      </trkpt>
      <trkpt lat="45.77054" lon="5.57699">
        <ele>837.54670501124</ele>
        <time>2015-05-16T10:57:06Z</time>
      </trkpt>
      <trkpt lat="45.77048" lon="5.57697">
        <ele>837.54670501124</ele>
        <time>2015-05-16T10:57:11Z</time>
      </trkpt>
      <trkpt lat="45.77046" lon="5.57694">
        <ele>837.54670501124</ele>
        <time>2015-05-16T10:57:16Z</time>
      </trkpt>
      <trkpt lat="45.77045" lon="5.57693">
        <ele>835.68997908517</ele>
        <time>2015-05-16T10:57:21Z</time>
      </trkpt>
      <trkpt lat="45.77043" lon="5.57691">
        <ele>835.68997908517</ele>
        <time>2015-05-16T10:57:26Z</time>
      </trkpt>
      <trkpt lat="45.77042" lon="5.57689">
        <ele>835.68997908517</ele>
        <time>2015-05-16T10:57:31Z</time>
      </trkpt>
      <trkpt lat="45.77038" lon="5.57682">
        <ele>833.03812462359</ele>
        <time>2015-05-16T10:57:36Z</time>
      </trkpt>
      <trkpt lat="45.77035" lon="5.57677">
        <ele>833.03812462359</ele>
        <time>2015-05-16T10:57:41Z</time>
      </trkpt>
      <trkpt lat="45.7703" lon="5.57668">
        <ele>830.50618239227</ele>
        <time>2015-05-16T10:57:46Z</time>
      </trkpt>
      <trkpt lat="45.77025" lon="5.57664">
        <ele>830.50618239227</ele>
        <time>2015-05-16T10:57:51Z</time>
      </trkpt>
      <trkpt lat="45.7702" lon="5.57661">
        <ele>827.58692118081</ele>
        <time>2015-05-16T10:57:56Z</time>
      </trkpt>
      <trkpt lat="45.77018" lon="5.57655">
        <ele>827.58692118081</ele>
        <time>2015-05-16T10:58:01Z</time>
      </trkpt>
      <trkpt lat="45.77016" lon="5.5765">
        <ele>827.58692118081</ele>
        <time>2015-05-16T10:58:06Z</time>
      </trkpt>
      <trkpt lat="45.77014" lon="5.57644">
        <ele>824.83461569561</ele>
        <time>2015-05-16T10:58:11Z</time>
      </trkpt>
      <trkpt lat="45.77011" lon="5.57636">
        <ele>824.83461569561</ele>
        <time>2015-05-16T10:58:16Z</time>
      </trkpt>
      <trkpt lat="45.77008" lon="5.57622">
        <ele>822.38758592746</ele>
        <time>2015-05-16T10:58:21Z</time>
      </trkpt>
      <trkpt lat="45.77006" lon="5.57618">
        <ele>822.38758592746</ele>
        <time>2015-05-16T10:58:26Z</time>
      </trkpt>
      <trkpt lat="45.77006" lon="5.57617">
        <ele>822.38758592746</ele>
        <time>2015-05-16T10:58:31Z</time>
      </trkpt>
      <trkpt lat="45.77006" lon="5.57615">
        <ele>822.38758592746</ele>
        <time>2015-05-16T10:58:36Z</time>
      </trkpt>
      <trkpt lat="45.77006" lon="5.57612">
        <ele>822.38758592746</ele>
        <time>2015-05-16T10:58:41Z</time>
      </trkpt>
      <trkpt lat="45.77005" lon="5.5761">
        <ele>820.17128932486</ele>
        <time>2015-05-16T10:58:46Z</time>
      </trkpt>
      <trkpt lat="45.77005" lon="5.57606">
        <ele>820.17128932486</ele>
        <time>2015-05-16T10:58:51Z</time>
      </trkpt>
      <trkpt lat="45.77006" lon="5.57603">
        <ele>820.17128932486</ele>
        <time>2015-05-16T10:58:56Z</time>
      </trkpt>
      <trkpt lat="45.77005" lon="5.57601">
        <ele>820.17128932486</ele>
        <time>2015-05-16T10:59:01Z</time>
      </trkpt>
      <trkpt lat="45.77002" lon="5.57592">
        <ele>817.04946573701</ele>
        <time>2015-05-16T10:59:06Z</time>
      </trkpt>
      <trkpt lat="45.77" lon="5.57588">
        <ele>817.04946573701</ele>
        <time>2015-05-16T10:59:11Z</time>
      </trkpt>
      <trkpt lat="45.77" lon="5.57585">
        <ele>817.04946573701</ele>
        <time>2015-05-16T10:59:16Z</time>
      </trkpt>
      <trkpt lat="45.76999" lon="5.57581">
        <ele>817.04946573701</ele>
        <time>2015-05-16T10:59:21Z</time>
      </trkpt>
      <trkpt lat="45.76998" lon="5.57579">
        <ele>814.27759700216</ele>
        <time>2015-05-16T10:59:26Z</time>
      </trkpt>
      <trkpt lat="45.76997" lon="5.57575">
        <ele>814.27759700216</ele>
        <time>2015-05-16T10:59:31Z</time>
      </trkpt>
      <trkpt lat="45.76997" lon="5.57572">
        <ele>814.27759700216</ele>
        <time>2015-05-16T10:59:36Z</time>
      </trkpt>
      <trkpt lat="45.76997" lon="5.5757">
        <ele>814.27759700216</ele>
        <time>2015-05-16T10:59:41Z</time>
      </trkpt>
      <trkpt lat="45.76995" lon="5.57563">
        <ele>811.61992319148</ele>
        <time>2015-05-16T10:59:46Z</time>
      </trkpt>
      <trkpt lat="45.76994" lon="5.5756">
        <ele>811.61992319148</ele>
        <time>2015-05-16T10:59:51Z</time>
      </trkpt>
      <trkpt lat="45.76994" lon="5.5756">
        <ele>811.61992319148</ele>
        <time>2015-05-16T10:59:56Z</time>
      </trkpt>
      <trkpt lat="45.76994" lon="5.5756">
        <ele>811.61992319148</ele>
        <time>2015-05-16T11:00:01Z</time>
      </trkpt>
      <trkpt lat="45.76994" lon="5.5756">
        <ele>811.61992319148</ele>
        <time>2015-05-16T11:00:06Z</time>
      </trkpt>
      <trkpt lat="45.76994" lon="5.5756">
        <ele>811.61992319148</ele>
        <time>2015-05-16T11:00:11Z</time>
      </trkpt>
      <trkpt lat="45.76994" lon="5.5756">
        <ele>811.61992319148</ele>
        <time>2015-05-16T11:00:16Z</time>
      </trkpt>
      <trkpt lat="45.76994" lon="5.5756">
        <ele>811.61992319148</ele>
        <time>2015-05-16T11:00:21Z</time>
      </trkpt>
      <trkpt lat="45.76994" lon="5.5756">
        <ele>811.61992319148</ele>
        <time>2015-05-16T11:00:26Z</time>
      </trkpt>
      <trkpt lat="45.76994" lon="5.5756">
        <ele>811.61992319148</ele>
        <time>2015-05-16T11:00:31Z</time>
      </trkpt>
      <trkpt lat="45.76994" lon="5.57559">
        <ele>811.61992319148</ele>
        <time>2015-05-16T11:00:36Z</time>
      </trkpt>
      <trkpt lat="45.76994" lon="5.57559">
        <ele>811.61992319148</ele>
        <time>2015-05-16T11:00:41Z</time>
      </trkpt>
      <trkpt lat="45.76994" lon="5.57559">
        <ele>811.61992319148</ele>
        <time>2015-05-16T11:00:46Z</time>
      </trkpt>
      <trkpt lat="45.76994" lon="5.57559">
        <ele>811.61992319148</ele>
        <time>2015-05-16T11:00:51Z</time>
      </trkpt>
      <trkpt lat="45.76993" lon="5.57559">
        <ele>811.61992319148</ele>
        <time>2015-05-16T11:00:56Z</time>
      </trkpt>
      <trkpt lat="45.76991" lon="5.57558">
        <ele>811.61992319148</ele>
        <time>2015-05-16T11:01:01Z</time>
      </trkpt>
      <trkpt lat="45.76991" lon="5.57555">
        <ele>811.61992319148</ele>
        <time>2015-05-16T11:01:06Z</time>
      </trkpt>
      <trkpt lat="45.7699" lon="5.57553">
        <ele>808.0937493211</ele>
        <time>2015-05-16T11:01:11Z</time>
      </trkpt>
      <trkpt lat="45.7699" lon="5.57546">
        <ele>808.0937493211</ele>
        <time>2015-05-16T11:01:16Z</time>
      </trkpt>
      <trkpt lat="45.7699" lon="5.57539">
        <ele>804.64994726938</ele>
        <time>2015-05-16T11:01:21Z</time>
      </trkpt>
      <trkpt lat="45.7699" lon="5.57532">
        <ele>804.64994726938</ele>
        <time>2015-05-16T11:01:26Z</time>
      </trkpt>
      <trkpt lat="45.76989" lon="5.57525">
        <ele>800.55507352713</ele>
        <time>2015-05-16T11:01:31Z</time>
      </trkpt>
      <trkpt lat="45.76986" lon="5.57518">
        <ele>800.55507352713</ele>
        <time>2015-05-16T11:01:36Z</time>
      </trkpt>
      <trkpt lat="45.76985" lon="5.57514">
        <ele>800.55507352713</ele>
        <time>2015-05-16T11:01:41Z</time>
      </trkpt>
      <trkpt lat="45.76984" lon="5.57512">
        <ele>797.2497084599</ele>
        <time>2015-05-16T11:01:46Z</time>
      </trkpt>
      <trkpt lat="45.76984" lon="5.57512">
        <ele>797.2497084599</ele>
        <time>2015-05-16T11:01:51Z</time>
      </trkpt>
      <trkpt lat="45.76984" lon="5.57512">
        <ele>797.2497084599</ele>
        <time>2015-05-16T11:01:56Z</time>
      </trkpt>
      <trkpt lat="45.76984" lon="5.57506">
        <ele>797.2497084599</ele>
        <time>2015-05-16T11:02:01Z</time>
      </trkpt>
      <trkpt lat="45.76985" lon="5.57494">
        <ele>793.61627696225</ele>
        <time>2015-05-16T11:02:06Z</time>
      </trkpt>
      <trkpt lat="45.76984" lon="5.57486">
        <ele>793.61627696225</ele>
        <time>2015-05-16T11:02:11Z</time>
      </trkpt>
      <trkpt lat="45.7698" lon="5.57474">
        <ele>789.7297184473</ele>
        <time>2015-05-16T11:02:16Z</time>
      </trkpt>
      <trkpt lat="45.76976" lon="5.57462">
        <ele>786.63995606999</ele>
        <time>2015-05-16T11:02:21Z</time>
      </trkpt>
      <trkpt lat="45.76975" lon="5.57457">
        <ele>786.63995606999</ele>
        <time>2015-05-16T11:02:26Z</time>
      </trkpt>
      <trkpt lat="45.76974" lon="5.57456">
        <ele>786.63995606999</ele>
        <time>2015-05-16T11:02:31Z</time>
      </trkpt>
      <trkpt lat="45.76973" lon="5.57455">
        <ele>786.63995606999</ele>
        <time>2015-05-16T11:02:36Z</time>
      </trkpt>
      <trkpt lat="45.76973" lon="5.57454">
        <ele>786.63995606999</ele>
        <time>2015-05-16T11:02:41Z</time>
      </trkpt>
      <trkpt lat="45.76973" lon="5.57454">
        <ele>786.63995606999</ele>
        <time>2015-05-16T11:02:46Z</time>
      </trkpt>
      <trkpt lat="45.76973" lon="5.57454">
        <ele>786.63995606999</ele>
        <time>2015-05-16T11:02:51Z</time>
      </trkpt>
      <trkpt lat="45.76973" lon="5.57452">
        <ele>786.63995606999</ele>
        <time>2015-05-16T11:02:56Z</time>
      </trkpt>
      <trkpt lat="45.76972" lon="5.57449">
        <ele>784.92824313625</ele>
        <time>2015-05-16T11:03:01Z</time>
      </trkpt>
      <trkpt lat="45.76971" lon="5.57446">
        <ele>784.92824313625</ele>
        <time>2015-05-16T11:03:06Z</time>
      </trkpt>
      <trkpt lat="45.7697" lon="5.57445">
        <ele>784.92824313625</ele>
        <time>2015-05-16T11:03:11Z</time>
      </trkpt>
      <trkpt lat="45.7697" lon="5.57445">
        <ele>784.92824313625</ele>
        <time>2015-05-16T11:03:16Z</time>
      </trkpt>
      <trkpt lat="45.76971" lon="5.57445">
        <ele>784.92824313625</ele>
        <time>2015-05-16T11:03:21Z</time>
      </trkpt>
      <trkpt lat="45.76971" lon="5.57445">
        <ele>784.92824313625</ele>
        <time>2015-05-16T11:03:26Z</time>
      </trkpt>
      <trkpt lat="45.76969" lon="5.57439">
        <ele>784.92824313625</ele>
        <time>2015-05-16T11:03:31Z</time>
      </trkpt>
      <trkpt lat="45.76966" lon="5.57428">
        <ele>782.66473574588</ele>
        <time>2015-05-16T11:03:36Z</time>
      </trkpt>
      <trkpt lat="45.76964" lon="5.57424">
        <ele>782.66473574588</ele>
        <time>2015-05-16T11:03:41Z</time>
      </trkpt>
      <trkpt lat="45.76963" lon="5.57421">
        <ele>782.66473574588</ele>
        <time>2015-05-16T11:03:46Z</time>
      </trkpt>
      <trkpt lat="45.76963" lon="5.57421">
        <ele>782.66473574588</ele>
        <time>2015-05-16T11:03:51Z</time>
      </trkpt>
      <trkpt lat="45.76963" lon="5.5742">
        <ele>782.66473574588</ele>
        <time>2015-05-16T11:03:56Z</time>
      </trkpt>
      <trkpt lat="45.76961" lon="5.57414">
        <ele>779.34532190812</ele>
        <time>2015-05-16T11:04:01Z</time>
      </trkpt>
      <trkpt lat="45.7696" lon="5.5741">
        <ele>779.34532190812</ele>
        <time>2015-05-16T11:04:06Z</time>
      </trkpt>
      <trkpt lat="45.76957" lon="5.57405">
        <ele>779.34532190812</ele>
        <time>2015-05-16T11:04:11Z</time>
      </trkpt>
      <trkpt lat="45.76954" lon="5.57402">
        <ele>777.09972149026</ele>
        <time>2015-05-16T11:04:16Z</time>
      </trkpt>
      <trkpt lat="45.7695" lon="5.574">
        <ele>777.09972149026</ele>
        <time>2015-05-16T11:04:21Z</time>
      </trkpt>
      <trkpt lat="45.76944" lon="5.57394">
        <ele>774.81398990023</ele>
        <time>2015-05-16T11:04:26Z</time>
      </trkpt>
      <trkpt lat="45.76938" lon="5.57395">
        <ele>774.81398990023</ele>
        <time>2015-05-16T11:04:31Z</time>
      </trkpt>
      <trkpt lat="45.76933" lon="5.57391">
        <ele>773.31499733418</ele>
        <time>2015-05-16T11:04:36Z</time>
      </trkpt>
      <trkpt lat="45.76928" lon="5.57395">
        <ele>773.31499733418</ele>
        <time>2015-05-16T11:04:41Z</time>
      </trkpt>
      <trkpt lat="45.76925" lon="5.57408">
        <ele>772.74680761177</ele>
        <time>2015-05-16T11:04:46Z</time>
      </trkpt>
      <trkpt lat="45.7692" lon="5.5742">
        <ele>772.07282388977</ele>
        <time>2015-05-16T11:04:51Z</time>
      </trkpt>
      <trkpt lat="45.7692" lon="5.57423">
        <ele>772.07282388977</ele>
        <time>2015-05-16T11:04:56Z</time>
      </trkpt>
      <trkpt lat="45.76917" lon="5.5743">
        <ele>772.07282388977</ele>
        <time>2015-05-16T11:05:01Z</time>
      </trkpt>
      <trkpt lat="45.76916" lon="5.57433">
        <ele>771.1253688747</ele>
        <time>2015-05-16T11:05:06Z</time>
      </trkpt>
      <trkpt lat="45.76915" lon="5.57435">
        <ele>771.1253688747</ele>
        <time>2015-05-16T11:05:11Z</time>
      </trkpt>
      <trkpt lat="45.76915" lon="5.57435">
        <ele>771.1253688747</ele>
        <time>2015-05-16T11:05:16Z</time>
      </trkpt>
      <trkpt lat="45.76915" lon="5.57435">
        <ele>771.1253688747</ele>
        <time>2015-05-16T11:05:21Z</time>
      </trkpt>
      <trkpt lat="45.76912" lon="5.57444">
        <ele>771.1253688747</ele>
        <time>2015-05-16T11:05:26Z</time>
      </trkpt>
      <trkpt lat="45.76904" lon="5.57461">
        <ele>769.5911991233</ele>
        <time>2015-05-16T11:05:31Z</time>
      </trkpt>
      <trkpt lat="45.76896" lon="5.57482">
        <ele>768.36333079665</ele>
        <time>2015-05-16T11:05:36Z</time>
      </trkpt>
      <trkpt lat="45.76894" lon="5.57494">
        <ele>768.36333079665</ele>
        <time>2015-05-16T11:05:41Z</time>
      </trkpt>
      <trkpt lat="45.76892" lon="5.575">
        <ele>768.08087450598</ele>
        <time>2015-05-16T11:05:46Z</time>
      </trkpt>
      <trkpt lat="45.76891" lon="5.57501">
        <ele>768.08087450598</ele>
        <time>2015-05-16T11:05:51Z</time>
      </trkpt>
      <trkpt lat="45.76891" lon="5.57501">
        <ele>768.08087450598</ele>
        <time>2015-05-16T11:05:56Z</time>
      </trkpt>
      <trkpt lat="45.7689" lon="5.57502">
        <ele>768.08087450598</ele>
        <time>2015-05-16T11:06:01Z</time>
      </trkpt>
      <trkpt lat="45.76882" lon="5.57511">
        <ele>768.82886612482</ele>
        <time>2015-05-16T11:06:06Z</time>
      </trkpt>
      <trkpt lat="45.7687" lon="5.5753">
        <ele>768.75204555843</ele>
        <time>2015-05-16T11:06:11Z</time>
      </trkpt>
      <trkpt lat="45.76857" lon="5.57552">
        <ele>769.13122564384</ele>
        <time>2015-05-16T11:06:16Z</time>
      </trkpt>
      <trkpt lat="45.76843" lon="5.57568">
        <ele>769.24955514989</ele>
        <time>2015-05-16T11:06:21Z</time>
      </trkpt>
      <trkpt lat="45.76836" lon="5.57577">
        <ele>769.50999142348</ele>
        <time>2015-05-16T11:06:26Z</time>
      </trkpt>
      <trkpt lat="45.76832" lon="5.57579">
        <ele>769.50999142348</ele>
        <time>2015-05-16T11:06:31Z</time>
      </trkpt>
      <trkpt lat="45.7683" lon="5.57581">
        <ele>769.50999142348</ele>
        <time>2015-05-16T11:06:36Z</time>
      </trkpt>
      <trkpt lat="45.76828" lon="5.57582">
        <ele>769.50999142348</ele>
        <time>2015-05-16T11:06:41Z</time>
      </trkpt>
      <trkpt lat="45.76828" lon="5.57583">
        <ele>769.50999142348</ele>
        <time>2015-05-16T11:06:46Z</time>
      </trkpt>
      <trkpt lat="45.76826" lon="5.57586">
        <ele>769.29113378548</ele>
        <time>2015-05-16T11:06:51Z</time>
      </trkpt>
      <trkpt lat="45.76821" lon="5.57589">
        <ele>769.29113378548</ele>
        <time>2015-05-16T11:06:56Z</time>
      </trkpt>
      <trkpt lat="45.76816" lon="5.57591">
        <ele>769.79116804733</ele>
        <time>2015-05-16T11:07:01Z</time>
      </trkpt>
      <trkpt lat="45.76806" lon="5.57597">
        <ele>769.71162696814</ele>
        <time>2015-05-16T11:07:06Z</time>
      </trkpt>
      <trkpt lat="45.768" lon="5.57603">
        <ele>769.71162696814</ele>
        <time>2015-05-16T11:07:11Z</time>
      </trkpt>
      <trkpt lat="45.7679" lon="5.57612">
        <ele>769.55161834088</ele>
        <time>2015-05-16T11:07:16Z</time>
      </trkpt>
      <trkpt lat="45.76783" lon="5.57622">
        <ele>769.21184000798</ele>
        <time>2015-05-16T11:07:21Z</time>
      </trkpt>
      <trkpt lat="45.76778" lon="5.57631">
        <ele>769.21184000798</ele>
        <time>2015-05-16T11:07:26Z</time>
      </trkpt>
      <trkpt lat="45.76773" lon="5.57638">
        <ele>768.52880377927</ele>
        <time>2015-05-16T11:07:31Z</time>
      </trkpt>
      <trkpt lat="45.7677" lon="5.57641">
        <ele>768.52880377927</ele>
        <time>2015-05-16T11:07:36Z</time>
      </trkpt>
      <trkpt lat="45.76768" lon="5.57643">
        <ele>768.52880377927</ele>
        <time>2015-05-16T11:07:41Z</time>
      </trkpt>
      <trkpt lat="45.76767" lon="5.57644">
        <ele>768.52880377927</ele>
        <time>2015-05-16T11:07:46Z</time>
      </trkpt>
      <trkpt lat="45.76765" lon="5.57646">
        <ele>767.26560264416</ele>
        <time>2015-05-16T11:07:51Z</time>
      </trkpt>
      <trkpt lat="45.76759" lon="5.5765">
        <ele>767.26560264416</ele>
        <time>2015-05-16T11:07:56Z</time>
      </trkpt>
      <trkpt lat="45.76755" lon="5.57658">
        <ele>766.06910487275</ele>
        <time>2015-05-16T11:08:01Z</time>
      </trkpt>
      <trkpt lat="45.7675" lon="5.57663">
        <ele>766.06910487275</ele>
        <time>2015-05-16T11:08:06Z</time>
      </trkpt>
      <trkpt lat="45.76744" lon="5.57669">
        <ele>764.11184798594</ele>
        <time>2015-05-16T11:08:11Z</time>
      </trkpt>
      <trkpt lat="45.76738" lon="5.57676">
        <ele>764.11184798594</ele>
        <time>2015-05-16T11:08:16Z</time>
      </trkpt>
      <trkpt lat="45.76734" lon="5.57685">
        <ele>761.75342709764</ele>
        <time>2015-05-16T11:08:21Z</time>
      </trkpt>
      <trkpt lat="45.76731" lon="5.57693">
        <ele>761.75342709764</ele>
        <time>2015-05-16T11:08:26Z</time>
      </trkpt>
      <trkpt lat="45.76726" lon="5.57694">
        <ele>759.03998765772</ele>
        <time>2015-05-16T11:08:31Z</time>
      </trkpt>
      <trkpt lat="45.76719" lon="5.57695">
        <ele>759.03998765772</ele>
        <time>2015-05-16T11:08:36Z</time>
      </trkpt>
      <trkpt lat="45.76717" lon="5.57695">
        <ele>756.59177929195</ele>
        <time>2015-05-16T11:08:41Z</time>
      </trkpt>
      <trkpt lat="45.76711" lon="5.57693">
        <ele>756.59177929195</ele>
        <time>2015-05-16T11:08:46Z</time>
      </trkpt>
      <trkpt lat="45.76702" lon="5.5769">
        <ele>754.04606280002</ele>
        <time>2015-05-16T11:08:51Z</time>
      </trkpt>
      <trkpt lat="45.76694" lon="5.57688">
        <ele>754.04606280002</ele>
        <time>2015-05-16T11:08:56Z</time>
      </trkpt>
      <trkpt lat="45.76689" lon="5.57683">
        <ele>752.09023962462</ele>
        <time>2015-05-16T11:09:01Z</time>
      </trkpt>
      <trkpt lat="45.76684" lon="5.57682">
        <ele>752.09023962462</ele>
        <time>2015-05-16T11:09:06Z</time>
      </trkpt>
      <trkpt lat="45.76675" lon="5.57682">
        <ele>749.9184686948</ele>
        <time>2015-05-16T11:09:11Z</time>
      </trkpt>
      <trkpt lat="45.76666" lon="5.57681">
        <ele>747.60615814621</ele>
        <time>2015-05-16T11:09:16Z</time>
      </trkpt>
      <trkpt lat="45.76657" lon="5.57675">
        <ele>747.60615814621</ele>
        <time>2015-05-16T11:09:21Z</time>
      </trkpt>
      <trkpt lat="45.76655" lon="5.5767">
        <ele>744.84888634132</ele>
        <time>2015-05-16T11:09:26Z</time>
      </trkpt>
      <trkpt lat="45.76651" lon="5.57649">
        <ele>741.74052796375</ele>
        <time>2015-05-16T11:09:36Z</time>
      </trkpt>
      <trkpt lat="45.76642" lon="5.5764">
        <ele>739.39222424468</ele>
        <time>2015-05-16T11:09:41Z</time>
      </trkpt>
      <trkpt lat="45.76633" lon="5.57633">
        <ele>737.14523782987</ele>
        <time>2015-05-16T11:09:46Z</time>
      </trkpt>
      <trkpt lat="45.76625" lon="5.57627">
        <ele>737.14523782987</ele>
        <time>2015-05-16T11:09:51Z</time>
      </trkpt>
      <trkpt lat="45.76618" lon="5.57626">
        <ele>734.74918741287</ele>
        <time>2015-05-16T11:09:56Z</time>
      </trkpt>
      <trkpt lat="45.76611" lon="5.57621">
        <ele>734.74918741287</ele>
        <time>2015-05-16T11:10:01Z</time>
      </trkpt>
      <trkpt lat="45.76604" lon="5.57619">
        <ele>732.57773618209</ele>
        <time>2015-05-16T11:10:06Z</time>
      </trkpt>
      <trkpt lat="45.766" lon="5.57613">
        <ele>732.57773618209</ele>
        <time>2015-05-16T11:10:11Z</time>
      </trkpt>
      <trkpt lat="45.76598" lon="5.57612">
        <ele>732.57773618209</ele>
        <time>2015-05-16T11:10:16Z</time>
      </trkpt>
      <trkpt lat="45.76592" lon="5.57611">
        <ele>731.27906571189</ele>
        <time>2015-05-16T11:10:21Z</time>
      </trkpt>
      <trkpt lat="45.76586" lon="5.57609">
        <ele>731.27906571189</ele>
        <time>2015-05-16T11:10:26Z</time>
      </trkpt>
      <trkpt lat="45.76576" lon="5.57608">
        <ele>729.6642774096</ele>
        <time>2015-05-16T11:10:31Z</time>
      </trkpt>
      <trkpt lat="45.76565" lon="5.57605">
        <ele>728.13141628542</ele>
        <time>2015-05-16T11:10:36Z</time>
      </trkpt>
      <trkpt lat="45.76556" lon="5.57599">
        <ele>726.87609063114</ele>
        <time>2015-05-16T11:10:41Z</time>
      </trkpt>
      <trkpt lat="45.76549" lon="5.57593">
        <ele>726.87609063114</ele>
        <time>2015-05-16T11:10:46Z</time>
      </trkpt>
      <trkpt lat="45.76542" lon="5.57589">
        <ele>725.74727598061</ele>
        <time>2015-05-16T11:10:51Z</time>
      </trkpt>
      <trkpt lat="45.76533" lon="5.57589">
        <ele>725.74727598061</ele>
        <time>2015-05-16T11:10:56Z</time>
      </trkpt>
      <trkpt lat="45.76522" lon="5.5759">
        <ele>724.48937330821</ele>
        <time>2015-05-16T11:11:01Z</time>
      </trkpt>
      <trkpt lat="45.76512" lon="5.57591">
        <ele>723.65851423723</ele>
        <time>2015-05-16T11:11:06Z</time>
      </trkpt>
      <trkpt lat="45.76503" lon="5.57588">
        <ele>722.78880939271</ele>
        <time>2015-05-16T11:11:11Z</time>
      </trkpt>
      <trkpt lat="45.76491" lon="5.57577">
        <ele>721.95308449777</ele>
        <time>2015-05-16T11:11:16Z</time>
      </trkpt>
      <trkpt lat="45.76489" lon="5.57566">
        <ele>721.95308449777</ele>
        <time>2015-05-16T11:11:21Z</time>
      </trkpt>
      <trkpt lat="45.76488" lon="5.57551">
        <ele>721.26195315359</ele>
        <time>2015-05-16T11:11:26Z</time>
      </trkpt>
      <trkpt lat="45.7649" lon="5.57525">
        <ele>720.81750473114</ele>
        <time>2015-05-16T11:11:31Z</time>
      </trkpt>
      <trkpt lat="45.7649" lon="5.57509">
        <ele>720.46866278345</ele>
        <time>2015-05-16T11:11:36Z</time>
      </trkpt>
      <trkpt lat="45.76489" lon="5.57497">
        <ele>720.46866278345</ele>
        <time>2015-05-16T11:11:41Z</time>
      </trkpt>
      <trkpt lat="45.76488" lon="5.57489">
        <ele>720.11843671094</ele>
        <time>2015-05-16T11:11:46Z</time>
      </trkpt>
      <trkpt lat="45.76487" lon="5.57483">
        <ele>720.11843671094</ele>
        <time>2015-05-16T11:11:51Z</time>
      </trkpt>
      <trkpt lat="45.76485" lon="5.57473">
        <ele>719.61935083293</ele>
        <time>2015-05-16T11:11:56Z</time>
      </trkpt>
      <trkpt lat="45.76483" lon="5.57463">
        <ele>719.61935083293</ele>
        <time>2015-05-16T11:12:01Z</time>
      </trkpt>
      <trkpt lat="45.7648" lon="5.57448">
        <ele>719.29637487086</ele>
        <time>2015-05-16T11:12:06Z</time>
      </trkpt>
      <trkpt lat="45.76478" lon="5.57435">
        <ele>719.13311377558</ele>
        <time>2015-05-16T11:12:11Z</time>
      </trkpt>
      <trkpt lat="45.76477" lon="5.57419">
        <ele>719.08515984813</ele>
        <time>2015-05-16T11:12:16Z</time>
      </trkpt>
      <trkpt lat="45.76476" lon="5.57411">
        <ele>719.08515984813</ele>
        <time>2015-05-16T11:12:21Z</time>
      </trkpt>
      <trkpt lat="45.76478" lon="5.57404">
        <ele>718.83729293589</ele>
        <time>2015-05-16T11:12:26Z</time>
      </trkpt>
      <trkpt lat="45.76479" lon="5.57399">
        <ele>718.83729293589</ele>
        <time>2015-05-16T11:12:31Z</time>
      </trkpt>
      <trkpt lat="45.76481" lon="5.57397">
        <ele>718.83729293589</ele>
        <time>2015-05-16T11:12:36Z</time>
      </trkpt>
      <trkpt lat="45.76489" lon="5.57395">
        <ele>718.45835407408</ele>
        <time>2015-05-16T11:12:41Z</time>
      </trkpt>
      <trkpt lat="45.76493" lon="5.57388">
        <ele>718.45835407408</ele>
        <time>2015-05-16T11:12:46Z</time>
      </trkpt>
      <trkpt lat="45.76492" lon="5.57374">
        <ele>717.42171011514</ele>
        <time>2015-05-16T11:12:51Z</time>
      </trkpt>
      <trkpt lat="45.76489" lon="5.57362">
        <ele>716.25011061104</ele>
        <time>2015-05-16T11:12:56Z</time>
      </trkpt>
      <trkpt lat="45.76488" lon="5.57355">
        <ele>716.25011061104</ele>
        <time>2015-05-16T11:13:01Z</time>
      </trkpt>
      <trkpt lat="45.76486" lon="5.57348">
        <ele>715.60129016444</ele>
        <time>2015-05-16T11:13:06Z</time>
      </trkpt>
      <trkpt lat="45.76486" lon="5.57347">
        <ele>715.60129016444</ele>
        <time>2015-05-16T11:13:11Z</time>
      </trkpt>
      <trkpt lat="45.76483" lon="5.57343">
        <ele>715.60129016444</ele>
        <time>2015-05-16T11:13:16Z</time>
      </trkpt>
      <trkpt lat="45.76481" lon="5.57346">
        <ele>715.60129016444</ele>
        <time>2015-05-16T11:13:21Z</time>
      </trkpt>
      <trkpt lat="45.7648" lon="5.57353">
        <ele>716.51560956787</ele>
        <time>2015-05-16T11:13:26Z</time>
      </trkpt>
      <trkpt lat="45.76478" lon="5.57356">
        <ele>716.51560956787</ele>
        <time>2015-05-16T11:13:31Z</time>
      </trkpt>
      <trkpt lat="45.76477" lon="5.5736">
        <ele>716.51560956787</ele>
        <time>2015-05-16T11:13:36Z</time>
      </trkpt>
      <trkpt lat="45.76474" lon="5.57363">
        <ele>717.4019322316</ele>
        <time>2015-05-16T11:13:41Z</time>
      </trkpt>
      <trkpt lat="45.76472" lon="5.5737">
        <ele>717.4019322316</ele>
        <time>2015-05-16T11:13:46Z</time>
      </trkpt>
      <trkpt lat="45.76469" lon="5.57379">
        <ele>718.29933829083</ele>
        <time>2015-05-16T11:13:51Z</time>
      </trkpt>
      <trkpt lat="45.76468" lon="5.57389">
        <ele>718.29933829083</ele>
        <time>2015-05-16T11:13:56Z</time>
      </trkpt>
      <trkpt lat="45.76466" lon="5.57399">
        <ele>719.27292542678</ele>
        <time>2015-05-16T11:14:01Z</time>
      </trkpt>
      <trkpt lat="45.76465" lon="5.5741">
        <ele>719.27292542678</ele>
        <time>2015-05-16T11:14:06Z</time>
      </trkpt>
      <trkpt lat="45.76466" lon="5.5742">
        <ele>721.40609550543</ele>
        <time>2015-05-16T11:14:11Z</time>
      </trkpt>
      <trkpt lat="45.76464" lon="5.57426">
        <ele>721.40609550543</ele>
        <time>2015-05-16T11:14:16Z</time>
      </trkpt>
      <trkpt lat="45.76464" lon="5.57428">
        <ele>721.40609550543</ele>
        <time>2015-05-16T11:14:21Z</time>
      </trkpt>
      <trkpt lat="45.76462" lon="5.57429">
        <ele>721.40609550543</ele>
        <time>2015-05-16T11:14:26Z</time>
      </trkpt>
      <trkpt lat="45.76461" lon="5.57431">
        <ele>723.30728996984</ele>
        <time>2015-05-16T11:14:31Z</time>
      </trkpt>
      <trkpt lat="45.76444" lon="5.57449">
        <ele>723.02504715795</ele>
        <time>2015-05-16T11:14:36Z</time>
      </trkpt>
      <trkpt lat="45.76428" lon="5.57466">
        <ele>722.85028381191</ele>
        <time>2015-05-16T11:14:41Z</time>
      </trkpt>
      <trkpt lat="45.76415" lon="5.57479">
        <ele>722.98879470987</ele>
        <time>2015-05-16T11:14:46Z</time>
      </trkpt>
      <trkpt lat="45.76404" lon="5.5749">
        <ele>723.42877042814</ele>
        <time>2015-05-16T11:14:51Z</time>
      </trkpt>
      <trkpt lat="45.76399" lon="5.57495">
        <ele>723.42877042814</ele>
        <time>2015-05-16T11:14:56Z</time>
      </trkpt>
      <trkpt lat="45.76396" lon="5.57498">
        <ele>724.6341375331</ele>
        <time>2015-05-16T11:15:01Z</time>
      </trkpt>
      <trkpt lat="45.76394" lon="5.57499">
        <ele>724.6341375331</ele>
        <time>2015-05-16T11:15:06Z</time>
      </trkpt>
      <trkpt lat="45.76384" lon="5.57502">
        <ele>725.30340955268</ele>
        <time>2015-05-16T11:15:11Z</time>
      </trkpt>
      <trkpt lat="45.76376" lon="5.57503">
        <ele>725.30340955268</ele>
        <time>2015-05-16T11:15:16Z</time>
      </trkpt>
      <trkpt lat="45.7637" lon="5.57507">
        <ele>726.01933877515</ele>
        <time>2015-05-16T11:15:21Z</time>
      </trkpt>
      <trkpt lat="45.76364" lon="5.57507">
        <ele>726.01933877515</ele>
        <time>2015-05-16T11:15:26Z</time>
      </trkpt>
      <trkpt lat="45.76355" lon="5.57516">
        <ele>727.52364724591</ele>
        <time>2015-05-16T11:15:31Z</time>
      </trkpt>
      <trkpt lat="45.7635" lon="5.5752">
        <ele>727.52364724591</ele>
        <time>2015-05-16T11:15:36Z</time>
      </trkpt>
      <trkpt lat="45.76348" lon="5.57523">
        <ele>727.52364724591</ele>
        <time>2015-05-16T11:15:41Z</time>
      </trkpt>
      <trkpt lat="45.76347" lon="5.57523">
        <ele>729.37745013256</ele>
        <time>2015-05-16T11:15:46Z</time>
      </trkpt>
      <trkpt lat="45.76344" lon="5.57527">
        <ele>729.37745013256</ele>
        <time>2015-05-16T11:15:51Z</time>
      </trkpt>
      <trkpt lat="45.76327" lon="5.57546">
        <ele>730.51037340176</ele>
        <time>2015-05-16T11:15:56Z</time>
      </trkpt>
      <trkpt lat="45.76313" lon="5.57562">
        <ele>731.17221660696</ele>
        <time>2015-05-16T11:16:01Z</time>
      </trkpt>
      <trkpt lat="45.76301" lon="5.57568">
        <ele>731.3797520395</ele>
        <time>2015-05-16T11:16:06Z</time>
      </trkpt>
      <trkpt lat="45.7629" lon="5.57575">
        <ele>731.89933979294</ele>
        <time>2015-05-16T11:16:11Z</time>
      </trkpt>
      <trkpt lat="45.76279" lon="5.57578">
        <ele>732.50360944302</ele>
        <time>2015-05-16T11:16:16Z</time>
      </trkpt>
      <trkpt lat="45.7627" lon="5.57575">
        <ele>733.0971037469</ele>
        <time>2015-05-16T11:16:21Z</time>
      </trkpt>
      <trkpt lat="45.76261" lon="5.57573">
        <ele>733.0971037469</ele>
        <time>2015-05-16T11:16:26Z</time>
      </trkpt>
      <trkpt lat="45.76249" lon="5.57581">
        <ele>733.93742995766</ele>
        <time>2015-05-16T11:16:31Z</time>
      </trkpt>
      <trkpt lat="45.76243" lon="5.57585">
        <ele>733.93742995766</ele>
        <time>2015-05-16T11:16:36Z</time>
      </trkpt>
      <trkpt lat="45.76238" lon="5.57587">
        <ele>734.85921997691</ele>
        <time>2015-05-16T11:16:41Z</time>
      </trkpt>
      <trkpt lat="45.76234" lon="5.57587">
        <ele>734.85921997691</ele>
        <time>2015-05-16T11:16:46Z</time>
      </trkpt>
      <trkpt lat="45.76232" lon="5.57588">
        <ele>734.85921997691</ele>
        <time>2015-05-16T11:16:51Z</time>
      </trkpt>
      <trkpt lat="45.76225" lon="5.5759">
        <ele>736.64589845966</ele>
        <time>2015-05-16T11:16:56Z</time>
      </trkpt>
      <trkpt lat="45.76217" lon="5.57596">
        <ele>736.64589845966</ele>
        <time>2015-05-16T11:17:01Z</time>
      </trkpt>
      <trkpt lat="45.7621" lon="5.57604">
        <ele>738.16203041233</ele>
        <time>2015-05-16T11:17:06Z</time>
      </trkpt>
      <trkpt lat="45.76206" lon="5.57609">
        <ele>738.16203041233</ele>
        <time>2015-05-16T11:17:11Z</time>
      </trkpt>
      <trkpt lat="45.76198" lon="5.57617">
        <ele>739.12028828532</ele>
        <time>2015-05-16T11:17:16Z</time>
      </trkpt>
      <trkpt lat="45.76192" lon="5.57624">
        <ele>739.12028828532</ele>
        <time>2015-05-16T11:17:21Z</time>
      </trkpt>
      <trkpt lat="45.76185" lon="5.57635">
        <ele>740.27935731945</ele>
        <time>2015-05-16T11:17:26Z</time>
      </trkpt>
      <trkpt lat="45.76174" lon="5.57649">
        <ele>740.77096545107</ele>
        <time>2015-05-16T11:17:31Z</time>
      </trkpt>
      <trkpt lat="45.76165" lon="5.5766">
        <ele>740.78700882385</ele>
        <time>2015-05-16T11:17:36Z</time>
      </trkpt>
      <trkpt lat="45.76155" lon="5.57667">
        <ele>740.95350508761</ele>
        <time>2015-05-16T11:17:41Z</time>
      </trkpt>
      <trkpt lat="45.76148" lon="5.57672">
        <ele>740.95350508761</ele>
        <time>2015-05-16T11:17:46Z</time>
      </trkpt>
      <trkpt lat="45.76142" lon="5.57677">
        <ele>741.61961694861</ele>
        <time>2015-05-16T11:17:51Z</time>
      </trkpt>
      <trkpt lat="45.76132" lon="5.57681">
        <ele>742.11321259177</ele>
        <time>2015-05-16T11:17:56Z</time>
      </trkpt>
      <trkpt lat="45.76125" lon="5.5768">
        <ele>742.11321259177</ele>
        <time>2015-05-16T11:18:01Z</time>
      </trkpt>
      <trkpt lat="45.76119" lon="5.57683">
        <ele>742.40298964173</ele>
        <time>2015-05-16T11:18:06Z</time>
      </trkpt>
      <trkpt lat="45.76114" lon="5.57684">
        <ele>742.40298964173</ele>
        <time>2015-05-16T11:18:11Z</time>
      </trkpt>
      <trkpt lat="45.76109" lon="5.5769">
        <ele>743.00824794255</ele>
        <time>2015-05-16T11:18:16Z</time>
      </trkpt>
      <trkpt lat="45.76107" lon="5.57693">
        <ele>743.00824794255</ele>
        <time>2015-05-16T11:18:21Z</time>
      </trkpt>
      <trkpt lat="45.76106" lon="5.57695">
        <ele>743.00824794255</ele>
        <time>2015-05-16T11:18:26Z</time>
      </trkpt>
      <trkpt lat="45.76105" lon="5.57696">
        <ele>743.00824794255</ele>
        <time>2015-05-16T11:18:31Z</time>
      </trkpt>
      <trkpt lat="45.76105" lon="5.57697">
        <ele>743.00824794255</ele>
        <time>2015-05-16T11:18:36Z</time>
      </trkpt>
      <trkpt lat="45.76103" lon="5.57702">
        <ele>743.61674579434</ele>
        <time>2015-05-16T11:18:41Z</time>
      </trkpt>
      <trkpt lat="45.76098" lon="5.5771">
        <ele>743.61674579434</ele>
        <time>2015-05-16T11:18:46Z</time>
      </trkpt>
      <trkpt lat="45.76094" lon="5.57718">
        <ele>743.93926534396</ele>
        <time>2015-05-16T11:18:51Z</time>
      </trkpt>
      <trkpt lat="45.76092" lon="5.57724">
        <ele>743.93926534396</ele>
        <time>2015-05-16T11:18:56Z</time>
      </trkpt>
      <trkpt lat="45.76087" lon="5.5773">
        <ele>742.68553424232</ele>
        <time>2015-05-16T11:19:01Z</time>
      </trkpt>
      <trkpt lat="45.76077" lon="5.57738">
        <ele>740.95592722362</ele>
        <time>2015-05-16T11:19:06Z</time>
      </trkpt>
      <trkpt lat="45.76071" lon="5.57745">
        <ele>740.95592722362</ele>
        <time>2015-05-16T11:19:11Z</time>
      </trkpt>
      <trkpt lat="45.76065" lon="5.57757">
        <ele>738.09968911219</ele>
        <time>2015-05-16T11:19:16Z</time>
      </trkpt>
      <trkpt lat="45.76058" lon="5.57763">
        <ele>738.09968911219</ele>
        <time>2015-05-16T11:19:21Z</time>
      </trkpt>
      <trkpt lat="45.76047" lon="5.57766">
        <ele>736.68751274661</ele>
        <time>2015-05-16T11:19:26Z</time>
      </trkpt>
      <trkpt lat="45.76038" lon="5.57773">
        <ele>735.07651225677</ele>
        <time>2015-05-16T11:19:31Z</time>
      </trkpt>
      <trkpt lat="45.76031" lon="5.57776">
        <ele>735.07651225677</ele>
        <time>2015-05-16T11:19:36Z</time>
      </trkpt>
      <trkpt lat="45.76024" lon="5.57778">
        <ele>734.3822755902</ele>
        <time>2015-05-16T11:19:41Z</time>
      </trkpt>
      <trkpt lat="45.76018" lon="5.57781">
        <ele>734.3822755902</ele>
        <time>2015-05-16T11:19:46Z</time>
      </trkpt>
      <trkpt lat="45.76011" lon="5.57784">
        <ele>734.06503811957</ele>
        <time>2015-05-16T11:19:51Z</time>
      </trkpt>
      <trkpt lat="45.76003" lon="5.57788">
        <ele>734.06503811957</ele>
        <time>2015-05-16T11:19:56Z</time>
      </trkpt>
      <trkpt lat="45.75994" lon="5.57791">
        <ele>734.27210120812</ele>
        <time>2015-05-16T11:20:01Z</time>
      </trkpt>
      <trkpt lat="45.75988" lon="5.57793">
        <ele>734.27210120812</ele>
        <time>2015-05-16T11:20:06Z</time>
      </trkpt>
      <trkpt lat="45.75979" lon="5.57797">
        <ele>734.10084117153</ele>
        <time>2015-05-16T11:20:11Z</time>
      </trkpt>
      <trkpt lat="45.75974" lon="5.57797">
        <ele>734.10084117153</ele>
        <time>2015-05-16T11:20:16Z</time>
      </trkpt>
      <trkpt lat="45.75968" lon="5.57796">
        <ele>734.07061129902</ele>
        <time>2015-05-16T11:20:21Z</time>
      </trkpt>
      <trkpt lat="45.75963" lon="5.57793">
        <ele>734.07061129902</ele>
        <time>2015-05-16T11:20:26Z</time>
      </trkpt>
      <trkpt lat="45.75956" lon="5.57801">
        <ele>733.01931218225</ele>
        <time>2015-05-16T11:20:31Z</time>
      </trkpt>
      <trkpt lat="45.75952" lon="5.5781">
        <ele>733.01931218225</ele>
        <time>2015-05-16T11:20:36Z</time>
      </trkpt>
      <trkpt lat="45.75946" lon="5.57819">
        <ele>731.2132664551</ele>
        <time>2015-05-16T11:20:41Z</time>
      </trkpt>
      <trkpt lat="45.75938" lon="5.5783">
        <ele>729.27598778519</ele>
        <time>2015-05-16T11:20:46Z</time>
      </trkpt>
      <trkpt lat="45.75932" lon="5.5784">
        <ele>727.56932647053</ele>
        <time>2015-05-16T11:20:51Z</time>
      </trkpt>
      <trkpt lat="45.75922" lon="5.57851">
        <ele>726.1972531391</ele>
        <time>2015-05-16T11:20:56Z</time>
      </trkpt>
      <trkpt lat="45.75913" lon="5.57856">
        <ele>725.68741266351</ele>
        <time>2015-05-16T11:21:01Z</time>
      </trkpt>
      <trkpt lat="45.75904" lon="5.5786">
        <ele>725.68741266351</ele>
        <time>2015-05-16T11:21:06Z</time>
      </trkpt>
      <trkpt lat="45.75897" lon="5.57867">
        <ele>726.6414727071</ele>
        <time>2015-05-16T11:21:11Z</time>
      </trkpt>
      <trkpt lat="45.75894" lon="5.5787">
        <ele>726.6414727071</ele>
        <time>2015-05-16T11:21:16Z</time>
      </trkpt>
      <trkpt lat="45.75892" lon="5.57873">
        <ele>726.6414727071</ele>
        <time>2015-05-16T11:21:21Z</time>
      </trkpt>
      <trkpt lat="45.75892" lon="5.57873">
        <ele>726.6414727071</ele>
        <time>2015-05-16T11:21:26Z</time>
      </trkpt>
      <trkpt lat="45.7589" lon="5.57875">
        <ele>726.6414727071</ele>
        <time>2015-05-16T11:21:31Z</time>
      </trkpt>
      <trkpt lat="45.75882" lon="5.57878">
        <ele>727.4798652446</ele>
        <time>2015-05-16T11:21:36Z</time>
      </trkpt>
      <trkpt lat="45.75874" lon="5.57882">
        <ele>727.4798652446</ele>
        <time>2015-05-16T11:21:41Z</time>
      </trkpt>
      <trkpt lat="45.75865" lon="5.57888">
        <ele>727.48867833477</ele>
        <time>2015-05-16T11:21:46Z</time>
      </trkpt>
      <trkpt lat="45.75859" lon="5.57895">
        <ele>727.48867833477</ele>
        <time>2015-05-16T11:21:51Z</time>
      </trkpt>
      <trkpt lat="45.75852" lon="5.57902">
        <ele>727.96861048229</ele>
        <time>2015-05-16T11:21:56Z</time>
      </trkpt>
      <trkpt lat="45.75844" lon="5.57906">
        <ele>727.96861048229</ele>
        <time>2015-05-16T11:22:01Z</time>
      </trkpt>
      <trkpt lat="45.75833" lon="5.57916">
        <ele>728.33644784742</ele>
        <time>2015-05-16T11:22:06Z</time>
      </trkpt>
      <trkpt lat="45.75818" lon="5.57919">
        <ele>729.81023508178</ele>
        <time>2015-05-16T11:22:11Z</time>
      </trkpt>
      <trkpt lat="45.75812" lon="5.57929">
        <ele>731.03667974403</ele>
        <time>2015-05-16T11:22:16Z</time>
      </trkpt>
      <trkpt lat="45.75808" lon="5.57936">
        <ele>731.03667974403</ele>
        <time>2015-05-16T11:22:21Z</time>
      </trkpt>
      <trkpt lat="45.75801" lon="5.57945">
        <ele>731.82898242024</ele>
        <time>2015-05-16T11:22:26Z</time>
      </trkpt>
      <trkpt lat="45.75797" lon="5.57951">
        <ele>731.82898242024</ele>
        <time>2015-05-16T11:22:31Z</time>
      </trkpt>
      <trkpt lat="45.75795" lon="5.57953">
        <ele>731.82898242024</ele>
        <time>2015-05-16T11:22:36Z</time>
      </trkpt>
      <trkpt lat="45.7579" lon="5.5795">
        <ele>731.51086763728</ele>
        <time>2015-05-16T11:22:41Z</time>
      </trkpt>
      <trkpt lat="45.75779" lon="5.57958">
        <ele>729.74705309487</ele>
        <time>2015-05-16T11:22:46Z</time>
      </trkpt>
      <trkpt lat="45.75769" lon="5.57966">
        <ele>727.25410513155</ele>
        <time>2015-05-16T11:22:51Z</time>
      </trkpt>
      <trkpt lat="45.75759" lon="5.57975">
        <ele>724.4673833541</ele>
        <time>2015-05-16T11:22:56Z</time>
      </trkpt>
      <trkpt lat="45.7575" lon="5.57983">
        <ele>722.00720650746</ele>
        <time>2015-05-16T11:23:01Z</time>
      </trkpt>
      <trkpt lat="45.75744" lon="5.57992">
        <ele>719.52503002966</ele>
        <time>2015-05-16T11:23:06Z</time>
      </trkpt>
      <trkpt lat="45.75741" lon="5.57995">
        <ele>719.52503002966</ele>
        <time>2015-05-16T11:23:11Z</time>
      </trkpt>
      <trkpt lat="45.75741" lon="5.57996">
        <ele>719.52503002966</ele>
        <time>2015-05-16T11:23:16Z</time>
      </trkpt>
      <trkpt lat="45.75737" lon="5.57999">
        <ele>719.52503002966</ele>
        <time>2015-05-16T11:23:21Z</time>
      </trkpt>
      <trkpt lat="45.75726" lon="5.58012">
        <ele>718.11018221465</ele>
        <time>2015-05-16T11:23:26Z</time>
      </trkpt>
      <trkpt lat="45.75712" lon="5.58028">
        <ele>716.7945591564</ele>
        <time>2015-05-16T11:23:31Z</time>
      </trkpt>
      <trkpt lat="45.757" lon="5.58042">
        <ele>715.84809482565</ele>
        <time>2015-05-16T11:23:36Z</time>
      </trkpt>
      <trkpt lat="45.75688" lon="5.58062">
        <ele>715.30358848889</ele>
        <time>2015-05-16T11:23:41Z</time>
      </trkpt>
      <trkpt lat="45.75684" lon="5.58068">
        <ele>715.30358848889</ele>
        <time>2015-05-16T11:23:46Z</time>
      </trkpt>
      <trkpt lat="45.7568" lon="5.58074">
        <ele>715.06050055091</ele>
        <time>2015-05-16T11:23:51Z</time>
      </trkpt>
      <trkpt lat="45.75679" lon="5.58075">
        <ele>715.06050055091</ele>
        <time>2015-05-16T11:23:56Z</time>
      </trkpt>
      <trkpt lat="45.75675" lon="5.58077">
        <ele>715.06050055091</ele>
        <time>2015-05-16T11:24:01Z</time>
      </trkpt>
      <trkpt lat="45.7567" lon="5.58086">
        <ele>714.95267797753</ele>
        <time>2015-05-16T11:24:06Z</time>
      </trkpt>
      <trkpt lat="45.7566" lon="5.58097">
        <ele>715.14274701622</ele>
        <time>2015-05-16T11:24:11Z</time>
      </trkpt>
      <trkpt lat="45.75649" lon="5.58108">
        <ele>715.00226774871</ele>
        <time>2015-05-16T11:24:16Z</time>
      </trkpt>
      <trkpt lat="45.75641" lon="5.58123">
        <ele>714.61272762951</ele>
        <time>2015-05-16T11:24:21Z</time>
      </trkpt>
      <trkpt lat="45.75633" lon="5.58129">
        <ele>714.61272762951</ele>
        <time>2015-05-16T11:24:26Z</time>
      </trkpt>
      <trkpt lat="45.75628" lon="5.58137">
        <ele>714.32406913529</ele>
        <time>2015-05-16T11:24:31Z</time>
      </trkpt>
      <trkpt lat="45.75622" lon="5.58145">
        <ele>714.32406913529</ele>
        <time>2015-05-16T11:24:36Z</time>
      </trkpt>
      <trkpt lat="45.75616" lon="5.58151">
        <ele>714.07108248851</ele>
        <time>2015-05-16T11:24:41Z</time>
      </trkpt>
      <trkpt lat="45.75612" lon="5.58159">
        <ele>714.07108248851</ele>
        <time>2015-05-16T11:24:46Z</time>
      </trkpt>
      <trkpt lat="45.75607" lon="5.58166">
        <ele>713.18792293152</ele>
        <time>2015-05-16T11:24:51Z</time>
      </trkpt>
      <trkpt lat="45.75601" lon="5.58174">
        <ele>713.18792293152</ele>
        <time>2015-05-16T11:24:56Z</time>
      </trkpt>
      <trkpt lat="45.75595" lon="5.58179">
        <ele>712.26990474169</ele>
        <time>2015-05-16T11:25:01Z</time>
      </trkpt>
      <trkpt lat="45.75588" lon="5.58183">
        <ele>712.26990474169</ele>
        <time>2015-05-16T11:25:06Z</time>
      </trkpt>
      <trkpt lat="45.75582" lon="5.5819">
        <ele>711.14809913759</ele>
        <time>2015-05-16T11:25:11Z</time>
      </trkpt>
      <trkpt lat="45.75579" lon="5.58195">
        <ele>711.14809913759</ele>
        <time>2015-05-16T11:25:16Z</time>
      </trkpt>
      <trkpt lat="45.75576" lon="5.58201">
        <ele>708.91712491928</ele>
        <time>2015-05-16T11:25:21Z</time>
      </trkpt>
      <trkpt lat="45.75574" lon="5.58207">
        <ele>708.91712491928</ele>
        <time>2015-05-16T11:25:26Z</time>
      </trkpt>
      <trkpt lat="45.75573" lon="5.58214">
        <ele>705.43289278775</ele>
        <time>2015-05-16T11:25:31Z</time>
      </trkpt>
      <trkpt lat="45.75571" lon="5.58222">
        <ele>705.43289278775</ele>
        <time>2015-05-16T11:25:36Z</time>
      </trkpt>
      <trkpt lat="45.75564" lon="5.58233">
        <ele>704.00960206924</ele>
        <time>2015-05-16T11:25:41Z</time>
      </trkpt>
      <trkpt lat="45.75562" lon="5.58239">
        <ele>704.00960206924</ele>
        <time>2015-05-16T11:25:46Z</time>
      </trkpt>
      <trkpt lat="45.7556" lon="5.58242">
        <ele>704.00960206924</ele>
        <time>2015-05-16T11:25:51Z</time>
      </trkpt>
      <trkpt lat="45.75559" lon="5.58242">
        <ele>704.00960206924</ele>
        <time>2015-05-16T11:25:56Z</time>
      </trkpt>
      <trkpt lat="45.75559" lon="5.58243">
        <ele>704.00960206924</ele>
        <time>2015-05-16T11:26:01Z</time>
      </trkpt>
      <trkpt lat="45.75559" lon="5.58243">
        <ele>704.00960206924</ele>
        <time>2015-05-16T11:26:06Z</time>
      </trkpt>
      <trkpt lat="45.75559" lon="5.58243">
        <ele>704.00960206924</ele>
        <time>2015-05-16T11:26:11Z</time>
      </trkpt>
      <trkpt lat="45.75559" lon="5.58243">
        <ele>704.00960206924</ele>
        <time>2015-05-16T11:26:16Z</time>
      </trkpt>
      <trkpt lat="45.75557" lon="5.58247">
        <ele>701.78916405268</ele>
        <time>2015-05-16T11:26:21Z</time>
      </trkpt>
      <trkpt lat="45.75555" lon="5.58252">
        <ele>701.78916405268</ele>
        <time>2015-05-16T11:26:26Z</time>
      </trkpt>
      <trkpt lat="45.75552" lon="5.58255">
        <ele>701.78916405268</ele>
        <time>2015-05-16T11:26:31Z</time>
      </trkpt>
      <trkpt lat="45.75551" lon="5.58257">
        <ele>701.78916405268</ele>
        <time>2015-05-16T11:26:36Z</time>
      </trkpt>
      <trkpt lat="45.7555" lon="5.58257">
        <ele>700.57862862919</ele>
        <time>2015-05-16T11:26:41Z</time>
      </trkpt>
      <trkpt lat="45.7555" lon="5.58257">
        <ele>700.57862862919</ele>
        <time>2015-05-16T11:26:46Z</time>
      </trkpt>
      <trkpt lat="45.7555" lon="5.58258">
        <ele>700.57862862919</ele>
        <time>2015-05-16T11:26:51Z</time>
      </trkpt>
      <trkpt lat="45.75544" lon="5.58264">
        <ele>700.57862862919</ele>
        <time>2015-05-16T11:26:56Z</time>
      </trkpt>
      <trkpt lat="45.75539" lon="5.5827">
        <ele>699.4265536604</ele>
        <time>2015-05-16T11:27:01Z</time>
      </trkpt>
      <trkpt lat="45.75536" lon="5.58273">
        <ele>699.4265536604</ele>
        <time>2015-05-16T11:27:06Z</time>
      </trkpt>
      <trkpt lat="45.75534" lon="5.58274">
        <ele>699.4265536604</ele>
        <time>2015-05-16T11:27:11Z</time>
      </trkpt>
      <trkpt lat="45.75532" lon="5.58277">
        <ele>699.4265536604</ele>
        <time>2015-05-16T11:27:16Z</time>
      </trkpt>
      <trkpt lat="45.75526" lon="5.58279">
        <ele>697.5664214836</ele>
        <time>2015-05-16T11:27:21Z</time>
      </trkpt>
      <trkpt lat="45.75521" lon="5.58283">
        <ele>697.5664214836</ele>
        <time>2015-05-16T11:27:26Z</time>
      </trkpt>
      <trkpt lat="45.75515" lon="5.5829">
        <ele>694.40520110594</ele>
        <time>2015-05-16T11:27:31Z</time>
      </trkpt>
      <trkpt lat="45.7551" lon="5.58297">
        <ele>694.40520110594</ele>
        <time>2015-05-16T11:27:36Z</time>
      </trkpt>
      <trkpt lat="45.75507" lon="5.58303">
        <ele>690.0887054474</ele>
        <time>2015-05-16T11:27:41Z</time>
      </trkpt>
      <trkpt lat="45.75501" lon="5.58305">
        <ele>690.0887054474</ele>
        <time>2015-05-16T11:27:46Z</time>
      </trkpt>
      <trkpt lat="45.75493" lon="5.58309">
        <ele>686.16745222578</ele>
        <time>2015-05-16T11:27:51Z</time>
      </trkpt>
      <trkpt lat="45.75484" lon="5.58314">
        <ele>683.06804425179</ele>
        <time>2015-05-16T11:27:56Z</time>
      </trkpt>
      <trkpt lat="45.75473" lon="5.5832">
        <ele>681.5724015293</ele>
        <time>2015-05-16T11:28:01Z</time>
      </trkpt>
      <trkpt lat="45.7546" lon="5.58323">
        <ele>680.42603659383</ele>
        <time>2015-05-16T11:28:06Z</time>
      </trkpt>
      <trkpt lat="45.75455" lon="5.58322">
        <ele>680.42603659383</ele>
        <time>2015-05-16T11:28:11Z</time>
      </trkpt>
      <trkpt lat="45.75449" lon="5.58316">
        <ele>680.81450494745</ele>
        <time>2015-05-16T11:28:16Z</time>
      </trkpt>
      <trkpt lat="45.75444" lon="5.58308">
        <ele>680.81450494745</ele>
        <time>2015-05-16T11:28:21Z</time>
      </trkpt>
      <trkpt lat="45.75438" lon="5.58302">
        <ele>682.11691203398</ele>
        <time>2015-05-16T11:28:26Z</time>
      </trkpt>
      <trkpt lat="45.75434" lon="5.58295">
        <ele>682.11691203398</ele>
        <time>2015-05-16T11:28:31Z</time>
      </trkpt>
      <trkpt lat="45.7543" lon="5.58286">
        <ele>683.87058696996</ele>
        <time>2015-05-16T11:28:36Z</time>
      </trkpt>
      <trkpt lat="45.75429" lon="5.58282">
        <ele>683.87058696996</ele>
        <time>2015-05-16T11:28:41Z</time>
      </trkpt>
      <trkpt lat="45.75428" lon="5.5828">
        <ele>683.87058696996</ele>
        <time>2015-05-16T11:28:46Z</time>
      </trkpt>
      <trkpt lat="45.75428" lon="5.5828">
        <ele>683.87058696996</ele>
        <time>2015-05-16T11:28:51Z</time>
      </trkpt>
      <trkpt lat="45.75423" lon="5.58278">
        <ele>685.76078193859</ele>
        <time>2015-05-16T11:28:56Z</time>
      </trkpt>
      <trkpt lat="45.75414" lon="5.58273">
        <ele>687.82688376389</ele>
        <time>2015-05-16T11:29:01Z</time>
      </trkpt>
      <trkpt lat="45.75407" lon="5.5827">
        <ele>687.82688376389</ele>
        <time>2015-05-16T11:29:06Z</time>
      </trkpt>
      <trkpt lat="45.75399" lon="5.58265">
        <ele>689.71576164761</ele>
        <time>2015-05-16T11:29:11Z</time>
      </trkpt>
      <trkpt lat="45.75397" lon="5.58262">
        <ele>689.71576164761</ele>
        <time>2015-05-16T11:29:16Z</time>
      </trkpt>
      <trkpt lat="45.75392" lon="5.5826">
        <ele>689.71576164761</ele>
        <time>2015-05-16T11:29:21Z</time>
      </trkpt>
      <trkpt lat="45.75388" lon="5.58262">
        <ele>691.14395212388</ele>
        <time>2015-05-16T11:29:26Z</time>
      </trkpt>
      <trkpt lat="45.75384" lon="5.58262">
        <ele>691.14395212388</ele>
        <time>2015-05-16T11:29:41Z</time>
      </trkpt>
      <trkpt lat="45.75382" lon="5.58264">
        <ele>691.14395212388</ele>
        <time>2015-05-16T11:29:46Z</time>
      </trkpt>
      <trkpt lat="45.75376" lon="5.58268">
        <ele>692.1527601413</ele>
        <time>2015-05-16T11:29:51Z</time>
      </trkpt>
      <trkpt lat="45.75373" lon="5.58269">
        <ele>692.1527601413</ele>
        <time>2015-05-16T11:29:56Z</time>
      </trkpt>
      <trkpt lat="45.75369" lon="5.58269">
        <ele>692.1527601413</ele>
        <time>2015-05-16T11:30:01Z</time>
      </trkpt>
      <trkpt lat="45.75364" lon="5.58267">
        <ele>693.55987346449</ele>
        <time>2015-05-16T11:30:06Z</time>
      </trkpt>
      <trkpt lat="45.75363" lon="5.58263">
        <ele>693.55987346449</ele>
        <time>2015-05-16T11:30:11Z</time>
      </trkpt>
      <trkpt lat="45.75363" lon="5.58261">
        <ele>693.55987346449</ele>
        <time>2015-05-16T11:30:16Z</time>
      </trkpt>
      <trkpt lat="45.75362" lon="5.58261">
        <ele>693.55987346449</ele>
        <time>2015-05-16T11:30:21Z</time>
      </trkpt>
      <trkpt lat="45.75358" lon="5.58261">
        <ele>695.02660866443</ele>
        <time>2015-05-16T11:30:26Z</time>
      </trkpt>
      <trkpt lat="45.75353" lon="5.58261">
        <ele>695.02660866443</ele>
        <time>2015-05-16T11:30:31Z</time>
      </trkpt>
      <trkpt lat="45.75346" lon="5.58261">
        <ele>696.55611266772</ele>
        <time>2015-05-16T11:30:36Z</time>
      </trkpt>
      <trkpt lat="45.75339" lon="5.58263">
        <ele>696.55611266772</ele>
        <time>2015-05-16T11:30:41Z</time>
      </trkpt>
      <trkpt lat="45.75335" lon="5.58262">
        <ele>698.48266975522</ele>
        <time>2015-05-16T11:30:46Z</time>
      </trkpt>
      <trkpt lat="45.75329" lon="5.58263">
        <ele>698.48266975522</ele>
        <time>2015-05-16T11:30:51Z</time>
      </trkpt>
      <trkpt lat="45.75322" lon="5.58264">
        <ele>700.09180837135</ele>
        <time>2015-05-16T11:30:56Z</time>
      </trkpt>
      <trkpt lat="45.75314" lon="5.58264">
        <ele>700.09180837135</ele>
        <time>2015-05-16T11:31:01Z</time>
      </trkpt>
      <trkpt lat="45.75307" lon="5.58269">
        <ele>701.51516064865</ele>
        <time>2015-05-16T11:31:06Z</time>
      </trkpt>
      <trkpt lat="45.75301" lon="5.58275">
        <ele>701.51516064865</ele>
        <time>2015-05-16T11:31:11Z</time>
      </trkpt>
      <trkpt lat="45.75297" lon="5.58275">
        <ele>702.15478237388</ele>
        <time>2015-05-16T11:31:16Z</time>
      </trkpt>
      <trkpt lat="45.75296" lon="5.58276">
        <ele>702.15478237388</ele>
        <time>2015-05-16T11:31:21Z</time>
      </trkpt>
      <trkpt lat="45.75293" lon="5.58279">
        <ele>702.15478237388</ele>
        <time>2015-05-16T11:31:26Z</time>
      </trkpt>
      <trkpt lat="45.75293" lon="5.58279">
        <ele>702.15478237388</ele>
        <time>2015-05-16T11:31:31Z</time>
      </trkpt>
      <trkpt lat="45.75286" lon="5.58282">
        <ele>702.95774492183</ele>
        <time>2015-05-16T11:31:36Z</time>
      </trkpt>
      <trkpt lat="45.75277" lon="5.58282">
        <ele>703.85009789816</ele>
        <time>2015-05-16T11:31:41Z</time>
      </trkpt>
      <trkpt lat="45.75266" lon="5.58284">
        <ele>705.03702871834</ele>
        <time>2015-05-16T11:31:46Z</time>
      </trkpt>
      <trkpt lat="45.7526" lon="5.5829">
        <ele>705.03702871834</ele>
        <time>2015-05-16T11:31:51Z</time>
      </trkpt>
      <trkpt lat="45.75251" lon="5.58295">
        <ele>706.66474057941</ele>
        <time>2015-05-16T11:31:56Z</time>
      </trkpt>
      <trkpt lat="45.75241" lon="5.583">
        <ele>707.88765631077</ele>
        <time>2015-05-16T11:32:01Z</time>
      </trkpt>
      <trkpt lat="45.75233" lon="5.58303">
        <ele>707.88765631077</ele>
        <time>2015-05-16T11:32:06Z</time>
      </trkpt>
      <trkpt lat="45.75226" lon="5.58307">
        <ele>708.55769413941</ele>
        <time>2015-05-16T11:32:11Z</time>
      </trkpt>
      <trkpt lat="45.75222" lon="5.58311">
        <ele>708.55769413941</ele>
        <time>2015-05-16T11:32:16Z</time>
      </trkpt>
      <trkpt lat="45.75217" lon="5.58315">
        <ele>709.20226970028</ele>
        <time>2015-05-16T11:32:21Z</time>
      </trkpt>
      <trkpt lat="45.75211" lon="5.58322">
        <ele>709.20226970028</ele>
        <time>2015-05-16T11:32:26Z</time>
      </trkpt>
      <trkpt lat="45.75204" lon="5.58326">
        <ele>709.99323912039</ele>
        <time>2015-05-16T11:32:31Z</time>
      </trkpt>
      <trkpt lat="45.75199" lon="5.58332">
        <ele>709.99323912039</ele>
        <time>2015-05-16T11:32:36Z</time>
      </trkpt>
      <trkpt lat="45.75195" lon="5.58336">
        <ele>710.916645716</ele>
        <time>2015-05-16T11:32:41Z</time>
      </trkpt>
      <trkpt lat="45.75188" lon="5.58343">
        <ele>710.916645716</ele>
        <time>2015-05-16T11:32:46Z</time>
      </trkpt>
      <trkpt lat="45.75185" lon="5.58347">
        <ele>712.24756305623</ele>
        <time>2015-05-16T11:32:51Z</time>
      </trkpt>
      <trkpt lat="45.75185" lon="5.58346">
        <ele>712.24756305623</ele>
        <time>2015-05-16T11:32:56Z</time>
      </trkpt>
      <trkpt lat="45.75185" lon="5.58347">
        <ele>712.24756305623</ele>
        <time>2015-05-16T11:33:01Z</time>
      </trkpt>
      <trkpt lat="45.75185" lon="5.58347">
        <ele>712.24756305623</ele>
        <time>2015-05-16T11:33:06Z</time>
      </trkpt>
      <trkpt lat="45.75183" lon="5.58348">
        <ele>712.24756305623</ele>
        <time>2015-05-16T11:33:11Z</time>
      </trkpt>
      <trkpt lat="45.75179" lon="5.58353">
        <ele>712.24756305623</ele>
        <time>2015-05-16T11:33:16Z</time>
      </trkpt>
      <trkpt lat="45.75178" lon="5.5836">
        <ele>712.15025378142</ele>
        <time>2015-05-16T11:33:21Z</time>
      </trkpt>
      <trkpt lat="45.75179" lon="5.58367">
        <ele>712.15025378142</ele>
        <time>2015-05-16T11:33:26Z</time>
      </trkpt>
      <trkpt lat="45.75177" lon="5.58373">
        <ele>711.0031851043</ele>
        <time>2015-05-16T11:33:31Z</time>
      </trkpt>
      <trkpt lat="45.75172" lon="5.5838">
        <ele>711.0031851043</ele>
        <time>2015-05-16T11:33:36Z</time>
      </trkpt>
      <trkpt lat="45.7517" lon="5.58385">
        <ele>710.37063755988</ele>
        <time>2015-05-16T11:33:41Z</time>
      </trkpt>
      <trkpt lat="45.75169" lon="5.58386">
        <ele>710.37063755988</ele>
        <time>2015-05-16T11:33:46Z</time>
      </trkpt>
      <trkpt lat="45.75169" lon="5.58386">
        <ele>710.37063755988</ele>
        <time>2015-05-16T11:33:51Z</time>
      </trkpt>
      <trkpt lat="45.75169" lon="5.58386">
        <ele>710.37063755988</ele>
        <time>2015-05-16T11:33:56Z</time>
      </trkpt>
      <trkpt lat="45.75169" lon="5.58386">
        <ele>710.37063755988</ele>
        <time>2015-05-16T11:34:01Z</time>
      </trkpt>
      <trkpt lat="45.75169" lon="5.58387">
        <ele>710.37063755988</ele>
        <time>2015-05-16T11:34:06Z</time>
      </trkpt>
      <trkpt lat="45.75169" lon="5.58387">
        <ele>710.37063755988</ele>
        <time>2015-05-16T11:34:11Z</time>
      </trkpt>
      <trkpt lat="45.75164" lon="5.5839">
        <ele>710.37063755988</ele>
        <time>2015-05-16T11:34:16Z</time>
      </trkpt>
      <trkpt lat="45.75156" lon="5.584">
        <ele>709.84162801044</ele>
        <time>2015-05-16T11:34:21Z</time>
      </trkpt>
      <trkpt lat="45.75151" lon="5.58409">
        <ele>709.84162801044</ele>
        <time>2015-05-16T11:34:26Z</time>
      </trkpt>
      <trkpt lat="45.75146" lon="5.58413">
        <ele>709.77015202641</ele>
        <time>2015-05-16T11:34:31Z</time>
      </trkpt>
      <trkpt lat="45.75146" lon="5.58413">
        <ele>709.77015202641</ele>
        <time>2015-05-16T11:34:36Z</time>
      </trkpt>
      <trkpt lat="45.75145" lon="5.58415">
        <ele>709.77015202641</ele>
        <time>2015-05-16T11:34:41Z</time>
      </trkpt>
      <trkpt lat="45.75145" lon="5.58415">
        <ele>709.77015202641</ele>
        <time>2015-05-16T11:34:46Z</time>
      </trkpt>
      <trkpt lat="45.75145" lon="5.58415">
        <ele>709.77015202641</ele>
        <time>2015-05-16T11:34:51Z</time>
      </trkpt>
      <trkpt lat="45.75145" lon="5.58415">
        <ele>709.77015202641</ele>
        <time>2015-05-16T11:34:56Z</time>
      </trkpt>
      <trkpt lat="45.75145" lon="5.58415">
        <ele>709.77015202641</ele>
        <time>2015-05-16T11:35:01Z</time>
      </trkpt>
      <trkpt lat="45.75144" lon="5.58416">
        <ele>709.77015202641</ele>
        <time>2015-05-16T11:35:06Z</time>
      </trkpt>
      <trkpt lat="45.75144" lon="5.58416">
        <ele>709.77015202641</ele>
        <time>2015-05-16T11:35:11Z</time>
      </trkpt>
      <trkpt lat="45.75144" lon="5.58417">
        <ele>709.77015202641</ele>
        <time>2015-05-16T11:35:16Z</time>
      </trkpt>
      <trkpt lat="45.75137" lon="5.58425">
        <ele>709.31571572008</ele>
        <time>2015-05-16T11:35:21Z</time>
      </trkpt>
      <trkpt lat="45.75129" lon="5.58437">
        <ele>708.91126359791</ele>
        <time>2015-05-16T11:35:26Z</time>
      </trkpt>
      <trkpt lat="45.75126" lon="5.58444">
        <ele>708.91126359791</ele>
        <time>2015-05-16T11:35:31Z</time>
      </trkpt>
      <trkpt lat="45.75122" lon="5.58448">
        <ele>708.39584060768</ele>
        <time>2015-05-16T11:35:36Z</time>
      </trkpt>
      <trkpt lat="45.75115" lon="5.58453">
        <ele>708.39584060768</ele>
        <time>2015-05-16T11:35:41Z</time>
      </trkpt>
      <trkpt lat="45.75108" lon="5.58456">
        <ele>707.75039485939</ele>
        <time>2015-05-16T11:35:46Z</time>
      </trkpt>
      <trkpt lat="45.75101" lon="5.5846">
        <ele>707.75039485939</ele>
        <time>2015-05-16T11:35:51Z</time>
      </trkpt>
      <trkpt lat="45.75095" lon="5.5846">
        <ele>707.47649755378</ele>
        <time>2015-05-16T11:35:56Z</time>
      </trkpt>
      <trkpt lat="45.75092" lon="5.58462">
        <ele>707.47649755378</ele>
        <time>2015-05-16T11:36:01Z</time>
      </trkpt>
      <trkpt lat="45.75091" lon="5.58464">
        <ele>707.47649755378</ele>
        <time>2015-05-16T11:36:06Z</time>
      </trkpt>
      <trkpt lat="45.7509" lon="5.58464">
        <ele>707.47649755378</ele>
        <time>2015-05-16T11:36:11Z</time>
      </trkpt>
      <trkpt lat="45.7509" lon="5.58465">
        <ele>707.47649755378</ele>
        <time>2015-05-16T11:36:16Z</time>
      </trkpt>
      <trkpt lat="45.7509" lon="5.58468">
        <ele>707.47649755378</ele>
        <time>2015-05-16T11:36:21Z</time>
      </trkpt>
      <trkpt lat="45.75087" lon="5.58478">
        <ele>705.81856777445</ele>
        <time>2015-05-16T11:36:26Z</time>
      </trkpt>
      <trkpt lat="45.75085" lon="5.58487">
        <ele>705.81856777445</ele>
        <time>2015-05-16T11:36:31Z</time>
      </trkpt>
      <trkpt lat="45.75085" lon="5.58496">
        <ele>703.81996232557</ele>
        <time>2015-05-16T11:36:36Z</time>
      </trkpt>
      <trkpt lat="45.75086" lon="5.585">
        <ele>703.81996232557</ele>
        <time>2015-05-16T11:36:41Z</time>
      </trkpt>
      <trkpt lat="45.75092" lon="5.58506">
        <ele>701.97280274815</ele>
        <time>2015-05-16T11:36:46Z</time>
      </trkpt>
      <trkpt lat="45.75096" lon="5.58514">
        <ele>701.97280274815</ele>
        <time>2015-05-16T11:36:51Z</time>
      </trkpt>
      <trkpt lat="45.75093" lon="5.58525">
        <ele>700.50206179736</ele>
        <time>2015-05-16T11:36:56Z</time>
      </trkpt>
      <trkpt lat="45.75091" lon="5.58531">
        <ele>700.50206179736</ele>
        <time>2015-05-16T11:37:01Z</time>
      </trkpt>
      <trkpt lat="45.75088" lon="5.58535">
        <ele>699.94657609822</ele>
        <time>2015-05-16T11:37:06Z</time>
      </trkpt>
      <trkpt lat="45.75088" lon="5.58539">
        <ele>699.94657609822</ele>
        <time>2015-05-16T11:37:11Z</time>
      </trkpt>
      <trkpt lat="45.75087" lon="5.58548">
        <ele>699.94657609822</ele>
        <time>2015-05-16T11:37:16Z</time>
      </trkpt>
      <trkpt lat="45.75084" lon="5.58555">
        <ele>700.42832397662</ele>
        <time>2015-05-16T11:37:21Z</time>
      </trkpt>
      <trkpt lat="45.75081" lon="5.58562">
        <ele>700.42832397662</ele>
        <time>2015-05-16T11:37:26Z</time>
      </trkpt>
      <trkpt lat="45.75081" lon="5.58563">
        <ele>700.42832397662</ele>
        <time>2015-05-16T11:37:31Z</time>
      </trkpt>
      <trkpt lat="45.75081" lon="5.58563">
        <ele>700.42832397662</ele>
        <time>2015-05-16T11:37:36Z</time>
      </trkpt>
      <trkpt lat="45.75082" lon="5.58563">
        <ele>700.42832397662</ele>
        <time>2015-05-16T11:37:41Z</time>
      </trkpt>
      <trkpt lat="45.75082" lon="5.58567">
        <ele>701.53859078445</ele>
        <time>2015-05-16T11:37:46Z</time>
      </trkpt>
      <trkpt lat="45.75081" lon="5.58574">
        <ele>701.53859078445</ele>
        <time>2015-05-16T11:37:51Z</time>
      </trkpt>
      <trkpt lat="45.75081" lon="5.58582">
        <ele>702.21957898756</ele>
        <time>2015-05-16T11:37:56Z</time>
      </trkpt>
      <trkpt lat="45.7508" lon="5.5859">
        <ele>702.21957898756</ele>
        <time>2015-05-16T11:38:01Z</time>
      </trkpt>
      <trkpt lat="45.75085" lon="5.58594">
        <ele>703.16407471585</ele>
        <time>2015-05-16T11:38:06Z</time>
      </trkpt>
      <trkpt lat="45.75089" lon="5.58598">
        <ele>703.16407471585</ele>
        <time>2015-05-16T11:38:11Z</time>
      </trkpt>
      <trkpt lat="45.75092" lon="5.58603">
        <ele>704.63853739062</ele>
        <time>2015-05-16T11:38:16Z</time>
      </trkpt>
      <trkpt lat="45.75096" lon="5.5861">
        <ele>704.63853739062</ele>
        <time>2015-05-16T11:38:21Z</time>
      </trkpt>
      <trkpt lat="45.75097" lon="5.58616">
        <ele>705.76430039563</ele>
        <time>2015-05-16T11:38:26Z</time>
      </trkpt>
      <trkpt lat="45.75098" lon="5.58615">
        <ele>705.76430039563</ele>
        <time>2015-05-16T11:38:31Z</time>
      </trkpt>
      <trkpt lat="45.75095" lon="5.58612">
        <ele>705.76430039563</ele>
        <time>2015-05-16T11:38:36Z</time>
      </trkpt>
      <trkpt lat="45.75097" lon="5.58616">
        <ele>705.76430039563</ele>
        <time>2015-05-16T11:38:41Z</time>
      </trkpt>
      <trkpt lat="45.75099" lon="5.58618">
        <ele>706.75142085586</ele>
        <time>2015-05-16T11:38:46Z</time>
      </trkpt>
      <trkpt lat="45.75101" lon="5.5862">
        <ele>706.75142085586</ele>
        <time>2015-05-16T11:38:51Z</time>
      </trkpt>
      <trkpt lat="45.75102" lon="5.58621">
        <ele>706.75142085586</ele>
        <time>2015-05-16T11:38:56Z</time>
      </trkpt>
      <trkpt lat="45.75108" lon="5.58623">
        <ele>708.03992163346</ele>
        <time>2015-05-16T11:39:01Z</time>
      </trkpt>
      <trkpt lat="45.75112" lon="5.58627">
        <ele>708.03992163346</ele>
        <time>2015-05-16T11:39:06Z</time>
      </trkpt>
      <trkpt lat="45.75113" lon="5.58627">
        <ele>708.03992163346</ele>
        <time>2015-05-16T11:39:11Z</time>
      </trkpt>
      <trkpt lat="45.75115" lon="5.58626">
        <ele>708.03992163346</ele>
        <time>2015-05-16T11:39:16Z</time>
      </trkpt>
      <trkpt lat="45.75116" lon="5.58627">
        <ele>709.63317207402</ele>
        <time>2015-05-16T11:39:21Z</time>
      </trkpt>
      <trkpt lat="45.75117" lon="5.58629">
        <ele>709.63317207402</ele>
        <time>2015-05-16T11:39:26Z</time>
      </trkpt>
      <trkpt lat="45.7512" lon="5.58631">
        <ele>709.63317207402</ele>
        <time>2015-05-16T11:39:31Z</time>
      </trkpt>
      <trkpt lat="45.75123" lon="5.58634">
        <ele>709.63317207402</ele>
        <time>2015-05-16T11:39:36Z</time>
      </trkpt>
      <trkpt lat="45.75125" lon="5.58636">
        <ele>710.30852770363</ele>
        <time>2015-05-16T11:39:41Z</time>
      </trkpt>
      <trkpt lat="45.75125" lon="5.58636">
        <ele>710.30852770363</ele>
        <time>2015-05-16T11:39:46Z</time>
      </trkpt>
      <trkpt lat="45.75125" lon="5.58635">
        <ele>710.30852770363</ele>
        <time>2015-05-16T11:39:51Z</time>
      </trkpt>
      <trkpt lat="45.75124" lon="5.58636">
        <ele>710.30852770363</ele>
        <time>2015-05-16T11:39:56Z</time>
      </trkpt>
      <trkpt lat="45.75124" lon="5.58638">
        <ele>710.30852770363</ele>
        <time>2015-05-16T11:40:01Z</time>
      </trkpt>
      <trkpt lat="45.75124" lon="5.58638">
        <ele>710.30852770363</ele>
        <time>2015-05-16T11:40:06Z</time>
      </trkpt>
      <trkpt lat="45.75122" lon="5.58638">
        <ele>710.30852770363</ele>
        <time>2015-05-16T11:40:11Z</time>
      </trkpt>
      <trkpt lat="45.75117" lon="5.58637">
        <ele>709.78602677608</ele>
        <time>2015-05-16T11:40:16Z</time>
      </trkpt>
      <trkpt lat="45.75113" lon="5.58634">
        <ele>709.78602677608</ele>
        <time>2015-05-16T11:40:21Z</time>
      </trkpt>
      <trkpt lat="45.7511" lon="5.58634">
        <ele>709.78602677608</ele>
        <time>2015-05-16T11:40:26Z</time>
      </trkpt>
      <trkpt lat="45.75105" lon="5.58632">
        <ele>709.30842780644</ele>
        <time>2015-05-16T11:40:31Z</time>
      </trkpt>
      <trkpt lat="45.751" lon="5.58628">
        <ele>709.30842780644</ele>
        <time>2015-05-16T11:40:36Z</time>
      </trkpt>
      <trkpt lat="45.75098" lon="5.58627">
        <ele>709.30842780644</ele>
        <time>2015-05-16T11:40:41Z</time>
      </trkpt>
      <trkpt lat="45.75098" lon="5.58625">
        <ele>709.30842780644</ele>
        <time>2015-05-16T11:40:46Z</time>
      </trkpt>
      <trkpt lat="45.75096" lon="5.58625">
        <ele>709.43625109994</ele>
        <time>2015-05-16T11:40:51Z</time>
      </trkpt>
      <trkpt lat="45.75094" lon="5.58619">
        <ele>709.43625109994</ele>
        <time>2015-05-16T11:40:56Z</time>
      </trkpt>
      <trkpt lat="45.75092" lon="5.58614">
        <ele>709.43625109994</ele>
        <time>2015-05-16T11:41:01Z</time>
      </trkpt>
      <trkpt lat="45.7509" lon="5.58606">
        <ele>709.39017333245</ele>
        <time>2015-05-16T11:41:06Z</time>
      </trkpt>
      <trkpt lat="45.75088" lon="5.58601">
        <ele>709.39017333245</ele>
        <time>2015-05-16T11:41:11Z</time>
      </trkpt>
      <trkpt lat="45.75085" lon="5.58596">
        <ele>709.11154404139</ele>
        <time>2015-05-16T11:41:16Z</time>
      </trkpt>
      <trkpt lat="45.75082" lon="5.58593">
        <ele>709.11154404139</ele>
        <time>2015-05-16T11:41:21Z</time>
      </trkpt>
      <trkpt lat="45.75081" lon="5.58592">
        <ele>709.11154404139</ele>
        <time>2015-05-16T11:41:26Z</time>
      </trkpt>
      <trkpt lat="45.75076" lon="5.58587">
        <ele>707.82613623234</ele>
        <time>2015-05-16T11:41:31Z</time>
      </trkpt>
      <trkpt lat="45.7507" lon="5.58581">
        <ele>707.82613623234</ele>
        <time>2015-05-16T11:41:36Z</time>
      </trkpt>
      <trkpt lat="45.75063" lon="5.58578">
        <ele>706.20289915528</ele>
        <time>2015-05-16T11:41:41Z</time>
      </trkpt>
      <trkpt lat="45.75057" lon="5.58577">
        <ele>706.20289915528</ele>
        <time>2015-05-16T11:41:46Z</time>
      </trkpt>
      <trkpt lat="45.75057" lon="5.58571">
        <ele>704.92023402069</ele>
        <time>2015-05-16T11:41:51Z</time>
      </trkpt>
      <trkpt lat="45.75055" lon="5.58569">
        <ele>704.92023402069</ele>
        <time>2015-05-16T11:41:56Z</time>
      </trkpt>
      <trkpt lat="45.75054" lon="5.58569">
        <ele>704.92023402069</ele>
        <time>2015-05-16T11:42:01Z</time>
      </trkpt>
      <trkpt lat="45.75053" lon="5.58569">
        <ele>704.92023402069</ele>
        <time>2015-05-16T11:42:06Z</time>
      </trkpt>
      <trkpt lat="45.75051" lon="5.58571">
        <ele>704.92023402069</ele>
        <time>2015-05-16T11:42:11Z</time>
      </trkpt>
      <trkpt lat="45.75048" lon="5.58575">
        <ele>705.28306555811</ele>
        <time>2015-05-16T11:42:16Z</time>
      </trkpt>
      <trkpt lat="45.75041" lon="5.58579">
        <ele>705.28306555811</ele>
        <time>2015-05-16T11:42:21Z</time>
      </trkpt>
      <trkpt lat="45.75035" lon="5.58582">
        <ele>705.91623794845</ele>
        <time>2015-05-16T11:42:26Z</time>
      </trkpt>
      <trkpt lat="45.7503" lon="5.58585">
        <ele>705.91623794845</ele>
        <time>2015-05-16T11:42:31Z</time>
      </trkpt>
      <trkpt lat="45.75026" lon="5.58588">
        <ele>706.72654902635</ele>
        <time>2015-05-16T11:42:36Z</time>
      </trkpt>
      <trkpt lat="45.7502" lon="5.58591">
        <ele>706.72654902635</ele>
        <time>2015-05-16T11:42:41Z</time>
      </trkpt>
      <trkpt lat="45.75015" lon="5.58591">
        <ele>708.18916594353</ele>
        <time>2015-05-16T11:42:46Z</time>
      </trkpt>
      <trkpt lat="45.75006" lon="5.58591">
        <ele>710.02195891947</ele>
        <time>2015-05-16T11:42:51Z</time>
      </trkpt>
      <trkpt lat="45.75001" lon="5.58591">
        <ele>710.02195891947</ele>
        <time>2015-05-16T11:42:56Z</time>
      </trkpt>
      <trkpt lat="45.74998" lon="5.58593">
        <ele>710.02195891947</ele>
        <time>2015-05-16T11:43:01Z</time>
      </trkpt>
      <trkpt lat="45.74992" lon="5.58599">
        <ele>712.3371791344</ele>
        <time>2015-05-16T11:43:06Z</time>
      </trkpt>
      <trkpt lat="45.74988" lon="5.58601">
        <ele>712.3371791344</ele>
        <time>2015-05-16T11:43:11Z</time>
      </trkpt>
      <trkpt lat="45.74985" lon="5.58605">
        <ele>712.3371791344</ele>
        <time>2015-05-16T11:43:16Z</time>
      </trkpt>
      <trkpt lat="45.74982" lon="5.58608">
        <ele>715.0933864844</ele>
        <time>2015-05-16T11:43:21Z</time>
      </trkpt>
      <trkpt lat="45.74977" lon="5.58612">
        <ele>715.0933864844</ele>
        <time>2015-05-16T11:43:26Z</time>
      </trkpt>
      <trkpt lat="45.7497" lon="5.58624">
        <ele>716.83869182161</ele>
        <time>2015-05-16T11:43:31Z</time>
      </trkpt>
      <trkpt lat="45.74967" lon="5.58629">
        <ele>716.83869182161</ele>
        <time>2015-05-16T11:43:36Z</time>
      </trkpt>
      <trkpt lat="45.74965" lon="5.58633">
        <ele>716.83869182161</ele>
        <time>2015-05-16T11:43:41Z</time>
      </trkpt>
      <trkpt lat="45.74963" lon="5.58635">
        <ele>717.70067649937</ele>
        <time>2015-05-16T11:43:46Z</time>
      </trkpt>
      <trkpt lat="45.74958" lon="5.58642">
        <ele>717.70067649937</ele>
        <time>2015-05-16T11:43:51Z</time>
      </trkpt>
      <trkpt lat="45.74948" lon="5.58654">
        <ele>717.36774767803</ele>
        <time>2015-05-16T11:43:56Z</time>
      </trkpt>
      <trkpt lat="45.74943" lon="5.58659">
        <ele>717.36774767803</ele>
        <time>2015-05-16T11:44:01Z</time>
      </trkpt>
      <trkpt lat="45.74939" lon="5.58673">
        <ele>715.68430711969</ele>
        <time>2015-05-16T11:44:06Z</time>
      </trkpt>
      <trkpt lat="45.74933" lon="5.58683">
        <ele>715.68430711969</ele>
        <time>2015-05-16T11:44:11Z</time>
      </trkpt>
      <trkpt lat="45.74926" lon="5.58682">
        <ele>715.3490128088</ele>
        <time>2015-05-16T11:44:16Z</time>
      </trkpt>
      <trkpt lat="45.74917" lon="5.58681">
        <ele>714.92430164464</ele>
        <time>2015-05-16T11:44:21Z</time>
      </trkpt>
      <trkpt lat="45.74909" lon="5.58682">
        <ele>714.92430164464</ele>
        <time>2015-05-16T11:44:26Z</time>
      </trkpt>
      <trkpt lat="45.74902" lon="5.58684">
        <ele>714.3466684635</ele>
        <time>2015-05-16T11:44:31Z</time>
      </trkpt>
      <trkpt lat="45.74895" lon="5.58686">
        <ele>714.3466684635</ele>
        <time>2015-05-16T11:44:36Z</time>
      </trkpt>
      <trkpt lat="45.74887" lon="5.58689">
        <ele>714.03328573974</ele>
        <time>2015-05-16T11:44:41Z</time>
      </trkpt>
      <trkpt lat="45.74881" lon="5.58691">
        <ele>714.03328573974</ele>
        <time>2015-05-16T11:44:46Z</time>
      </trkpt>
      <trkpt lat="45.74875" lon="5.58692">
        <ele>714.09613841006</ele>
        <time>2015-05-16T11:44:51Z</time>
      </trkpt>
      <trkpt lat="45.74866" lon="5.58693">
        <ele>713.83091130052</ele>
        <time>2015-05-16T11:44:56Z</time>
      </trkpt>
      <trkpt lat="45.74855" lon="5.58697">
        <ele>713.47943657416</ele>
        <time>2015-05-16T11:45:01Z</time>
      </trkpt>
      <trkpt lat="45.74849" lon="5.58701">
        <ele>713.47943657416</ele>
        <time>2015-05-16T11:45:06Z</time>
      </trkpt>
      <trkpt lat="45.74842" lon="5.58703">
        <ele>712.90574000919</ele>
        <time>2015-05-16T11:45:11Z</time>
      </trkpt>
      <trkpt lat="45.74835" lon="5.58705">
        <ele>712.90574000919</ele>
        <time>2015-05-16T11:45:16Z</time>
      </trkpt>
      <trkpt lat="45.74828" lon="5.58708">
        <ele>712.31590447702</ele>
        <time>2015-05-16T11:45:21Z</time>
      </trkpt>
      <trkpt lat="45.7482" lon="5.5871">
        <ele>712.31590447702</ele>
        <time>2015-05-16T11:45:26Z</time>
      </trkpt>
      <trkpt lat="45.74811" lon="5.58706">
        <ele>713.67347387024</ele>
        <time>2015-05-16T11:45:31Z</time>
      </trkpt>
      <trkpt lat="45.74803" lon="5.58702">
        <ele>713.67347387024</ele>
        <time>2015-05-16T11:45:36Z</time>
      </trkpt>
      <trkpt lat="45.74797" lon="5.58699">
        <ele>715.21831871015</ele>
        <time>2015-05-16T11:45:41Z</time>
      </trkpt>
      <trkpt lat="45.74791" lon="5.58699">
        <ele>715.21831871015</ele>
        <time>2015-05-16T11:45:46Z</time>
      </trkpt>
      <trkpt lat="45.74784" lon="5.587">
        <ele>717.19251972719</ele>
        <time>2015-05-16T11:45:51Z</time>
      </trkpt>
      <trkpt lat="45.74781" lon="5.587">
        <ele>717.19251972719</ele>
        <time>2015-05-16T11:45:56Z</time>
      </trkpt>
      <trkpt lat="45.7478" lon="5.58701">
        <ele>717.19251972719</ele>
        <time>2015-05-16T11:46:01Z</time>
      </trkpt>
      <trkpt lat="45.7478" lon="5.58702">
        <ele>717.19251972719</ele>
        <time>2015-05-16T11:46:06Z</time>
      </trkpt>
      <trkpt lat="45.74782" lon="5.5871">
        <ele>719.31478299235</ele>
        <time>2015-05-16T11:46:11Z</time>
      </trkpt>
      <trkpt lat="45.74783" lon="5.58722">
        <ele>719.31478299235</ele>
        <time>2015-05-16T11:46:16Z</time>
      </trkpt>
      <trkpt lat="45.74785" lon="5.58731">
        <ele>720.76204321299</ele>
        <time>2015-05-16T11:46:21Z</time>
      </trkpt>
      <trkpt lat="45.74786" lon="5.5874">
        <ele>720.76204321299</ele>
        <time>2015-05-16T11:46:26Z</time>
      </trkpt>
      <trkpt lat="45.74784" lon="5.5875">
        <ele>722.08502724668</ele>
        <time>2015-05-16T11:46:31Z</time>
      </trkpt>
      <trkpt lat="45.74781" lon="5.58762">
        <ele>722.08502724668</ele>
        <time>2015-05-16T11:46:36Z</time>
      </trkpt>
      <trkpt lat="45.74781" lon="5.58773">
        <ele>722.6270873597</ele>
        <time>2015-05-16T11:46:41Z</time>
      </trkpt>
      <trkpt lat="45.74779" lon="5.58782">
        <ele>722.6270873597</ele>
        <time>2015-05-16T11:46:46Z</time>
      </trkpt>
      <trkpt lat="45.74776" lon="5.58786">
        <ele>722.7187636542</ele>
        <time>2015-05-16T11:46:51Z</time>
      </trkpt>
      <trkpt lat="45.74772" lon="5.58791">
        <ele>722.7187636542</ele>
        <time>2015-05-16T11:46:56Z</time>
      </trkpt>
      <trkpt lat="45.74766" lon="5.58796">
        <ele>722.86937218322</ele>
        <time>2015-05-16T11:47:01Z</time>
      </trkpt>
      <trkpt lat="45.7476" lon="5.58801">
        <ele>722.86937218322</ele>
        <time>2015-05-16T11:47:06Z</time>
      </trkpt>
      <trkpt lat="45.74756" lon="5.58803">
        <ele>723.43539738212</ele>
        <time>2015-05-16T11:47:11Z</time>
      </trkpt>
      <trkpt lat="45.74752" lon="5.58806">
        <ele>723.43539738212</ele>
        <time>2015-05-16T11:47:16Z</time>
      </trkpt>
      <trkpt lat="45.74746" lon="5.5881">
        <ele>724.37131676341</ele>
        <time>2015-05-16T11:47:21Z</time>
      </trkpt>
      <trkpt lat="45.7474" lon="5.58813">
        <ele>724.37131676341</ele>
        <time>2015-05-16T11:47:26Z</time>
      </trkpt>
      <trkpt lat="45.74733" lon="5.58816">
        <ele>724.88456887365</ele>
        <time>2015-05-16T11:47:31Z</time>
      </trkpt>
      <trkpt lat="45.74728" lon="5.58819">
        <ele>724.88456887365</ele>
        <time>2015-05-16T11:47:36Z</time>
      </trkpt>
      <trkpt lat="45.74726" lon="5.5882">
        <ele>724.88456887365</ele>
        <time>2015-05-16T11:47:41Z</time>
      </trkpt>
      <trkpt lat="45.7472" lon="5.58825">
        <ele>724.21320672031</ele>
        <time>2015-05-16T11:47:46Z</time>
      </trkpt>
      <trkpt lat="45.74715" lon="5.58829">
        <ele>724.21320672031</ele>
        <time>2015-05-16T11:47:51Z</time>
      </trkpt>
      <trkpt lat="45.7471" lon="5.5883">
        <ele>723.77303927009</ele>
        <time>2015-05-16T11:47:56Z</time>
      </trkpt>
      <trkpt lat="45.74707" lon="5.58831">
        <ele>723.77303927009</ele>
        <time>2015-05-16T11:48:01Z</time>
      </trkpt>
      <trkpt lat="45.74702" lon="5.58834">
        <ele>723.77303927009</ele>
        <time>2015-05-16T11:48:06Z</time>
      </trkpt>
      <trkpt lat="45.74698" lon="5.58837">
        <ele>722.38211830062</ele>
        <time>2015-05-16T11:48:11Z</time>
      </trkpt>
      <trkpt lat="45.74691" lon="5.58841">
        <ele>722.38211830062</ele>
        <time>2015-05-16T11:48:16Z</time>
      </trkpt>
      <trkpt lat="45.74686" lon="5.58844">
        <ele>721.18171980723</ele>
        <time>2015-05-16T11:48:21Z</time>
      </trkpt>
      <trkpt lat="45.74681" lon="5.58849">
        <ele>721.18171980723</ele>
        <time>2015-05-16T11:48:26Z</time>
      </trkpt>
      <trkpt lat="45.74674" lon="5.58856">
        <ele>719.96056594425</ele>
        <time>2015-05-16T11:48:31Z</time>
      </trkpt>
      <trkpt lat="45.74667" lon="5.58858">
        <ele>719.96056594425</ele>
        <time>2015-05-16T11:48:36Z</time>
      </trkpt>
      <trkpt lat="45.74661" lon="5.58862">
        <ele>719.31555354367</ele>
        <time>2015-05-16T11:48:41Z</time>
      </trkpt>
      <trkpt lat="45.74654" lon="5.58867">
        <ele>719.31555354367</ele>
        <time>2015-05-16T11:48:46Z</time>
      </trkpt>
      <trkpt lat="45.74647" lon="5.58876">
        <ele>719.00547844287</ele>
        <time>2015-05-16T11:48:51Z</time>
      </trkpt>
      <trkpt lat="45.74643" lon="5.58879">
        <ele>719.00547844287</ele>
        <time>2015-05-16T11:48:56Z</time>
      </trkpt>
      <trkpt lat="45.74639" lon="5.58885">
        <ele>717.78269147187</ele>
        <time>2015-05-16T11:49:01Z</time>
      </trkpt>
      <trkpt lat="45.74635" lon="5.58889">
        <ele>717.78269147187</ele>
        <time>2015-05-16T11:49:06Z</time>
      </trkpt>
      <trkpt lat="45.74631" lon="5.58894">
        <ele>716.06452366214</ele>
        <time>2015-05-16T11:49:11Z</time>
      </trkpt>
      <trkpt lat="45.74628" lon="5.58897">
        <ele>716.06452366214</ele>
        <time>2015-05-16T11:49:16Z</time>
      </trkpt>
      <trkpt lat="45.74626" lon="5.58901">
        <ele>716.06452366214</ele>
        <time>2015-05-16T11:49:21Z</time>
      </trkpt>
      <trkpt lat="45.74624" lon="5.58904">
        <ele>714.81543183967</ele>
        <time>2015-05-16T11:49:26Z</time>
      </trkpt>
      <trkpt lat="45.7462" lon="5.58913">
        <ele>714.81543183967</ele>
        <time>2015-05-16T11:50:01Z</time>
      </trkpt>
      <trkpt lat="45.74606" lon="5.5897">
        <ele>712.8380345225</ele>
        <time>2015-05-16T11:50:06Z</time>
      </trkpt>
      <trkpt lat="45.74608" lon="5.58984">
        <ele>710.79744579724</ele>
        <time>2015-05-16T11:50:11Z</time>
      </trkpt>
      <trkpt lat="45.74614" lon="5.58993">
        <ele>710.79744579724</ele>
        <time>2015-05-16T11:50:16Z</time>
      </trkpt>
      <trkpt lat="45.74617" lon="5.59007">
        <ele>708.24358880969</ele>
        <time>2015-05-16T11:50:21Z</time>
      </trkpt>
      <trkpt lat="45.74625" lon="5.59017">
        <ele>705.7263338969</ele>
        <time>2015-05-16T11:50:26Z</time>
      </trkpt>
      <trkpt lat="45.74632" lon="5.59024">
        <ele>705.7263338969</ele>
        <time>2015-05-16T11:50:31Z</time>
      </trkpt>
      <trkpt lat="45.74635" lon="5.5903">
        <ele>703.13526354635</ele>
        <time>2015-05-16T11:50:36Z</time>
      </trkpt>
      <trkpt lat="45.74637" lon="5.59038">
        <ele>703.13526354635</ele>
        <time>2015-05-16T11:50:41Z</time>
      </trkpt>
      <trkpt lat="45.7464" lon="5.5905">
        <ele>700.06551640271</ele>
        <time>2015-05-16T11:50:46Z</time>
      </trkpt>
      <trkpt lat="45.74645" lon="5.59056">
        <ele>700.06551640271</ele>
        <time>2015-05-16T11:50:51Z</time>
      </trkpt>
      <trkpt lat="45.74653" lon="5.59063">
        <ele>696.95019401705</ele>
        <time>2015-05-16T11:50:56Z</time>
      </trkpt>
      <trkpt lat="45.74657" lon="5.5907">
        <ele>696.95019401705</ele>
        <time>2015-05-16T11:51:01Z</time>
      </trkpt>
      <trkpt lat="45.74662" lon="5.59077">
        <ele>694.36348714151</ele>
        <time>2015-05-16T11:51:06Z</time>
      </trkpt>
      <trkpt lat="45.74664" lon="5.59083">
        <ele>694.36348714151</ele>
        <time>2015-05-16T11:51:11Z</time>
      </trkpt>
      <trkpt lat="45.74667" lon="5.59096">
        <ele>691.81256572433</ele>
        <time>2015-05-16T11:51:16Z</time>
      </trkpt>
      <trkpt lat="45.74669" lon="5.5911">
        <ele>689.37373457635</ele>
        <time>2015-05-16T11:51:21Z</time>
      </trkpt>
      <trkpt lat="45.74669" lon="5.59118">
        <ele>689.37373457635</ele>
        <time>2015-05-16T11:51:26Z</time>
      </trkpt>
      <trkpt lat="45.74668" lon="5.59127">
        <ele>686.82896951562</ele>
        <time>2015-05-16T11:51:31Z</time>
      </trkpt>
      <trkpt lat="45.7467" lon="5.59134">
        <ele>686.82896951562</ele>
        <time>2015-05-16T11:51:36Z</time>
      </trkpt>
      <trkpt lat="45.74668" lon="5.59141">
        <ele>684.1492999275</ele>
        <time>2015-05-16T11:51:41Z</time>
      </trkpt>
      <trkpt lat="45.74667" lon="5.59142">
        <ele>684.1492999275</ele>
        <time>2015-05-16T11:51:46Z</time>
      </trkpt>
      <trkpt lat="45.74667" lon="5.59145">
        <ele>684.1492999275</ele>
        <time>2015-05-16T11:51:51Z</time>
      </trkpt>
      <trkpt lat="45.74667" lon="5.59146">
        <ele>684.1492999275</ele>
        <time>2015-05-16T11:51:56Z</time>
      </trkpt>
      <trkpt lat="45.74668" lon="5.59148">
        <ele>684.1492999275</ele>
        <time>2015-05-16T11:52:01Z</time>
      </trkpt>
      <trkpt lat="45.7467" lon="5.59148">
        <ele>684.1492999275</ele>
        <time>2015-05-16T11:52:06Z</time>
      </trkpt>
      <trkpt lat="45.74671" lon="5.59148">
        <ele>682.15832083883</ele>
        <time>2015-05-16T11:52:11Z</time>
      </trkpt>
      <trkpt lat="45.74671" lon="5.59148">
        <ele>682.15832083883</ele>
        <time>2015-05-16T11:52:16Z</time>
      </trkpt>
      <trkpt lat="45.74671" lon="5.59148">
        <ele>682.15832083883</ele>
        <time>2015-05-16T11:52:21Z</time>
      </trkpt>
      <trkpt lat="45.74671" lon="5.59148">
        <ele>682.15832083883</ele>
        <time>2015-05-16T11:52:26Z</time>
      </trkpt>
      <trkpt lat="45.74671" lon="5.59149">
        <ele>682.15832083883</ele>
        <time>2015-05-16T11:52:31Z</time>
      </trkpt>
      <trkpt lat="45.74671" lon="5.59149">
        <ele>682.15832083883</ele>
        <time>2015-05-16T11:52:36Z</time>
      </trkpt>
      <trkpt lat="45.74671" lon="5.59149">
        <ele>682.15832083883</ele>
        <time>2015-05-16T11:52:41Z</time>
      </trkpt>
      <trkpt lat="45.74671" lon="5.59149">
        <ele>682.15832083883</ele>
        <time>2015-05-16T11:52:46Z</time>
      </trkpt>
      <trkpt lat="45.74671" lon="5.59149">
        <ele>682.15832083883</ele>
        <time>2015-05-16T11:52:51Z</time>
      </trkpt>
      <trkpt lat="45.74671" lon="5.59149">
        <ele>682.15832083883</ele>
        <time>2015-05-16T11:52:56Z</time>
      </trkpt>
      <trkpt lat="45.74671" lon="5.59149">
        <ele>682.15832083883</ele>
        <time>2015-05-16T11:53:01Z</time>
      </trkpt>
      <trkpt lat="45.74671" lon="5.59149">
        <ele>682.15832083883</ele>
        <time>2015-05-16T11:53:06Z</time>
      </trkpt>
      <trkpt lat="45.74671" lon="5.59149">
        <ele>682.15832083883</ele>
        <time>2015-05-16T11:53:11Z</time>
      </trkpt>
      <trkpt lat="45.74671" lon="5.59149">
        <ele>682.15832083883</ele>
        <time>2015-05-16T11:53:16Z</time>
      </trkpt>
      <trkpt lat="45.74671" lon="5.59149">
        <ele>682.15832083883</ele>
        <time>2015-05-16T11:53:21Z</time>
      </trkpt>
      <trkpt lat="45.74671" lon="5.59149">
        <ele>682.15832083883</ele>
        <time>2015-05-16T11:53:26Z</time>
      </trkpt>
      <trkpt lat="45.74672" lon="5.59151">
        <ele>682.15832083883</ele>
        <time>2015-05-16T11:53:31Z</time>
      </trkpt>
      <trkpt lat="45.74671" lon="5.59153">
        <ele>682.15832083883</ele>
        <time>2015-05-16T11:53:36Z</time>
      </trkpt>
      <trkpt lat="45.74671" lon="5.59153">
        <ele>682.15832083883</ele>
        <time>2015-05-16T11:53:41Z</time>
      </trkpt>
      <trkpt lat="45.74671" lon="5.59153">
        <ele>682.15832083883</ele>
        <time>2015-05-16T11:53:46Z</time>
      </trkpt>
      <trkpt lat="45.74671" lon="5.59154">
        <ele>682.15832083883</ele>
        <time>2015-05-16T11:53:51Z</time>
      </trkpt>
      <trkpt lat="45.74671" lon="5.59154">
        <ele>682.15832083883</ele>
        <time>2015-05-16T11:53:56Z</time>
      </trkpt>
      <trkpt lat="45.74674" lon="5.59155">
        <ele>682.15832083883</ele>
        <time>2015-05-16T11:54:01Z</time>
      </trkpt>
      <trkpt lat="45.74678" lon="5.59154">
        <ele>680.40646182099</ele>
        <time>2015-05-16T11:54:06Z</time>
      </trkpt>
      <trkpt lat="45.74683" lon="5.59154">
        <ele>680.40646182099</ele>
        <time>2015-05-16T11:54:11Z</time>
      </trkpt>
      <trkpt lat="45.74691" lon="5.59153">
        <ele>678.62041912176</ele>
        <time>2015-05-16T11:54:16Z</time>
      </trkpt>
      <trkpt lat="45.74698" lon="5.59156">
        <ele>678.62041912176</ele>
        <time>2015-05-16T11:54:21Z</time>
      </trkpt>
      <trkpt lat="45.747" lon="5.59161">
        <ele>676.18658594771</ele>
        <time>2015-05-16T11:54:26Z</time>
      </trkpt>
      <trkpt lat="45.74705" lon="5.59164">
        <ele>676.18658594771</ele>
        <time>2015-05-16T11:54:31Z</time>
      </trkpt>
      <trkpt lat="45.74707" lon="5.59167">
        <ele>676.18658594771</ele>
        <time>2015-05-16T11:54:36Z</time>
      </trkpt>
      <trkpt lat="45.74707" lon="5.59173">
        <ele>673.11449584644</ele>
        <time>2015-05-16T11:54:41Z</time>
      </trkpt>
      <trkpt lat="45.74704" lon="5.59181">
        <ele>673.11449584644</ele>
        <time>2015-05-16T11:54:46Z</time>
      </trkpt>
      <trkpt lat="45.74701" lon="5.59187">
        <ele>670.56746559615</ele>
        <time>2015-05-16T11:54:51Z</time>
      </trkpt>
      <trkpt lat="45.74696" lon="5.59194">
        <ele>670.56746559615</ele>
        <time>2015-05-16T11:54:56Z</time>
      </trkpt>
      <trkpt lat="45.74694" lon="5.59196">
        <ele>668.41115217076</ele>
        <time>2015-05-16T11:55:01Z</time>
      </trkpt>
      <trkpt lat="45.74685" lon="5.59198">
        <ele>665.98657679827</ele>
        <time>2015-05-16T11:55:06Z</time>
      </trkpt>
      <trkpt lat="45.74678" lon="5.59202">
        <ele>665.98657679827</ele>
        <time>2015-05-16T11:55:11Z</time>
      </trkpt>
      <trkpt lat="45.7467" lon="5.59207">
        <ele>664.21130447925</ele>
        <time>2015-05-16T11:55:16Z</time>
      </trkpt>
      <trkpt lat="45.74665" lon="5.5921">
        <ele>664.21130447925</ele>
        <time>2015-05-16T11:55:21Z</time>
      </trkpt>
      <trkpt lat="45.74659" lon="5.59212">
        <ele>662.00239325857</ele>
        <time>2015-05-16T11:55:26Z</time>
      </trkpt>
      <trkpt lat="45.74654" lon="5.59215">
        <ele>662.00239325857</ele>
        <time>2015-05-16T11:55:31Z</time>
      </trkpt>
      <trkpt lat="45.74647" lon="5.5922">
        <ele>660.23092818618</ele>
        <time>2015-05-16T11:55:36Z</time>
      </trkpt>
      <trkpt lat="45.74641" lon="5.59222">
        <ele>660.23092818618</ele>
        <time>2015-05-16T11:55:41Z</time>
      </trkpt>
      <trkpt lat="45.74636" lon="5.59225">
        <ele>658.92439726377</ele>
        <time>2015-05-16T11:55:46Z</time>
      </trkpt>
      <trkpt lat="45.74631" lon="5.59232">
        <ele>658.92439726377</ele>
        <time>2015-05-16T11:55:51Z</time>
      </trkpt>
      <trkpt lat="45.74624" lon="5.59234">
        <ele>657.32859228196</ele>
        <time>2015-05-16T11:55:56Z</time>
      </trkpt>
      <trkpt lat="45.74618" lon="5.59239">
        <ele>657.32859228196</ele>
        <time>2015-05-16T11:56:01Z</time>
      </trkpt>
      <trkpt lat="45.74615" lon="5.59249">
        <ele>655.92706832717</ele>
        <time>2015-05-16T11:56:06Z</time>
      </trkpt>
      <trkpt lat="45.74616" lon="5.59248">
        <ele>655.92706832717</ele>
        <time>2015-05-16T11:56:11Z</time>
      </trkpt>
      <trkpt lat="45.74615" lon="5.59248">
        <ele>655.92706832717</ele>
        <time>2015-05-16T11:56:16Z</time>
      </trkpt>
      <trkpt lat="45.74613" lon="5.59248">
        <ele>655.92706832717</ele>
        <time>2015-05-16T11:56:21Z</time>
      </trkpt>
      <trkpt lat="45.74613" lon="5.59249">
        <ele>655.92706832717</ele>
        <time>2015-05-16T11:56:26Z</time>
      </trkpt>
      <trkpt lat="45.74613" lon="5.59251">
        <ele>655.92706832717</ele>
        <time>2015-05-16T11:56:31Z</time>
      </trkpt>
      <trkpt lat="45.74613" lon="5.59251">
        <ele>655.92706832717</ele>
        <time>2015-05-16T11:56:36Z</time>
      </trkpt>
      <trkpt lat="45.74612" lon="5.5925">
        <ele>655.92706832717</ele>
        <time>2015-05-16T11:56:41Z</time>
      </trkpt>
      <trkpt lat="45.74601" lon="5.59253">
        <ele>655.44097306789</ele>
        <time>2015-05-16T11:56:46Z</time>
      </trkpt>
      <trkpt lat="45.74592" lon="5.59261">
        <ele>654.86408218429</ele>
        <time>2015-05-16T11:56:51Z</time>
      </trkpt>
      <trkpt lat="45.74585" lon="5.59267">
        <ele>654.86408218429</ele>
        <time>2015-05-16T11:56:56Z</time>
      </trkpt>
      <trkpt lat="45.74579" lon="5.59272">
        <ele>654.31622878851</ele>
        <time>2015-05-16T11:57:01Z</time>
      </trkpt>
      <trkpt lat="45.74566" lon="5.59274">
        <ele>653.93707389949</ele>
        <time>2015-05-16T11:57:06Z</time>
      </trkpt>
      <trkpt lat="45.74552" lon="5.59283">
        <ele>653.6969297767</ele>
        <time>2015-05-16T11:57:11Z</time>
      </trkpt>
      <trkpt lat="45.74538" lon="5.59293">
        <ele>653.91368904523</ele>
        <time>2015-05-16T11:57:16Z</time>
      </trkpt>
      <trkpt lat="45.7453" lon="5.59302">
        <ele>653.23768096331</ele>
        <time>2015-05-16T11:57:21Z</time>
      </trkpt>
      <trkpt lat="45.74525" lon="5.59306">
        <ele>653.23768096331</ele>
        <time>2015-05-16T11:57:26Z</time>
      </trkpt>
      <trkpt lat="45.74524" lon="5.59313">
        <ele>651.54490297568</ele>
        <time>2015-05-16T11:57:31Z</time>
      </trkpt>
      <trkpt lat="45.74525" lon="5.5932">
        <ele>651.54490297568</ele>
        <time>2015-05-16T11:57:36Z</time>
      </trkpt>
      <trkpt lat="45.74527" lon="5.59327">
        <ele>650.35173145083</ele>
        <time>2015-05-16T11:57:41Z</time>
      </trkpt>
      <trkpt lat="45.7453" lon="5.5933">
        <ele>650.35173145083</ele>
        <time>2015-05-16T11:57:46Z</time>
      </trkpt>
      <trkpt lat="45.74535" lon="5.5933">
        <ele>650.35173145083</ele>
        <time>2015-05-16T11:57:51Z</time>
      </trkpt>
      <trkpt lat="45.74532" lon="5.59319">
        <ele>649.5917845793</ele>
        <time>2015-05-16T11:57:56Z</time>
      </trkpt>
      <trkpt lat="45.74541" lon="5.59307">
        <ele>648.75557220385</ele>
        <time>2015-05-16T11:58:01Z</time>
      </trkpt>
      <trkpt lat="45.7455" lon="5.59292">
        <ele>648.14265993477</ele>
        <time>2015-05-16T11:58:06Z</time>
      </trkpt>
      <trkpt lat="45.74561" lon="5.59281">
        <ele>647.52974766569</ele>
        <time>2015-05-16T11:58:11Z</time>
      </trkpt>
      <trkpt lat="45.74572" lon="5.59281">
        <ele>646.61942928591</ele>
        <time>2015-05-16T11:58:16Z</time>
      </trkpt>
      <trkpt lat="45.74574" lon="5.59288">
        <ele>646.61942928591</ele>
        <time>2015-05-16T11:58:21Z</time>
      </trkpt>
      <trkpt lat="45.74574" lon="5.59298">
        <ele>646.97968096399</ele>
        <time>2015-05-16T11:58:26Z</time>
      </trkpt>
      <trkpt lat="45.74559" lon="5.59308">
        <ele>649.05951709996</ele>
        <time>2015-05-16T11:58:31Z</time>
      </trkpt>
      <trkpt lat="45.74569" lon="5.59312">
        <ele>651.25261049114</ele>
        <time>2015-05-16T11:58:36Z</time>
      </trkpt>
      <trkpt lat="45.74573" lon="5.59313">
        <ele>651.25261049114</ele>
        <time>2015-05-16T11:58:41Z</time>
      </trkpt>
      <trkpt lat="45.74573" lon="5.59313">
        <ele>651.25261049114</ele>
        <time>2015-05-16T11:58:46Z</time>
      </trkpt>
      <trkpt lat="45.74573" lon="5.59313">
        <ele>651.25261049114</ele>
        <time>2015-05-16T11:58:51Z</time>
      </trkpt>
      <trkpt lat="45.74573" lon="5.59313">
        <ele>651.25261049114</ele>
        <time>2015-05-16T11:58:56Z</time>
      </trkpt>
      <trkpt lat="45.74574" lon="5.59314">
        <ele>651.25261049114</ele>
        <time>2015-05-16T11:59:01Z</time>
      </trkpt>
      <trkpt lat="45.74574" lon="5.59314">
        <ele>651.25261049114</ele>
        <time>2015-05-16T11:59:06Z</time>
      </trkpt>
      <trkpt lat="45.74574" lon="5.59314">
        <ele>651.25261049114</ele>
        <time>2015-05-16T11:59:11Z</time>
      </trkpt>
      <trkpt lat="45.74576" lon="5.59315">
        <ele>651.25261049114</ele>
        <time>2015-05-16T11:59:16Z</time>
      </trkpt>
      <trkpt lat="45.7458" lon="5.59315">
        <ele>652.08476941103</ele>
        <time>2015-05-16T11:59:21Z</time>
      </trkpt>
      <trkpt lat="45.74584" lon="5.59318">
        <ele>652.08476941103</ele>
        <time>2015-05-16T11:59:26Z</time>
      </trkpt>
      <trkpt lat="45.74589" lon="5.59319">
        <ele>652.2115317365</ele>
        <time>2015-05-16T11:59:31Z</time>
      </trkpt>
      <trkpt lat="45.74597" lon="5.59323">
        <ele>652.2115317365</ele>
        <time>2015-05-16T11:59:36Z</time>
      </trkpt>
      <trkpt lat="45.74605" lon="5.59325">
        <ele>651.99734844815</ele>
        <time>2015-05-16T11:59:41Z</time>
      </trkpt>
      <trkpt lat="45.74614" lon="5.59327">
        <ele>651.76653266202</ele>
        <time>2015-05-16T11:59:46Z</time>
      </trkpt>
      <trkpt lat="45.74621" lon="5.59327">
        <ele>651.76653266202</ele>
        <time>2015-05-16T11:59:51Z</time>
      </trkpt>
      <trkpt lat="45.74622" lon="5.59327">
        <ele>651.76653266202</ele>
        <time>2015-05-16T11:59:56Z</time>
      </trkpt>
      <trkpt lat="45.74624" lon="5.59327">
        <ele>651.56031483679</ele>
        <time>2015-05-16T12:00:01Z</time>
      </trkpt>
      <trkpt lat="45.7463" lon="5.59326">
        <ele>651.56031483679</ele>
        <time>2015-05-16T12:00:06Z</time>
      </trkpt>
      <trkpt lat="45.74639" lon="5.59328">
        <ele>651.51780353372</ele>
        <time>2015-05-16T12:00:11Z</time>
      </trkpt>
      <trkpt lat="45.74646" lon="5.59326">
        <ele>651.51780353372</ele>
        <time>2015-05-16T12:00:16Z</time>
      </trkpt>
      <trkpt lat="45.74655" lon="5.59326">
        <ele>651.17667362767</ele>
        <time>2015-05-16T12:00:21Z</time>
      </trkpt>
      <trkpt lat="45.74663" lon="5.59327">
        <ele>651.17667362767</ele>
        <time>2015-05-16T12:00:26Z</time>
      </trkpt>
      <trkpt lat="45.74672" lon="5.59327">
        <ele>650.35448977652</ele>
        <time>2015-05-16T12:00:31Z</time>
      </trkpt>
      <trkpt lat="45.74678" lon="5.59327">
        <ele>650.35448977652</ele>
        <time>2015-05-16T12:00:36Z</time>
      </trkpt>
      <trkpt lat="45.74687" lon="5.59328">
        <ele>648.89807821323</ele>
        <time>2015-05-16T12:00:41Z</time>
      </trkpt>
      <trkpt lat="45.74695" lon="5.5933">
        <ele>648.89807821323</ele>
        <time>2015-05-16T12:00:46Z</time>
      </trkpt>
      <trkpt lat="45.74702" lon="5.59334">
        <ele>646.65297932024</ele>
        <time>2015-05-16T12:00:51Z</time>
      </trkpt>
      <trkpt lat="45.74708" lon="5.59338">
        <ele>646.65297932024</ele>
        <time>2015-05-16T12:00:56Z</time>
      </trkpt>
      <trkpt lat="45.74715" lon="5.59345">
        <ele>644.94831239106</ele>
        <time>2015-05-16T12:01:01Z</time>
      </trkpt>
      <trkpt lat="45.74721" lon="5.59351">
        <ele>644.94831239106</ele>
        <time>2015-05-16T12:01:06Z</time>
      </trkpt>
      <trkpt lat="45.74728" lon="5.59355">
        <ele>643.96210957889</ele>
        <time>2015-05-16T12:01:11Z</time>
      </trkpt>
      <trkpt lat="45.74736" lon="5.59354">
        <ele>643.96210957889</ele>
        <time>2015-05-16T12:01:16Z</time>
      </trkpt>
      <trkpt lat="45.74742" lon="5.59353">
        <ele>643.15123263548</ele>
        <time>2015-05-16T12:01:21Z</time>
      </trkpt>
      <trkpt lat="45.74749" lon="5.59352">
        <ele>643.15123263548</ele>
        <time>2015-05-16T12:01:26Z</time>
      </trkpt>
      <trkpt lat="45.74755" lon="5.59349">
        <ele>642.15612226301</ele>
        <time>2015-05-16T12:01:31Z</time>
      </trkpt>
      <trkpt lat="45.74764" lon="5.59347">
        <ele>641.55210672221</ele>
        <time>2015-05-16T12:01:36Z</time>
      </trkpt>
      <trkpt lat="45.7477" lon="5.59345">
        <ele>641.55210672221</ele>
        <time>2015-05-16T12:01:41Z</time>
      </trkpt>
      <trkpt lat="45.74777" lon="5.59341">
        <ele>640.44450773622</ele>
        <time>2015-05-16T12:01:46Z</time>
      </trkpt>
      <trkpt lat="45.74783" lon="5.5934">
        <ele>640.44450773622</ele>
        <time>2015-05-16T12:01:51Z</time>
      </trkpt>
      <trkpt lat="45.74788" lon="5.59338">
        <ele>638.71197743785</ele>
        <time>2015-05-16T12:01:56Z</time>
      </trkpt>
      <trkpt lat="45.74793" lon="5.59334">
        <ele>638.71197743785</ele>
        <time>2015-05-16T12:02:01Z</time>
      </trkpt>
      <trkpt lat="45.74799" lon="5.5933">
        <ele>636.73385804728</ele>
        <time>2015-05-16T12:02:06Z</time>
      </trkpt>
      <trkpt lat="45.74808" lon="5.59325">
        <ele>635.69819835526</ele>
        <time>2015-05-16T12:02:11Z</time>
      </trkpt>
      <trkpt lat="45.74818" lon="5.5932">
        <ele>635.37734093089</ele>
        <time>2015-05-16T12:02:16Z</time>
      </trkpt>
      <trkpt lat="45.74825" lon="5.59315">
        <ele>635.37734093089</ele>
        <time>2015-05-16T12:02:21Z</time>
      </trkpt>
      <trkpt lat="45.74831" lon="5.59312">
        <ele>635.2989772765</ele>
        <time>2015-05-16T12:02:26Z</time>
      </trkpt>
      <trkpt lat="45.74837" lon="5.59309">
        <ele>635.2989772765</ele>
        <time>2015-05-16T12:02:31Z</time>
      </trkpt>
      <trkpt lat="45.74841" lon="5.59307">
        <ele>634.72221091108</ele>
        <time>2015-05-16T12:02:36Z</time>
      </trkpt>
      <trkpt lat="45.74847" lon="5.59306">
        <ele>634.72221091108</ele>
        <time>2015-05-16T12:02:41Z</time>
      </trkpt>
      <trkpt lat="45.74856" lon="5.59305">
        <ele>633.55285634466</ele>
        <time>2015-05-16T12:02:46Z</time>
      </trkpt>
      <trkpt lat="45.74858" lon="5.5931">
        <ele>633.55285634466</ele>
        <time>2015-05-16T12:02:51Z</time>
      </trkpt>
      <trkpt lat="45.74856" lon="5.59314">
        <ele>633.55285634466</ele>
        <time>2015-05-16T12:02:56Z</time>
      </trkpt>
      <trkpt lat="45.74855" lon="5.5932">
        <ele>632.62765285183</ele>
        <time>2015-05-16T12:03:01Z</time>
      </trkpt>
      <trkpt lat="45.74852" lon="5.59322">
        <ele>632.62765285183</ele>
        <time>2015-05-16T12:03:06Z</time>
      </trkpt>
      <trkpt lat="45.74855" lon="5.59321">
        <ele>632.62765285183</ele>
        <time>2015-05-16T12:03:11Z</time>
      </trkpt>
      <trkpt lat="45.74855" lon="5.59322">
        <ele>632.62765285183</ele>
        <time>2015-05-16T12:03:16Z</time>
      </trkpt>
      <trkpt lat="45.74855" lon="5.59322">
        <ele>632.62765285183</ele>
        <time>2015-05-16T12:03:21Z</time>
      </trkpt>
      <trkpt lat="45.74855" lon="5.59322">
        <ele>632.62765285183</ele>
        <time>2015-05-16T12:03:26Z</time>
      </trkpt>
      <trkpt lat="45.74854" lon="5.59321">
        <ele>632.62765285183</ele>
        <time>2015-05-16T12:03:31Z</time>
      </trkpt>
      <trkpt lat="45.74855" lon="5.59322">
        <ele>632.62765285183</ele>
        <time>2015-05-16T12:03:36Z</time>
      </trkpt>
      <trkpt lat="45.74855" lon="5.59322">
        <ele>632.62765285183</ele>
        <time>2015-05-16T12:03:41Z</time>
      </trkpt>
      <trkpt lat="45.74854" lon="5.59322">
        <ele>632.62765285183</ele>
        <time>2015-05-16T12:03:46Z</time>
      </trkpt>
      <trkpt lat="45.74854" lon="5.59322">
        <ele>632.62765285183</ele>
        <time>2015-05-16T12:03:51Z</time>
      </trkpt>
      <trkpt lat="45.74855" lon="5.59322">
        <ele>632.62765285183</ele>
        <time>2015-05-16T12:03:56Z</time>
      </trkpt>
      <trkpt lat="45.74856" lon="5.59322">
        <ele>631.95743094207</ele>
        <time>2015-05-16T12:04:01Z</time>
      </trkpt>
      <trkpt lat="45.74856" lon="5.59322">
        <ele>631.95743094207</ele>
        <time>2015-05-16T12:04:06Z</time>
      </trkpt>
      <trkpt lat="45.74856" lon="5.59322">
        <ele>631.95743094207</ele>
        <time>2015-05-16T12:04:11Z</time>
      </trkpt>
      <trkpt lat="45.74856" lon="5.59322">
        <ele>631.95743094207</ele>
        <time>2015-05-16T12:04:16Z</time>
      </trkpt>
      <trkpt lat="45.74856" lon="5.59322">
        <ele>631.95743094207</ele>
        <time>2015-05-16T12:04:21Z</time>
      </trkpt>
      <trkpt lat="45.74856" lon="5.59322">
        <ele>631.95743094207</ele>
        <time>2015-05-16T12:04:26Z</time>
      </trkpt>
      <trkpt lat="45.74856" lon="5.59322">
        <ele>631.95743094207</ele>
        <time>2015-05-16T12:04:31Z</time>
      </trkpt>
      <trkpt lat="45.74856" lon="5.59322">
        <ele>631.95743094207</ele>
        <time>2015-05-16T12:04:36Z</time>
      </trkpt>
      <trkpt lat="45.74856" lon="5.59322">
        <ele>631.95743094207</ele>
        <time>2015-05-16T12:04:41Z</time>
      </trkpt>
      <trkpt lat="45.74856" lon="5.59323">
        <ele>631.95743094207</ele>
        <time>2015-05-16T12:04:46Z</time>
      </trkpt>
      <trkpt lat="45.74856" lon="5.59324">
        <ele>631.95743094207</ele>
        <time>2015-05-16T12:04:51Z</time>
      </trkpt>
      <trkpt lat="45.74856" lon="5.59324">
        <ele>631.95743094207</ele>
        <time>2015-05-16T12:04:56Z</time>
      </trkpt>
      <trkpt lat="45.74855" lon="5.59324">
        <ele>631.95743094207</ele>
        <time>2015-05-16T12:05:01Z</time>
      </trkpt>
      <trkpt lat="45.74856" lon="5.59324">
        <ele>631.95743094207</ele>
        <time>2015-05-16T12:05:06Z</time>
      </trkpt>
      <trkpt lat="45.74855" lon="5.59325">
        <ele>631.95743094207</ele>
        <time>2015-05-16T12:05:11Z</time>
      </trkpt>
      <trkpt lat="45.74855" lon="5.59325">
        <ele>631.95743094207</ele>
        <time>2015-05-16T12:05:16Z</time>
      </trkpt>
      <trkpt lat="45.74855" lon="5.59325">
        <ele>631.95743094207</ele>
        <time>2015-05-16T12:05:21Z</time>
      </trkpt>
      <trkpt lat="45.74855" lon="5.59325">
        <ele>631.95743094207</ele>
        <time>2015-05-16T12:05:26Z</time>
      </trkpt>
      <trkpt lat="45.74855" lon="5.59325">
        <ele>631.95743094207</ele>
        <time>2015-05-16T12:05:31Z</time>
      </trkpt>
      <trkpt lat="45.74855" lon="5.59325">
        <ele>631.95743094207</ele>
        <time>2015-05-16T12:05:36Z</time>
      </trkpt>
      <trkpt lat="45.74855" lon="5.59325">
        <ele>631.95743094207</ele>
        <time>2015-05-16T12:05:41Z</time>
      </trkpt>
      <trkpt lat="45.74855" lon="5.59325">
        <ele>631.95743094207</ele>
        <time>2015-05-16T12:05:46Z</time>
      </trkpt>
      <trkpt lat="45.74856" lon="5.59324">
        <ele>631.95743094207</ele>
        <time>2015-05-16T12:05:51Z</time>
      </trkpt>
      <trkpt lat="45.74856" lon="5.59322">
        <ele>631.95743094207</ele>
        <time>2015-05-16T12:05:56Z</time>
      </trkpt>
      <trkpt lat="45.74851" lon="5.59319">
        <ele>631.30655150768</ele>
        <time>2015-05-16T12:06:01Z</time>
      </trkpt>
      <trkpt lat="45.74847" lon="5.59316">
        <ele>631.30655150768</ele>
        <time>2015-05-16T12:06:06Z</time>
      </trkpt>
      <trkpt lat="45.74843" lon="5.59313">
        <ele>631.30655150768</ele>
        <time>2015-05-16T12:06:11Z</time>
      </trkpt>
      <trkpt lat="45.74841" lon="5.59313">
        <ele>630.42783753715</ele>
        <time>2015-05-16T12:06:16Z</time>
      </trkpt>
      <trkpt lat="45.74841" lon="5.59313">
        <ele>630.42783753715</ele>
        <time>2015-05-16T12:06:21Z</time>
      </trkpt>
      <trkpt lat="45.7484" lon="5.59312">
        <ele>630.42783753715</ele>
        <time>2015-05-16T12:06:26Z</time>
      </trkpt>
      <trkpt lat="45.7484" lon="5.59312">
        <ele>630.42783753715</ele>
        <time>2015-05-16T12:06:31Z</time>
      </trkpt>
      <trkpt lat="45.7484" lon="5.5931">
        <ele>630.42783753715</ele>
        <time>2015-05-16T12:06:36Z</time>
      </trkpt>
      <trkpt lat="45.74841" lon="5.5931">
        <ele>630.42783753715</ele>
        <time>2015-05-16T12:06:41Z</time>
      </trkpt>
      <trkpt lat="45.7484" lon="5.5931">
        <ele>630.42783753715</ele>
        <time>2015-05-16T12:06:46Z</time>
      </trkpt>
      <trkpt lat="45.74839" lon="5.59308">
        <ele>630.42783753715</ele>
        <time>2015-05-16T12:06:51Z</time>
      </trkpt>
      <trkpt lat="45.7484" lon="5.59309">
        <ele>630.42783753715</ele>
        <time>2015-05-16T12:06:56Z</time>
      </trkpt>
      <trkpt lat="45.74841" lon="5.5931">
        <ele>630.42783753715</ele>
        <time>2015-05-16T12:07:01Z</time>
      </trkpt>
      <trkpt lat="45.74841" lon="5.59309">
        <ele>629.71261464239</ele>
        <time>2015-05-16T12:07:06Z</time>
      </trkpt>
      <trkpt lat="45.74842" lon="5.59309">
        <ele>629.71261464239</ele>
        <time>2015-05-16T12:07:11Z</time>
      </trkpt>
      <trkpt lat="45.74842" lon="5.59308">
        <ele>629.71261464239</ele>
        <time>2015-05-16T12:07:16Z</time>
      </trkpt>
      <trkpt lat="45.74842" lon="5.59308">
        <ele>629.71261464239</ele>
        <time>2015-05-16T12:07:21Z</time>
      </trkpt>
      <trkpt lat="45.74842" lon="5.59308">
        <ele>629.71261464239</ele>
        <time>2015-05-16T12:07:26Z</time>
      </trkpt>
      <trkpt lat="45.74842" lon="5.59308">
        <ele>629.71261464239</ele>
        <time>2015-05-16T12:07:31Z</time>
      </trkpt>
      <trkpt lat="45.74842" lon="5.59308">
        <ele>629.71261464239</ele>
        <time>2015-05-16T12:07:36Z</time>
      </trkpt>
      <trkpt lat="45.74842" lon="5.59308">
        <ele>629.71261464239</ele>
        <time>2015-05-16T12:07:41Z</time>
      </trkpt>
      <trkpt lat="45.74842" lon="5.59308">
        <ele>629.71261464239</ele>
        <time>2015-05-16T12:07:46Z</time>
      </trkpt>
      <trkpt lat="45.74842" lon="5.59308">
        <ele>629.71261464239</ele>
        <time>2015-05-16T12:07:51Z</time>
      </trkpt>
      <trkpt lat="45.74842" lon="5.59308">
        <ele>629.71261464239</ele>
        <time>2015-05-16T12:07:56Z</time>
      </trkpt>
      <trkpt lat="45.74842" lon="5.59308">
        <ele>629.71261464239</ele>
        <time>2015-05-16T12:08:01Z</time>
      </trkpt>
      <trkpt lat="45.74842" lon="5.5931">
        <ele>629.71261464239</ele>
        <time>2015-05-16T12:08:06Z</time>
      </trkpt>
      <trkpt lat="45.74842" lon="5.59313">
        <ele>629.71261464239</ele>
        <time>2015-05-16T12:08:11Z</time>
      </trkpt>
      <trkpt lat="45.74842" lon="5.59314">
        <ele>629.71261464239</ele>
        <time>2015-05-16T12:08:16Z</time>
      </trkpt>
      <trkpt lat="45.74842" lon="5.59315">
        <ele>629.71261464239</ele>
        <time>2015-05-16T12:08:21Z</time>
      </trkpt>
      <trkpt lat="45.74842" lon="5.59315">
        <ele>629.71261464239</ele>
        <time>2015-05-16T12:08:26Z</time>
      </trkpt>
      <trkpt lat="45.74842" lon="5.59315">
        <ele>629.71261464239</ele>
        <time>2015-05-16T12:08:31Z</time>
      </trkpt>
      <trkpt lat="45.74842" lon="5.59315">
        <ele>629.71261464239</ele>
        <time>2015-05-16T12:08:36Z</time>
      </trkpt>
      <trkpt lat="45.74842" lon="5.59315">
        <ele>629.71261464239</ele>
        <time>2015-05-16T12:08:41Z</time>
      </trkpt>
      <trkpt lat="45.74842" lon="5.59315">
        <ele>629.71261464239</ele>
        <time>2015-05-16T12:08:46Z</time>
      </trkpt>
      <trkpt lat="45.74842" lon="5.59315">
        <ele>629.71261464239</ele>
        <time>2015-05-16T12:08:51Z</time>
      </trkpt>
      <trkpt lat="45.74842" lon="5.59315">
        <ele>629.71261464239</ele>
        <time>2015-05-16T12:08:56Z</time>
      </trkpt>
      <trkpt lat="45.74842" lon="5.59318">
        <ele>629.71261464239</ele>
        <time>2015-05-16T12:09:01Z</time>
      </trkpt>
      <trkpt lat="45.74843" lon="5.5932">
        <ele>629.71037639718</ele>
        <time>2015-05-16T12:09:06Z</time>
      </trkpt>
      <trkpt lat="45.74843" lon="5.5932">
        <ele>629.71037639718</ele>
        <time>2015-05-16T12:09:11Z</time>
      </trkpt>
      <trkpt lat="45.74843" lon="5.5932">
        <ele>629.71037639718</ele>
        <time>2015-05-16T12:09:16Z</time>
      </trkpt>
      <trkpt lat="45.74845" lon="5.5932">
        <ele>629.71037639718</ele>
        <time>2015-05-16T12:09:21Z</time>
      </trkpt>
      <trkpt lat="45.74845" lon="5.59321">
        <ele>629.71037639718</ele>
        <time>2015-05-16T12:09:26Z</time>
      </trkpt>
      <trkpt lat="45.74845" lon="5.59329">
        <ele>629.96273640883</ele>
        <time>2015-05-16T12:09:31Z</time>
      </trkpt>
      <trkpt lat="45.74844" lon="5.59331">
        <ele>629.96273640883</ele>
        <time>2015-05-16T12:09:36Z</time>
      </trkpt>
      <trkpt lat="45.74844" lon="5.59314">
        <ele>629.59755503727</ele>
        <time>2015-05-16T12:46:29Z</time>
      </trkpt>
      <trkpt lat="45.74844" lon="5.59317">
        <ele>629.59755503727</ele>
        <time>2015-05-16T12:46:34Z</time>
      </trkpt>
      <trkpt lat="45.74843" lon="5.59314">
        <ele>629.59755503727</ele>
        <time>2015-05-16T12:46:39Z</time>
      </trkpt>
      <trkpt lat="45.74844" lon="5.59314">
        <ele>629.59755503727</ele>
        <time>2015-05-16T12:46:44Z</time>
      </trkpt>
      <trkpt lat="45.74843" lon="5.59313">
        <ele>629.59755503727</ele>
        <time>2015-05-16T12:46:49Z</time>
      </trkpt>
      <trkpt lat="45.74845" lon="5.59313">
        <ele>629.59755503727</ele>
        <time>2015-05-16T12:46:54Z</time>
      </trkpt>
      <trkpt lat="45.74845" lon="5.59314">
        <ele>629.59755503727</ele>
        <time>2015-05-16T12:46:59Z</time>
      </trkpt>
      <trkpt lat="45.74849" lon="5.59311">
        <ele>629.22081750396</ele>
        <time>2015-05-16T12:47:04Z</time>
      </trkpt>
      <trkpt lat="45.74851" lon="5.59312">
        <ele>629.22081750396</ele>
        <time>2015-05-16T12:47:09Z</time>
      </trkpt>
      <trkpt lat="45.7485" lon="5.59315">
        <ele>629.22081750396</ele>
        <time>2015-05-16T12:47:14Z</time>
      </trkpt>
      <trkpt lat="45.74853" lon="5.59317">
        <ele>629.22081750396</ele>
        <time>2015-05-16T12:47:19Z</time>
      </trkpt>
      <trkpt lat="45.74857" lon="5.59323">
        <ele>628.8176208016</ele>
        <time>2015-05-16T12:47:24Z</time>
      </trkpt>
      <trkpt lat="45.74861" lon="5.5933">
        <ele>628.8176208016</ele>
        <time>2015-05-16T12:47:29Z</time>
      </trkpt>
      <trkpt lat="45.74861" lon="5.59337">
        <ele>628.51838345308</ele>
        <time>2015-05-16T12:47:34Z</time>
      </trkpt>
      <trkpt lat="45.74863" lon="5.5934">
        <ele>628.51838345308</ele>
        <time>2015-05-16T12:47:39Z</time>
      </trkpt>
      <trkpt lat="45.74867" lon="5.59335">
        <ele>628.51838345308</ele>
        <time>2015-05-16T12:47:44Z</time>
      </trkpt>
      <trkpt lat="45.74867" lon="5.59329">
        <ele>626.3252567853</ele>
        <time>2015-05-16T12:47:49Z</time>
      </trkpt>
      <trkpt lat="45.7487" lon="5.59325">
        <ele>626.3252567853</ele>
        <time>2015-05-16T12:47:54Z</time>
      </trkpt>
      <trkpt lat="45.74873" lon="5.59321">
        <ele>626.3252567853</ele>
        <time>2015-05-16T12:47:59Z</time>
      </trkpt>
      <trkpt lat="45.74877" lon="5.59317">
        <ele>625.10493707283</ele>
        <time>2015-05-16T12:48:04Z</time>
      </trkpt>
      <trkpt lat="45.74883" lon="5.59313">
        <ele>625.10493707283</ele>
        <time>2015-05-16T12:48:09Z</time>
      </trkpt>
      <trkpt lat="45.74889" lon="5.59311">
        <ele>623.83600175723</ele>
        <time>2015-05-16T12:48:14Z</time>
      </trkpt>
      <trkpt lat="45.74894" lon="5.59309">
        <ele>623.83600175723</ele>
        <time>2015-05-16T12:48:19Z</time>
      </trkpt>
      <trkpt lat="45.74898" lon="5.59308">
        <ele>622.91245622567</ele>
        <time>2015-05-16T12:48:24Z</time>
      </trkpt>
      <trkpt lat="45.74902" lon="5.59308">
        <ele>622.91245622567</ele>
        <time>2015-05-16T12:48:29Z</time>
      </trkpt>
      <trkpt lat="45.74909" lon="5.59308">
        <ele>622.35254598044</ele>
        <time>2015-05-16T12:48:34Z</time>
      </trkpt>
      <trkpt lat="45.74917" lon="5.59307">
        <ele>622.35254598044</ele>
        <time>2015-05-16T12:48:39Z</time>
      </trkpt>
      <trkpt lat="45.74922" lon="5.5931">
        <ele>621.17780463535</ele>
        <time>2015-05-16T12:48:44Z</time>
      </trkpt>
      <trkpt lat="45.74924" lon="5.59313">
        <ele>621.17780463535</ele>
        <time>2015-05-16T12:48:49Z</time>
      </trkpt>
      <trkpt lat="45.74928" lon="5.59311">
        <ele>621.17780463535</ele>
        <time>2015-05-16T12:48:54Z</time>
      </trkpt>
      <trkpt lat="45.74933" lon="5.59309">
        <ele>619.89567007405</ele>
        <time>2015-05-16T12:48:59Z</time>
      </trkpt>
      <trkpt lat="45.74938" lon="5.59311">
        <ele>619.89567007405</ele>
        <time>2015-05-16T12:49:04Z</time>
      </trkpt>
      <trkpt lat="45.74941" lon="5.59315">
        <ele>619.5242387705</ele>
        <time>2015-05-16T12:49:09Z</time>
      </trkpt>
      <trkpt lat="45.74943" lon="5.59314">
        <ele>619.5242387705</ele>
        <time>2015-05-16T12:49:14Z</time>
      </trkpt>
      <trkpt lat="45.74947" lon="5.5931">
        <ele>619.5242387705</ele>
        <time>2015-05-16T12:49:19Z</time>
      </trkpt>
      <trkpt lat="45.74952" lon="5.59308">
        <ele>617.61765837149</ele>
        <time>2015-05-16T12:49:24Z</time>
      </trkpt>
      <trkpt lat="45.74958" lon="5.59308">
        <ele>617.61765837149</ele>
        <time>2015-05-16T12:49:29Z</time>
      </trkpt>
      <trkpt lat="45.74963" lon="5.59305">
        <ele>615.14214543639</ele>
        <time>2015-05-16T12:49:34Z</time>
      </trkpt>
      <trkpt lat="45.7497" lon="5.593">
        <ele>615.14214543639</ele>
        <time>2015-05-16T12:49:39Z</time>
      </trkpt>
      <trkpt lat="45.74976" lon="5.59296">
        <ele>613.10981831218</ele>
        <time>2015-05-16T12:49:44Z</time>
      </trkpt>
      <trkpt lat="45.74983" lon="5.59301">
        <ele>613.10981831218</ele>
        <time>2015-05-16T12:49:49Z</time>
      </trkpt>
      <trkpt lat="45.74989" lon="5.5931">
        <ele>611.9816230229</ele>
        <time>2015-05-16T12:49:54Z</time>
      </trkpt>
      <trkpt lat="45.74994" lon="5.59317">
        <ele>611.9816230229</ele>
        <time>2015-05-16T12:49:59Z</time>
      </trkpt>
      <trkpt lat="45.74998" lon="5.59328">
        <ele>610.84185432299</ele>
        <time>2015-05-16T12:50:04Z</time>
      </trkpt>
      <trkpt lat="45.75" lon="5.59335">
        <ele>610.84185432299</ele>
        <time>2015-05-16T12:50:09Z</time>
      </trkpt>
      <trkpt lat="45.75" lon="5.59344">
        <ele>609.86527087518</ele>
        <time>2015-05-16T12:50:14Z</time>
      </trkpt>
      <trkpt lat="45.75001" lon="5.59348">
        <ele>609.86527087518</ele>
        <time>2015-05-16T12:50:19Z</time>
      </trkpt>
      <trkpt lat="45.75003" lon="5.59353">
        <ele>609.86527087518</ele>
        <time>2015-05-16T12:50:24Z</time>
      </trkpt>
      <trkpt lat="45.75008" lon="5.59358">
        <ele>609.37183227383</ele>
        <time>2015-05-16T12:50:29Z</time>
      </trkpt>
      <trkpt lat="45.75014" lon="5.59362">
        <ele>609.37183227383</ele>
        <time>2015-05-16T12:50:34Z</time>
      </trkpt>
      <trkpt lat="45.7502" lon="5.59363">
        <ele>608.66224682573</ele>
        <time>2015-05-16T12:50:39Z</time>
      </trkpt>
      <trkpt lat="45.75024" lon="5.5936">
        <ele>608.66224682573</ele>
        <time>2015-05-16T12:50:44Z</time>
      </trkpt>
      <trkpt lat="45.75028" lon="5.5936">
        <ele>607.40621961143</ele>
        <time>2015-05-16T12:50:49Z</time>
      </trkpt>
      <trkpt lat="45.75032" lon="5.59361">
        <ele>607.40621961143</ele>
        <time>2015-05-16T12:50:54Z</time>
      </trkpt>
      <trkpt lat="45.75033" lon="5.59364">
        <ele>607.40621961143</ele>
        <time>2015-05-16T12:50:59Z</time>
      </trkpt>
      <trkpt lat="45.75036" lon="5.59366">
        <ele>607.40621961143</ele>
        <time>2015-05-16T12:51:04Z</time>
      </trkpt>
      <trkpt lat="45.75041" lon="5.59369">
        <ele>607.14385398556</ele>
        <time>2015-05-16T12:51:09Z</time>
      </trkpt>
      <trkpt lat="45.75047" lon="5.59371">
        <ele>607.14385398556</ele>
        <time>2015-05-16T12:51:14Z</time>
      </trkpt>
      <trkpt lat="45.75052" lon="5.59373">
        <ele>607.55556902782</ele>
        <time>2015-05-16T12:51:19Z</time>
      </trkpt>
      <trkpt lat="45.75057" lon="5.59373">
        <ele>607.55556902782</ele>
        <time>2015-05-16T12:51:24Z</time>
      </trkpt>
      <trkpt lat="45.75061" lon="5.59372">
        <ele>607.55556902782</ele>
        <time>2015-05-16T12:51:29Z</time>
      </trkpt>
      <trkpt lat="45.75066" lon="5.59374">
        <ele>606.94547798552</ele>
        <time>2015-05-16T12:51:34Z</time>
      </trkpt>
      <trkpt lat="45.75072" lon="5.59373">
        <ele>606.94547798552</ele>
        <time>2015-05-16T12:51:39Z</time>
      </trkpt>
      <trkpt lat="45.75078" lon="5.59373">
        <ele>605.92120937571</ele>
        <time>2015-05-16T12:51:44Z</time>
      </trkpt>
      <trkpt lat="45.75083" lon="5.59373">
        <ele>605.92120937571</ele>
        <time>2015-05-16T12:51:49Z</time>
      </trkpt>
      <trkpt lat="45.75088" lon="5.59376">
        <ele>604.49928963454</ele>
        <time>2015-05-16T12:51:54Z</time>
      </trkpt>
      <trkpt lat="45.75089" lon="5.59377">
        <ele>604.49928963454</ele>
        <time>2015-05-16T12:51:59Z</time>
      </trkpt>
      <trkpt lat="45.75091" lon="5.59377">
        <ele>604.49928963454</ele>
        <time>2015-05-16T12:52:04Z</time>
      </trkpt>
      <trkpt lat="45.75095" lon="5.59376">
        <ele>604.49928963454</ele>
        <time>2015-05-16T12:52:09Z</time>
      </trkpt>
      <trkpt lat="45.75101" lon="5.59376">
        <ele>602.95554150844</ele>
        <time>2015-05-16T12:52:14Z</time>
      </trkpt>
      <trkpt lat="45.75106" lon="5.59381">
        <ele>602.95554150844</ele>
        <time>2015-05-16T12:52:19Z</time>
      </trkpt>
      <trkpt lat="45.75112" lon="5.59383">
        <ele>602.29523905159</ele>
        <time>2015-05-16T12:52:24Z</time>
      </trkpt>
      <trkpt lat="45.75118" lon="5.59383">
        <ele>602.29523905159</ele>
        <time>2015-05-16T12:52:29Z</time>
      </trkpt>
      <trkpt lat="45.75123" lon="5.59381">
        <ele>601.76122223707</ele>
        <time>2015-05-16T12:52:34Z</time>
      </trkpt>
      <trkpt lat="45.75127" lon="5.59381">
        <ele>601.76122223707</ele>
        <time>2015-05-16T12:52:39Z</time>
      </trkpt>
      <trkpt lat="45.7513" lon="5.59384">
        <ele>601.76122223707</ele>
        <time>2015-05-16T12:52:44Z</time>
      </trkpt>
      <trkpt lat="45.75131" lon="5.59394">
        <ele>600.03190876425</ele>
        <time>2015-05-16T12:52:49Z</time>
      </trkpt>
      <trkpt lat="45.75133" lon="5.59395">
        <ele>600.03190876425</ele>
        <time>2015-05-16T12:52:54Z</time>
      </trkpt>
      <trkpt lat="45.75134" lon="5.59396">
        <ele>600.03190876425</ele>
        <time>2015-05-16T12:52:59Z</time>
      </trkpt>
      <trkpt lat="45.75134" lon="5.59397">
        <ele>600.03190876425</ele>
        <time>2015-05-16T12:53:04Z</time>
      </trkpt>
      <trkpt lat="45.75135" lon="5.59399">
        <ele>600.03190876425</ele>
        <time>2015-05-16T12:53:09Z</time>
      </trkpt>
      <trkpt lat="45.75137" lon="5.59401">
        <ele>600.03190876425</ele>
        <time>2015-05-16T12:53:14Z</time>
      </trkpt>
      <trkpt lat="45.7514" lon="5.59401">
        <ele>597.7307617703</ele>
        <time>2015-05-16T12:53:19Z</time>
      </trkpt>
      <trkpt lat="45.75143" lon="5.59401">
        <ele>597.7307617703</ele>
        <time>2015-05-16T12:53:24Z</time>
      </trkpt>
      <trkpt lat="45.75147" lon="5.59403">
        <ele>597.7307617703</ele>
        <time>2015-05-16T12:53:29Z</time>
      </trkpt>
      <trkpt lat="45.75151" lon="5.59405">
        <ele>595.75407682322</ele>
        <time>2015-05-16T12:53:34Z</time>
      </trkpt>
      <trkpt lat="45.75156" lon="5.59406">
        <ele>595.75407682322</ele>
        <time>2015-05-16T12:53:39Z</time>
      </trkpt>
      <trkpt lat="45.75159" lon="5.59407">
        <ele>595.75407682322</ele>
        <time>2015-05-16T12:53:44Z</time>
      </trkpt>
      <trkpt lat="45.75162" lon="5.59409">
        <ele>593.61996261892</ele>
        <time>2015-05-16T12:53:49Z</time>
      </trkpt>
      <trkpt lat="45.75166" lon="5.59409">
        <ele>593.61996261892</ele>
        <time>2015-05-16T12:53:54Z</time>
      </trkpt>
      <trkpt lat="45.7517" lon="5.59412">
        <ele>593.61996261892</ele>
        <time>2015-05-16T12:53:59Z</time>
      </trkpt>
      <trkpt lat="45.75174" lon="5.59412">
        <ele>591.14173637521</ele>
        <time>2015-05-16T12:54:04Z</time>
      </trkpt>
      <trkpt lat="45.75179" lon="5.59417">
        <ele>591.14173637521</ele>
        <time>2015-05-16T12:54:09Z</time>
      </trkpt>
      <trkpt lat="45.75184" lon="5.59419">
        <ele>588.39234100089</ele>
        <time>2015-05-16T12:54:14Z</time>
      </trkpt>
      <trkpt lat="45.75188" lon="5.59419">
        <ele>588.39234100089</ele>
        <time>2015-05-16T12:54:19Z</time>
      </trkpt>
      <trkpt lat="45.75192" lon="5.59422">
        <ele>588.39234100089</ele>
        <time>2015-05-16T12:54:24Z</time>
      </trkpt>
      <trkpt lat="45.75196" lon="5.59426">
        <ele>584.69069015675</ele>
        <time>2015-05-16T12:54:29Z</time>
      </trkpt>
      <trkpt lat="45.75199" lon="5.59429">
        <ele>584.69069015675</ele>
        <time>2015-05-16T12:54:34Z</time>
      </trkpt>
      <trkpt lat="45.75202" lon="5.59436">
        <ele>584.69069015675</ele>
        <time>2015-05-16T12:54:39Z</time>
      </trkpt>
      <trkpt lat="45.75204" lon="5.59444">
        <ele>580.90709048054</ele>
        <time>2015-05-16T12:54:44Z</time>
      </trkpt>
      <trkpt lat="45.75208" lon="5.59447">
        <ele>580.90709048054</ele>
        <time>2015-05-16T12:54:49Z</time>
      </trkpt>
      <trkpt lat="45.75209" lon="5.59454">
        <ele>577.63189866935</ele>
        <time>2015-05-16T12:54:54Z</time>
      </trkpt>
      <trkpt lat="45.75211" lon="5.59458">
        <ele>577.63189866935</ele>
        <time>2015-05-16T12:54:59Z</time>
      </trkpt>
      <trkpt lat="45.75213" lon="5.5946">
        <ele>577.63189866935</ele>
        <time>2015-05-16T12:55:04Z</time>
      </trkpt>
      <trkpt lat="45.75215" lon="5.59462">
        <ele>577.63189866935</ele>
        <time>2015-05-16T12:55:09Z</time>
      </trkpt>
      <trkpt lat="45.75215" lon="5.59461">
        <ele>577.63189866935</ele>
        <time>2015-05-16T12:55:14Z</time>
      </trkpt>
      <trkpt lat="45.75217" lon="5.59462">
        <ele>574.84854978624</ele>
        <time>2015-05-16T12:55:19Z</time>
      </trkpt>
      <trkpt lat="45.7522" lon="5.59465">
        <ele>574.84854978624</ele>
        <time>2015-05-16T12:55:24Z</time>
      </trkpt>
      <trkpt lat="45.75224" lon="5.5947">
        <ele>574.84854978624</ele>
        <time>2015-05-16T12:55:29Z</time>
      </trkpt>
      <trkpt lat="45.75226" lon="5.59472">
        <ele>572.75637719188</ele>
        <time>2015-05-16T12:55:34Z</time>
      </trkpt>
      <trkpt lat="45.75227" lon="5.59473">
        <ele>572.75637719188</ele>
        <time>2015-05-16T12:55:39Z</time>
      </trkpt>
      <trkpt lat="45.75228" lon="5.59473">
        <ele>572.75637719188</ele>
        <time>2015-05-16T12:55:44Z</time>
      </trkpt>
      <trkpt lat="45.7523" lon="5.59475">
        <ele>572.75637719188</ele>
        <time>2015-05-16T12:55:49Z</time>
      </trkpt>
      <trkpt lat="45.75231" lon="5.59482">
        <ele>570.81746432945</ele>
        <time>2015-05-16T12:55:54Z</time>
      </trkpt>
      <trkpt lat="45.75234" lon="5.59486">
        <ele>570.81746432945</ele>
        <time>2015-05-16T12:55:59Z</time>
      </trkpt>
      <trkpt lat="45.75237" lon="5.5949">
        <ele>570.81746432945</ele>
        <time>2015-05-16T12:56:04Z</time>
      </trkpt>
      <trkpt lat="45.7524" lon="5.59492">
        <ele>568.74903150776</ele>
        <time>2015-05-16T12:56:09Z</time>
      </trkpt>
      <trkpt lat="45.75243" lon="5.5949">
        <ele>568.74903150776</ele>
        <time>2015-05-16T12:56:14Z</time>
      </trkpt>
      <trkpt lat="45.75246" lon="5.59493">
        <ele>568.74903150776</ele>
        <time>2015-05-16T12:56:19Z</time>
      </trkpt>
      <trkpt lat="45.7525" lon="5.59497">
        <ele>566.79370949361</ele>
        <time>2015-05-16T12:56:24Z</time>
      </trkpt>
      <trkpt lat="45.75255" lon="5.59504">
        <ele>566.79370949361</ele>
        <time>2015-05-16T12:56:29Z</time>
      </trkpt>
      <trkpt lat="45.75259" lon="5.59508">
        <ele>564.81559712509</ele>
        <time>2015-05-16T12:56:34Z</time>
      </trkpt>
      <trkpt lat="45.75263" lon="5.59512">
        <ele>564.81559712509</ele>
        <time>2015-05-16T12:56:39Z</time>
      </trkpt>
      <trkpt lat="45.75267" lon="5.59516">
        <ele>562.86166262424</ele>
        <time>2015-05-16T12:56:44Z</time>
      </trkpt>
      <trkpt lat="45.75272" lon="5.59518">
        <ele>562.86166262424</ele>
        <time>2015-05-16T12:56:49Z</time>
      </trkpt>
      <trkpt lat="45.75277" lon="5.59518">
        <ele>561.22023672467</ele>
        <time>2015-05-16T12:56:54Z</time>
      </trkpt>
      <trkpt lat="45.75281" lon="5.59517">
        <ele>561.22023672467</ele>
        <time>2015-05-16T12:56:59Z</time>
      </trkpt>
      <trkpt lat="45.75285" lon="5.59515">
        <ele>561.22023672467</ele>
        <time>2015-05-16T12:57:04Z</time>
      </trkpt>
      <trkpt lat="45.75291" lon="5.59521">
        <ele>559.99896640954</ele>
        <time>2015-05-16T12:57:09Z</time>
      </trkpt>
      <trkpt lat="45.75296" lon="5.59524">
        <ele>559.99896640954</ele>
        <time>2015-05-16T12:57:14Z</time>
      </trkpt>
      <trkpt lat="45.753" lon="5.59529">
        <ele>558.74869107574</ele>
        <time>2015-05-16T12:57:19Z</time>
      </trkpt>
      <trkpt lat="45.75304" lon="5.5953">
        <ele>558.74869107574</ele>
        <time>2015-05-16T12:57:24Z</time>
      </trkpt>
      <trkpt lat="45.75308" lon="5.59531">
        <ele>558.74869107574</ele>
        <time>2015-05-16T12:57:29Z</time>
      </trkpt>
      <trkpt lat="45.75313" lon="5.59534">
        <ele>557.13970057251</ele>
        <time>2015-05-16T12:57:34Z</time>
      </trkpt>
      <trkpt lat="45.75317" lon="5.59541">
        <ele>557.13970057251</ele>
        <time>2015-05-16T12:57:39Z</time>
      </trkpt>
      <trkpt lat="45.75322" lon="5.59548">
        <ele>554.44950106797</ele>
        <time>2015-05-16T12:57:44Z</time>
      </trkpt>
      <trkpt lat="45.75326" lon="5.59552">
        <ele>554.44950106797</ele>
        <time>2015-05-16T12:57:49Z</time>
      </trkpt>
      <trkpt lat="45.7533" lon="5.59555">
        <ele>551.5391988824</ele>
        <time>2015-05-16T12:57:54Z</time>
      </trkpt>
      <trkpt lat="45.75331" lon="5.59559">
        <ele>551.5391988824</ele>
        <time>2015-05-16T12:57:59Z</time>
      </trkpt>
      <trkpt lat="45.75333" lon="5.5956">
        <ele>551.5391988824</ele>
        <time>2015-05-16T12:58:04Z</time>
      </trkpt>
      <trkpt lat="45.75336" lon="5.59562">
        <ele>551.5391988824</ele>
        <time>2015-05-16T12:58:09Z</time>
      </trkpt>
      <trkpt lat="45.75339" lon="5.59566">
        <ele>548.58749744478</ele>
        <time>2015-05-16T12:58:14Z</time>
      </trkpt>
      <trkpt lat="45.75342" lon="5.59568">
        <ele>548.58749744478</ele>
        <time>2015-05-16T12:58:19Z</time>
      </trkpt>
      <trkpt lat="45.75346" lon="5.59567">
        <ele>548.58749744478</ele>
        <time>2015-05-16T12:58:24Z</time>
      </trkpt>
      <trkpt lat="45.75349" lon="5.59567">
        <ele>545.50059906477</ele>
        <time>2015-05-16T12:58:29Z</time>
      </trkpt>
      <trkpt lat="45.75353" lon="5.59569">
        <ele>545.50059906477</ele>
        <time>2015-05-16T12:58:35Z</time>
      </trkpt>
      <trkpt lat="45.75356" lon="5.59575">
        <ele>544.814707979</ele>
        <time>2015-05-16T12:58:39Z</time>
      </trkpt>
      <trkpt lat="45.75358" lon="5.59574">
        <ele>544.814707979</ele>
        <time>2015-05-16T12:58:44Z</time>
      </trkpt>
      <trkpt lat="45.75362" lon="5.5958">
        <ele>544.814707979</ele>
        <time>2015-05-16T12:58:49Z</time>
      </trkpt>
      <trkpt lat="45.75366" lon="5.59579">
        <ele>542.61846841223</ele>
        <time>2015-05-16T12:58:54Z</time>
      </trkpt>
      <trkpt lat="45.7537" lon="5.59591">
        <ele>540.79704493903</ele>
        <time>2015-05-16T12:58:59Z</time>
      </trkpt>
      <trkpt lat="45.75372" lon="5.59599">
        <ele>540.79704493903</ele>
        <time>2015-05-16T12:59:04Z</time>
      </trkpt>
      <trkpt lat="45.75374" lon="5.59613">
        <ele>538.76138199408</ele>
        <time>2015-05-16T12:59:09Z</time>
      </trkpt>
      <trkpt lat="45.75375" lon="5.59623">
        <ele>538.76138199408</ele>
        <time>2015-05-16T12:59:14Z</time>
      </trkpt>
      <trkpt lat="45.75375" lon="5.59627">
        <ele>536.68677281086</ele>
        <time>2015-05-16T12:59:19Z</time>
      </trkpt>
      <trkpt lat="45.75375" lon="5.59628">
        <ele>536.68677281086</ele>
        <time>2015-05-16T12:59:24Z</time>
      </trkpt>
      <trkpt lat="45.75375" lon="5.59628">
        <ele>536.68677281086</ele>
        <time>2015-05-16T12:59:29Z</time>
      </trkpt>
      <trkpt lat="45.75371" lon="5.59634">
        <ele>536.68677281086</ele>
        <time>2015-05-16T12:59:34Z</time>
      </trkpt>
      <trkpt lat="45.75365" lon="5.59643">
        <ele>534.8365444745</ele>
        <time>2015-05-16T12:59:39Z</time>
      </trkpt>
      <trkpt lat="45.75357" lon="5.5965">
        <ele>534.8365444745</ele>
        <time>2015-05-16T12:59:44Z</time>
      </trkpt>
      <trkpt lat="45.7535" lon="5.59654">
        <ele>531.86875340884</ele>
        <time>2015-05-16T12:59:49Z</time>
      </trkpt>
      <trkpt lat="45.75344" lon="5.59652">
        <ele>531.86875340884</ele>
        <time>2015-05-16T12:59:54Z</time>
      </trkpt>
      <trkpt lat="45.75336" lon="5.5965">
        <ele>527.71039381892</ele>
        <time>2015-05-16T12:59:59Z</time>
      </trkpt>
      <trkpt lat="45.75329" lon="5.59649">
        <ele>527.71039381892</ele>
        <time>2015-05-16T13:00:04Z</time>
      </trkpt>
      <trkpt lat="45.75325" lon="5.59649">
        <ele>523.88230525513</ele>
        <time>2015-05-16T13:00:09Z</time>
      </trkpt>
      <trkpt lat="45.75321" lon="5.59647">
        <ele>523.88230525513</ele>
        <time>2015-05-16T13:00:14Z</time>
      </trkpt>
      <trkpt lat="45.75318" lon="5.59647">
        <ele>523.88230525513</ele>
        <time>2015-05-16T13:00:19Z</time>
      </trkpt>
      <trkpt lat="45.75318" lon="5.59648">
        <ele>523.88230525513</ele>
        <time>2015-05-16T13:00:24Z</time>
      </trkpt>
      <trkpt lat="45.75315" lon="5.59647">
        <ele>520.26501487335</ele>
        <time>2015-05-16T13:00:29Z</time>
      </trkpt>
      <trkpt lat="45.75304" lon="5.59648">
        <ele>516.79037162594</ele>
        <time>2015-05-16T13:00:34Z</time>
      </trkpt>
      <trkpt lat="45.75295" lon="5.59647">
        <ele>516.79037162594</ele>
        <time>2015-05-16T13:00:39Z</time>
      </trkpt>
      <trkpt lat="45.75289" lon="5.59645">
        <ele>512.94798035593</ele>
        <time>2015-05-16T13:00:44Z</time>
      </trkpt>
      <trkpt lat="45.75284" lon="5.59644">
        <ele>512.94798035593</ele>
        <time>2015-05-16T13:00:49Z</time>
      </trkpt>
      <trkpt lat="45.7528" lon="5.59644">
        <ele>509.60609255785</ele>
        <time>2015-05-16T13:00:54Z</time>
      </trkpt>
      <trkpt lat="45.7528" lon="5.5965">
        <ele>509.60609255785</ele>
        <time>2015-05-16T13:00:59Z</time>
      </trkpt>
      <trkpt lat="45.75282" lon="5.59649">
        <ele>509.60609255785</ele>
        <time>2015-05-16T13:01:04Z</time>
      </trkpt>
      <trkpt lat="45.75286" lon="5.5965">
        <ele>506.55887941784</ele>
        <time>2015-05-16T13:01:09Z</time>
      </trkpt>
      <trkpt lat="45.75291" lon="5.59656">
        <ele>506.55887941784</ele>
        <time>2015-05-16T13:01:14Z</time>
      </trkpt>
      <trkpt lat="45.75297" lon="5.59662">
        <ele>503.12470698262</ele>
        <time>2015-05-16T13:01:19Z</time>
      </trkpt>
      <trkpt lat="45.75301" lon="5.59663">
        <ele>503.12470698262</ele>
        <time>2015-05-16T13:01:24Z</time>
      </trkpt>
      <trkpt lat="45.75306" lon="5.5966">
        <ele>499.17736435341</ele>
        <time>2015-05-16T13:01:29Z</time>
      </trkpt>
      <trkpt lat="45.75311" lon="5.5966">
        <ele>499.17736435341</ele>
        <time>2015-05-16T13:01:34Z</time>
      </trkpt>
      <trkpt lat="45.75317" lon="5.59665">
        <ele>495.22090262347</ele>
        <time>2015-05-16T13:01:39Z</time>
      </trkpt>
      <trkpt lat="45.75323" lon="5.59664">
        <ele>495.22090262347</ele>
        <time>2015-05-16T13:01:44Z</time>
      </trkpt>
      <trkpt lat="45.75329" lon="5.59663">
        <ele>491.99605283386</ele>
        <time>2015-05-16T13:01:49Z</time>
      </trkpt>
      <trkpt lat="45.75336" lon="5.59664">
        <ele>491.99605283386</ele>
        <time>2015-05-16T13:01:54Z</time>
      </trkpt>
      <trkpt lat="45.75344" lon="5.59669">
        <ele>489.48080438026</ele>
        <time>2015-05-16T13:01:59Z</time>
      </trkpt>
      <trkpt lat="45.75352" lon="5.59678">
        <ele>487.62382185578</ele>
        <time>2015-05-16T13:02:04Z</time>
      </trkpt>
      <trkpt lat="45.7536" lon="5.59691">
        <ele>486.05852750163</ele>
        <time>2015-05-16T13:02:09Z</time>
      </trkpt>
      <trkpt lat="45.75367" lon="5.59696">
        <ele>486.05852750163</ele>
        <time>2015-05-16T13:02:14Z</time>
      </trkpt>
      <trkpt lat="45.75373" lon="5.59704">
        <ele>484.38669760937</ele>
        <time>2015-05-16T13:02:19Z</time>
      </trkpt>
      <trkpt lat="45.75379" lon="5.59709">
        <ele>484.38669760937</ele>
        <time>2015-05-16T13:02:24Z</time>
      </trkpt>
      <trkpt lat="45.75386" lon="5.59715">
        <ele>482.42690553368</ele>
        <time>2015-05-16T13:02:29Z</time>
      </trkpt>
      <trkpt lat="45.7539" lon="5.59722">
        <ele>482.42690553368</ele>
        <time>2015-05-16T13:02:34Z</time>
      </trkpt>
      <trkpt lat="45.75396" lon="5.59724">
        <ele>480.90526278336</ele>
        <time>2015-05-16T13:02:39Z</time>
      </trkpt>
      <trkpt lat="45.75403" lon="5.59728">
        <ele>480.90526278336</ele>
        <time>2015-05-16T13:02:44Z</time>
      </trkpt>
      <trkpt lat="45.75409" lon="5.59736">
        <ele>480.42118447203</ele>
        <time>2015-05-16T13:02:49Z</time>
      </trkpt>
      <trkpt lat="45.75414" lon="5.59738">
        <ele>480.42118447203</ele>
        <time>2015-05-16T13:02:54Z</time>
      </trkpt>
      <trkpt lat="45.75421" lon="5.59743">
        <ele>480.47507496128</ele>
        <time>2015-05-16T13:02:59Z</time>
      </trkpt>
      <trkpt lat="45.75428" lon="5.5975">
        <ele>480.47507496128</ele>
        <time>2015-05-16T13:03:04Z</time>
      </trkpt>
      <trkpt lat="45.75435" lon="5.59753">
        <ele>480.99159287836</ele>
        <time>2015-05-16T13:03:09Z</time>
      </trkpt>
      <trkpt lat="45.75442" lon="5.59761">
        <ele>482.00049772206</ele>
        <time>2015-05-16T13:03:14Z</time>
      </trkpt>
      <trkpt lat="45.75449" lon="5.59766">
        <ele>482.00049772206</ele>
        <time>2015-05-16T13:03:19Z</time>
      </trkpt>
      <trkpt lat="45.75455" lon="5.59767">
        <ele>482.46156975969</ele>
        <time>2015-05-16T13:03:24Z</time>
      </trkpt>
      <trkpt lat="45.75461" lon="5.59771">
        <ele>482.46156975969</ele>
        <time>2015-05-16T13:03:29Z</time>
      </trkpt>
      <trkpt lat="45.75468" lon="5.59777">
        <ele>483.28602113422</ele>
        <time>2015-05-16T13:03:34Z</time>
      </trkpt>
      <trkpt lat="45.75476" lon="5.59781">
        <ele>483.28602113422</ele>
        <time>2015-05-16T13:03:39Z</time>
      </trkpt>
      <trkpt lat="45.75483" lon="5.59782">
        <ele>484.46691226578</ele>
        <time>2015-05-16T13:03:44Z</time>
      </trkpt>
      <trkpt lat="45.75489" lon="5.5978">
        <ele>484.46691226578</ele>
        <time>2015-05-16T13:03:49Z</time>
      </trkpt>
      <trkpt lat="45.75495" lon="5.59783">
        <ele>485.30516333354</ele>
        <time>2015-05-16T13:03:54Z</time>
      </trkpt>
      <trkpt lat="45.75497" lon="5.59797">
        <ele>485.55762456733</ele>
        <time>2015-05-16T13:03:59Z</time>
      </trkpt>
      <trkpt lat="45.75491" lon="5.59801">
        <ele>485.55762456733</ele>
        <time>2015-05-16T13:04:04Z</time>
      </trkpt>
      <trkpt lat="45.75485" lon="5.598">
        <ele>484.81342643954</ele>
        <time>2015-05-16T13:04:09Z</time>
      </trkpt>
      <trkpt lat="45.75479" lon="5.59798">
        <ele>484.81342643954</ele>
        <time>2015-05-16T13:04:14Z</time>
      </trkpt>
      <trkpt lat="45.75473" lon="5.59798">
        <ele>483.81887593069</ele>
        <time>2015-05-16T13:04:19Z</time>
      </trkpt>
      <trkpt lat="45.75465" lon="5.59798">
        <ele>483.81887593069</ele>
        <time>2015-05-16T13:04:24Z</time>
      </trkpt>
      <trkpt lat="45.75459" lon="5.59798">
        <ele>482.25751731833</ele>
        <time>2015-05-16T13:04:29Z</time>
      </trkpt>
      <trkpt lat="45.75457" lon="5.59798">
        <ele>482.25751731833</ele>
        <time>2015-05-16T13:04:34Z</time>
      </trkpt>
      <trkpt lat="45.75454" lon="5.59797">
        <ele>482.25751731833</ele>
        <time>2015-05-16T13:04:39Z</time>
      </trkpt>
      <trkpt lat="45.75453" lon="5.59797">
        <ele>482.25751731833</ele>
        <time>2015-05-16T13:04:44Z</time>
      </trkpt>
      <trkpt lat="45.75452" lon="5.59795">
        <ele>482.25751731833</ele>
        <time>2015-05-16T13:04:49Z</time>
      </trkpt>
      <trkpt lat="45.75452" lon="5.59795">
        <ele>482.25751731833</ele>
        <time>2015-05-16T13:04:54Z</time>
      </trkpt>
      <trkpt lat="45.75452" lon="5.59795">
        <ele>482.25751731833</ele>
        <time>2015-05-16T13:04:59Z</time>
      </trkpt>
      <trkpt lat="45.75452" lon="5.59795">
        <ele>482.25751731833</ele>
        <time>2015-05-16T13:05:04Z</time>
      </trkpt>
      <trkpt lat="45.75452" lon="5.59795">
        <ele>482.25751731833</ele>
        <time>2015-05-16T13:05:09Z</time>
      </trkpt>
      <trkpt lat="45.75445" lon="5.59796">
        <ele>480.68812419155</ele>
        <time>2015-05-16T13:05:14Z</time>
      </trkpt>
      <trkpt lat="45.75436" lon="5.59796">
        <ele>480.68812419155</ele>
        <time>2015-05-16T13:05:19Z</time>
      </trkpt>
      <trkpt lat="45.75426" lon="5.59797">
        <ele>479.74386905903</ele>
        <time>2015-05-16T13:05:24Z</time>
      </trkpt>
      <trkpt lat="45.75422" lon="5.59792">
        <ele>479.74386905903</ele>
        <time>2015-05-16T13:05:29Z</time>
      </trkpt>
      <trkpt lat="45.75413" lon="5.59787">
        <ele>478.46779983736</ele>
        <time>2015-05-16T13:05:34Z</time>
      </trkpt>
      <trkpt lat="45.75405" lon="5.59784">
        <ele>478.46779983736</ele>
        <time>2015-05-16T13:05:39Z</time>
      </trkpt>
      <trkpt lat="45.75399" lon="5.59779">
        <ele>477.15603135621</ele>
        <time>2015-05-16T13:05:44Z</time>
      </trkpt>
      <trkpt lat="45.75393" lon="5.59778">
        <ele>477.15603135621</ele>
        <time>2015-05-16T13:05:49Z</time>
      </trkpt>
      <trkpt lat="45.75388" lon="5.59777">
        <ele>475.76610555076</ele>
        <time>2015-05-16T13:05:54Z</time>
      </trkpt>
      <trkpt lat="45.75382" lon="5.5978">
        <ele>475.76610555076</ele>
        <time>2015-05-16T13:05:59Z</time>
      </trkpt>
      <trkpt lat="45.75375" lon="5.59782">
        <ele>474.51842331643</ele>
        <time>2015-05-16T13:06:04Z</time>
      </trkpt>
      <trkpt lat="45.75371" lon="5.59784">
        <ele>474.51842331643</ele>
        <time>2015-05-16T13:06:09Z</time>
      </trkpt>
      <trkpt lat="45.75364" lon="5.59785">
        <ele>473.44397966522</ele>
        <time>2015-05-16T13:06:14Z</time>
      </trkpt>
      <trkpt lat="45.75358" lon="5.59788">
        <ele>473.44397966522</ele>
        <time>2015-05-16T13:06:19Z</time>
      </trkpt>
      <trkpt lat="45.75348" lon="5.59789">
        <ele>471.92261944424</ele>
        <time>2015-05-16T13:06:24Z</time>
      </trkpt>
      <trkpt lat="45.75341" lon="5.59793">
        <ele>471.92261944424</ele>
        <time>2015-05-16T13:06:29Z</time>
      </trkpt>
      <trkpt lat="45.75336" lon="5.59796">
        <ele>469.84226095274</ele>
        <time>2015-05-16T13:06:34Z</time>
      </trkpt>
      <trkpt lat="45.7533" lon="5.59797">
        <ele>469.84226095274</ele>
        <time>2015-05-16T13:06:39Z</time>
      </trkpt>
      <trkpt lat="45.75326" lon="5.59799">
        <ele>467.20160244416</ele>
        <time>2015-05-16T13:06:44Z</time>
      </trkpt>
      <trkpt lat="45.7532" lon="5.59801">
        <ele>467.20160244416</ele>
        <time>2015-05-16T13:06:49Z</time>
      </trkpt>
      <trkpt lat="45.75315" lon="5.59803">
        <ele>464.44784501345</ele>
        <time>2015-05-16T13:06:54Z</time>
      </trkpt>
      <trkpt lat="45.75306" lon="5.59805">
        <ele>462.41365803662</ele>
        <time>2015-05-16T13:06:59Z</time>
      </trkpt>
      <trkpt lat="45.753" lon="5.59805">
        <ele>462.41365803662</ele>
        <time>2015-05-16T13:07:04Z</time>
      </trkpt>
      <trkpt lat="45.75292" lon="5.59805">
        <ele>460.96069370887</ele>
        <time>2015-05-16T13:07:09Z</time>
      </trkpt>
      <trkpt lat="45.75284" lon="5.59804">
        <ele>460.96069370887</ele>
        <time>2015-05-16T13:07:14Z</time>
      </trkpt>
      <trkpt lat="45.75277" lon="5.59803">
        <ele>459.35392998157</ele>
        <time>2015-05-16T13:07:19Z</time>
      </trkpt>
      <trkpt lat="45.75268" lon="5.59802">
        <ele>458.19541471741</ele>
        <time>2015-05-16T13:07:24Z</time>
      </trkpt>
      <trkpt lat="45.75259" lon="5.59801">
        <ele>458.19541471741</ele>
        <time>2015-05-16T13:07:29Z</time>
      </trkpt>
      <trkpt lat="45.75253" lon="5.59799">
        <ele>456.61506298442</ele>
        <time>2015-05-16T13:07:34Z</time>
      </trkpt>
      <trkpt lat="45.7525" lon="5.59797">
        <ele>456.61506298442</ele>
        <time>2015-05-16T13:07:39Z</time>
      </trkpt>
      <trkpt lat="45.75245" lon="5.59796">
        <ele>456.61506298442</ele>
        <time>2015-05-16T13:07:44Z</time>
      </trkpt>
      <trkpt lat="45.75237" lon="5.59796">
        <ele>455.52286165485</ele>
        <time>2015-05-16T13:07:49Z</time>
      </trkpt>
      <trkpt lat="45.75224" lon="5.59796">
        <ele>455.28506411412</ele>
        <time>2015-05-16T13:07:54Z</time>
      </trkpt>
      <trkpt lat="45.75217" lon="5.59797">
        <ele>455.28506411412</ele>
        <time>2015-05-16T13:07:59Z</time>
      </trkpt>
      <trkpt lat="45.7521" lon="5.59799">
        <ele>454.73991733629</ele>
        <time>2015-05-16T13:08:04Z</time>
      </trkpt>
      <trkpt lat="45.75204" lon="5.59801">
        <ele>454.73991733629</ele>
        <time>2015-05-16T13:08:09Z</time>
      </trkpt>
      <trkpt lat="45.75199" lon="5.59801">
        <ele>453.67659256905</ele>
        <time>2015-05-16T13:08:14Z</time>
      </trkpt>
      <trkpt lat="45.75193" lon="5.59803">
        <ele>453.67659256905</ele>
        <time>2015-05-16T13:08:19Z</time>
      </trkpt>
      <trkpt lat="45.75187" lon="5.59804">
        <ele>452.65063632745</ele>
        <time>2015-05-16T13:08:24Z</time>
      </trkpt>
      <trkpt lat="45.75182" lon="5.59807">
        <ele>452.65063632745</ele>
        <time>2015-05-16T13:08:29Z</time>
      </trkpt>
      <trkpt lat="45.75178" lon="5.59808">
        <ele>451.44177108673</ele>
        <time>2015-05-16T13:08:34Z</time>
      </trkpt>
      <trkpt lat="45.75175" lon="5.59809">
        <ele>451.44177108673</ele>
        <time>2015-05-16T13:08:39Z</time>
      </trkpt>
      <trkpt lat="45.7517" lon="5.59808">
        <ele>451.44177108673</ele>
        <time>2015-05-16T13:08:44Z</time>
      </trkpt>
      <trkpt lat="45.75165" lon="5.59809">
        <ele>449.71677054172</ele>
        <time>2015-05-16T13:08:49Z</time>
      </trkpt>
      <trkpt lat="45.75159" lon="5.59812">
        <ele>449.71677054172</ele>
        <time>2015-05-16T13:08:54Z</time>
      </trkpt>
      <trkpt lat="45.75153" lon="5.59814">
        <ele>447.34132093221</ele>
        <time>2015-05-16T13:08:59Z</time>
      </trkpt>
      <trkpt lat="45.75147" lon="5.59817">
        <ele>447.34132093221</ele>
        <time>2015-05-16T13:09:04Z</time>
      </trkpt>
      <trkpt lat="45.75139" lon="5.59817">
        <ele>445.6916036574</ele>
        <time>2015-05-16T13:09:09Z</time>
      </trkpt>
      <trkpt lat="45.7513" lon="5.59817">
        <ele>445.6916036574</ele>
        <time>2015-05-16T13:09:14Z</time>
      </trkpt>
      <trkpt lat="45.75124" lon="5.59816">
        <ele>443.86463321999</ele>
        <time>2015-05-16T13:09:19Z</time>
      </trkpt>
      <trkpt lat="45.75117" lon="5.59813">
        <ele>443.86463321999</ele>
        <time>2015-05-16T13:09:24Z</time>
      </trkpt>
      <trkpt lat="45.75106" lon="5.59807">
        <ele>442.96979062011</ele>
        <time>2015-05-16T13:09:29Z</time>
      </trkpt>
      <trkpt lat="45.75101" lon="5.598">
        <ele>442.96979062011</ele>
        <time>2015-05-16T13:09:34Z</time>
      </trkpt>
      <trkpt lat="45.751" lon="5.59794">
        <ele>441.12133236598</ele>
        <time>2015-05-16T13:09:39Z</time>
      </trkpt>
      <trkpt lat="45.751" lon="5.59787">
        <ele>441.12133236598</ele>
        <time>2015-05-16T13:09:44Z</time>
      </trkpt>
      <trkpt lat="45.75098" lon="5.59778">
        <ele>439.91812267765</ele>
        <time>2015-05-16T13:09:49Z</time>
      </trkpt>
      <trkpt lat="45.75096" lon="5.59771">
        <ele>439.91812267765</ele>
        <time>2015-05-16T13:09:54Z</time>
      </trkpt>
      <trkpt lat="45.75092" lon="5.59762">
        <ele>439.13927893598</ele>
        <time>2015-05-16T13:09:59Z</time>
      </trkpt>
      <trkpt lat="45.75086" lon="5.59753">
        <ele>439.02572646433</ele>
        <time>2015-05-16T13:10:04Z</time>
      </trkpt>
      <trkpt lat="45.75079" lon="5.59755">
        <ele>439.02572646433</ele>
        <time>2015-05-16T13:10:09Z</time>
      </trkpt>
      <trkpt lat="45.75074" lon="5.59764">
        <ele>438.41538864865</ele>
        <time>2015-05-16T13:10:14Z</time>
      </trkpt>
      <trkpt lat="45.75072" lon="5.59774">
        <ele>438.41538864865</ele>
        <time>2015-05-16T13:10:19Z</time>
      </trkpt>
      <trkpt lat="45.75072" lon="5.59785">
        <ele>437.67409336636</ele>
        <time>2015-05-16T13:10:24Z</time>
      </trkpt>
      <trkpt lat="45.75072" lon="5.59796">
        <ele>437.67409336636</ele>
        <time>2015-05-16T13:10:29Z</time>
      </trkpt>
      <trkpt lat="45.75071" lon="5.59801">
        <ele>437.198845235</ele>
        <time>2015-05-16T13:10:34Z</time>
      </trkpt>
      <trkpt lat="45.75072" lon="5.59811">
        <ele>437.198845235</ele>
        <time>2015-05-16T13:10:39Z</time>
      </trkpt>
      <trkpt lat="45.75071" lon="5.59824">
        <ele>437.11179309429</ele>
        <time>2015-05-16T13:10:44Z</time>
      </trkpt>
      <trkpt lat="45.75071" lon="5.59835">
        <ele>437.11179309429</ele>
        <time>2015-05-16T13:10:49Z</time>
      </trkpt>
      <trkpt lat="45.75071" lon="5.59845">
        <ele>436.47305909637</ele>
        <time>2015-05-16T13:10:54Z</time>
      </trkpt>
      <trkpt lat="45.75071" lon="5.59851">
        <ele>436.47305909637</ele>
        <time>2015-05-16T13:10:59Z</time>
      </trkpt>
      <trkpt lat="45.7507" lon="5.59858">
        <ele>436.14274078801</ele>
        <time>2015-05-16T13:11:04Z</time>
      </trkpt>
      <trkpt lat="45.75069" lon="5.59868">
        <ele>436.14274078801</ele>
        <time>2015-05-16T13:11:09Z</time>
      </trkpt>
      <trkpt lat="45.75066" lon="5.5988">
        <ele>435.77846490314</ele>
        <time>2015-05-16T13:11:14Z</time>
      </trkpt>
      <trkpt lat="45.75064" lon="5.59891">
        <ele>435.77846490314</ele>
        <time>2015-05-16T13:11:19Z</time>
      </trkpt>
      <trkpt lat="45.75061" lon="5.59903">
        <ele>435.46667370862</ele>
        <time>2015-05-16T13:11:24Z</time>
      </trkpt>
      <trkpt lat="45.75059" lon="5.59912">
        <ele>435.46667370862</ele>
        <time>2015-05-16T13:11:29Z</time>
      </trkpt>
      <trkpt lat="45.75057" lon="5.59921">
        <ele>435.0856179724</ele>
        <time>2015-05-16T13:11:34Z</time>
      </trkpt>
      <trkpt lat="45.75055" lon="5.59927">
        <ele>435.0856179724</ele>
        <time>2015-05-16T13:11:39Z</time>
      </trkpt>
      <trkpt lat="45.75053" lon="5.59933">
        <ele>434.39305003277</ele>
        <time>2015-05-16T13:11:44Z</time>
      </trkpt>
      <trkpt lat="45.75052" lon="5.59942">
        <ele>434.39305003277</ele>
        <time>2015-05-16T13:11:49Z</time>
      </trkpt>
      <trkpt lat="45.75051" lon="5.59954">
        <ele>433.05016655122</ele>
        <time>2015-05-16T13:11:54Z</time>
      </trkpt>
      <trkpt lat="45.7505" lon="5.59966">
        <ele>433.05016655122</ele>
        <time>2015-05-16T13:11:59Z</time>
      </trkpt>
      <trkpt lat="45.7505" lon="5.59978">
        <ele>432.22928525321</ele>
        <time>2015-05-16T13:12:04Z</time>
      </trkpt>
      <trkpt lat="45.75051" lon="5.59987">
        <ele>432.22928525321</ele>
        <time>2015-05-16T13:12:09Z</time>
      </trkpt>
      <trkpt lat="45.75051" lon="5.59995">
        <ele>431.38674685695</ele>
        <time>2015-05-16T13:12:14Z</time>
      </trkpt>
      <trkpt lat="45.75051" lon="5.60006">
        <ele>431.38674685695</ele>
        <time>2015-05-16T13:12:19Z</time>
      </trkpt>
      <trkpt lat="45.7505" lon="5.60016">
        <ele>430.27834786766</ele>
        <time>2015-05-16T13:12:24Z</time>
      </trkpt>
      <trkpt lat="45.7505" lon="5.60023">
        <ele>430.27834786766</ele>
        <time>2015-05-16T13:12:29Z</time>
      </trkpt>
      <trkpt lat="45.75049" lon="5.60031">
        <ele>429.02449079746</ele>
        <time>2015-05-16T13:12:34Z</time>
      </trkpt>
      <trkpt lat="45.75049" lon="5.60041">
        <ele>429.02449079746</ele>
        <time>2015-05-16T13:12:39Z</time>
      </trkpt>
      <trkpt lat="45.75048" lon="5.60051">
        <ele>427.7371921445</ele>
        <time>2015-05-16T13:12:44Z</time>
      </trkpt>
      <trkpt lat="45.75047" lon="5.60062">
        <ele>427.7371921445</ele>
        <time>2015-05-16T13:12:49Z</time>
      </trkpt>
      <trkpt lat="45.75047" lon="5.60073">
        <ele>426.04481214428</ele>
        <time>2015-05-16T13:12:54Z</time>
      </trkpt>
      <trkpt lat="45.75046" lon="5.60083">
        <ele>426.04481214428</ele>
        <time>2015-05-16T13:12:59Z</time>
      </trkpt>
      <trkpt lat="45.75043" lon="5.60091">
        <ele>423.84917519452</ele>
        <time>2015-05-16T13:13:04Z</time>
      </trkpt>
      <trkpt lat="45.75041" lon="5.60099">
        <ele>423.84917519452</ele>
        <time>2015-05-16T13:13:09Z</time>
      </trkpt>
      <trkpt lat="45.75038" lon="5.60108">
        <ele>421.46427028297</ele>
        <time>2015-05-16T13:13:14Z</time>
      </trkpt>
      <trkpt lat="45.75035" lon="5.60118">
        <ele>421.46427028297</ele>
        <time>2015-05-16T13:13:19Z</time>
      </trkpt>
      <trkpt lat="45.75028" lon="5.60125">
        <ele>419.38332736777</ele>
        <time>2015-05-16T13:13:24Z</time>
      </trkpt>
      <trkpt lat="45.75021" lon="5.60126">
        <ele>419.38332736777</ele>
        <time>2015-05-16T13:13:29Z</time>
      </trkpt>
      <trkpt lat="45.75017" lon="5.60124">
        <ele>416.70785451836</ele>
        <time>2015-05-16T13:13:34Z</time>
      </trkpt>
      <trkpt lat="45.75009" lon="5.60125">
        <ele>416.70785451836</ele>
        <time>2015-05-16T13:13:39Z</time>
      </trkpt>
      <trkpt lat="45.75003" lon="5.60126">
        <ele>414.27871641034</ele>
        <time>2015-05-16T13:13:44Z</time>
      </trkpt>
      <trkpt lat="45.74996" lon="5.60128">
        <ele>414.27871641034</ele>
        <time>2015-05-16T13:13:49Z</time>
      </trkpt>
      <trkpt lat="45.7499" lon="5.60128">
        <ele>412.24021409642</ele>
        <time>2015-05-16T13:13:54Z</time>
      </trkpt>
      <trkpt lat="45.74984" lon="5.60128">
        <ele>412.24021409642</ele>
        <time>2015-05-16T13:13:59Z</time>
      </trkpt>
      <trkpt lat="45.74981" lon="5.60129">
        <ele>410.49435165867</ele>
        <time>2015-05-16T13:14:04Z</time>
      </trkpt>
      <trkpt lat="45.74973" lon="5.60128">
        <ele>410.49435165867</ele>
        <time>2015-05-16T13:14:09Z</time>
      </trkpt>
      <trkpt lat="45.74965" lon="5.60128">
        <ele>409.65562693998</ele>
        <time>2015-05-16T13:14:14Z</time>
      </trkpt>
      <trkpt lat="45.74958" lon="5.6013">
        <ele>409.65562693998</ele>
        <time>2015-05-16T13:14:19Z</time>
      </trkpt>
      <trkpt lat="45.74952" lon="5.60132">
        <ele>409.58467793315</ele>
        <time>2015-05-16T13:14:24Z</time>
      </trkpt>
      <trkpt lat="45.7495" lon="5.60138">
        <ele>409.58467793315</ele>
        <time>2015-05-16T13:14:29Z</time>
      </trkpt>
      <trkpt lat="45.74953" lon="5.60143">
        <ele>409.58467793315</ele>
        <time>2015-05-16T13:14:34Z</time>
      </trkpt>
      <trkpt lat="45.74951" lon="5.60154">
        <ele>410.04932287908</ele>
        <time>2015-05-16T13:14:39Z</time>
      </trkpt>
      <trkpt lat="45.74949" lon="5.60167">
        <ele>410.77527230472</ele>
        <time>2015-05-16T13:14:44Z</time>
      </trkpt>
      <trkpt lat="45.7495" lon="5.60175">
        <ele>410.77527230472</ele>
        <time>2015-05-16T13:14:49Z</time>
      </trkpt>
      <trkpt lat="45.74951" lon="5.6018">
        <ele>410.77527230472</ele>
        <time>2015-05-16T13:14:54Z</time>
      </trkpt>
      <trkpt lat="45.74951" lon="5.6019">
        <ele>410.34034614823</ele>
        <time>2015-05-16T13:14:59Z</time>
      </trkpt>
      <trkpt lat="45.74949" lon="5.60202">
        <ele>410.34034614823</ele>
        <time>2015-05-16T13:15:04Z</time>
      </trkpt>
      <trkpt lat="45.74946" lon="5.60212">
        <ele>409.66382062131</ele>
        <time>2015-05-16T13:15:09Z</time>
      </trkpt>
      <trkpt lat="45.74942" lon="5.60218">
        <ele>409.66382062131</ele>
        <time>2015-05-16T13:15:14Z</time>
      </trkpt>
      <trkpt lat="45.74938" lon="5.60224">
        <ele>408.01290782636</ele>
        <time>2015-05-16T13:15:19Z</time>
      </trkpt>
      <trkpt lat="45.74934" lon="5.60229">
        <ele>408.01290782636</ele>
        <time>2015-05-16T13:15:24Z</time>
      </trkpt>
      <trkpt lat="45.7493" lon="5.60236">
        <ele>406.21015189145</ele>
        <time>2015-05-16T13:15:29Z</time>
      </trkpt>
      <trkpt lat="45.74925" lon="5.60237">
        <ele>406.21015189145</ele>
        <time>2015-05-16T13:15:34Z</time>
      </trkpt>
      <trkpt lat="45.74919" lon="5.60241">
        <ele>404.41284207736</ele>
        <time>2015-05-16T13:15:39Z</time>
      </trkpt>
      <trkpt lat="45.74913" lon="5.60244">
        <ele>404.41284207736</ele>
        <time>2015-05-16T13:15:44Z</time>
      </trkpt>
      <trkpt lat="45.74908" lon="5.60245">
        <ele>402.9396366161</ele>
        <time>2015-05-16T13:15:49Z</time>
      </trkpt>
      <trkpt lat="45.749" lon="5.60248">
        <ele>402.9396366161</ele>
        <time>2015-05-16T13:15:54Z</time>
      </trkpt>
      <trkpt lat="45.74895" lon="5.60246">
        <ele>402.02723251339</ele>
        <time>2015-05-16T13:15:59Z</time>
      </trkpt>
      <trkpt lat="45.74889" lon="5.60247">
        <ele>402.02723251339</ele>
        <time>2015-05-16T13:16:04Z</time>
      </trkpt>
      <trkpt lat="45.74882" lon="5.60247">
        <ele>400.84135206303</ele>
        <time>2015-05-16T13:16:09Z</time>
      </trkpt>
      <trkpt lat="45.74875" lon="5.60252">
        <ele>400.84135206303</ele>
        <time>2015-05-16T13:16:14Z</time>
      </trkpt>
      <trkpt lat="45.74874" lon="5.60262">
        <ele>399.64736675551</ele>
        <time>2015-05-16T13:16:19Z</time>
      </trkpt>
      <trkpt lat="45.74877" lon="5.60271">
        <ele>399.64736675551</ele>
        <time>2015-05-16T13:16:24Z</time>
      </trkpt>
      <trkpt lat="45.74881" lon="5.60278">
        <ele>398.70558394829</ele>
        <time>2015-05-16T13:16:29Z</time>
      </trkpt>
      <trkpt lat="45.74886" lon="5.60284">
        <ele>398.70558394829</ele>
        <time>2015-05-16T13:16:34Z</time>
      </trkpt>
      <trkpt lat="45.74892" lon="5.60289">
        <ele>397.96825607401</ele>
        <time>2015-05-16T13:16:39Z</time>
      </trkpt>
      <trkpt lat="45.74898" lon="5.60292">
        <ele>397.96825607401</ele>
        <time>2015-05-16T13:16:44Z</time>
      </trkpt>
      <trkpt lat="45.74903" lon="5.60299">
        <ele>396.85735572318</ele>
        <time>2015-05-16T13:16:49Z</time>
      </trkpt>
      <trkpt lat="45.74903" lon="5.60309">
        <ele>396.85735572318</ele>
        <time>2015-05-16T13:16:54Z</time>
      </trkpt>
      <trkpt lat="45.749" lon="5.60318">
        <ele>395.48686330118</ele>
        <time>2015-05-16T13:16:59Z</time>
      </trkpt>
      <trkpt lat="45.74895" lon="5.60323">
        <ele>395.48686330118</ele>
        <time>2015-05-16T13:17:04Z</time>
      </trkpt>
      <trkpt lat="45.74889" lon="5.60325">
        <ele>394.30897978668</ele>
        <time>2015-05-16T13:17:09Z</time>
      </trkpt>
      <trkpt lat="45.74883" lon="5.60327">
        <ele>394.30897978668</ele>
        <time>2015-05-16T13:17:14Z</time>
      </trkpt>
      <trkpt lat="45.74878" lon="5.60329">
        <ele>392.79101127238</ele>
        <time>2015-05-16T13:17:19Z</time>
      </trkpt>
      <trkpt lat="45.74872" lon="5.60333">
        <ele>392.79101127238</ele>
        <time>2015-05-16T13:17:24Z</time>
      </trkpt>
      <trkpt lat="45.74865" lon="5.60336">
        <ele>391.49235679722</ele>
        <time>2015-05-16T13:17:29Z</time>
      </trkpt>
      <trkpt lat="45.74857" lon="5.60337">
        <ele>391.49235679722</ele>
        <time>2015-05-16T13:17:34Z</time>
      </trkpt>
      <trkpt lat="45.74852" lon="5.60337">
        <ele>390.03721175181</ele>
        <time>2015-05-16T13:17:39Z</time>
      </trkpt>
      <trkpt lat="45.74847" lon="5.60338">
        <ele>390.03721175181</ele>
        <time>2015-05-16T13:17:44Z</time>
      </trkpt>
      <trkpt lat="45.7484" lon="5.60341">
        <ele>388.5821978859</ele>
        <time>2015-05-16T13:17:49Z</time>
      </trkpt>
      <trkpt lat="45.74833" lon="5.60346">
        <ele>388.5821978859</ele>
        <time>2015-05-16T13:17:54Z</time>
      </trkpt>
      <trkpt lat="45.74828" lon="5.60351">
        <ele>387.14272087941</ele>
        <time>2015-05-16T13:17:59Z</time>
      </trkpt>
      <trkpt lat="45.74821" lon="5.60359">
        <ele>387.14272087941</ele>
        <time>2015-05-16T13:18:04Z</time>
      </trkpt>
      <trkpt lat="45.74815" lon="5.60366">
        <ele>385.25743120709</ele>
        <time>2015-05-16T13:18:09Z</time>
      </trkpt>
      <trkpt lat="45.7481" lon="5.60373">
        <ele>385.25743120709</ele>
        <time>2015-05-16T13:18:14Z</time>
      </trkpt>
      <trkpt lat="45.74806" lon="5.60377">
        <ele>383.36477105713</ele>
        <time>2015-05-16T13:18:19Z</time>
      </trkpt>
      <trkpt lat="45.74801" lon="5.60385">
        <ele>383.36477105713</ele>
        <time>2015-05-16T13:18:24Z</time>
      </trkpt>
      <trkpt lat="45.74796" lon="5.60389">
        <ele>380.90542949873</ele>
        <time>2015-05-16T13:18:29Z</time>
      </trkpt>
      <trkpt lat="45.74791" lon="5.60394">
        <ele>380.90542949873</ele>
        <time>2015-05-16T13:18:34Z</time>
      </trkpt>
      <trkpt lat="45.74786" lon="5.604">
        <ele>378.77503459751</ele>
        <time>2015-05-16T13:18:39Z</time>
      </trkpt>
      <trkpt lat="45.74782" lon="5.60408">
        <ele>378.77503459751</ele>
        <time>2015-05-16T13:18:44Z</time>
      </trkpt>
      <trkpt lat="45.74778" lon="5.60414">
        <ele>376.89456624058</ele>
        <time>2015-05-16T13:18:49Z</time>
      </trkpt>
      <trkpt lat="45.74773" lon="5.6042">
        <ele>376.89456624058</ele>
        <time>2015-05-16T13:18:54Z</time>
      </trkpt>
      <trkpt lat="45.74767" lon="5.60427">
        <ele>376.19884996174</ele>
        <time>2015-05-16T13:18:59Z</time>
      </trkpt>
      <trkpt lat="45.7476" lon="5.60431">
        <ele>376.19884996174</ele>
        <time>2015-05-16T13:19:04Z</time>
      </trkpt>
      <trkpt lat="45.74754" lon="5.60436">
        <ele>375.23048846999</ele>
        <time>2015-05-16T13:19:09Z</time>
      </trkpt>
      <trkpt lat="45.74748" lon="5.6044">
        <ele>375.23048846999</ele>
        <time>2015-05-16T13:19:14Z</time>
      </trkpt>
      <trkpt lat="45.74743" lon="5.60447">
        <ele>374.18186217531</ele>
        <time>2015-05-16T13:19:19Z</time>
      </trkpt>
      <trkpt lat="45.74737" lon="5.60453">
        <ele>374.18186217531</ele>
        <time>2015-05-16T13:19:24Z</time>
      </trkpt>
      <trkpt lat="45.74731" lon="5.60458">
        <ele>372.9864226601</ele>
        <time>2015-05-16T13:19:29Z</time>
      </trkpt>
      <trkpt lat="45.74725" lon="5.60462">
        <ele>372.9864226601</ele>
        <time>2015-05-16T13:19:34Z</time>
      </trkpt>
      <trkpt lat="45.74718" lon="5.60464">
        <ele>371.79905974358</ele>
        <time>2015-05-16T13:19:39Z</time>
      </trkpt>
      <trkpt lat="45.7471" lon="5.60465">
        <ele>371.79905974358</ele>
        <time>2015-05-16T13:19:44Z</time>
      </trkpt>
      <trkpt lat="45.74706" lon="5.60465">
        <ele>370.27325779713</ele>
        <time>2015-05-16T13:19:49Z</time>
      </trkpt>
      <trkpt lat="45.74699" lon="5.60465">
        <ele>370.27325779713</ele>
        <time>2015-05-16T13:19:54Z</time>
      </trkpt>
      <trkpt lat="45.74694" lon="5.60464">
        <ele>369.11206998928</ele>
        <time>2015-05-16T13:19:59Z</time>
      </trkpt>
      <trkpt lat="45.74686" lon="5.60464">
        <ele>369.11206998928</ele>
        <time>2015-05-16T13:20:04Z</time>
      </trkpt>
      <trkpt lat="45.74681" lon="5.60464">
        <ele>368.01472393993</ele>
        <time>2015-05-16T13:20:09Z</time>
      </trkpt>
      <trkpt lat="45.74672" lon="5.60464">
        <ele>368.01472393993</ele>
        <time>2015-05-16T13:20:14Z</time>
      </trkpt>
      <trkpt lat="45.74665" lon="5.60463">
        <ele>366.83204124374</ele>
        <time>2015-05-16T13:20:19Z</time>
      </trkpt>
      <trkpt lat="45.74659" lon="5.60464">
        <ele>366.83204124374</ele>
        <time>2015-05-16T13:20:24Z</time>
      </trkpt>
      <trkpt lat="45.74652" lon="5.60465">
        <ele>365.46925475496</ele>
        <time>2015-05-16T13:20:29Z</time>
      </trkpt>
      <trkpt lat="45.74647" lon="5.60468">
        <ele>365.46925475496</ele>
        <time>2015-05-16T13:20:34Z</time>
      </trkpt>
      <trkpt lat="45.74642" lon="5.60469">
        <ele>364.51636891486</ele>
        <time>2015-05-16T13:20:39Z</time>
      </trkpt>
      <trkpt lat="45.7464" lon="5.60469">
        <ele>364.51636891486</ele>
        <time>2015-05-16T13:20:44Z</time>
      </trkpt>
      <trkpt lat="45.74637" lon="5.60472">
        <ele>364.51636891486</ele>
        <time>2015-05-16T13:20:49Z</time>
      </trkpt>
      <trkpt lat="45.74631" lon="5.6047">
        <ele>363.20746931333</ele>
        <time>2015-05-16T13:20:54Z</time>
      </trkpt>
      <trkpt lat="45.74626" lon="5.60467">
        <ele>363.20746931333</ele>
        <time>2015-05-16T13:20:59Z</time>
      </trkpt>
      <trkpt lat="45.74623" lon="5.60468">
        <ele>362.13089034689</ele>
        <time>2015-05-16T13:21:04Z</time>
      </trkpt>
      <trkpt lat="45.74623" lon="5.60471">
        <ele>362.13089034689</ele>
        <time>2015-05-16T13:21:09Z</time>
      </trkpt>
      <trkpt lat="45.74622" lon="5.60472">
        <ele>362.13089034689</ele>
        <time>2015-05-16T13:21:14Z</time>
      </trkpt>
      <trkpt lat="45.74617" lon="5.60475">
        <ele>362.13089034689</ele>
        <time>2015-05-16T13:21:19Z</time>
      </trkpt>
      <trkpt lat="45.74619" lon="5.60473">
        <ele>361.61491814608</ele>
        <time>2015-05-16T13:21:24Z</time>
      </trkpt>
      <trkpt lat="45.74619" lon="5.60472">
        <ele>361.61491814608</ele>
        <time>2015-05-16T13:21:29Z</time>
      </trkpt>
      <trkpt lat="45.74619" lon="5.60471">
        <ele>361.61491814608</ele>
        <time>2015-05-16T13:21:34Z</time>
      </trkpt>
      <trkpt lat="45.74619" lon="5.60471">
        <ele>361.61491814608</ele>
        <time>2015-05-16T13:21:39Z</time>
      </trkpt>
      <trkpt lat="45.74618" lon="5.60471">
        <ele>361.61491814608</ele>
        <time>2015-05-16T13:21:44Z</time>
      </trkpt>
      <trkpt lat="45.74618" lon="5.60471">
        <ele>361.61491814608</ele>
        <time>2015-05-16T13:21:49Z</time>
      </trkpt>
      <trkpt lat="45.74618" lon="5.60471">
        <ele>361.61491814608</ele>
        <time>2015-05-16T13:21:54Z</time>
      </trkpt>
      <trkpt lat="45.74618" lon="5.60471">
        <ele>361.61491814608</ele>
        <time>2015-05-16T13:21:59Z</time>
      </trkpt>
      <trkpt lat="45.74618" lon="5.60472">
        <ele>361.61491814608</ele>
        <time>2015-05-16T13:22:04Z</time>
      </trkpt>
      <trkpt lat="45.74618" lon="5.60471">
        <ele>361.61491814608</ele>
        <time>2015-05-16T13:22:09Z</time>
      </trkpt>
      <trkpt lat="45.74612" lon="5.60472">
        <ele>361.61491814608</ele>
        <time>2015-05-16T13:22:14Z</time>
      </trkpt>
      <trkpt lat="45.74605" lon="5.60474">
        <ele>361.08306506957</ele>
        <time>2015-05-16T13:22:19Z</time>
      </trkpt>
      <trkpt lat="45.74598" lon="5.60474">
        <ele>361.08306506957</ele>
        <time>2015-05-16T13:22:24Z</time>
      </trkpt>
      <trkpt lat="45.74591" lon="5.60474">
        <ele>360.95236823381</ele>
        <time>2015-05-16T13:22:29Z</time>
      </trkpt>
      <trkpt lat="45.74587" lon="5.60473">
        <ele>360.95236823381</ele>
        <time>2015-05-16T13:22:34Z</time>
      </trkpt>
      <trkpt lat="45.74581" lon="5.60471">
        <ele>361.44958785006</ele>
        <time>2015-05-16T13:22:39Z</time>
      </trkpt>
      <trkpt lat="45.74577" lon="5.60471">
        <ele>361.44958785006</ele>
        <time>2015-05-16T13:22:44Z</time>
      </trkpt>
      <trkpt lat="45.74572" lon="5.60473">
        <ele>361.44958785006</ele>
        <time>2015-05-16T13:22:49Z</time>
      </trkpt>
      <trkpt lat="45.74568" lon="5.60474">
        <ele>361.18344547944</ele>
        <time>2015-05-16T13:22:54Z</time>
      </trkpt>
      <trkpt lat="45.74562" lon="5.60474">
        <ele>361.18344547944</ele>
        <time>2015-05-16T13:22:59Z</time>
      </trkpt>
      <trkpt lat="45.74558" lon="5.60475">
        <ele>360.84135272469</ele>
        <time>2015-05-16T13:23:04Z</time>
      </trkpt>
      <trkpt lat="45.74554" lon="5.60475">
        <ele>360.84135272469</ele>
        <time>2015-05-16T13:23:09Z</time>
      </trkpt>
      <trkpt lat="45.74548" lon="5.60477">
        <ele>360.70019098389</ele>
        <time>2015-05-16T13:23:14Z</time>
      </trkpt>
      <trkpt lat="45.74539" lon="5.60478">
        <ele>360.70019098389</ele>
        <time>2015-05-16T13:23:19Z</time>
      </trkpt>
      <trkpt lat="45.74531" lon="5.60476">
        <ele>361.40507866216</ele>
        <time>2015-05-16T13:23:24Z</time>
      </trkpt>
      <trkpt lat="45.74523" lon="5.60475">
        <ele>361.40507866216</ele>
        <time>2015-05-16T13:23:29Z</time>
      </trkpt>
      <trkpt lat="45.74521" lon="5.60476">
        <ele>362.24000756903</ele>
        <time>2015-05-16T13:23:34Z</time>
      </trkpt>
      <trkpt lat="45.74521" lon="5.60476">
        <ele>362.24000756903</ele>
        <time>2015-05-16T13:23:39Z</time>
      </trkpt>
      <trkpt lat="45.74521" lon="5.60476">
        <ele>362.24000756903</ele>
        <time>2015-05-16T13:23:44Z</time>
      </trkpt>
      <trkpt lat="45.7452" lon="5.60476">
        <ele>362.24000756903</ele>
        <time>2015-05-16T13:23:49Z</time>
      </trkpt>
      <trkpt lat="45.7452" lon="5.60476">
        <ele>362.24000756903</ele>
        <time>2015-05-16T13:23:54Z</time>
      </trkpt>
      <trkpt lat="45.7452" lon="5.60476">
        <ele>362.24000756903</ele>
        <time>2015-05-16T13:23:59Z</time>
      </trkpt>
      <trkpt lat="45.7452" lon="5.60475">
        <ele>362.24000756903</ele>
        <time>2015-05-16T13:24:04Z</time>
      </trkpt>
      <trkpt lat="45.7452" lon="5.60475">
        <ele>362.24000756903</ele>
        <time>2015-05-16T13:24:09Z</time>
      </trkpt>
      <trkpt lat="45.7452" lon="5.60475">
        <ele>362.24000756903</ele>
        <time>2015-05-16T13:24:14Z</time>
      </trkpt>
      <trkpt lat="45.74518" lon="5.60475">
        <ele>362.24000756903</ele>
        <time>2015-05-16T13:24:19Z</time>
      </trkpt>
      <trkpt lat="45.74514" lon="5.60475">
        <ele>362.24000756903</ele>
        <time>2015-05-16T13:24:24Z</time>
      </trkpt>
      <trkpt lat="45.74507" lon="5.60479">
        <ele>362.69978214837</ele>
        <time>2015-05-16T13:24:29Z</time>
      </trkpt>
      <trkpt lat="45.74503" lon="5.60481">
        <ele>362.69978214837</ele>
        <time>2015-05-16T13:24:34Z</time>
      </trkpt>
      <trkpt lat="45.74499" lon="5.60483">
        <ele>362.69978214837</ele>
        <time>2015-05-16T13:24:39Z</time>
      </trkpt>
      <trkpt lat="45.7449" lon="5.60487">
        <ele>362.15891423147</ele>
        <time>2015-05-16T13:24:44Z</time>
      </trkpt>
      <trkpt lat="45.74487" lon="5.60489">
        <ele>362.15891423147</ele>
        <time>2015-05-16T13:24:49Z</time>
      </trkpt>
      <trkpt lat="45.74482" lon="5.60491">
        <ele>362.15891423147</ele>
        <time>2015-05-16T13:24:54Z</time>
      </trkpt>
      <trkpt lat="45.74473" lon="5.60495">
        <ele>360.93423140034</ele>
        <time>2015-05-16T13:24:59Z</time>
      </trkpt>
      <trkpt lat="45.74464" lon="5.60498">
        <ele>360.93423140034</ele>
        <time>2015-05-16T13:25:04Z</time>
      </trkpt>
      <trkpt lat="45.74458" lon="5.605">
        <ele>359.33568882434</ele>
        <time>2015-05-16T13:25:09Z</time>
      </trkpt>
      <trkpt lat="45.74449" lon="5.60504">
        <ele>357.76687847939</ele>
        <time>2015-05-16T13:25:14Z</time>
      </trkpt>
      <trkpt lat="45.7444" lon="5.60507">
        <ele>357.76687847939</ele>
        <time>2015-05-16T13:25:19Z</time>
      </trkpt>
      <trkpt lat="45.74432" lon="5.6051">
        <ele>356.22703324919</ele>
        <time>2015-05-16T13:25:24Z</time>
      </trkpt>
      <trkpt lat="45.74424" lon="5.60511">
        <ele>356.22703324919</ele>
        <time>2015-05-16T13:25:29Z</time>
      </trkpt>
      <trkpt lat="45.74417" lon="5.60513">
        <ele>354.80188055015</ele>
        <time>2015-05-16T13:25:34Z</time>
      </trkpt>
      <trkpt lat="45.74411" lon="5.6052">
        <ele>354.80188055015</ele>
        <time>2015-05-16T13:25:39Z</time>
      </trkpt>
      <trkpt lat="45.74406" lon="5.60529">
        <ele>353.72909619182</ele>
        <time>2015-05-16T13:25:44Z</time>
      </trkpt>
      <trkpt lat="45.74401" lon="5.60538">
        <ele>353.72909619182</ele>
        <time>2015-05-16T13:25:49Z</time>
      </trkpt>
      <trkpt lat="45.74396" lon="5.60547">
        <ele>353.18471471088</ele>
        <time>2015-05-16T13:25:54Z</time>
      </trkpt>
      <trkpt lat="45.7439" lon="5.60555">
        <ele>353.18471471088</ele>
        <time>2015-05-16T13:25:59Z</time>
      </trkpt>
      <trkpt lat="45.74385" lon="5.60562">
        <ele>352.30720390025</ele>
        <time>2015-05-16T13:26:04Z</time>
      </trkpt>
      <trkpt lat="45.7438" lon="5.6057">
        <ele>352.30720390025</ele>
        <time>2015-05-16T13:26:09Z</time>
      </trkpt>
      <trkpt lat="45.74375" lon="5.60577">
        <ele>351.30806578054</ele>
        <time>2015-05-16T13:26:14Z</time>
      </trkpt>
      <trkpt lat="45.74369" lon="5.60583">
        <ele>351.30806578054</ele>
        <time>2015-05-16T13:26:19Z</time>
      </trkpt>
      <trkpt lat="45.74363" lon="5.60589">
        <ele>350.62862857464</ele>
        <time>2015-05-16T13:26:24Z</time>
      </trkpt>
      <trkpt lat="45.74355" lon="5.60593">
        <ele>350.62862857464</ele>
        <time>2015-05-16T13:26:29Z</time>
      </trkpt>
      <trkpt lat="45.74349" lon="5.60595">
        <ele>350.15813609447</ele>
        <time>2015-05-16T13:26:34Z</time>
      </trkpt>
      <trkpt lat="45.74345" lon="5.60598">
        <ele>350.15813609447</ele>
        <time>2015-05-16T13:26:39Z</time>
      </trkpt>
      <trkpt lat="45.74337" lon="5.60597">
        <ele>349.95193688767</ele>
        <time>2015-05-16T13:26:44Z</time>
      </trkpt>
      <trkpt lat="45.7433" lon="5.60599">
        <ele>349.95193688767</ele>
        <time>2015-05-16T13:26:49Z</time>
      </trkpt>
      <trkpt lat="45.74324" lon="5.60601">
        <ele>349.83002831882</ele>
        <time>2015-05-16T13:26:54Z</time>
      </trkpt>
      <trkpt lat="45.74316" lon="5.60604">
        <ele>349.83002831882</ele>
        <time>2015-05-16T13:26:59Z</time>
      </trkpt>
      <trkpt lat="45.7431" lon="5.60606">
        <ele>349.62543076202</ele>
        <time>2015-05-16T13:27:04Z</time>
      </trkpt>
      <trkpt lat="45.74304" lon="5.6061">
        <ele>349.62543076202</ele>
        <time>2015-05-16T13:27:09Z</time>
      </trkpt>
      <trkpt lat="45.743" lon="5.60617">
        <ele>349.09723527255</ele>
        <time>2015-05-16T13:27:14Z</time>
      </trkpt>
      <trkpt lat="45.74298" lon="5.60625">
        <ele>349.09723527255</ele>
        <time>2015-05-16T13:27:19Z</time>
      </trkpt>
      <trkpt lat="45.74298" lon="5.60633">
        <ele>348.00876703353</ele>
        <time>2015-05-16T13:27:24Z</time>
      </trkpt>
      <trkpt lat="45.74297" lon="5.60646">
        <ele>348.00876703353</ele>
        <time>2015-05-16T13:27:29Z</time>
      </trkpt>
      <trkpt lat="45.74296" lon="5.60656">
        <ele>346.81967124023</ele>
        <time>2015-05-16T13:27:34Z</time>
      </trkpt>
      <trkpt lat="45.74296" lon="5.60666">
        <ele>346.81967124023</ele>
        <time>2015-05-16T13:27:39Z</time>
      </trkpt>
      <trkpt lat="45.74296" lon="5.60677">
        <ele>345.50940235226</ele>
        <time>2015-05-16T13:27:44Z</time>
      </trkpt>
      <trkpt lat="45.74296" lon="5.60688">
        <ele>345.50940235226</ele>
        <time>2015-05-16T13:27:49Z</time>
      </trkpt>
      <trkpt lat="45.74295" lon="5.607">
        <ele>344.4195744124</ele>
        <time>2015-05-16T13:27:54Z</time>
      </trkpt>
      <trkpt lat="45.74295" lon="5.60709">
        <ele>344.4195744124</ele>
        <time>2015-05-16T13:27:59Z</time>
      </trkpt>
      <trkpt lat="45.74294" lon="5.60719">
        <ele>343.56348266997</ele>
        <time>2015-05-16T13:28:04Z</time>
      </trkpt>
      <trkpt lat="45.7429" lon="5.60725">
        <ele>343.56348266997</ele>
        <time>2015-05-16T13:28:09Z</time>
      </trkpt>
      <trkpt lat="45.74284" lon="5.60729">
        <ele>343.16898139844</ele>
        <time>2015-05-16T13:28:14Z</time>
      </trkpt>
      <trkpt lat="45.74277" lon="5.60731">
        <ele>343.16898139844</ele>
        <time>2015-05-16T13:28:19Z</time>
      </trkpt>
      <trkpt lat="45.74269" lon="5.60735">
        <ele>343.35944923791</ele>
        <time>2015-05-16T13:28:24Z</time>
      </trkpt>
      <trkpt lat="45.74261" lon="5.60737">
        <ele>343.35944923791</ele>
        <time>2015-05-16T13:28:29Z</time>
      </trkpt>
      <trkpt lat="45.74253" lon="5.60738">
        <ele>343.7431975989</ele>
        <time>2015-05-16T13:28:34Z</time>
      </trkpt>
      <trkpt lat="45.74245" lon="5.60739">
        <ele>343.7431975989</ele>
        <time>2015-05-16T13:28:39Z</time>
      </trkpt>
      <trkpt lat="45.74237" lon="5.6074">
        <ele>344.00003284882</ele>
        <time>2015-05-16T13:28:44Z</time>
      </trkpt>
      <trkpt lat="45.74233" lon="5.60742">
        <ele>344.00003284882</ele>
        <time>2015-05-16T13:28:49Z</time>
      </trkpt>
      <trkpt lat="45.74226" lon="5.60742">
        <ele>344.61187614531</ele>
        <time>2015-05-16T13:28:54Z</time>
      </trkpt>
      <trkpt lat="45.74221" lon="5.60746">
        <ele>344.61187614531</ele>
        <time>2015-05-16T13:28:59Z</time>
      </trkpt>
      <trkpt lat="45.74214" lon="5.60749">
        <ele>345.00110605723</ele>
        <time>2015-05-16T13:29:04Z</time>
      </trkpt>
      <trkpt lat="45.74205" lon="5.60751">
        <ele>345.00110605723</ele>
        <time>2015-05-16T13:29:09Z</time>
      </trkpt>
      <trkpt lat="45.74197" lon="5.60755">
        <ele>345.19524161822</ele>
        <time>2015-05-16T13:29:14Z</time>
      </trkpt>
      <trkpt lat="45.7419" lon="5.60759">
        <ele>345.19524161822</ele>
        <time>2015-05-16T13:29:19Z</time>
      </trkpt>
      <trkpt lat="45.74183" lon="5.60763">
        <ele>345.19156135631</ele>
        <time>2015-05-16T13:29:24Z</time>
      </trkpt>
      <trkpt lat="45.74177" lon="5.60766">
        <ele>345.19156135631</ele>
        <time>2015-05-16T13:29:29Z</time>
      </trkpt>
      <trkpt lat="45.7417" lon="5.60771">
        <ele>345.11785861412</ele>
        <time>2015-05-16T13:29:34Z</time>
      </trkpt>
      <trkpt lat="45.74164" lon="5.60777">
        <ele>345.11785861412</ele>
        <time>2015-05-16T13:29:39Z</time>
      </trkpt>
      <trkpt lat="45.74161" lon="5.6078">
        <ele>345.10720896344</ele>
        <time>2015-05-16T13:29:44Z</time>
      </trkpt>
      <trkpt lat="45.74158" lon="5.60789">
        <ele>345.10720896344</ele>
        <time>2015-05-16T13:29:49Z</time>
      </trkpt>
      <trkpt lat="45.74157" lon="5.60797">
        <ele>345.54219991541</ele>
        <time>2015-05-16T13:29:54Z</time>
      </trkpt>
      <trkpt lat="45.74158" lon="5.60805">
        <ele>345.54219991541</ele>
        <time>2015-05-16T13:29:59Z</time>
      </trkpt>
      <trkpt lat="45.7416" lon="5.60812">
        <ele>345.42148465747</ele>
        <time>2015-05-16T13:30:04Z</time>
      </trkpt>
      <trkpt lat="45.7416" lon="5.60821">
        <ele>345.42148465747</ele>
        <time>2015-05-16T13:30:09Z</time>
      </trkpt>
      <trkpt lat="45.7416" lon="5.60831">
        <ele>344.75562172307</ele>
        <time>2015-05-16T13:30:14Z</time>
      </trkpt>
      <trkpt lat="45.74158" lon="5.60855">
        <ele>343.87303195197</ele>
        <time>2015-05-16T13:30:19Z</time>
      </trkpt>
      <trkpt lat="45.74153" lon="5.60888">
        <ele>342.73281194937</ele>
        <time>2015-05-16T13:30:24Z</time>
      </trkpt>
      <trkpt lat="45.74145" lon="5.60937">
        <ele>342.01839614704</ele>
        <time>2015-05-16T13:30:29Z</time>
      </trkpt>
      <trkpt lat="45.74146" lon="5.60958">
        <ele>342.34745847903</ele>
        <time>2015-05-16T13:30:34Z</time>
      </trkpt>
      <trkpt lat="45.74146" lon="5.60967">
        <ele>342.34745847903</ele>
        <time>2015-05-16T13:30:39Z</time>
      </trkpt>
      <trkpt lat="45.74142" lon="5.60971">
        <ele>342.44479510133</ele>
        <time>2015-05-16T13:30:44Z</time>
      </trkpt>
      <trkpt lat="45.74141" lon="5.60977">
        <ele>342.44479510133</ele>
        <time>2015-05-16T13:30:49Z</time>
      </trkpt>
      <trkpt lat="45.74137" lon="5.60982">
        <ele>342.00865054396</ele>
        <time>2015-05-16T13:30:54Z</time>
      </trkpt>
      <trkpt lat="45.74132" lon="5.60985">
        <ele>342.00865054396</ele>
        <time>2015-05-16T13:30:59Z</time>
      </trkpt>
      <trkpt lat="45.74126" lon="5.60988">
        <ele>341.5247658325</ele>
        <time>2015-05-16T13:31:04Z</time>
      </trkpt>
      <trkpt lat="45.74119" lon="5.60992">
        <ele>341.5247658325</ele>
        <time>2015-05-16T13:31:09Z</time>
      </trkpt>
      <trkpt lat="45.74113" lon="5.60997">
        <ele>342.12070117629</ele>
        <time>2015-05-16T13:31:14Z</time>
      </trkpt>
      <trkpt lat="45.74108" lon="5.61003">
        <ele>342.12070117629</ele>
        <time>2015-05-16T13:31:19Z</time>
      </trkpt>
      <trkpt lat="45.74103" lon="5.61008">
        <ele>342.79182507248</ele>
        <time>2015-05-16T13:31:24Z</time>
      </trkpt>
      <trkpt lat="45.74097" lon="5.61012">
        <ele>342.79182507248</ele>
        <time>2015-05-16T13:31:29Z</time>
      </trkpt>
      <trkpt lat="45.74092" lon="5.61015">
        <ele>342.96742000372</ele>
        <time>2015-05-16T13:31:34Z</time>
      </trkpt>
      <trkpt lat="45.74082" lon="5.61017">
        <ele>343.57565672905</ele>
        <time>2015-05-16T13:31:39Z</time>
      </trkpt>
      <trkpt lat="45.74075" lon="5.61019">
        <ele>343.57565672905</ele>
        <time>2015-05-16T13:31:44Z</time>
      </trkpt>
      <trkpt lat="45.74069" lon="5.61021">
        <ele>343.55868487681</ele>
        <time>2015-05-16T13:31:49Z</time>
      </trkpt>
      <trkpt lat="45.74062" lon="5.61023">
        <ele>343.55868487681</ele>
        <time>2015-05-16T13:31:54Z</time>
      </trkpt>
      <trkpt lat="45.74055" lon="5.61023">
        <ele>343.52339568325</ele>
        <time>2015-05-16T13:31:59Z</time>
      </trkpt>
      <trkpt lat="45.74045" lon="5.61022">
        <ele>343.57105055608</ele>
        <time>2015-05-16T13:32:04Z</time>
      </trkpt>
      <trkpt lat="45.74039" lon="5.61024">
        <ele>343.57105055608</ele>
        <time>2015-05-16T13:32:09Z</time>
      </trkpt>
      <trkpt lat="45.74032" lon="5.61025">
        <ele>343.93940751048</ele>
        <time>2015-05-16T13:32:14Z</time>
      </trkpt>
      <trkpt lat="45.74026" lon="5.61027">
        <ele>343.93940751048</ele>
        <time>2015-05-16T13:32:19Z</time>
      </trkpt>
      <trkpt lat="45.7402" lon="5.61029">
        <ele>344.06971520031</ele>
        <time>2015-05-16T13:32:24Z</time>
      </trkpt>
      <trkpt lat="45.74017" lon="5.61028">
        <ele>344.06971520031</ele>
        <time>2015-05-16T13:32:29Z</time>
      </trkpt>
      <trkpt lat="45.7401" lon="5.6103">
        <ele>344.079080504</ele>
        <time>2015-05-16T13:32:34Z</time>
      </trkpt>
      <trkpt lat="45.74003" lon="5.61035">
        <ele>344.079080504</ele>
        <time>2015-05-16T13:32:39Z</time>
      </trkpt>
      <trkpt lat="45.73991" lon="5.6104">
        <ele>344.03316882393</ele>
        <time>2015-05-16T13:32:44Z</time>
      </trkpt>
      <trkpt lat="45.73979" lon="5.61043">
        <ele>343.9065642083</ele>
        <time>2015-05-16T13:32:49Z</time>
      </trkpt>
      <trkpt lat="45.73972" lon="5.61047">
        <ele>343.9065642083</ele>
        <time>2015-05-16T13:32:54Z</time>
      </trkpt>
      <trkpt lat="45.73967" lon="5.61052">
        <ele>344.15156359059</ele>
        <time>2015-05-16T13:32:59Z</time>
      </trkpt>
      <trkpt lat="45.73962" lon="5.61057">
        <ele>344.15156359059</ele>
        <time>2015-05-16T13:33:04Z</time>
      </trkpt>
      <trkpt lat="45.73954" lon="5.61058">
        <ele>344.53774721517</ele>
        <time>2015-05-16T13:33:09Z</time>
      </trkpt>
      <trkpt lat="45.73947" lon="5.6106">
        <ele>344.53774721517</ele>
        <time>2015-05-16T13:33:14Z</time>
      </trkpt>
      <trkpt lat="45.73942" lon="5.61064">
        <ele>344.83686548832</ele>
        <time>2015-05-16T13:33:19Z</time>
      </trkpt>
      <trkpt lat="45.73935" lon="5.61066">
        <ele>344.83686548832</ele>
        <time>2015-05-16T13:33:24Z</time>
      </trkpt>
      <trkpt lat="45.73928" lon="5.61066">
        <ele>345.60152103175</ele>
        <time>2015-05-16T13:33:29Z</time>
      </trkpt>
      <trkpt lat="45.73922" lon="5.61067">
        <ele>345.60152103175</ele>
        <time>2015-05-16T13:33:34Z</time>
      </trkpt>
      <trkpt lat="45.73915" lon="5.61067">
        <ele>346.1895805778</ele>
        <time>2015-05-16T13:33:39Z</time>
      </trkpt>
      <trkpt lat="45.73912" lon="5.61066">
        <ele>346.1895805778</ele>
        <time>2015-05-16T13:33:44Z</time>
      </trkpt>
      <trkpt lat="45.73911" lon="5.61067">
        <ele>346.1895805778</ele>
        <time>2015-05-16T13:33:49Z</time>
      </trkpt>
      <trkpt lat="45.7391" lon="5.61067">
        <ele>346.1895805778</ele>
        <time>2015-05-16T13:33:54Z</time>
      </trkpt>
      <trkpt lat="45.73906" lon="5.61067">
        <ele>346.28044264887</ele>
        <time>2015-05-16T13:33:59Z</time>
      </trkpt>
      <trkpt lat="45.73899" lon="5.61068">
        <ele>346.28044264887</ele>
        <time>2015-05-16T13:34:04Z</time>
      </trkpt>
      <trkpt lat="45.73893" lon="5.6107">
        <ele>346.37111828974</ele>
        <time>2015-05-16T13:34:09Z</time>
      </trkpt>
      <trkpt lat="45.73884" lon="5.61072">
        <ele>346.40336347825</ele>
        <time>2015-05-16T13:34:14Z</time>
      </trkpt>
      <trkpt lat="45.73875" lon="5.61074">
        <ele>346.51077425142</ele>
        <time>2015-05-16T13:34:19Z</time>
      </trkpt>
      <trkpt lat="45.73867" lon="5.61077">
        <ele>346.51077425142</ele>
        <time>2015-05-16T13:34:24Z</time>
      </trkpt>
      <trkpt lat="45.73858" lon="5.61079">
        <ele>346.55757233074</ele>
        <time>2015-05-16T13:34:29Z</time>
      </trkpt>
      <trkpt lat="45.73852" lon="5.61081">
        <ele>346.55757233074</ele>
        <time>2015-05-16T13:34:34Z</time>
      </trkpt>
      <trkpt lat="45.73844" lon="5.61083">
        <ele>346.59110504743</ele>
        <time>2015-05-16T13:34:39Z</time>
      </trkpt>
      <trkpt lat="45.73838" lon="5.61082">
        <ele>346.59110504743</ele>
        <time>2015-05-16T13:34:44Z</time>
      </trkpt>
      <trkpt lat="45.73832" lon="5.61084">
        <ele>346.30945689832</ele>
        <time>2015-05-16T13:34:49Z</time>
      </trkpt>
      <trkpt lat="45.73818" lon="5.61091">
        <ele>346.38495078145</ele>
        <time>2015-05-16T13:34:54Z</time>
      </trkpt>
      <trkpt lat="45.73804" lon="5.611">
        <ele>345.78227860485</ele>
        <time>2015-05-16T13:34:59Z</time>
      </trkpt>
      <trkpt lat="45.73796" lon="5.61108">
        <ele>344.59613126986</ele>
        <time>2015-05-16T13:35:04Z</time>
      </trkpt>
      <trkpt lat="45.73791" lon="5.61108">
        <ele>344.59613126986</ele>
        <time>2015-05-16T13:35:09Z</time>
      </trkpt>
      <trkpt lat="45.73783" lon="5.61106">
        <ele>343.70851698848</ele>
        <time>2015-05-16T13:35:14Z</time>
      </trkpt>
      <trkpt lat="45.73774" lon="5.61105">
        <ele>343.70851698848</ele>
        <time>2015-05-16T13:35:19Z</time>
      </trkpt>
      <trkpt lat="45.73768" lon="5.61104">
        <ele>343.44585472562</ele>
        <time>2015-05-16T13:35:24Z</time>
      </trkpt>
      <trkpt lat="45.73759" lon="5.61103">
        <ele>343.44585472562</ele>
        <time>2015-05-16T13:35:29Z</time>
      </trkpt>
      <trkpt lat="45.73751" lon="5.61101">
        <ele>342.92713054555</ele>
        <time>2015-05-16T13:35:34Z</time>
      </trkpt>
      <trkpt lat="45.73742" lon="5.61098">
        <ele>342.92713054555</ele>
        <time>2015-05-16T13:35:39Z</time>
      </trkpt>
      <trkpt lat="45.73734" lon="5.611">
        <ele>342.56171685578</ele>
        <time>2015-05-16T13:35:44Z</time>
      </trkpt>
      <trkpt lat="45.73724" lon="5.61102">
        <ele>342.58437329395</ele>
        <time>2015-05-16T13:35:49Z</time>
      </trkpt>
      <trkpt lat="45.73717" lon="5.61103">
        <ele>342.58437329395</ele>
        <time>2015-05-16T13:35:54Z</time>
      </trkpt>
      <trkpt lat="45.73711" lon="5.61105">
        <ele>342.93771348235</ele>
        <time>2015-05-16T13:35:59Z</time>
      </trkpt>
      <trkpt lat="45.73705" lon="5.61107">
        <ele>342.93771348235</ele>
        <time>2015-05-16T13:36:04Z</time>
      </trkpt>
      <trkpt lat="45.737" lon="5.61112">
        <ele>342.6597364035</ele>
        <time>2015-05-16T13:36:09Z</time>
      </trkpt>
      <trkpt lat="45.73694" lon="5.61113">
        <ele>342.6597364035</ele>
        <time>2015-05-16T13:36:14Z</time>
      </trkpt>
      <trkpt lat="45.73688" lon="5.61116">
        <ele>341.85524361172</ele>
        <time>2015-05-16T13:36:19Z</time>
      </trkpt>
      <trkpt lat="45.73683" lon="5.61122">
        <ele>341.85524361172</ele>
        <time>2015-05-16T13:36:24Z</time>
      </trkpt>
      <trkpt lat="45.73678" lon="5.61125">
        <ele>341.401010355</ele>
        <time>2015-05-16T13:36:29Z</time>
      </trkpt>
      <trkpt lat="45.73673" lon="5.61124">
        <ele>341.401010355</ele>
        <time>2015-05-16T13:36:34Z</time>
      </trkpt>
      <trkpt lat="45.7367" lon="5.61123">
        <ele>341.401010355</ele>
        <time>2015-05-16T13:36:39Z</time>
      </trkpt>
      <trkpt lat="45.73665" lon="5.61122">
        <ele>341.71931538534</ele>
        <time>2015-05-16T13:36:44Z</time>
      </trkpt>
      <trkpt lat="45.73656" lon="5.61126">
        <ele>341.18168429958</ele>
        <time>2015-05-16T13:36:49Z</time>
      </trkpt>
      <trkpt lat="45.7365" lon="5.61136">
        <ele>341.18168429958</ele>
        <time>2015-05-16T13:36:54Z</time>
      </trkpt>
      <trkpt lat="45.73644" lon="5.6114">
        <ele>340.54420425048</ele>
        <time>2015-05-16T13:36:59Z</time>
      </trkpt>
      <trkpt lat="45.73636" lon="5.61147">
        <ele>339.75830870427</ele>
        <time>2015-05-16T13:37:04Z</time>
      </trkpt>
      <trkpt lat="45.73629" lon="5.61152">
        <ele>339.75830870427</ele>
        <time>2015-05-16T13:37:09Z</time>
      </trkpt>
      <trkpt lat="45.73619" lon="5.61155">
        <ele>338.563230509</ele>
        <time>2015-05-16T13:37:14Z</time>
      </trkpt>
      <trkpt lat="45.73612" lon="5.6116">
        <ele>338.563230509</ele>
        <time>2015-05-16T13:37:19Z</time>
      </trkpt>
      <trkpt lat="45.73608" lon="5.61165">
        <ele>337.28051595869</ele>
        <time>2015-05-16T13:37:24Z</time>
      </trkpt>
      <trkpt lat="45.73603" lon="5.6117">
        <ele>337.28051595869</ele>
        <time>2015-05-16T13:37:29Z</time>
      </trkpt>
      <trkpt lat="45.73596" lon="5.61171">
        <ele>336.06419499153</ele>
        <time>2015-05-16T13:37:34Z</time>
      </trkpt>
      <trkpt lat="45.73593" lon="5.61175">
        <ele>336.06419499153</ele>
        <time>2015-05-16T13:37:39Z</time>
      </trkpt>
      <trkpt lat="45.73582" lon="5.6118">
        <ele>334.86941427134</ele>
        <time>2015-05-16T13:37:44Z</time>
      </trkpt>
      <trkpt lat="45.73572" lon="5.61185">
        <ele>333.25099834611</ele>
        <time>2015-05-16T13:37:49Z</time>
      </trkpt>
      <trkpt lat="45.73566" lon="5.61193">
        <ele>333.25099834611</ele>
        <time>2015-05-16T13:37:54Z</time>
      </trkpt>
      <trkpt lat="45.7356" lon="5.61197">
        <ele>332.06578866021</ele>
        <time>2015-05-16T13:37:59Z</time>
      </trkpt>
      <trkpt lat="45.7355" lon="5.612">
        <ele>330.92469843509</ele>
        <time>2015-05-16T13:38:04Z</time>
      </trkpt>
      <trkpt lat="45.73541" lon="5.61203">
        <ele>329.51026835216</ele>
        <time>2015-05-16T13:38:09Z</time>
      </trkpt>
      <trkpt lat="45.73533" lon="5.61206">
        <ele>329.51026835216</ele>
        <time>2015-05-16T13:38:14Z</time>
      </trkpt>
      <trkpt lat="45.73526" lon="5.6121">
        <ele>328.23520178199</ele>
        <time>2015-05-16T13:38:19Z</time>
      </trkpt>
      <trkpt lat="45.73514" lon="5.6122">
        <ele>327.30848809625</ele>
        <time>2015-05-16T13:38:24Z</time>
      </trkpt>
      <trkpt lat="45.73497" lon="5.61238">
        <ele>326.59125644241</ele>
        <time>2015-05-16T13:38:29Z</time>
      </trkpt>
      <trkpt lat="45.73459" lon="5.61249">
        <ele>326.84766446993</ele>
        <time>2015-05-16T13:38:34Z</time>
      </trkpt>
      <trkpt lat="45.73423" lon="5.61254">
        <ele>327.06800995087</ele>
        <time>2015-05-16T13:38:39Z</time>
      </trkpt>
      <trkpt lat="45.73404" lon="5.6127">
        <ele>327.18146585999</ele>
        <time>2015-05-16T13:38:44Z</time>
      </trkpt>
      <trkpt lat="45.73379" lon="5.6129">
        <ele>327.67027366293</ele>
        <time>2015-05-16T13:38:49Z</time>
      </trkpt>
      <trkpt lat="45.73375" lon="5.61295">
        <ele>327.67027366293</ele>
        <time>2015-05-16T13:38:54Z</time>
      </trkpt>
      <trkpt lat="45.73373" lon="5.61295">
        <ele>327.67027366293</ele>
        <time>2015-05-16T13:38:59Z</time>
      </trkpt>
      <trkpt lat="45.73371" lon="5.61296">
        <ele>329.09543997985</ele>
        <time>2015-05-16T13:39:04Z</time>
      </trkpt>
      <trkpt lat="45.73371" lon="5.613">
        <ele>329.09543997985</ele>
        <time>2015-05-16T13:39:09Z</time>
      </trkpt>
      <trkpt lat="45.73369" lon="5.61306">
        <ele>329.09543997985</ele>
        <time>2015-05-16T13:39:14Z</time>
      </trkpt>
      <trkpt lat="45.73359" lon="5.61306">
        <ele>329.50979725504</ele>
        <time>2015-05-16T13:39:19Z</time>
      </trkpt>
      <trkpt lat="45.73353" lon="5.61307">
        <ele>329.50979725504</ele>
        <time>2015-05-16T13:39:24Z</time>
      </trkpt>
      <trkpt lat="45.73344" lon="5.61309">
        <ele>329.66279414642</ele>
        <time>2015-05-16T13:39:29Z</time>
      </trkpt>
      <trkpt lat="45.73336" lon="5.61313">
        <ele>329.66279414642</ele>
        <time>2015-05-16T13:39:34Z</time>
      </trkpt>
      <trkpt lat="45.73325" lon="5.61317">
        <ele>329.99014345757</ele>
        <time>2015-05-16T13:39:39Z</time>
      </trkpt>
      <trkpt lat="45.73312" lon="5.61319">
        <ele>330.62124428305</ele>
        <time>2015-05-16T13:39:44Z</time>
      </trkpt>
      <trkpt lat="45.73301" lon="5.61326">
        <ele>330.7816487362</ele>
        <time>2015-05-16T13:39:49Z</time>
      </trkpt>
      <trkpt lat="45.73293" lon="5.61334">
        <ele>331.06653727665</ele>
        <time>2015-05-16T13:39:54Z</time>
      </trkpt>
      <trkpt lat="45.73289" lon="5.61337">
        <ele>331.06653727665</ele>
        <time>2015-05-16T13:39:59Z</time>
      </trkpt>
      <trkpt lat="45.73281" lon="5.61341">
        <ele>330.84531833376</ele>
        <time>2015-05-16T13:40:04Z</time>
      </trkpt>
      <trkpt lat="45.73274" lon="5.61344">
        <ele>330.84531833376</ele>
        <time>2015-05-16T13:40:09Z</time>
      </trkpt>
      <trkpt lat="45.73269" lon="5.6135">
        <ele>330.83215744742</ele>
        <time>2015-05-16T13:40:14Z</time>
      </trkpt>
      <trkpt lat="45.73264" lon="5.61354">
        <ele>330.83215744742</ele>
        <time>2015-05-16T13:40:19Z</time>
      </trkpt>
      <trkpt lat="45.73258" lon="5.61357">
        <ele>331.6017250381</ele>
        <time>2015-05-16T13:40:24Z</time>
      </trkpt>
      <trkpt lat="45.7325" lon="5.6136">
        <ele>331.6017250381</ele>
        <time>2015-05-16T13:40:29Z</time>
      </trkpt>
      <trkpt lat="45.73246" lon="5.61364">
        <ele>332.19995670377</ele>
        <time>2015-05-16T13:40:34Z</time>
      </trkpt>
      <trkpt lat="45.73241" lon="5.6137">
        <ele>332.19995670377</ele>
        <time>2015-05-16T13:40:39Z</time>
      </trkpt>
      <trkpt lat="45.73238" lon="5.61373">
        <ele>332.52157872674</ele>
        <time>2015-05-16T13:40:44Z</time>
      </trkpt>
      <trkpt lat="45.73233" lon="5.61377">
        <ele>332.52157872674</ele>
        <time>2015-05-16T13:40:49Z</time>
      </trkpt>
      <trkpt lat="45.7323" lon="5.61382">
        <ele>333.07512328997</ele>
        <time>2015-05-16T13:40:54Z</time>
      </trkpt>
      <trkpt lat="45.73224" lon="5.61385">
        <ele>333.07512328997</ele>
        <time>2015-05-16T13:40:59Z</time>
      </trkpt>
      <trkpt lat="45.7322" lon="5.61391">
        <ele>332.97650402826</ele>
        <time>2015-05-16T13:41:04Z</time>
      </trkpt>
      <trkpt lat="45.73213" lon="5.61396">
        <ele>332.97650402826</ele>
        <time>2015-05-16T13:41:09Z</time>
      </trkpt>
      <trkpt lat="45.73206" lon="5.61402">
        <ele>332.9792561922</ele>
        <time>2015-05-16T13:41:14Z</time>
      </trkpt>
      <trkpt lat="45.73201" lon="5.61407">
        <ele>332.9792561922</ele>
        <time>2015-05-16T13:41:19Z</time>
      </trkpt>
      <trkpt lat="45.73197" lon="5.61412">
        <ele>333.5507364542</ele>
        <time>2015-05-16T13:41:24Z</time>
      </trkpt>
      <trkpt lat="45.73189" lon="5.61418">
        <ele>333.5507364542</ele>
        <time>2015-05-16T13:41:29Z</time>
      </trkpt>
      <trkpt lat="45.73178" lon="5.61421">
        <ele>334.70449255793</ele>
        <time>2015-05-16T13:41:34Z</time>
      </trkpt>
      <trkpt lat="45.73171" lon="5.61424">
        <ele>334.70449255793</ele>
        <time>2015-05-16T13:41:39Z</time>
      </trkpt>
      <trkpt lat="45.73166" lon="5.61428">
        <ele>335.97592125351</ele>
        <time>2015-05-16T13:41:44Z</time>
      </trkpt>
      <trkpt lat="45.73152" lon="5.61434">
        <ele>336.89103528498</ele>
        <time>2015-05-16T13:41:49Z</time>
      </trkpt>
      <trkpt lat="45.73148" lon="5.61441">
        <ele>336.89103528498</ele>
        <time>2015-05-16T13:41:54Z</time>
      </trkpt>
      <trkpt lat="45.73142" lon="5.61445">
        <ele>337.31435493094</ele>
        <time>2015-05-16T13:41:59Z</time>
      </trkpt>
      <trkpt lat="45.73136" lon="5.61449">
        <ele>337.31435493094</ele>
        <time>2015-05-16T13:42:04Z</time>
      </trkpt>
      <trkpt lat="45.7313" lon="5.61453">
        <ele>337.69823739971</ele>
        <time>2015-05-16T13:42:09Z</time>
      </trkpt>
      <trkpt lat="45.73121" lon="5.61454">
        <ele>337.89994967414</ele>
        <time>2015-05-16T13:42:14Z</time>
      </trkpt>
      <trkpt lat="45.73114" lon="5.61456">
        <ele>337.89994967414</ele>
        <time>2015-05-16T13:42:19Z</time>
      </trkpt>
      <trkpt lat="45.73103" lon="5.61459">
        <ele>337.85987267334</ele>
        <time>2015-05-16T13:42:24Z</time>
      </trkpt>
      <trkpt lat="45.7309" lon="5.61461">
        <ele>338.21523974034</ele>
        <time>2015-05-16T13:42:29Z</time>
      </trkpt>
      <trkpt lat="45.73081" lon="5.61459">
        <ele>338.50341166617</ele>
        <time>2015-05-16T13:42:34Z</time>
      </trkpt>
      <trkpt lat="45.73078" lon="5.61462">
        <ele>338.50341166617</ele>
        <time>2015-05-16T13:42:39Z</time>
      </trkpt>
      <trkpt lat="45.73077" lon="5.61467">
        <ele>338.50341166617</ele>
        <time>2015-05-16T13:42:44Z</time>
      </trkpt>
      <trkpt lat="45.73072" lon="5.61473">
        <ele>338.3824461177</ele>
        <time>2015-05-16T13:42:49Z</time>
      </trkpt>
      <trkpt lat="45.73069" lon="5.61479">
        <ele>338.3824461177</ele>
        <time>2015-05-16T13:42:54Z</time>
      </trkpt>
      <trkpt lat="45.73063" lon="5.61484">
        <ele>338.15639888177</ele>
        <time>2015-05-16T13:42:59Z</time>
      </trkpt>
      <trkpt lat="45.73059" lon="5.61491">
        <ele>338.15639888177</ele>
        <time>2015-05-16T13:43:04Z</time>
      </trkpt>
      <trkpt lat="45.73052" lon="5.61495">
        <ele>338.22262417027</ele>
        <time>2015-05-16T13:43:09Z</time>
      </trkpt>
      <trkpt lat="45.73046" lon="5.615">
        <ele>338.22262417027</ele>
        <time>2015-05-16T13:43:14Z</time>
      </trkpt>
      <trkpt lat="45.7304" lon="5.61503">
        <ele>338.21354660511</ele>
        <time>2015-05-16T13:43:19Z</time>
      </trkpt>
      <trkpt lat="45.73033" lon="5.61505">
        <ele>338.21354660511</ele>
        <time>2015-05-16T13:43:24Z</time>
      </trkpt>
      <trkpt lat="45.7303" lon="5.61505">
        <ele>338.99938187698</ele>
        <time>2015-05-16T13:43:29Z</time>
      </trkpt>
      <trkpt lat="45.73027" lon="5.61507">
        <ele>338.99938187698</ele>
        <time>2015-05-16T13:43:34Z</time>
      </trkpt>
      <trkpt lat="45.73018" lon="5.61509">
        <ele>339.4819652912</ele>
        <time>2015-05-16T13:43:39Z</time>
      </trkpt>
      <trkpt lat="45.73011" lon="5.61515">
        <ele>339.4819652912</ele>
        <time>2015-05-16T13:43:44Z</time>
      </trkpt>
      <trkpt lat="45.73002" lon="5.61519">
        <ele>339.09143883617</ele>
        <time>2015-05-16T13:43:49Z</time>
      </trkpt>
      <trkpt lat="45.72995" lon="5.61523">
        <ele>339.09143883617</ele>
        <time>2015-05-16T13:43:54Z</time>
      </trkpt>
      <trkpt lat="45.72986" lon="5.61525">
        <ele>338.72899469045</ele>
        <time>2015-05-16T13:43:59Z</time>
      </trkpt>
      <trkpt lat="45.72978" lon="5.61525">
        <ele>338.72899469045</ele>
        <time>2015-05-16T13:44:04Z</time>
      </trkpt>
      <trkpt lat="45.72968" lon="5.61526">
        <ele>338.95577069131</ele>
        <time>2015-05-16T13:44:09Z</time>
      </trkpt>
      <trkpt lat="45.7296" lon="5.61527">
        <ele>338.95577069131</ele>
        <time>2015-05-16T13:44:14Z</time>
      </trkpt>
      <trkpt lat="45.72954" lon="5.6153">
        <ele>339.28128616804</ele>
        <time>2015-05-16T13:44:19Z</time>
      </trkpt>
      <trkpt lat="45.72947" lon="5.61533">
        <ele>339.28128616804</ele>
        <time>2015-05-16T13:44:24Z</time>
      </trkpt>
      <trkpt lat="45.72936" lon="5.6153">
        <ele>339.87052291157</ele>
        <time>2015-05-16T13:44:29Z</time>
      </trkpt>
      <trkpt lat="45.72928" lon="5.61529">
        <ele>339.87052291157</ele>
        <time>2015-05-16T13:44:34Z</time>
      </trkpt>
      <trkpt lat="45.72917" lon="5.61533">
        <ele>340.77475660878</ele>
        <time>2015-05-16T13:44:39Z</time>
      </trkpt>
      <trkpt lat="45.72907" lon="5.61536">
        <ele>341.33450013127</ele>
        <time>2015-05-16T13:44:44Z</time>
      </trkpt>
      <trkpt lat="45.72903" lon="5.61541">
        <ele>341.33450013127</ele>
        <time>2015-05-16T13:44:49Z</time>
      </trkpt>
      <trkpt lat="45.72902" lon="5.61546">
        <ele>341.33450013127</ele>
        <time>2015-05-16T13:44:54Z</time>
      </trkpt>
      <trkpt lat="45.72893" lon="5.61549">
        <ele>342.16465781219</ele>
        <time>2015-05-16T13:44:59Z</time>
      </trkpt>
      <trkpt lat="45.72885" lon="5.6155">
        <ele>342.16465781219</ele>
        <time>2015-05-16T13:45:04Z</time>
      </trkpt>
      <trkpt lat="45.72878" lon="5.61554">
        <ele>342.92634175299</ele>
        <time>2015-05-16T13:45:09Z</time>
      </trkpt>
      <trkpt lat="45.72871" lon="5.61555">
        <ele>342.92634175299</ele>
        <time>2015-05-16T13:45:14Z</time>
      </trkpt>
      <trkpt lat="45.72865" lon="5.61557">
        <ele>343.2337339974</ele>
        <time>2015-05-16T13:45:19Z</time>
      </trkpt>
      <trkpt lat="45.72857" lon="5.61559">
        <ele>343.2337339974</ele>
        <time>2015-05-16T13:45:24Z</time>
      </trkpt>
      <trkpt lat="45.72851" lon="5.6156">
        <ele>343.6818066294</ele>
        <time>2015-05-16T13:45:29Z</time>
      </trkpt>
      <trkpt lat="45.72843" lon="5.61563">
        <ele>343.6818066294</ele>
        <time>2015-05-16T13:45:34Z</time>
      </trkpt>
      <trkpt lat="45.72838" lon="5.61567">
        <ele>344.70618312491</ele>
        <time>2015-05-16T13:45:39Z</time>
      </trkpt>
      <trkpt lat="45.7283" lon="5.61567">
        <ele>344.70618312491</ele>
        <time>2015-05-16T13:45:44Z</time>
      </trkpt>
      <trkpt lat="45.72821" lon="5.61565">
        <ele>345.55602240662</ele>
        <time>2015-05-16T13:45:49Z</time>
      </trkpt>
      <trkpt lat="45.72814" lon="5.61565">
        <ele>345.55602240662</ele>
        <time>2015-05-16T13:45:54Z</time>
      </trkpt>
      <trkpt lat="45.72807" lon="5.61563">
        <ele>346.55936231806</ele>
        <time>2015-05-16T13:45:59Z</time>
      </trkpt>
      <trkpt lat="45.72798" lon="5.61567">
        <ele>346.55936231806</ele>
        <time>2015-05-16T13:46:04Z</time>
      </trkpt>
      <trkpt lat="45.72794" lon="5.61574">
        <ele>347.22714676541</ele>
        <time>2015-05-16T13:46:09Z</time>
      </trkpt>
      <trkpt lat="45.72795" lon="5.61571">
        <ele>347.22714676541</ele>
        <time>2015-05-16T13:46:14Z</time>
      </trkpt>
      <trkpt lat="45.72796" lon="5.61572">
        <ele>347.22714676541</ele>
        <time>2015-05-16T13:46:19Z</time>
      </trkpt>
      <trkpt lat="45.72797" lon="5.61574">
        <ele>347.22714676541</ele>
        <time>2015-05-16T13:46:24Z</time>
      </trkpt>
      <trkpt lat="45.72798" lon="5.61575">
        <ele>347.22714676541</ele>
        <time>2015-05-16T13:46:29Z</time>
      </trkpt>
      <trkpt lat="45.72798" lon="5.61575">
        <ele>347.22714676541</ele>
        <time>2015-05-16T13:46:34Z</time>
      </trkpt>
      <trkpt lat="45.72797" lon="5.61575">
        <ele>347.22714676541</ele>
        <time>2015-05-16T13:46:39Z</time>
      </trkpt>
      <trkpt lat="45.72797" lon="5.61572">
        <ele>347.22714676541</ele>
        <time>2015-05-16T13:46:44Z</time>
      </trkpt>
      <trkpt lat="45.72796" lon="5.61571">
        <ele>348.20247963283</ele>
        <time>2015-05-16T13:46:49Z</time>
      </trkpt>
      <trkpt lat="45.72796" lon="5.61571">
        <ele>348.20247963283</ele>
        <time>2015-05-16T13:46:54Z</time>
      </trkpt>
      <trkpt lat="45.72796" lon="5.6157">
        <ele>348.20247963283</ele>
        <time>2015-05-16T13:46:59Z</time>
      </trkpt>
      <trkpt lat="45.72795" lon="5.61571">
        <ele>348.20247963283</ele>
        <time>2015-05-16T13:47:04Z</time>
      </trkpt>
      <trkpt lat="45.72792" lon="5.61567">
        <ele>348.20247963283</ele>
        <time>2015-05-16T13:47:09Z</time>
      </trkpt>
      <trkpt lat="45.72792" lon="5.61564">
        <ele>348.20247963283</ele>
        <time>2015-05-16T13:47:14Z</time>
      </trkpt>
      <trkpt lat="45.72791" lon="5.61565">
        <ele>348.95634243687</ele>
        <time>2015-05-16T13:47:19Z</time>
      </trkpt>
      <trkpt lat="45.72791" lon="5.61565">
        <ele>348.95634243687</ele>
        <time>2015-05-16T13:47:24Z</time>
      </trkpt>
      <trkpt lat="45.72791" lon="5.61565">
        <ele>348.95634243687</ele>
        <time>2015-05-16T13:47:29Z</time>
      </trkpt>
      <trkpt lat="45.72791" lon="5.61565">
        <ele>348.95634243687</ele>
        <time>2015-05-16T13:47:34Z</time>
      </trkpt>
      <trkpt lat="45.72791" lon="5.61565">
        <ele>348.95634243687</ele>
        <time>2015-05-16T13:47:39Z</time>
      </trkpt>
      <trkpt lat="45.72791" lon="5.61565">
        <ele>348.95634243687</ele>
        <time>2015-05-16T13:47:44Z</time>
      </trkpt>
      <trkpt lat="45.72791" lon="5.61565">
        <ele>348.95634243687</ele>
        <time>2015-05-16T13:47:49Z</time>
      </trkpt>
      <trkpt lat="45.72791" lon="5.61565">
        <ele>348.95634243687</ele>
        <time>2015-05-16T13:47:54Z</time>
      </trkpt>
      <trkpt lat="45.72791" lon="5.61563">
        <ele>348.95634243687</ele>
        <time>2015-05-16T13:47:59Z</time>
      </trkpt>
      <trkpt lat="45.72789" lon="5.61564">
        <ele>348.95634243687</ele>
        <time>2015-05-16T13:48:04Z</time>
      </trkpt>
      <trkpt lat="45.72789" lon="5.61568">
        <ele>348.95634243687</ele>
        <time>2015-05-16T13:48:09Z</time>
      </trkpt>
      <trkpt lat="45.7279" lon="5.61571">
        <ele>349.47481646916</ele>
        <time>2015-05-16T13:48:14Z</time>
      </trkpt>
      <trkpt lat="45.72791" lon="5.61571">
        <ele>349.47481646916</ele>
        <time>2015-05-16T13:48:19Z</time>
      </trkpt>
      <trkpt lat="45.7279" lon="5.61571">
        <ele>349.47481646916</ele>
        <time>2015-05-16T13:48:24Z</time>
      </trkpt>
      <trkpt lat="45.72791" lon="5.61571">
        <ele>349.47481646916</ele>
        <time>2015-05-16T13:48:29Z</time>
      </trkpt>
      <trkpt lat="45.7279" lon="5.61571">
        <ele>349.47481646916</ele>
        <time>2015-05-16T13:48:34Z</time>
      </trkpt>
      <trkpt lat="45.7279" lon="5.61571">
        <ele>349.47481646916</ele>
        <time>2015-05-16T13:48:39Z</time>
      </trkpt>
      <trkpt lat="45.7279" lon="5.61571">
        <ele>349.47481646916</ele>
        <time>2015-05-16T13:48:44Z</time>
      </trkpt>
      <trkpt lat="45.7279" lon="5.61571">
        <ele>349.47481646916</ele>
        <time>2015-05-16T13:48:49Z</time>
      </trkpt>
      <trkpt lat="45.7279" lon="5.61571">
        <ele>349.47481646916</ele>
        <time>2015-05-16T13:48:54Z</time>
      </trkpt>
      <trkpt lat="45.72791" lon="5.61571">
        <ele>349.47481646916</ele>
        <time>2015-05-16T13:48:59Z</time>
      </trkpt>
      <trkpt lat="45.72791" lon="5.61571">
        <ele>349.47481646916</ele>
        <time>2015-05-16T13:49:04Z</time>
      </trkpt>
      <trkpt lat="45.72791" lon="5.61571">
        <ele>349.47481646916</ele>
        <time>2015-05-16T13:49:09Z</time>
      </trkpt>
      <trkpt lat="45.72791" lon="5.61571">
        <ele>349.47481646916</ele>
        <time>2015-05-16T13:49:14Z</time>
      </trkpt>
      <trkpt lat="45.72791" lon="5.61571">
        <ele>349.47481646916</ele>
        <time>2015-05-16T13:49:19Z</time>
      </trkpt>
      <trkpt lat="45.72791" lon="5.61571">
        <ele>349.47481646916</ele>
        <time>2015-05-16T13:49:24Z</time>
      </trkpt>
      <trkpt lat="45.72791" lon="5.61571">
        <ele>349.47481646916</ele>
        <time>2015-05-16T13:50:04Z</time>
      </trkpt>
      <trkpt lat="45.72791" lon="5.61572">
        <ele>349.47481646916</ele>
        <time>2015-05-16T13:50:09Z</time>
      </trkpt>
      <trkpt lat="45.72791" lon="5.61572">
        <ele>349.47481646916</ele>
        <time>2015-05-16T13:50:14Z</time>
      </trkpt>
      <trkpt lat="45.72791" lon="5.61572">
        <ele>349.47481646916</ele>
        <time>2015-05-16T13:50:19Z</time>
      </trkpt>
      <trkpt lat="45.72791" lon="5.61572">
        <ele>349.47481646916</ele>
        <time>2015-05-16T13:50:24Z</time>
      </trkpt>
      <trkpt lat="45.72791" lon="5.61572">
        <ele>349.47481646916</ele>
        <time>2015-05-16T13:50:29Z</time>
      </trkpt>
      <trkpt lat="45.72791" lon="5.61572">
        <ele>349.47481646916</ele>
        <time>2015-05-16T13:50:34Z</time>
      </trkpt>
      <trkpt lat="45.72792" lon="5.61567">
        <ele>349.47481646916</ele>
        <time>2015-05-16T13:50:39Z</time>
      </trkpt>
      <trkpt lat="45.72788" lon="5.61553">
        <ele>350.22128321227</ele>
        <time>2015-05-16T13:50:44Z</time>
      </trkpt>
      <trkpt lat="45.72785" lon="5.61543">
        <ele>350.22128321227</ele>
        <time>2015-05-16T13:50:49Z</time>
      </trkpt>
      <trkpt lat="45.7278" lon="5.61535">
        <ele>350.50042738462</ele>
        <time>2015-05-16T13:50:54Z</time>
      </trkpt>
      <trkpt lat="45.72766" lon="5.61517">
        <ele>350.33228047132</ele>
        <time>2015-05-16T13:50:59Z</time>
      </trkpt>
      <trkpt lat="45.72737" lon="5.61501">
        <ele>349.53494343806</ele>
        <time>2015-05-16T13:51:04Z</time>
      </trkpt>
      <trkpt lat="45.72718" lon="5.61484">
        <ele>348.51812336565</ele>
        <time>2015-05-16T13:51:09Z</time>
      </trkpt>
      <trkpt lat="45.72702" lon="5.6147">
        <ele>347.4170809895</ele>
        <time>2015-05-16T13:51:14Z</time>
      </trkpt>
      <trkpt lat="45.72685" lon="5.61454">
        <ele>346.41503341422</ele>
        <time>2015-05-16T13:51:19Z</time>
      </trkpt>
      <trkpt lat="45.72669" lon="5.61436">
        <ele>345.45088260911</ele>
        <time>2015-05-16T13:51:24Z</time>
      </trkpt>
      <trkpt lat="45.72653" lon="5.61419">
        <ele>344.42466684571</ele>
        <time>2015-05-16T13:51:29Z</time>
      </trkpt>
      <trkpt lat="45.72627" lon="5.61401">
        <ele>343.25832953289</ele>
        <time>2015-05-16T13:51:34Z</time>
      </trkpt>
      <trkpt lat="45.72612" lon="5.6139">
        <ele>342.26900823288</ele>
        <time>2015-05-16T13:51:39Z</time>
      </trkpt>
      <trkpt lat="45.72596" lon="5.61379">
        <ele>340.9429818773</ele>
        <time>2015-05-16T13:51:45Z</time>
      </trkpt>
      <trkpt lat="45.72582" lon="5.61371">
        <ele>339.62659320232</ele>
        <time>2015-05-16T13:51:49Z</time>
      </trkpt>
      <trkpt lat="45.72579" lon="5.61364">
        <ele>339.62659320232</ele>
        <time>2015-05-16T13:51:54Z</time>
      </trkpt>
      <trkpt lat="45.72576" lon="5.61354">
        <ele>338.42448824865</ele>
        <time>2015-05-16T13:51:59Z</time>
      </trkpt>
      <trkpt lat="45.72575" lon="5.61343">
        <ele>338.42448824865</ele>
        <time>2015-05-16T13:52:04Z</time>
      </trkpt>
      <trkpt lat="45.72578" lon="5.61335">
        <ele>337.31794754403</ele>
        <time>2015-05-16T13:52:09Z</time>
      </trkpt>
      <trkpt lat="45.72578" lon="5.61325">
        <ele>337.31794754403</ele>
        <time>2015-05-16T13:52:14Z</time>
      </trkpt>
      <trkpt lat="45.7258" lon="5.61316">
        <ele>336.7936727759</ele>
        <time>2015-05-16T13:52:19Z</time>
      </trkpt>
      <trkpt lat="45.72582" lon="5.6131">
        <ele>336.7936727759</ele>
        <time>2015-05-16T13:52:24Z</time>
      </trkpt>
      <trkpt lat="45.72585" lon="5.61306">
        <ele>336.7936727759</ele>
        <time>2015-05-16T13:52:29Z</time>
      </trkpt>
      <trkpt lat="45.7259" lon="5.613">
        <ele>336.2056551536</ele>
        <time>2015-05-16T13:52:34Z</time>
      </trkpt>
      <trkpt lat="45.72593" lon="5.61289">
        <ele>336.2056551536</ele>
        <time>2015-05-16T13:52:39Z</time>
      </trkpt>
      <trkpt lat="45.72595" lon="5.6128">
        <ele>335.96421716094</ele>
        <time>2015-05-16T13:52:44Z</time>
      </trkpt>
      <trkpt lat="45.72597" lon="5.61271">
        <ele>335.96421716094</ele>
        <time>2015-05-16T13:52:49Z</time>
      </trkpt>
      <trkpt lat="45.72599" lon="5.61259">
        <ele>336.10261993662</ele>
        <time>2015-05-16T13:52:54Z</time>
      </trkpt>
      <trkpt lat="45.72601" lon="5.61244">
        <ele>336.76582827365</ele>
        <time>2015-05-16T13:52:59Z</time>
      </trkpt>
      <trkpt lat="45.72603" lon="5.61232">
        <ele>336.76582827365</ele>
        <time>2015-05-16T13:53:04Z</time>
      </trkpt>
      <trkpt lat="45.72609" lon="5.61218">
        <ele>337.36605928525</ele>
        <time>2015-05-16T13:53:09Z</time>
      </trkpt>
      <trkpt lat="45.72611" lon="5.61214">
        <ele>337.36605928525</ele>
        <time>2015-05-16T13:53:14Z</time>
      </trkpt>
      <trkpt lat="45.7261" lon="5.61206">
        <ele>337.28676537201</ele>
        <time>2015-05-16T13:53:19Z</time>
      </trkpt>
      <trkpt lat="45.72608" lon="5.61199">
        <ele>337.28676537201</ele>
        <time>2015-05-16T13:53:24Z</time>
      </trkpt>
      <trkpt lat="45.7261" lon="5.61189">
        <ele>336.69350530834</ele>
        <time>2015-05-16T13:53:29Z</time>
      </trkpt>
      <trkpt lat="45.7261" lon="5.61179">
        <ele>336.69350530834</ele>
        <time>2015-05-16T13:53:34Z</time>
      </trkpt>
      <trkpt lat="45.72612" lon="5.6117">
        <ele>336.17339754594</ele>
        <time>2015-05-16T13:53:39Z</time>
      </trkpt>
      <trkpt lat="45.72615" lon="5.61162">
        <ele>336.17339754594</ele>
        <time>2015-05-16T13:53:44Z</time>
      </trkpt>
      <trkpt lat="45.7262" lon="5.61152">
        <ele>335.49197327485</ele>
        <time>2015-05-16T13:53:49Z</time>
      </trkpt>
      <trkpt lat="45.72624" lon="5.61144">
        <ele>335.49197327485</ele>
        <time>2015-05-16T13:53:54Z</time>
      </trkpt>
      <trkpt lat="45.72626" lon="5.61133">
        <ele>335.25382167643</ele>
        <time>2015-05-16T13:53:59Z</time>
      </trkpt>
      <trkpt lat="45.72625" lon="5.61122">
        <ele>335.25382167643</ele>
        <time>2015-05-16T13:54:04Z</time>
      </trkpt>
      <trkpt lat="45.72622" lon="5.61112">
        <ele>334.86493400588</ele>
        <time>2015-05-16T13:54:09Z</time>
      </trkpt>
      <trkpt lat="45.72617" lon="5.611">
        <ele>334.65438650002</ele>
        <time>2015-05-16T13:54:14Z</time>
      </trkpt>
      <trkpt lat="45.72614" lon="5.6109">
        <ele>334.65438650002</ele>
        <time>2015-05-16T13:54:19Z</time>
      </trkpt>
      <trkpt lat="45.7261" lon="5.61082">
        <ele>334.40773104367</ele>
        <time>2015-05-16T13:54:24Z</time>
      </trkpt>
      <trkpt lat="45.72605" lon="5.61074">
        <ele>334.40773104367</ele>
        <time>2015-05-16T13:54:29Z</time>
      </trkpt>
      <trkpt lat="45.72598" lon="5.61066">
        <ele>334.22895958762</ele>
        <time>2015-05-16T13:54:34Z</time>
      </trkpt>
      <trkpt lat="45.72593" lon="5.61059">
        <ele>334.22895958762</ele>
        <time>2015-05-16T13:54:39Z</time>
      </trkpt>
      <trkpt lat="45.72589" lon="5.61051">
        <ele>334.07007776294</ele>
        <time>2015-05-16T13:54:44Z</time>
      </trkpt>
      <trkpt lat="45.72587" lon="5.61043">
        <ele>334.07007776294</ele>
        <time>2015-05-16T13:54:49Z</time>
      </trkpt>
      <trkpt lat="45.72586" lon="5.61037">
        <ele>334.08827412428</ele>
        <time>2015-05-16T13:54:54Z</time>
      </trkpt>
      <trkpt lat="45.72586" lon="5.61029">
        <ele>334.08827412428</ele>
        <time>2015-05-16T13:54:59Z</time>
      </trkpt>
      <trkpt lat="45.72586" lon="5.61017">
        <ele>334.34218789532</ele>
        <time>2015-05-16T13:55:04Z</time>
      </trkpt>
      <trkpt lat="45.72586" lon="5.61007">
        <ele>334.34218789532</ele>
        <time>2015-05-16T13:55:09Z</time>
      </trkpt>
      <trkpt lat="45.72585" lon="5.60994">
        <ele>334.92868877955</ele>
        <time>2015-05-16T13:55:14Z</time>
      </trkpt>
      <trkpt lat="45.72588" lon="5.60984">
        <ele>334.92868877955</ele>
        <time>2015-05-16T13:55:19Z</time>
      </trkpt>
      <trkpt lat="45.72589" lon="5.60972">
        <ele>335.64834729907</ele>
        <time>2015-05-16T13:55:24Z</time>
      </trkpt>
      <trkpt lat="45.7259" lon="5.60958">
        <ele>337.00772460765</ele>
        <time>2015-05-16T13:55:29Z</time>
      </trkpt>
      <trkpt lat="45.72591" lon="5.6095">
        <ele>337.00772460765</ele>
        <time>2015-05-16T13:55:34Z</time>
      </trkpt>
      <trkpt lat="45.72593" lon="5.60944">
        <ele>338.27824333237</ele>
        <time>2015-05-16T13:55:39Z</time>
      </trkpt>
      <trkpt lat="45.72593" lon="5.60934">
        <ele>338.27824333237</ele>
        <time>2015-05-16T13:55:44Z</time>
      </trkpt>
      <trkpt lat="45.72591" lon="5.60923">
        <ele>339.43359775563</ele>
        <time>2015-05-16T13:55:49Z</time>
      </trkpt>
      <trkpt lat="45.72592" lon="5.60913">
        <ele>339.43359775563</ele>
        <time>2015-05-16T13:55:54Z</time>
      </trkpt>
      <trkpt lat="45.72593" lon="5.60903">
        <ele>340.70915032248</ele>
        <time>2015-05-16T13:55:59Z</time>
      </trkpt>
      <trkpt lat="45.72594" lon="5.60892">
        <ele>340.70915032248</ele>
        <time>2015-05-16T13:56:04Z</time>
      </trkpt>
      <trkpt lat="45.72593" lon="5.60882">
        <ele>342.07767150801</ele>
        <time>2015-05-16T13:56:09Z</time>
      </trkpt>
      <trkpt lat="45.72594" lon="5.60873">
        <ele>342.07767150801</ele>
        <time>2015-05-16T13:56:14Z</time>
      </trkpt>
      <trkpt lat="45.72593" lon="5.60862">
        <ele>343.54252773625</ele>
        <time>2015-05-16T13:56:19Z</time>
      </trkpt>
      <trkpt lat="45.72593" lon="5.60852">
        <ele>343.54252773625</ele>
        <time>2015-05-16T13:56:24Z</time>
      </trkpt>
      <trkpt lat="45.72593" lon="5.60842">
        <ele>344.86162287206</ele>
        <time>2015-05-16T13:56:29Z</time>
      </trkpt>
      <trkpt lat="45.72594" lon="5.60833">
        <ele>344.86162287206</ele>
        <time>2015-05-16T13:56:34Z</time>
      </trkpt>
      <trkpt lat="45.72594" lon="5.60823">
        <ele>346.2866741144</ele>
        <time>2015-05-16T13:56:39Z</time>
      </trkpt>
      <trkpt lat="45.72594" lon="5.60813">
        <ele>346.2866741144</ele>
        <time>2015-05-16T13:56:44Z</time>
      </trkpt>
      <trkpt lat="45.72596" lon="5.60805">
        <ele>347.63274990706</ele>
        <time>2015-05-16T13:56:49Z</time>
      </trkpt>
      <trkpt lat="45.72597" lon="5.60796">
        <ele>347.63274990706</ele>
        <time>2015-05-16T13:56:54Z</time>
      </trkpt>
      <trkpt lat="45.72599" lon="5.60788">
        <ele>348.32528230417</ele>
        <time>2015-05-16T13:56:59Z</time>
      </trkpt>
      <trkpt lat="45.726" lon="5.60781">
        <ele>348.32528230417</ele>
        <time>2015-05-16T13:57:04Z</time>
      </trkpt>
      <trkpt lat="45.72605" lon="5.60769">
        <ele>349.05876228746</ele>
        <time>2015-05-16T13:57:09Z</time>
      </trkpt>
      <trkpt lat="45.7261" lon="5.60757">
        <ele>350.31810385618</ele>
        <time>2015-05-16T13:57:14Z</time>
      </trkpt>
      <trkpt lat="45.72614" lon="5.60744">
        <ele>351.62889272448</ele>
        <time>2015-05-16T13:57:19Z</time>
      </trkpt>
      <trkpt lat="45.72616" lon="5.60736">
        <ele>351.62889272448</ele>
        <time>2015-05-16T13:57:24Z</time>
      </trkpt>
      <trkpt lat="45.72616" lon="5.60728">
        <ele>352.71002492859</ele>
        <time>2015-05-16T13:57:29Z</time>
      </trkpt>
      <trkpt lat="45.72613" lon="5.60719">
        <ele>352.71002492859</ele>
        <time>2015-05-16T13:57:34Z</time>
      </trkpt>
      <trkpt lat="45.72609" lon="5.60711">
        <ele>353.58999741637</ele>
        <time>2015-05-16T13:57:39Z</time>
      </trkpt>
      <trkpt lat="45.72604" lon="5.60704">
        <ele>353.58999741637</ele>
        <time>2015-05-16T13:57:44Z</time>
      </trkpt>
      <trkpt lat="45.72599" lon="5.60697">
        <ele>354.42556470015</ele>
        <time>2015-05-16T13:57:49Z</time>
      </trkpt>
      <trkpt lat="45.72593" lon="5.60689">
        <ele>354.42556470015</ele>
        <time>2015-05-16T13:57:54Z</time>
      </trkpt>
      <trkpt lat="45.72588" lon="5.60681">
        <ele>355.2613002278</ele>
        <time>2015-05-16T13:57:59Z</time>
      </trkpt>
      <trkpt lat="45.72583" lon="5.60673">
        <ele>355.2613002278</ele>
        <time>2015-05-16T13:58:04Z</time>
      </trkpt>
      <trkpt lat="45.72578" lon="5.60665">
        <ele>355.86477787585</ele>
        <time>2015-05-16T13:58:09Z</time>
      </trkpt>
      <trkpt lat="45.72574" lon="5.60658">
        <ele>355.86477787585</ele>
        <time>2015-05-16T13:58:14Z</time>
      </trkpt>
      <trkpt lat="45.72569" lon="5.60653">
        <ele>355.73315811174</ele>
        <time>2015-05-16T13:58:19Z</time>
      </trkpt>
      <trkpt lat="45.72566" lon="5.60644">
        <ele>355.73315811174</ele>
        <time>2015-05-16T13:58:24Z</time>
      </trkpt>
      <trkpt lat="45.72567" lon="5.60636">
        <ele>355.52674779812</ele>
        <time>2015-05-16T13:58:29Z</time>
      </trkpt>
      <trkpt lat="45.72565" lon="5.60625">
        <ele>355.52674779812</ele>
        <time>2015-05-16T13:58:34Z</time>
      </trkpt>
      <trkpt lat="45.72561" lon="5.60614">
        <ele>355.33882991074</ele>
        <time>2015-05-16T13:58:39Z</time>
      </trkpt>
      <trkpt lat="45.72557" lon="5.60602">
        <ele>355.38554754593</ele>
        <time>2015-05-16T13:58:44Z</time>
      </trkpt>
      <trkpt lat="45.72554" lon="5.60591">
        <ele>355.38554754593</ele>
        <time>2015-05-16T13:58:49Z</time>
      </trkpt>
      <trkpt lat="45.72551" lon="5.60582">
        <ele>354.4254506854</ele>
        <time>2015-05-16T13:58:54Z</time>
      </trkpt>
      <trkpt lat="45.72547" lon="5.60576">
        <ele>354.4254506854</ele>
        <time>2015-05-16T13:58:59Z</time>
      </trkpt>
      <trkpt lat="45.72543" lon="5.6057">
        <ele>353.63134421533</ele>
        <time>2015-05-16T13:59:04Z</time>
      </trkpt>
      <trkpt lat="45.7254" lon="5.60569">
        <ele>353.63134421533</ele>
        <time>2015-05-16T13:59:09Z</time>
      </trkpt>
      <trkpt lat="45.72536" lon="5.60567">
        <ele>353.63134421533</ele>
        <time>2015-05-16T13:59:14Z</time>
      </trkpt>
      <trkpt lat="45.72533" lon="5.60559">
        <ele>353.34007042198</ele>
        <time>2015-05-16T13:59:19Z</time>
      </trkpt>
      <trkpt lat="45.72532" lon="5.60556">
        <ele>353.34007042198</ele>
        <time>2015-05-16T13:59:24Z</time>
      </trkpt>
      <trkpt lat="45.72533" lon="5.60553">
        <ele>353.34007042198</ele>
        <time>2015-05-16T13:59:29Z</time>
      </trkpt>
      <trkpt lat="45.72533" lon="5.60551">
        <ele>353.34007042198</ele>
        <time>2015-05-16T13:59:34Z</time>
      </trkpt>
      <trkpt lat="45.72532" lon="5.60551">
        <ele>353.34007042198</ele>
        <time>2015-05-16T13:59:39Z</time>
      </trkpt>
      <trkpt lat="45.72532" lon="5.60551">
        <ele>353.34007042198</ele>
        <time>2015-05-16T13:59:44Z</time>
      </trkpt>
      <trkpt lat="45.72532" lon="5.60551">
        <ele>353.34007042198</ele>
        <time>2015-05-16T13:59:49Z</time>
      </trkpt>
      <trkpt lat="45.72532" lon="5.60551">
        <ele>353.34007042198</ele>
        <time>2015-05-16T13:59:54Z</time>
      </trkpt>
      <trkpt lat="45.72532" lon="5.60551">
        <ele>353.34007042198</ele>
        <time>2015-05-16T13:59:59Z</time>
      </trkpt>
      <trkpt lat="45.72533" lon="5.60548">
        <ele>353.34007042198</ele>
        <time>2015-05-16T14:00:04Z</time>
      </trkpt>
      <trkpt lat="45.72532" lon="5.60548">
        <ele>353.61735356816</ele>
        <time>2015-05-16T14:00:09Z</time>
      </trkpt>
      <trkpt lat="45.72532" lon="5.60547">
        <ele>353.61735356816</ele>
        <time>2015-05-16T14:00:14Z</time>
      </trkpt>
      <trkpt lat="45.72533" lon="5.60546">
        <ele>353.61735356816</ele>
        <time>2015-05-16T14:00:19Z</time>
      </trkpt>
      <trkpt lat="45.7253" lon="5.60548">
        <ele>353.61735356816</ele>
        <time>2015-05-16T14:00:24Z</time>
      </trkpt>
      <trkpt lat="45.72529" lon="5.6055">
        <ele>353.61735356816</ele>
        <time>2015-05-16T14:00:29Z</time>
      </trkpt>
      <trkpt lat="45.72528" lon="5.60554">
        <ele>353.61735356816</ele>
        <time>2015-05-16T14:00:34Z</time>
      </trkpt>
      <trkpt lat="45.72527" lon="5.60556">
        <ele>353.42726746727</ele>
        <time>2015-05-16T14:00:39Z</time>
      </trkpt>
      <trkpt lat="45.72526" lon="5.60559">
        <ele>353.42726746727</ele>
        <time>2015-05-16T14:00:44Z</time>
      </trkpt>
      <trkpt lat="45.72524" lon="5.60563">
        <ele>353.42726746727</ele>
        <time>2015-05-16T14:00:49Z</time>
      </trkpt>
      <trkpt lat="45.72519" lon="5.60568">
        <ele>353.06507388653</ele>
        <time>2015-05-16T14:00:54Z</time>
      </trkpt>
      <trkpt lat="45.72516" lon="5.6057">
        <ele>353.06507388653</ele>
        <time>2015-05-16T14:00:59Z</time>
      </trkpt>
      <trkpt lat="45.72515" lon="5.60574">
        <ele>353.06507388653</ele>
        <time>2015-05-16T14:01:04Z</time>
      </trkpt>
      <trkpt lat="45.7251" lon="5.6058">
        <ele>352.57425551273</ele>
        <time>2015-05-16T14:01:09Z</time>
      </trkpt>
      <trkpt lat="45.72505" lon="5.60586">
        <ele>352.57425551273</ele>
        <time>2015-05-16T14:01:14Z</time>
      </trkpt>
      <trkpt lat="45.725" lon="5.6059">
        <ele>352.58631831042</ele>
        <time>2015-05-16T14:01:19Z</time>
      </trkpt>
      <trkpt lat="45.72496" lon="5.60596">
        <ele>352.58631831042</ele>
        <time>2015-05-16T14:01:24Z</time>
      </trkpt>
      <trkpt lat="45.72491" lon="5.60603">
        <ele>352.21502871639</ele>
        <time>2015-05-16T14:01:29Z</time>
      </trkpt>
      <trkpt lat="45.72486" lon="5.60609">
        <ele>352.21502871639</ele>
        <time>2015-05-16T14:01:34Z</time>
      </trkpt>
      <trkpt lat="45.72482" lon="5.60616">
        <ele>352.34083332868</ele>
        <time>2015-05-16T14:01:39Z</time>
      </trkpt>
      <trkpt lat="45.72477" lon="5.6063">
        <ele>353.01430640591</ele>
        <time>2015-05-16T14:01:44Z</time>
      </trkpt>
      <trkpt lat="45.72472" lon="5.60642">
        <ele>354.03577026649</ele>
        <time>2015-05-16T14:01:49Z</time>
      </trkpt>
      <trkpt lat="45.72467" lon="5.60653">
        <ele>354.03577026649</ele>
        <time>2015-05-16T14:01:54Z</time>
      </trkpt>
      <trkpt lat="45.72464" lon="5.6066">
        <ele>355.24805258076</ele>
        <time>2015-05-16T14:01:59Z</time>
      </trkpt>
      <trkpt lat="45.72462" lon="5.60666">
        <ele>355.24805258076</ele>
        <time>2015-05-16T14:02:04Z</time>
      </trkpt>
      <trkpt lat="45.72459" lon="5.60673">
        <ele>355.72678619069</ele>
        <time>2015-05-16T14:02:09Z</time>
      </trkpt>
      <trkpt lat="45.72456" lon="5.60677">
        <ele>355.72678619069</ele>
        <time>2015-05-16T14:02:14Z</time>
      </trkpt>
      <trkpt lat="45.72452" lon="5.60684">
        <ele>356.1595540373</ele>
        <time>2015-05-16T14:02:19Z</time>
      </trkpt>
      <trkpt lat="45.72448" lon="5.60694">
        <ele>356.1595540373</ele>
        <time>2015-05-16T14:02:24Z</time>
      </trkpt>
      <trkpt lat="45.72445" lon="5.60704">
        <ele>357.24120679024</ele>
        <time>2015-05-16T14:02:29Z</time>
      </trkpt>
      <trkpt lat="45.72444" lon="5.60709">
        <ele>357.24120679024</ele>
        <time>2015-05-16T14:02:34Z</time>
      </trkpt>
      <trkpt lat="45.72442" lon="5.60713">
        <ele>357.24120679024</ele>
        <time>2015-05-16T14:02:39Z</time>
      </trkpt>
      <trkpt lat="45.72437" lon="5.60722">
        <ele>357.38001416526</ele>
        <time>2015-05-16T14:02:44Z</time>
      </trkpt>
      <trkpt lat="45.72429" lon="5.60731">
        <ele>357.32313661536</ele>
        <time>2015-05-16T14:02:49Z</time>
      </trkpt>
      <trkpt lat="45.72422" lon="5.60741">
        <ele>356.89873563791</ele>
        <time>2015-05-16T14:02:54Z</time>
      </trkpt>
      <trkpt lat="45.72416" lon="5.60748">
        <ele>356.89873563791</ele>
        <time>2015-05-16T14:02:59Z</time>
      </trkpt>
      <trkpt lat="45.7241" lon="5.60754">
        <ele>356.13597287855</ele>
        <time>2015-05-16T14:03:04Z</time>
      </trkpt>
      <trkpt lat="45.72404" lon="5.60756">
        <ele>356.13597287855</ele>
        <time>2015-05-16T14:03:09Z</time>
      </trkpt>
      <trkpt lat="45.72399" lon="5.60762">
        <ele>355.16368970357</ele>
        <time>2015-05-16T14:03:14Z</time>
      </trkpt>
      <trkpt lat="45.72394" lon="5.60767">
        <ele>355.16368970357</ele>
        <time>2015-05-16T14:03:19Z</time>
      </trkpt>
      <trkpt lat="45.72387" lon="5.6077">
        <ele>353.36686912144</ele>
        <time>2015-05-16T14:03:24Z</time>
      </trkpt>
      <trkpt lat="45.72381" lon="5.60777">
        <ele>353.36686912144</ele>
        <time>2015-05-16T14:03:29Z</time>
      </trkpt>
      <trkpt lat="45.72376" lon="5.60785">
        <ele>351.48937150236</ele>
        <time>2015-05-16T14:03:34Z</time>
      </trkpt>
      <trkpt lat="45.72369" lon="5.6079">
        <ele>351.48937150236</ele>
        <time>2015-05-16T14:03:39Z</time>
      </trkpt>
      <trkpt lat="45.72363" lon="5.60797">
        <ele>349.73062285437</ele>
        <time>2015-05-16T14:03:44Z</time>
      </trkpt>
      <trkpt lat="45.72359" lon="5.60801">
        <ele>349.73062285437</ele>
        <time>2015-05-16T14:03:49Z</time>
      </trkpt>
      <trkpt lat="45.72354" lon="5.60805">
        <ele>347.84267956194</ele>
        <time>2015-05-16T14:03:54Z</time>
      </trkpt>
      <trkpt lat="45.72349" lon="5.60809">
        <ele>347.84267956194</ele>
        <time>2015-05-16T14:03:59Z</time>
      </trkpt>
      <trkpt lat="45.72343" lon="5.60812">
        <ele>346.14372963098</ele>
        <time>2015-05-16T14:04:04Z</time>
      </trkpt>
      <trkpt lat="45.72337" lon="5.60814">
        <ele>346.14372963098</ele>
        <time>2015-05-16T14:04:09Z</time>
      </trkpt>
      <trkpt lat="45.72331" lon="5.60816">
        <ele>343.76067592522</ele>
        <time>2015-05-16T14:04:14Z</time>
      </trkpt>
      <trkpt lat="45.72325" lon="5.60821">
        <ele>343.76067592522</ele>
        <time>2015-05-16T14:04:19Z</time>
      </trkpt>
      <trkpt lat="45.72318" lon="5.60826">
        <ele>341.65895193243</ele>
        <time>2015-05-16T14:04:24Z</time>
      </trkpt>
      <trkpt lat="45.72312" lon="5.60833">
        <ele>341.65895193243</ele>
        <time>2015-05-16T14:04:29Z</time>
      </trkpt>
      <trkpt lat="45.72305" lon="5.6084">
        <ele>339.9539770714</ele>
        <time>2015-05-16T14:04:34Z</time>
      </trkpt>
      <trkpt lat="45.72299" lon="5.60848">
        <ele>339.9539770714</ele>
        <time>2015-05-16T14:04:39Z</time>
      </trkpt>
      <trkpt lat="45.72293" lon="5.60854">
        <ele>338.76587659831</ele>
        <time>2015-05-16T14:04:44Z</time>
      </trkpt>
      <trkpt lat="45.72286" lon="5.60861">
        <ele>338.76587659831</ele>
        <time>2015-05-16T14:04:49Z</time>
      </trkpt>
      <trkpt lat="45.72282" lon="5.60862">
        <ele>337.58470274452</ele>
        <time>2015-05-16T14:04:54Z</time>
      </trkpt>
      <trkpt lat="45.72278" lon="5.60863">
        <ele>337.58470274452</ele>
        <time>2015-05-16T14:04:59Z</time>
      </trkpt>
      <trkpt lat="45.72272" lon="5.60867">
        <ele>335.86576765647</ele>
        <time>2015-05-16T14:05:04Z</time>
      </trkpt>
      <trkpt lat="45.72265" lon="5.6087">
        <ele>335.86576765647</ele>
        <time>2015-05-16T14:05:09Z</time>
      </trkpt>
      <trkpt lat="45.7226" lon="5.60874">
        <ele>334.28748755539</ele>
        <time>2015-05-16T14:05:14Z</time>
      </trkpt>
      <trkpt lat="45.72254" lon="5.60878">
        <ele>334.28748755539</ele>
        <time>2015-05-16T14:05:19Z</time>
      </trkpt>
      <trkpt lat="45.72248" lon="5.60883">
        <ele>331.93592611145</ele>
        <time>2015-05-16T14:05:24Z</time>
      </trkpt>
      <trkpt lat="45.72241" lon="5.6089">
        <ele>331.93592611145</ele>
        <time>2015-05-16T14:05:29Z</time>
      </trkpt>
      <trkpt lat="45.72233" lon="5.609">
        <ele>330.18562905232</ele>
        <time>2015-05-16T14:05:34Z</time>
      </trkpt>
      <trkpt lat="45.72228" lon="5.60907">
        <ele>330.18562905232</ele>
        <time>2015-05-16T14:05:39Z</time>
      </trkpt>
      <trkpt lat="45.72222" lon="5.60915">
        <ele>328.8960525165</ele>
        <time>2015-05-16T14:05:44Z</time>
      </trkpt>
      <trkpt lat="45.72216" lon="5.60921">
        <ele>328.8960525165</ele>
        <time>2015-05-16T14:05:49Z</time>
      </trkpt>
      <trkpt lat="45.72211" lon="5.60927">
        <ele>327.53203046004</ele>
        <time>2015-05-16T14:05:54Z</time>
      </trkpt>
      <trkpt lat="45.72204" lon="5.60939">
        <ele>326.96683241678</ele>
        <time>2015-05-16T14:05:59Z</time>
      </trkpt>
      <trkpt lat="45.72199" lon="5.60948">
        <ele>326.96683241678</ele>
        <time>2015-05-16T14:06:04Z</time>
      </trkpt>
      <trkpt lat="45.72194" lon="5.60958">
        <ele>326.4363865876</ele>
        <time>2015-05-16T14:06:09Z</time>
      </trkpt>
      <trkpt lat="45.72189" lon="5.60966">
        <ele>326.4363865876</ele>
        <time>2015-05-16T14:06:14Z</time>
      </trkpt>
      <trkpt lat="45.72183" lon="5.60976">
        <ele>325.75131889847</ele>
        <time>2015-05-16T14:06:19Z</time>
      </trkpt>
      <trkpt lat="45.72176" lon="5.60985">
        <ele>324.76529570334</ele>
        <time>2015-05-16T14:06:24Z</time>
      </trkpt>
      <trkpt lat="45.7217" lon="5.60988">
        <ele>324.76529570334</ele>
        <time>2015-05-16T14:06:29Z</time>
      </trkpt>
      <trkpt lat="45.72163" lon="5.60994">
        <ele>323.83343510187</ele>
        <time>2015-05-16T14:06:34Z</time>
      </trkpt>
      <trkpt lat="45.72155" lon="5.61005">
        <ele>323.61595917464</ele>
        <time>2015-05-16T14:06:39Z</time>
      </trkpt>
      <trkpt lat="45.72147" lon="5.61013">
        <ele>324.16044834054</ele>
        <time>2015-05-16T14:06:44Z</time>
      </trkpt>
      <trkpt lat="45.72139" lon="5.61018">
        <ele>324.16044834054</ele>
        <time>2015-05-16T14:06:49Z</time>
      </trkpt>
      <trkpt lat="45.72134" lon="5.61025">
        <ele>324.42792182333</ele>
        <time>2015-05-16T14:06:54Z</time>
      </trkpt>
      <trkpt lat="45.72128" lon="5.6103">
        <ele>324.42792182333</ele>
        <time>2015-05-16T14:06:59Z</time>
      </trkpt>
      <trkpt lat="45.72114" lon="5.61037">
        <ele>324.52283860277</ele>
        <time>2015-05-16T14:07:04Z</time>
      </trkpt>
      <trkpt lat="45.72093" lon="5.61041">
        <ele>324.55680915936</ele>
        <time>2015-05-16T14:07:09Z</time>
      </trkpt>
      <trkpt lat="45.72072" lon="5.61045">
        <ele>324.12896802663</ele>
        <time>2015-05-16T14:07:14Z</time>
      </trkpt>
      <trkpt lat="45.7205" lon="5.61049">
        <ele>324.0940882568</ele>
        <time>2015-05-16T14:07:19Z</time>
      </trkpt>
      <trkpt lat="45.72032" lon="5.61053">
        <ele>324.14776380336</ele>
        <time>2015-05-16T14:07:24Z</time>
      </trkpt>
      <trkpt lat="45.72022" lon="5.61064">
        <ele>323.87796825693</ele>
        <time>2015-05-16T14:07:29Z</time>
      </trkpt>
      <trkpt lat="45.72005" lon="5.61089">
        <ele>323.42262315683</ele>
        <time>2015-05-16T14:07:34Z</time>
      </trkpt>
      <trkpt lat="45.7199" lon="5.61111">
        <ele>323.24147404907</ele>
        <time>2015-05-16T14:07:39Z</time>
      </trkpt>
      <trkpt lat="45.71974" lon="5.61167">
        <ele>323.70206610697</ele>
        <time>2015-05-16T14:07:44Z</time>
      </trkpt>
      <trkpt lat="45.71964" lon="5.61186">
        <ele>324.92697174708</ele>
        <time>2015-05-16T14:07:49Z</time>
      </trkpt>
      <trkpt lat="45.71956" lon="5.61203">
        <ele>326.42235268879</ele>
        <time>2015-05-16T14:07:54Z</time>
      </trkpt>
      <trkpt lat="45.71947" lon="5.61218">
        <ele>327.00934925002</ele>
        <time>2015-05-16T14:07:59Z</time>
      </trkpt>
      <trkpt lat="45.7193" lon="5.61239">
        <ele>327.73112248858</ele>
        <time>2015-05-16T14:08:04Z</time>
      </trkpt>
      <trkpt lat="45.71911" lon="5.61254">
        <ele>328.12716466878</ele>
        <time>2015-05-16T14:08:09Z</time>
      </trkpt>
      <trkpt lat="45.71896" lon="5.61264">
        <ele>328.86700418822</ele>
        <time>2015-05-16T14:08:14Z</time>
      </trkpt>
      <trkpt lat="45.71888" lon="5.61268">
        <ele>328.86700418822</ele>
        <time>2015-05-16T14:08:19Z</time>
      </trkpt>
      <trkpt lat="45.71883" lon="5.61271">
        <ele>329.02808722648</ele>
        <time>2015-05-16T14:08:24Z</time>
      </trkpt>
      <trkpt lat="45.71878" lon="5.61278">
        <ele>329.02808722648</ele>
        <time>2015-05-16T14:08:29Z</time>
      </trkpt>
      <trkpt lat="45.71875" lon="5.61283">
        <ele>329.15519179304</ele>
        <time>2015-05-16T14:08:34Z</time>
      </trkpt>
      <trkpt lat="45.7187" lon="5.61286">
        <ele>329.15519179304</ele>
        <time>2015-05-16T14:08:39Z</time>
      </trkpt>
      <trkpt lat="45.71865" lon="5.61289">
        <ele>328.22565486551</ele>
        <time>2015-05-16T14:08:44Z</time>
      </trkpt>
      <trkpt lat="45.71859" lon="5.61292">
        <ele>328.22565486551</ele>
        <time>2015-05-16T14:08:49Z</time>
      </trkpt>
      <trkpt lat="45.71855" lon="5.61293">
        <ele>326.33256059468</ele>
        <time>2015-05-16T14:08:54Z</time>
      </trkpt>
      <trkpt lat="45.7185" lon="5.61298">
        <ele>326.33256059468</ele>
        <time>2015-05-16T14:08:59Z</time>
      </trkpt>
      <trkpt lat="45.71845" lon="5.61302">
        <ele>324.83308857912</ele>
        <time>2015-05-16T14:09:04Z</time>
      </trkpt>
      <trkpt lat="45.71837" lon="5.61309">
        <ele>323.72989252955</ele>
        <time>2015-05-16T14:09:09Z</time>
      </trkpt>
      <trkpt lat="45.71829" lon="5.61316">
        <ele>322.62084098343</ele>
        <time>2015-05-16T14:09:14Z</time>
      </trkpt>
      <trkpt lat="45.71821" lon="5.61319">
        <ele>322.62084098343</ele>
        <time>2015-05-16T14:09:19Z</time>
      </trkpt>
      <trkpt lat="45.71817" lon="5.61321">
        <ele>321.09014844458</ele>
        <time>2015-05-16T14:09:24Z</time>
      </trkpt>
      <trkpt lat="45.71811" lon="5.61325">
        <ele>321.09014844458</ele>
        <time>2015-05-16T14:09:29Z</time>
      </trkpt>
      <trkpt lat="45.71805" lon="5.61333">
        <ele>320.35340477832</ele>
        <time>2015-05-16T14:09:34Z</time>
      </trkpt>
      <trkpt lat="45.71797" lon="5.61338">
        <ele>320.35340477832</ele>
        <time>2015-05-16T14:09:39Z</time>
      </trkpt>
      <trkpt lat="45.71791" lon="5.61342">
        <ele>319.53153985266</ele>
        <time>2015-05-16T14:09:44Z</time>
      </trkpt>
      <trkpt lat="45.71786" lon="5.61348">
        <ele>319.53153985266</ele>
        <time>2015-05-16T14:09:49Z</time>
      </trkpt>
      <trkpt lat="45.7178" lon="5.61352">
        <ele>319.36670392248</ele>
        <time>2015-05-16T14:09:54Z</time>
      </trkpt>
      <trkpt lat="45.71771" lon="5.61355">
        <ele>319.5359116317</ele>
        <time>2015-05-16T14:09:59Z</time>
      </trkpt>
      <trkpt lat="45.71763" lon="5.6136">
        <ele>319.5359116317</ele>
        <time>2015-05-16T14:10:04Z</time>
      </trkpt>
      <trkpt lat="45.71757" lon="5.61359">
        <ele>319.72456081747</ele>
        <time>2015-05-16T14:10:09Z</time>
      </trkpt>
      <trkpt lat="45.71751" lon="5.6136">
        <ele>319.72456081747</ele>
        <time>2015-05-16T14:10:14Z</time>
      </trkpt>
      <trkpt lat="45.71744" lon="5.61358">
        <ele>319.35289027864</ele>
        <time>2015-05-16T14:10:19Z</time>
      </trkpt>
      <trkpt lat="45.71737" lon="5.61359">
        <ele>319.35289027864</ele>
        <time>2015-05-16T14:10:24Z</time>
      </trkpt>
      <trkpt lat="45.71731" lon="5.6136">
        <ele>318.04383050006</ele>
        <time>2015-05-16T14:10:29Z</time>
      </trkpt>
      <trkpt lat="45.71725" lon="5.61363">
        <ele>318.04383050006</ele>
        <time>2015-05-16T14:10:34Z</time>
      </trkpt>
      <trkpt lat="45.71719" lon="5.61367">
        <ele>316.27208163158</ele>
        <time>2015-05-16T14:10:39Z</time>
      </trkpt>
      <trkpt lat="45.71713" lon="5.61374">
        <ele>316.27208163158</ele>
        <time>2015-05-16T14:10:44Z</time>
      </trkpt>
      <trkpt lat="45.71705" lon="5.6138">
        <ele>314.86787334694</ele>
        <time>2015-05-16T14:10:49Z</time>
      </trkpt>
      <trkpt lat="45.717" lon="5.61381">
        <ele>314.86787334694</ele>
        <time>2015-05-16T14:10:54Z</time>
      </trkpt>
      <trkpt lat="45.71695" lon="5.61384">
        <ele>314.15266802268</ele>
        <time>2015-05-16T14:10:59Z</time>
      </trkpt>
      <trkpt lat="45.71687" lon="5.6139">
        <ele>314.15266802268</ele>
        <time>2015-05-16T14:11:04Z</time>
      </trkpt>
      <trkpt lat="45.71678" lon="5.61405">
        <ele>315.34468601431</ele>
        <time>2015-05-16T14:11:09Z</time>
      </trkpt>
      <trkpt lat="45.71669" lon="5.61418">
        <ele>316.69949103233</ele>
        <time>2015-05-16T14:11:14Z</time>
      </trkpt>
      <trkpt lat="45.71662" lon="5.61426">
        <ele>316.69949103233</ele>
        <time>2015-05-16T14:11:19Z</time>
      </trkpt>
      <trkpt lat="45.71656" lon="5.61432">
        <ele>317.4217713037</ele>
        <time>2015-05-16T14:11:24Z</time>
      </trkpt>
      <trkpt lat="45.71649" lon="5.61436">
        <ele>317.4217713037</ele>
        <time>2015-05-16T14:11:29Z</time>
      </trkpt>
      <trkpt lat="45.71643" lon="5.6144">
        <ele>317.9293141735</ele>
        <time>2015-05-16T14:11:34Z</time>
      </trkpt>
      <trkpt lat="45.71637" lon="5.61444">
        <ele>317.9293141735</ele>
        <time>2015-05-16T14:11:39Z</time>
      </trkpt>
      <trkpt lat="45.7163" lon="5.6145">
        <ele>319.20069881139</ele>
        <time>2015-05-16T14:11:44Z</time>
      </trkpt>
      <trkpt lat="45.71624" lon="5.61452">
        <ele>319.20069881139</ele>
        <time>2015-05-16T14:11:49Z</time>
      </trkpt>
      <trkpt lat="45.71616" lon="5.61459">
        <ele>319.47445186275</ele>
        <time>2015-05-16T14:11:54Z</time>
      </trkpt>
      <trkpt lat="45.7159" lon="5.61465">
        <ele>318.90831197558</ele>
        <time>2015-05-16T14:11:59Z</time>
      </trkpt>
      <trkpt lat="45.71566" lon="5.61474">
        <ele>317.88140462001</ele>
        <time>2015-05-16T14:12:04Z</time>
      </trkpt>
      <trkpt lat="45.71531" lon="5.61485">
        <ele>317.46689314177</ele>
        <time>2015-05-16T14:12:09Z</time>
      </trkpt>
      <trkpt lat="45.71505" lon="5.61496">
        <ele>317.5765922852</ele>
        <time>2015-05-16T14:12:14Z</time>
      </trkpt>
      <trkpt lat="45.71482" lon="5.61496">
        <ele>318.31470418151</ele>
        <time>2015-05-16T14:12:19Z</time>
      </trkpt>
      <trkpt lat="45.71464" lon="5.61508">
        <ele>318.85373792506</ele>
        <time>2015-05-16T14:12:24Z</time>
      </trkpt>
      <trkpt lat="45.71447" lon="5.615">
        <ele>319.66694381979</ele>
        <time>2015-05-16T14:12:29Z</time>
      </trkpt>
      <trkpt lat="45.71435" lon="5.61507">
        <ele>321.03356202014</ele>
        <time>2015-05-16T14:12:34Z</time>
      </trkpt>
      <trkpt lat="45.71421" lon="5.61522">
        <ele>322.7208433214</ele>
        <time>2015-05-16T14:12:39Z</time>
      </trkpt>
      <trkpt lat="45.71404" lon="5.61531">
        <ele>323.63322005841</ele>
        <time>2015-05-16T14:12:44Z</time>
      </trkpt>
      <trkpt lat="45.71382" lon="5.61532">
        <ele>324.77540448367</ele>
        <time>2015-05-16T14:12:49Z</time>
      </trkpt>
      <trkpt lat="45.71366" lon="5.61538">
        <ele>326.15542519807</ele>
        <time>2015-05-16T14:12:54Z</time>
      </trkpt>
      <trkpt lat="45.71352" lon="5.61536">
        <ele>326.39666961164</ele>
        <time>2015-05-16T14:12:59Z</time>
      </trkpt>
      <trkpt lat="45.71339" lon="5.61542">
        <ele>326.04273019922</ele>
        <time>2015-05-16T14:13:04Z</time>
      </trkpt>
      <trkpt lat="45.71323" lon="5.61547">
        <ele>325.20991963942</ele>
        <time>2015-05-16T14:13:09Z</time>
      </trkpt>
      <trkpt lat="45.71305" lon="5.61557">
        <ele>324.10830388778</ele>
        <time>2015-05-16T14:13:14Z</time>
      </trkpt>
      <trkpt lat="45.71285" lon="5.61566">
        <ele>323.73698793092</ele>
        <time>2015-05-16T14:13:19Z</time>
      </trkpt>
      <trkpt lat="45.71261" lon="5.61575">
        <ele>323.36567197406</ele>
        <time>2015-05-16T14:13:24Z</time>
      </trkpt>
      <trkpt lat="45.71239" lon="5.61581">
        <ele>323.07276765548</ele>
        <time>2015-05-16T14:13:29Z</time>
      </trkpt>
      <trkpt lat="45.7121" lon="5.61589">
        <ele>323.13952176975</ele>
        <time>2015-05-16T14:13:34Z</time>
      </trkpt>
      <trkpt lat="45.71194" lon="5.61597">
        <ele>323.43828136393</ele>
        <time>2015-05-16T14:13:39Z</time>
      </trkpt>
      <trkpt lat="45.71178" lon="5.61605">
        <ele>324.87335005305</ele>
        <time>2015-05-16T14:13:44Z</time>
      </trkpt>
      <trkpt lat="45.71161" lon="5.61607">
        <ele>327.51566993436</ele>
        <time>2015-05-16T14:13:49Z</time>
      </trkpt>
      <trkpt lat="45.71149" lon="5.61611">
        <ele>330.76472828949</ele>
        <time>2015-05-16T14:13:54Z</time>
      </trkpt>
      <trkpt lat="45.71138" lon="5.61613">
        <ele>334.68217204831</ele>
        <time>2015-05-16T14:13:59Z</time>
      </trkpt>
      <trkpt lat="45.7113" lon="5.61615">
        <ele>334.68217204831</ele>
        <time>2015-05-16T14:14:04Z</time>
      </trkpt>
      <trkpt lat="45.71123" lon="5.61618">
        <ele>338.35779020905</ele>
        <time>2015-05-16T14:14:09Z</time>
      </trkpt>
      <trkpt lat="45.71116" lon="5.61622">
        <ele>338.35779020905</ele>
        <time>2015-05-16T14:14:14Z</time>
      </trkpt>
      <trkpt lat="45.71113" lon="5.61622">
        <ele>342.04427120649</ele>
        <time>2015-05-16T14:14:19Z</time>
      </trkpt>
      <trkpt lat="45.71111" lon="5.61622">
        <ele>342.04427120649</ele>
        <time>2015-05-16T14:14:24Z</time>
      </trkpt>
      <trkpt lat="45.71108" lon="5.61625">
        <ele>342.04427120649</ele>
        <time>2015-05-16T14:14:29Z</time>
      </trkpt>
      <trkpt lat="45.71108" lon="5.61625">
        <ele>342.04427120649</ele>
        <time>2015-05-16T14:14:34Z</time>
      </trkpt>
      <trkpt lat="45.71108" lon="5.61625">
        <ele>342.04427120649</ele>
        <time>2015-05-16T14:14:39Z</time>
      </trkpt>
      <trkpt lat="45.71107" lon="5.61625">
        <ele>342.04427120649</ele>
        <time>2015-05-16T14:14:44Z</time>
      </trkpt>
      <trkpt lat="45.71107" lon="5.61626">
        <ele>342.04427120649</ele>
        <time>2015-05-16T14:14:49Z</time>
      </trkpt>
      <trkpt lat="45.71106" lon="5.6163">
        <ele>345.74526723793</ele>
        <time>2015-05-16T14:14:54Z</time>
      </trkpt>
      <trkpt lat="45.71105" lon="5.61629">
        <ele>345.74526723793</ele>
        <time>2015-05-16T14:14:59Z</time>
      </trkpt>
      <trkpt lat="45.71105" lon="5.61628">
        <ele>345.74526723793</ele>
        <time>2015-05-16T14:15:04Z</time>
      </trkpt>
      <trkpt lat="45.71104" lon="5.61628">
        <ele>345.74526723793</ele>
        <time>2015-05-16T14:15:09Z</time>
      </trkpt>
      <trkpt lat="45.71104" lon="5.61629">
        <ele>345.74526723793</ele>
        <time>2015-05-16T14:15:14Z</time>
      </trkpt>
      <trkpt lat="45.71104" lon="5.61627">
        <ele>345.74526723793</ele>
        <time>2015-05-16T14:15:19Z</time>
      </trkpt>
      <trkpt lat="45.71102" lon="5.61625">
        <ele>345.74526723793</ele>
        <time>2015-05-16T14:15:24Z</time>
      </trkpt>
      <trkpt lat="45.71099" lon="5.61625">
        <ele>348.97429738135</ele>
        <time>2015-05-16T14:15:29Z</time>
      </trkpt>
      <trkpt lat="45.71094" lon="5.61625">
        <ele>348.97429738135</ele>
        <time>2015-05-16T14:15:34Z</time>
      </trkpt>
      <trkpt lat="45.71089" lon="5.61626">
        <ele>351.22446555848</ele>
        <time>2015-05-16T14:15:39Z</time>
      </trkpt>
      <trkpt lat="45.71081" lon="5.61625">
        <ele>351.22446555848</ele>
        <time>2015-05-16T14:15:44Z</time>
      </trkpt>
      <trkpt lat="45.71074" lon="5.61626">
        <ele>352.96575934412</ele>
        <time>2015-05-16T14:15:49Z</time>
      </trkpt>
      <trkpt lat="45.71067" lon="5.61629">
        <ele>352.96575934412</ele>
        <time>2015-05-16T14:15:54Z</time>
      </trkpt>
      <trkpt lat="45.71061" lon="5.61632">
        <ele>354.47673010213</ele>
        <time>2015-05-16T14:15:59Z</time>
      </trkpt>
      <trkpt lat="45.71056" lon="5.61632">
        <ele>354.47673010213</ele>
        <time>2015-05-16T14:16:04Z</time>
      </trkpt>
      <trkpt lat="45.71048" lon="5.61635">
        <ele>356.56391996386</ele>
        <time>2015-05-16T14:16:09Z</time>
      </trkpt>
      <trkpt lat="45.7104" lon="5.61641">
        <ele>358.56089954577</ele>
        <time>2015-05-16T14:16:14Z</time>
      </trkpt>
      <trkpt lat="45.71034" lon="5.61646">
        <ele>358.56089954577</ele>
        <time>2015-05-16T14:16:19Z</time>
      </trkpt>
      <trkpt lat="45.71031" lon="5.61645">
        <ele>360.25413884363</ele>
        <time>2015-05-16T14:16:24Z</time>
      </trkpt>
      <trkpt lat="45.71027" lon="5.61647">
        <ele>360.25413884363</ele>
        <time>2015-05-16T14:16:29Z</time>
      </trkpt>
      <trkpt lat="45.71021" lon="5.61649">
        <ele>361.27388765632</ele>
        <time>2015-05-16T14:16:34Z</time>
      </trkpt>
      <trkpt lat="45.71016" lon="5.61649">
        <ele>361.27388765632</ele>
        <time>2015-05-16T14:16:39Z</time>
      </trkpt>
      <trkpt lat="45.7101" lon="5.61651">
        <ele>361.29402612826</ele>
        <time>2015-05-16T14:16:44Z</time>
      </trkpt>
      <trkpt lat="45.71003" lon="5.61654">
        <ele>361.29402612826</ele>
        <time>2015-05-16T14:16:49Z</time>
      </trkpt>
      <trkpt lat="45.70996" lon="5.61656">
        <ele>360.95207488785</ele>
        <time>2015-05-16T14:16:54Z</time>
      </trkpt>
      <trkpt lat="45.70987" lon="5.61663">
        <ele>361.38750429842</ele>
        <time>2015-05-16T14:16:59Z</time>
      </trkpt>
      <trkpt lat="45.70979" lon="5.61673">
        <ele>363.26492919889</ele>
        <time>2015-05-16T14:17:04Z</time>
      </trkpt>
      <trkpt lat="45.70972" lon="5.61683">
        <ele>364.99131498235</ele>
        <time>2015-05-16T14:17:09Z</time>
      </trkpt>
      <trkpt lat="45.70966" lon="5.61691">
        <ele>364.99131498235</ele>
        <time>2015-05-16T14:17:14Z</time>
      </trkpt>
      <trkpt lat="45.70962" lon="5.61697">
        <ele>367.03668721945</ele>
        <time>2015-05-16T14:17:19Z</time>
      </trkpt>
      <trkpt lat="45.70956" lon="5.61705">
        <ele>367.03668721945</ele>
        <time>2015-05-16T14:17:24Z</time>
      </trkpt>
      <trkpt lat="45.70947" lon="5.61709">
        <ele>368.39464600062</ele>
        <time>2015-05-16T14:17:29Z</time>
      </trkpt>
      <trkpt lat="45.70928" lon="5.61712">
        <ele>369.21558884507</ele>
        <time>2015-05-16T14:17:34Z</time>
      </trkpt>
      <trkpt lat="45.70901" lon="5.61755">
        <ele>370.02957263223</ele>
        <time>2015-05-16T14:17:39Z</time>
      </trkpt>
      <trkpt lat="45.70867" lon="5.61743">
        <ele>370.98196349042</ele>
        <time>2015-05-16T14:17:44Z</time>
      </trkpt>
      <trkpt lat="45.70856" lon="5.61763">
        <ele>372.04862461937</ele>
        <time>2015-05-16T14:17:49Z</time>
      </trkpt>
      <trkpt lat="45.70852" lon="5.61779">
        <ele>373.16371659681</ele>
        <time>2015-05-16T14:17:54Z</time>
      </trkpt>
      <trkpt lat="45.70848" lon="5.61782">
        <ele>373.16371659681</ele>
        <time>2015-05-16T14:17:59Z</time>
      </trkpt>
      <trkpt lat="45.70845" lon="5.61786">
        <ele>373.16371659681</ele>
        <time>2015-05-16T14:18:04Z</time>
      </trkpt>
      <trkpt lat="45.7084" lon="5.6179">
        <ele>373.61767048965</ele>
        <time>2015-05-16T14:18:09Z</time>
      </trkpt>
      <trkpt lat="45.70835" lon="5.61789">
        <ele>373.61767048965</ele>
        <time>2015-05-16T14:18:14Z</time>
      </trkpt>
      <trkpt lat="45.7083" lon="5.61789">
        <ele>373.2161127887</ele>
        <time>2015-05-16T14:18:19Z</time>
      </trkpt>
      <trkpt lat="45.70825" lon="5.6179">
        <ele>373.2161127887</ele>
        <time>2015-05-16T14:18:24Z</time>
      </trkpt>
      <trkpt lat="45.70823" lon="5.61797">
        <ele>372.70370897389</ele>
        <time>2015-05-16T14:18:29Z</time>
      </trkpt>
      <trkpt lat="45.70817" lon="5.61808">
        <ele>372.43931261555</ele>
        <time>2015-05-16T14:18:34Z</time>
      </trkpt>
      <trkpt lat="45.70811" lon="5.61815">
        <ele>372.43931261555</ele>
        <time>2015-05-16T14:18:39Z</time>
      </trkpt>
      <trkpt lat="45.70799" lon="5.61823">
        <ele>372.13506272921</ele>
        <time>2015-05-16T14:18:44Z</time>
      </trkpt>
      <trkpt lat="45.70792" lon="5.61826">
        <ele>372.13506272921</ele>
        <time>2015-05-16T14:18:49Z</time>
      </trkpt>
      <trkpt lat="45.70789" lon="5.61827">
        <ele>371.39466081745</ele>
        <time>2015-05-16T14:18:54Z</time>
      </trkpt>
      <trkpt lat="45.70782" lon="5.61835">
        <ele>371.00502348389</ele>
        <time>2015-05-16T14:18:59Z</time>
      </trkpt>
      <trkpt lat="45.70775" lon="5.61841">
        <ele>371.00502348389</ele>
        <time>2015-05-16T14:19:04Z</time>
      </trkpt>
      <trkpt lat="45.70769" lon="5.61847">
        <ele>370.03697455042</ele>
        <time>2015-05-16T14:19:09Z</time>
      </trkpt>
      <trkpt lat="45.70763" lon="5.61853">
        <ele>370.03697455042</ele>
        <time>2015-05-16T14:19:14Z</time>
      </trkpt>
      <trkpt lat="45.70756" lon="5.61858">
        <ele>369.18757992639</ele>
        <time>2015-05-16T14:19:19Z</time>
      </trkpt>
      <trkpt lat="45.70751" lon="5.61859">
        <ele>369.18757992639</ele>
        <time>2015-05-16T14:19:24Z</time>
      </trkpt>
      <trkpt lat="45.70745" lon="5.61863">
        <ele>368.23764790125</ele>
        <time>2015-05-16T14:19:29Z</time>
      </trkpt>
      <trkpt lat="45.70739" lon="5.61864">
        <ele>368.23764790125</ele>
        <time>2015-05-16T14:19:34Z</time>
      </trkpt>
      <trkpt lat="45.70732" lon="5.6187">
        <ele>367.11400533325</ele>
        <time>2015-05-16T14:19:39Z</time>
      </trkpt>
      <trkpt lat="45.70724" lon="5.61871">
        <ele>367.11400533325</ele>
        <time>2015-05-16T14:19:44Z</time>
      </trkpt>
      <trkpt lat="45.70717" lon="5.61876">
        <ele>366.35453070049</ele>
        <time>2015-05-16T14:19:49Z</time>
      </trkpt>
      <trkpt lat="45.70712" lon="5.6188">
        <ele>366.35453070049</ele>
        <time>2015-05-16T14:19:54Z</time>
      </trkpt>
      <trkpt lat="45.70708" lon="5.61879">
        <ele>365.46211217911</ele>
        <time>2015-05-16T14:19:59Z</time>
      </trkpt>
      <trkpt lat="45.70704" lon="5.61881">
        <ele>365.46211217911</ele>
        <time>2015-05-16T14:20:04Z</time>
      </trkpt>
      <trkpt lat="45.70699" lon="5.6189">
        <ele>365.02844099805</ele>
        <time>2015-05-16T14:20:09Z</time>
      </trkpt>
      <trkpt lat="45.70691" lon="5.61901">
        <ele>364.66362708446</ele>
        <time>2015-05-16T14:20:14Z</time>
      </trkpt>
      <trkpt lat="45.70684" lon="5.61913">
        <ele>365.00048466523</ele>
        <time>2015-05-16T14:20:19Z</time>
      </trkpt>
      <trkpt lat="45.70676" lon="5.61922">
        <ele>365.19656023573</ele>
        <time>2015-05-16T14:20:24Z</time>
      </trkpt>
      <trkpt lat="45.70668" lon="5.61929">
        <ele>365.76857044915</ele>
        <time>2015-05-16T14:20:29Z</time>
      </trkpt>
      <trkpt lat="45.70661" lon="5.61939">
        <ele>365.99798811983</ele>
        <time>2015-05-16T14:20:34Z</time>
      </trkpt>
      <trkpt lat="45.70655" lon="5.61941">
        <ele>365.99798811983</ele>
        <time>2015-05-16T14:20:39Z</time>
      </trkpt>
      <trkpt lat="45.70648" lon="5.61949">
        <ele>365.95489103505</ele>
        <time>2015-05-16T14:20:44Z</time>
      </trkpt>
      <trkpt lat="45.70642" lon="5.61955">
        <ele>365.95489103505</ele>
        <time>2015-05-16T14:20:49Z</time>
      </trkpt>
      <trkpt lat="45.70634" lon="5.61964">
        <ele>365.93544864264</ele>
        <time>2015-05-16T14:20:54Z</time>
      </trkpt>
      <trkpt lat="45.70622" lon="5.61981">
        <ele>366.18508522814</ele>
        <time>2015-05-16T14:20:59Z</time>
      </trkpt>
      <trkpt lat="45.70609" lon="5.62007">
        <ele>365.95038677583</ele>
        <time>2015-05-16T14:21:04Z</time>
      </trkpt>
      <trkpt lat="45.70598" lon="5.62022">
        <ele>365.9180131896</ele>
        <time>2015-05-16T14:21:09Z</time>
      </trkpt>
      <trkpt lat="45.70588" lon="5.62029">
        <ele>365.61386286608</ele>
        <time>2015-05-16T14:21:14Z</time>
      </trkpt>
      <trkpt lat="45.70583" lon="5.62033">
        <ele>365.61386286608</ele>
        <time>2015-05-16T14:21:19Z</time>
      </trkpt>
      <trkpt lat="45.70578" lon="5.62037">
        <ele>365.07489465689</ele>
        <time>2015-05-16T14:21:24Z</time>
      </trkpt>
      <trkpt lat="45.70572" lon="5.62039">
        <ele>365.07489465689</ele>
        <time>2015-05-16T14:21:29Z</time>
      </trkpt>
      <trkpt lat="45.70566" lon="5.62042">
        <ele>363.83152424907</ele>
        <time>2015-05-16T14:21:34Z</time>
      </trkpt>
      <trkpt lat="45.7056" lon="5.62047">
        <ele>363.83152424907</ele>
        <time>2015-05-16T14:21:39Z</time>
      </trkpt>
      <trkpt lat="45.70553" lon="5.62053">
        <ele>363.16546175137</ele>
        <time>2015-05-16T14:21:44Z</time>
      </trkpt>
      <trkpt lat="45.70548" lon="5.62059">
        <ele>363.16546175137</ele>
        <time>2015-05-16T14:21:49Z</time>
      </trkpt>
      <trkpt lat="45.70542" lon="5.62063">
        <ele>362.76378539112</ele>
        <time>2015-05-16T14:21:54Z</time>
      </trkpt>
      <trkpt lat="45.70535" lon="5.62065">
        <ele>362.76378539112</ele>
        <time>2015-05-16T14:21:59Z</time>
      </trkpt>
      <trkpt lat="45.70528" lon="5.62065">
        <ele>363.09950434511</ele>
        <time>2015-05-16T14:22:04Z</time>
      </trkpt>
      <trkpt lat="45.70521" lon="5.6206">
        <ele>363.09950434511</ele>
        <time>2015-05-16T14:22:09Z</time>
      </trkpt>
      <trkpt lat="45.70519" lon="5.62056">
        <ele>363.21083097411</ele>
        <time>2015-05-16T14:22:14Z</time>
      </trkpt>
      <trkpt lat="45.70516" lon="5.62054">
        <ele>363.21083097411</ele>
        <time>2015-05-16T14:22:19Z</time>
      </trkpt>
      <trkpt lat="45.70515" lon="5.62055">
        <ele>363.21083097411</ele>
        <time>2015-05-16T14:22:24Z</time>
      </trkpt>
      <trkpt lat="45.70506" lon="5.62058">
        <ele>363.36004943893</ele>
        <time>2015-05-16T14:22:29Z</time>
      </trkpt>
      <trkpt lat="45.70497" lon="5.62062">
        <ele>363.89085445824</ele>
        <time>2015-05-16T14:22:34Z</time>
      </trkpt>
      <trkpt lat="45.70488" lon="5.62068">
        <ele>364.76025827708</ele>
        <time>2015-05-16T14:22:39Z</time>
      </trkpt>
      <trkpt lat="45.70481" lon="5.62074">
        <ele>364.76025827708</ele>
        <time>2015-05-16T14:22:44Z</time>
      </trkpt>
      <trkpt lat="45.70477" lon="5.62072">
        <ele>365.50948000978</ele>
        <time>2015-05-16T14:22:49Z</time>
      </trkpt>
      <trkpt lat="45.70476" lon="5.62069">
        <ele>365.50948000978</ele>
        <time>2015-05-16T14:22:54Z</time>
      </trkpt>
      <trkpt lat="45.70476" lon="5.62067">
        <ele>365.50948000978</ele>
        <time>2015-05-16T14:22:59Z</time>
      </trkpt>
      <trkpt lat="45.70475" lon="5.62068">
        <ele>365.50948000978</ele>
        <time>2015-05-16T14:23:04Z</time>
      </trkpt>
      <trkpt lat="45.70471" lon="5.62072">
        <ele>365.49753962816</ele>
        <time>2015-05-16T14:23:09Z</time>
      </trkpt>
      <trkpt lat="45.7047" lon="5.62074">
        <ele>365.49753962816</ele>
        <time>2015-05-16T14:23:14Z</time>
      </trkpt>
      <trkpt lat="45.70469" lon="5.62075">
        <ele>365.49753962816</ele>
        <time>2015-05-16T14:23:19Z</time>
      </trkpt>
      <trkpt lat="45.70469" lon="5.62075">
        <ele>365.49753962816</ele>
        <time>2015-05-16T14:23:24Z</time>
      </trkpt>
      <trkpt lat="45.70469" lon="5.62075">
        <ele>365.49753962816</ele>
        <time>2015-05-16T14:23:29Z</time>
      </trkpt>
      <trkpt lat="45.70469" lon="5.62075">
        <ele>365.49753962816</ele>
        <time>2015-05-16T14:23:34Z</time>
      </trkpt>
      <trkpt lat="45.70469" lon="5.62075">
        <ele>365.49753962816</ele>
        <time>2015-05-16T14:23:39Z</time>
      </trkpt>
      <trkpt lat="45.70471" lon="5.62071">
        <ele>365.49753962816</ele>
        <time>2015-05-16T14:23:44Z</time>
      </trkpt>
      <trkpt lat="45.70469" lon="5.62073">
        <ele>365.49753962816</ele>
        <time>2015-05-16T14:23:49Z</time>
      </trkpt>
      <trkpt lat="45.70468" lon="5.62078">
        <ele>366.22222728176</ele>
        <time>2015-05-16T14:23:54Z</time>
      </trkpt>
      <trkpt lat="45.70468" lon="5.62079">
        <ele>366.22222728176</ele>
        <time>2015-05-16T14:23:59Z</time>
      </trkpt>
      <trkpt lat="45.70468" lon="5.62079">
        <ele>366.22222728176</ele>
        <time>2015-05-16T14:24:04Z</time>
      </trkpt>
      <trkpt lat="45.70468" lon="5.62079">
        <ele>366.22222728176</ele>
        <time>2015-05-16T14:24:09Z</time>
      </trkpt>
      <trkpt lat="45.70469" lon="5.62079">
        <ele>366.22222728176</ele>
        <time>2015-05-16T14:24:14Z</time>
      </trkpt>
      <trkpt lat="45.70469" lon="5.62079">
        <ele>366.22222728176</ele>
        <time>2015-05-16T14:24:19Z</time>
      </trkpt>
      <trkpt lat="45.70468" lon="5.62079">
        <ele>366.22222728176</ele>
        <time>2015-05-16T14:24:24Z</time>
      </trkpt>
      <trkpt lat="45.70467" lon="5.62081">
        <ele>366.22222728176</ele>
        <time>2015-05-16T14:24:29Z</time>
      </trkpt>
      <trkpt lat="45.70468" lon="5.6208">
        <ele>366.22222728176</ele>
        <time>2015-05-16T14:24:34Z</time>
      </trkpt>
      <trkpt lat="45.70467" lon="5.62078">
        <ele>366.22222728176</ele>
        <time>2015-05-16T14:24:39Z</time>
      </trkpt>
      <trkpt lat="45.70467" lon="5.62077">
        <ele>366.22222728176</ele>
        <time>2015-05-16T14:24:44Z</time>
      </trkpt>
      <trkpt lat="45.70466" lon="5.6208">
        <ele>366.22222728176</ele>
        <time>2015-05-16T14:24:49Z</time>
      </trkpt>
      <trkpt lat="45.70466" lon="5.62078">
        <ele>366.22222728176</ele>
        <time>2015-05-16T14:24:54Z</time>
      </trkpt>
      <trkpt lat="45.70467" lon="5.62074">
        <ele>366.92192789417</ele>
        <time>2015-05-16T14:24:59Z</time>
      </trkpt>
      <trkpt lat="45.70467" lon="5.62075">
        <ele>366.92192789417</ele>
        <time>2015-05-16T14:25:04Z</time>
      </trkpt>
      <trkpt lat="45.70467" lon="5.62073">
        <ele>366.92192789417</ele>
        <time>2015-05-16T14:25:09Z</time>
      </trkpt>
      <trkpt lat="45.70467" lon="5.62073">
        <ele>366.92192789417</ele>
        <time>2015-05-16T14:25:14Z</time>
      </trkpt>
      <trkpt lat="45.70464" lon="5.62073">
        <ele>366.92192789417</ele>
        <time>2015-05-16T14:25:19Z</time>
      </trkpt>
      <trkpt lat="45.70467" lon="5.62073">
        <ele>366.92192789417</ele>
        <time>2015-05-16T14:25:24Z</time>
      </trkpt>
      <trkpt lat="45.70467" lon="5.62072">
        <ele>366.92192789417</ele>
        <time>2015-05-16T14:25:29Z</time>
      </trkpt>
      <trkpt lat="45.70465" lon="5.62073">
        <ele>367.19362822198</ele>
        <time>2015-05-16T14:25:34Z</time>
      </trkpt>
      <trkpt lat="45.70464" lon="5.62074">
        <ele>367.19362822198</ele>
        <time>2015-05-16T14:25:39Z</time>
      </trkpt>
      <trkpt lat="45.70464" lon="5.62074">
        <ele>367.19362822198</ele>
        <time>2015-05-16T14:25:44Z</time>
      </trkpt>
      <trkpt lat="45.70464" lon="5.62075">
        <ele>367.19362822198</ele>
        <time>2015-05-16T14:25:49Z</time>
      </trkpt>
      <trkpt lat="45.70464" lon="5.62075">
        <ele>367.19362822198</ele>
        <time>2015-05-16T14:25:54Z</time>
      </trkpt>
      <trkpt lat="45.70464" lon="5.62075">
        <ele>367.19362822198</ele>
        <time>2015-05-16T14:25:59Z</time>
      </trkpt>
      <trkpt lat="45.70464" lon="5.62075">
        <ele>367.19362822198</ele>
        <time>2015-05-16T14:26:04Z</time>
      </trkpt>
      <trkpt lat="45.70464" lon="5.62075">
        <ele>367.19362822198</ele>
        <time>2015-05-16T14:26:09Z</time>
      </trkpt>
      <trkpt lat="45.70464" lon="5.62075">
        <ele>367.19362822198</ele>
        <time>2015-05-16T14:26:14Z</time>
      </trkpt>
      <trkpt lat="45.70464" lon="5.62075">
        <ele>367.19362822198</ele>
        <time>2015-05-16T14:26:19Z</time>
      </trkpt>
      <trkpt lat="45.70464" lon="5.62075">
        <ele>367.19362822198</ele>
        <time>2015-05-16T14:26:24Z</time>
      </trkpt>
      <trkpt lat="45.70464" lon="5.62075">
        <ele>367.19362822198</ele>
        <time>2015-05-16T14:26:29Z</time>
      </trkpt>
      <trkpt lat="45.70464" lon="5.62075">
        <ele>367.19362822198</ele>
        <time>2015-05-16T14:26:34Z</time>
      </trkpt>
      <trkpt lat="45.70461" lon="5.62079">
        <ele>367.19362822198</ele>
        <time>2015-05-16T14:26:39Z</time>
      </trkpt>
      <trkpt lat="45.70458" lon="5.6208">
        <ele>367.48651056967</ele>
        <time>2015-05-16T14:26:44Z</time>
      </trkpt>
      <trkpt lat="45.70453" lon="5.62084">
        <ele>367.48651056967</ele>
        <time>2015-05-16T14:26:49Z</time>
      </trkpt>
      <trkpt lat="45.70444" lon="5.62094">
        <ele>368.82193140674</ele>
        <time>2015-05-16T14:26:54Z</time>
      </trkpt>
      <trkpt lat="45.70435" lon="5.62096">
        <ele>368.82193140674</ele>
        <time>2015-05-16T14:26:59Z</time>
      </trkpt>
      <trkpt lat="45.70427" lon="5.62103">
        <ele>370.51480947785</ele>
        <time>2015-05-16T14:27:04Z</time>
      </trkpt>
      <trkpt lat="45.7042" lon="5.62111">
        <ele>370.51480947785</ele>
        <time>2015-05-16T14:27:09Z</time>
      </trkpt>
      <trkpt lat="45.70407" lon="5.62128">
        <ele>372.0878893654</ele>
        <time>2015-05-16T14:27:14Z</time>
      </trkpt>
      <trkpt lat="45.70379" lon="5.62176">
        <ele>373.63251391061</ele>
        <time>2015-05-16T14:27:19Z</time>
      </trkpt>
      <trkpt lat="45.70363" lon="5.62188">
        <ele>374.67136564701</ele>
        <time>2015-05-16T14:27:24Z</time>
      </trkpt>
      <trkpt lat="45.70347" lon="5.62201">
        <ele>376.10385741475</ele>
        <time>2015-05-16T14:27:29Z</time>
      </trkpt>
      <trkpt lat="45.70342" lon="5.62208">
        <ele>376.10385741475</ele>
        <time>2015-05-16T14:27:34Z</time>
      </trkpt>
      <trkpt lat="45.70336" lon="5.6221">
        <ele>378.416385479</ele>
        <time>2015-05-16T14:27:39Z</time>
      </trkpt>
      <trkpt lat="45.70331" lon="5.62214">
        <ele>378.416385479</ele>
        <time>2015-05-16T14:27:44Z</time>
      </trkpt>
      <trkpt lat="45.70324" lon="5.62214">
        <ele>380.88988236826</ele>
        <time>2015-05-16T14:27:49Z</time>
      </trkpt>
      <trkpt lat="45.70317" lon="5.62211">
        <ele>380.88988236826</ele>
        <time>2015-05-16T14:27:54Z</time>
      </trkpt>
      <trkpt lat="45.7031" lon="5.62208">
        <ele>383.5926667178</ele>
        <time>2015-05-16T14:27:59Z</time>
      </trkpt>
      <trkpt lat="45.70306" lon="5.62208">
        <ele>383.5926667178</ele>
        <time>2015-05-16T14:28:04Z</time>
      </trkpt>
      <trkpt lat="45.703" lon="5.62214">
        <ele>386.34246925737</ele>
        <time>2015-05-16T14:28:09Z</time>
      </trkpt>
      <trkpt lat="45.70291" lon="5.62222">
        <ele>387.83187599639</ele>
        <time>2015-05-16T14:28:14Z</time>
      </trkpt>
      <trkpt lat="45.70285" lon="5.62227">
        <ele>387.83187599639</ele>
        <time>2015-05-16T14:28:19Z</time>
      </trkpt>
      <trkpt lat="45.7028" lon="5.62236">
        <ele>389.59125013827</ele>
        <time>2015-05-16T14:28:24Z</time>
      </trkpt>
      <trkpt lat="45.70273" lon="5.62244">
        <ele>389.59125013827</ele>
        <time>2015-05-16T14:28:29Z</time>
      </trkpt>
      <trkpt lat="45.70267" lon="5.62249">
        <ele>391.04913915534</ele>
        <time>2015-05-16T14:28:34Z</time>
      </trkpt>
      <trkpt lat="45.70261" lon="5.62254">
        <ele>391.04913915534</ele>
        <time>2015-05-16T14:28:39Z</time>
      </trkpt>
      <trkpt lat="45.70254" lon="5.62258">
        <ele>391.41761284644</ele>
        <time>2015-05-16T14:28:44Z</time>
      </trkpt>
      <trkpt lat="45.70247" lon="5.62264">
        <ele>391.41761284644</ele>
        <time>2015-05-16T14:28:49Z</time>
      </trkpt>
      <trkpt lat="45.70236" lon="5.62274">
        <ele>391.55499761674</ele>
        <time>2015-05-16T14:28:54Z</time>
      </trkpt>
      <trkpt lat="45.7023" lon="5.62281">
        <ele>391.55499761674</ele>
        <time>2015-05-16T14:28:59Z</time>
      </trkpt>
      <trkpt lat="45.70224" lon="5.62286">
        <ele>391.81056400804</ele>
        <time>2015-05-16T14:29:04Z</time>
      </trkpt>
      <trkpt lat="45.70219" lon="5.6229">
        <ele>391.81056400804</ele>
        <time>2015-05-16T14:29:09Z</time>
      </trkpt>
      <trkpt lat="45.70212" lon="5.62294">
        <ele>391.52772259925</ele>
        <time>2015-05-16T14:29:14Z</time>
      </trkpt>
      <trkpt lat="45.70206" lon="5.623">
        <ele>391.52772259925</ele>
        <time>2015-05-16T14:29:19Z</time>
      </trkpt>
      <trkpt lat="45.702" lon="5.62306">
        <ele>391.33905795015</ele>
        <time>2015-05-16T14:29:24Z</time>
      </trkpt>
      <trkpt lat="45.70165" lon="5.62363">
        <ele>390.7784734921</ele>
        <time>2015-05-16T14:29:59Z</time>
      </trkpt>
      <trkpt lat="45.70167" lon="5.62367">
        <ele>390.7784734921</ele>
        <time>2015-05-16T14:30:04Z</time>
      </trkpt>
      <trkpt lat="45.70167" lon="5.62372">
        <ele>390.7784734921</ele>
        <time>2015-05-16T14:30:09Z</time>
      </trkpt>
      <trkpt lat="45.70165" lon="5.62382">
        <ele>389.7034289063</ele>
        <time>2015-05-16T14:30:14Z</time>
      </trkpt>
      <trkpt lat="45.70165" lon="5.6239">
        <ele>389.7034289063</ele>
        <time>2015-05-16T14:30:19Z</time>
      </trkpt>
      <trkpt lat="45.70166" lon="5.62398">
        <ele>389.36680420736</ele>
        <time>2015-05-16T14:30:24Z</time>
      </trkpt>
      <trkpt lat="45.70165" lon="5.62408">
        <ele>389.36680420736</ele>
        <time>2015-05-16T14:30:29Z</time>
      </trkpt>
      <trkpt lat="45.70165" lon="5.62417">
        <ele>389.47187682416</ele>
        <time>2015-05-16T14:30:34Z</time>
      </trkpt>
      <trkpt lat="45.70164" lon="5.62427">
        <ele>389.47187682416</ele>
        <time>2015-05-16T14:30:39Z</time>
      </trkpt>
      <trkpt lat="45.70163" lon="5.62439">
        <ele>390.04513382458</ele>
        <time>2015-05-16T14:30:44Z</time>
      </trkpt>
      <trkpt lat="45.70162" lon="5.62451">
        <ele>390.04513382458</ele>
        <time>2015-05-16T14:30:49Z</time>
      </trkpt>
      <trkpt lat="45.7016" lon="5.62462">
        <ele>389.97133569882</ele>
        <time>2015-05-16T14:30:54Z</time>
      </trkpt>
      <trkpt lat="45.70158" lon="5.62471">
        <ele>389.97133569882</ele>
        <time>2015-05-16T14:30:59Z</time>
      </trkpt>
      <trkpt lat="45.70155" lon="5.6248">
        <ele>389.42952175621</ele>
        <time>2015-05-16T14:31:04Z</time>
      </trkpt>
      <trkpt lat="45.70151" lon="5.62485">
        <ele>389.42952175621</ele>
        <time>2015-05-16T14:31:09Z</time>
      </trkpt>
      <trkpt lat="45.70147" lon="5.62493">
        <ele>388.80305795137</ele>
        <time>2015-05-16T14:31:14Z</time>
      </trkpt>
      <trkpt lat="45.70142" lon="5.62502">
        <ele>388.80305795137</ele>
        <time>2015-05-16T14:31:19Z</time>
      </trkpt>
      <trkpt lat="45.70134" lon="5.62516">
        <ele>388.1879777019</ele>
        <time>2015-05-16T14:31:24Z</time>
      </trkpt>
      <trkpt lat="45.70125" lon="5.62527">
        <ele>388.06231230275</ele>
        <time>2015-05-16T14:31:29Z</time>
      </trkpt>
      <trkpt lat="45.7012" lon="5.62534">
        <ele>388.06231230275</ele>
        <time>2015-05-16T14:31:34Z</time>
      </trkpt>
      <trkpt lat="45.70115" lon="5.62541">
        <ele>387.8588029165</ele>
        <time>2015-05-16T14:31:39Z</time>
      </trkpt>
      <trkpt lat="45.70111" lon="5.62549">
        <ele>387.8588029165</ele>
        <time>2015-05-16T14:31:44Z</time>
      </trkpt>
      <trkpt lat="45.70107" lon="5.62558">
        <ele>388.16170743199</ele>
        <time>2015-05-16T14:31:49Z</time>
      </trkpt>
      <trkpt lat="45.70102" lon="5.62569">
        <ele>388.16170743199</ele>
        <time>2015-05-16T14:31:54Z</time>
      </trkpt>
      <trkpt lat="45.70098" lon="5.62577">
        <ele>388.09862261821</ele>
        <time>2015-05-16T14:31:59Z</time>
      </trkpt>
      <trkpt lat="45.70094" lon="5.62585">
        <ele>388.09862261821</ele>
        <time>2015-05-16T14:32:04Z</time>
      </trkpt>
      <trkpt lat="45.70091" lon="5.62594">
        <ele>387.88541315771</ele>
        <time>2015-05-16T14:32:09Z</time>
      </trkpt>
      <trkpt lat="45.70088" lon="5.62602">
        <ele>387.88541315771</ele>
        <time>2015-05-16T14:32:14Z</time>
      </trkpt>
      <trkpt lat="45.70086" lon="5.62612">
        <ele>386.85780260901</ele>
        <time>2015-05-16T14:32:19Z</time>
      </trkpt>
      <trkpt lat="45.70082" lon="5.62619">
        <ele>386.85780260901</ele>
        <time>2015-05-16T14:32:24Z</time>
      </trkpt>
      <trkpt lat="45.70078" lon="5.62627">
        <ele>386.2327663421</ele>
        <time>2015-05-16T14:32:29Z</time>
      </trkpt>
      <trkpt lat="45.70076" lon="5.62635">
        <ele>386.2327663421</ele>
        <time>2015-05-16T14:32:34Z</time>
      </trkpt>
      <trkpt lat="45.70072" lon="5.62644">
        <ele>385.49383708296</ele>
        <time>2015-05-16T14:32:39Z</time>
      </trkpt>
      <trkpt lat="45.70068" lon="5.6265">
        <ele>385.49383708296</ele>
        <time>2015-05-16T14:32:44Z</time>
      </trkpt>
      <trkpt lat="45.70063" lon="5.62657">
        <ele>385.25799818555</ele>
        <time>2015-05-16T14:32:49Z</time>
      </trkpt>
      <trkpt lat="45.70059" lon="5.62666">
        <ele>385.25799818555</ele>
        <time>2015-05-16T14:32:54Z</time>
      </trkpt>
      <trkpt lat="45.70053" lon="5.62673">
        <ele>386.06662020966</ele>
        <time>2015-05-16T14:32:59Z</time>
      </trkpt>
      <trkpt lat="45.70047" lon="5.6268">
        <ele>386.06662020966</ele>
        <time>2015-05-16T14:33:04Z</time>
      </trkpt>
      <trkpt lat="45.7004" lon="5.62686">
        <ele>387.02044111834</ele>
        <time>2015-05-16T14:33:09Z</time>
      </trkpt>
      <trkpt lat="45.70032" lon="5.62699">
        <ele>387.40108708118</ele>
        <time>2015-05-16T14:33:14Z</time>
      </trkpt>
      <trkpt lat="45.70025" lon="5.62708">
        <ele>387.87033881049</ele>
        <time>2015-05-16T14:33:19Z</time>
      </trkpt>
      <trkpt lat="45.70018" lon="5.62713">
        <ele>387.87033881049</ele>
        <time>2015-05-16T14:33:24Z</time>
      </trkpt>
      <trkpt lat="45.70012" lon="5.62718">
        <ele>388.50786159543</ele>
        <time>2015-05-16T14:33:29Z</time>
      </trkpt>
      <trkpt lat="45.70007" lon="5.62724">
        <ele>388.50786159543</ele>
        <time>2015-05-16T14:33:34Z</time>
      </trkpt>
      <trkpt lat="45.70002" lon="5.62732">
        <ele>388.98344849356</ele>
        <time>2015-05-16T14:33:39Z</time>
      </trkpt>
      <trkpt lat="45.69998" lon="5.62739">
        <ele>388.98344849356</ele>
        <time>2015-05-16T14:33:44Z</time>
      </trkpt>
      <trkpt lat="45.69997" lon="5.62747">
        <ele>389.75536063981</ele>
        <time>2015-05-16T14:33:49Z</time>
      </trkpt>
      <trkpt lat="45.69996" lon="5.62754">
        <ele>389.75536063981</ele>
        <time>2015-05-16T14:33:54Z</time>
      </trkpt>
      <trkpt lat="45.69993" lon="5.62761">
        <ele>390.32502511673</ele>
        <time>2015-05-16T14:33:59Z</time>
      </trkpt>
      <trkpt lat="45.69992" lon="5.62764">
        <ele>390.32502511673</ele>
        <time>2015-05-16T14:34:04Z</time>
      </trkpt>
      <trkpt lat="45.69992" lon="5.62764">
        <ele>390.32502511673</ele>
        <time>2015-05-16T14:34:09Z</time>
      </trkpt>
      <trkpt lat="45.69992" lon="5.62764">
        <ele>390.32502511673</ele>
        <time>2015-05-16T14:34:14Z</time>
      </trkpt>
      <trkpt lat="45.6999" lon="5.62768">
        <ele>390.32502511673</ele>
        <time>2015-05-16T14:34:19Z</time>
      </trkpt>
      <trkpt lat="45.69986" lon="5.62778">
        <ele>391.12452762726</ele>
        <time>2015-05-16T14:34:24Z</time>
      </trkpt>
      <trkpt lat="45.69982" lon="5.62786">
        <ele>391.12452762726</ele>
        <time>2015-05-16T14:34:29Z</time>
      </trkpt>
      <trkpt lat="45.69977" lon="5.62792">
        <ele>391.22772638168</ele>
        <time>2015-05-16T14:34:34Z</time>
      </trkpt>
      <trkpt lat="45.69974" lon="5.62798">
        <ele>391.22772638168</ele>
        <time>2015-05-16T14:34:39Z</time>
      </trkpt>
      <trkpt lat="45.69968" lon="5.62806">
        <ele>391.19073964655</ele>
        <time>2015-05-16T14:34:44Z</time>
      </trkpt>
      <trkpt lat="45.69961" lon="5.62814">
        <ele>391.03923321842</ele>
        <time>2015-05-16T14:34:49Z</time>
      </trkpt>
      <trkpt lat="45.69956" lon="5.62822">
        <ele>391.03923321842</ele>
        <time>2015-05-16T14:34:54Z</time>
      </trkpt>
      <trkpt lat="45.6995" lon="5.62829">
        <ele>390.95581487861</ele>
        <time>2015-05-16T14:34:59Z</time>
      </trkpt>
      <trkpt lat="45.69945" lon="5.62835">
        <ele>390.95581487861</ele>
        <time>2015-05-16T14:35:04Z</time>
      </trkpt>
      <trkpt lat="45.69941" lon="5.62839">
        <ele>390.30244565017</ele>
        <time>2015-05-16T14:35:09Z</time>
      </trkpt>
      <trkpt lat="45.69934" lon="5.62844">
        <ele>390.30244565017</ele>
        <time>2015-05-16T14:35:14Z</time>
      </trkpt>
      <trkpt lat="45.69928" lon="5.62848">
        <ele>389.81535590153</ele>
        <time>2015-05-16T14:35:19Z</time>
      </trkpt>
      <trkpt lat="45.69922" lon="5.62854">
        <ele>389.81535590153</ele>
        <time>2015-05-16T14:35:24Z</time>
      </trkpt>
      <trkpt lat="45.69917" lon="5.62859">
        <ele>389.42682242974</ele>
        <time>2015-05-16T14:35:29Z</time>
      </trkpt>
      <trkpt lat="45.6991" lon="5.62863">
        <ele>389.42682242974</ele>
        <time>2015-05-16T14:35:34Z</time>
      </trkpt>
      <trkpt lat="45.69904" lon="5.62867">
        <ele>389.20349084209</ele>
        <time>2015-05-16T14:35:39Z</time>
      </trkpt>
      <trkpt lat="45.69899" lon="5.6287">
        <ele>389.20349084209</ele>
        <time>2015-05-16T14:35:44Z</time>
      </trkpt>
      <trkpt lat="45.69894" lon="5.62874">
        <ele>387.93843449249</ele>
        <time>2015-05-16T14:35:49Z</time>
      </trkpt>
      <trkpt lat="45.69889" lon="5.62879">
        <ele>387.93843449249</ele>
        <time>2015-05-16T14:35:54Z</time>
      </trkpt>
      <trkpt lat="45.69883" lon="5.62885">
        <ele>386.8796926181</ele>
        <time>2015-05-16T14:35:59Z</time>
      </trkpt>
      <trkpt lat="45.69878" lon="5.62892">
        <ele>386.8796926181</ele>
        <time>2015-05-16T14:36:04Z</time>
      </trkpt>
      <trkpt lat="45.69872" lon="5.62895">
        <ele>385.43925413906</ele>
        <time>2015-05-16T14:36:09Z</time>
      </trkpt>
      <trkpt lat="45.69869" lon="5.62899">
        <ele>385.43925413906</ele>
        <time>2015-05-16T14:36:14Z</time>
      </trkpt>
      <trkpt lat="45.69868" lon="5.62907">
        <ele>383.57770805422</ele>
        <time>2015-05-16T14:36:19Z</time>
      </trkpt>
      <trkpt lat="45.69869" lon="5.62915">
        <ele>383.57770805422</ele>
        <time>2015-05-16T14:36:24Z</time>
      </trkpt>
      <trkpt lat="45.69872" lon="5.62924">
        <ele>381.60552162397</ele>
        <time>2015-05-16T14:36:29Z</time>
      </trkpt>
      <trkpt lat="45.69878" lon="5.62931">
        <ele>381.60552162397</ele>
        <time>2015-05-16T14:36:34Z</time>
      </trkpt>
      <trkpt lat="45.69883" lon="5.62938">
        <ele>380.09881313828</ele>
        <time>2015-05-16T14:36:39Z</time>
      </trkpt>
      <trkpt lat="45.69885" lon="5.62948">
        <ele>380.09881313828</ele>
        <time>2015-05-16T14:36:44Z</time>
      </trkpt>
      <trkpt lat="45.69885" lon="5.62959">
        <ele>378.68208870448</ele>
        <time>2015-05-16T14:36:49Z</time>
      </trkpt>
      <trkpt lat="45.69888" lon="5.6297">
        <ele>378.68208870448</ele>
        <time>2015-05-16T14:36:54Z</time>
      </trkpt>
      <trkpt lat="45.69889" lon="5.62977">
        <ele>377.61235984961</ele>
        <time>2015-05-16T14:36:59Z</time>
      </trkpt>
      <trkpt lat="45.69893" lon="5.62989">
        <ele>376.31966365282</ele>
        <time>2015-05-16T14:37:04Z</time>
      </trkpt>
      <trkpt lat="45.69897" lon="5.62999">
        <ele>376.31966365282</ele>
        <time>2015-05-16T14:37:09Z</time>
      </trkpt>
      <trkpt lat="45.69901" lon="5.63007">
        <ele>374.93934047563</ele>
        <time>2015-05-16T14:37:14Z</time>
      </trkpt>
      <trkpt lat="45.69905" lon="5.63016">
        <ele>374.93934047563</ele>
        <time>2015-05-16T14:37:19Z</time>
      </trkpt>
      <trkpt lat="45.6991" lon="5.63023">
        <ele>373.4239948524</ele>
        <time>2015-05-16T14:37:24Z</time>
      </trkpt>
      <trkpt lat="45.69915" lon="5.6303">
        <ele>373.4239948524</ele>
        <time>2015-05-16T14:37:29Z</time>
      </trkpt>
      <trkpt lat="45.69921" lon="5.63034">
        <ele>371.67233738218</ele>
        <time>2015-05-16T14:37:34Z</time>
      </trkpt>
      <trkpt lat="45.69926" lon="5.63039">
        <ele>371.67233738218</ele>
        <time>2015-05-16T14:37:39Z</time>
      </trkpt>
      <trkpt lat="45.6993" lon="5.6305">
        <ele>370.54220301212</ele>
        <time>2015-05-16T14:37:44Z</time>
      </trkpt>
      <trkpt lat="45.69933" lon="5.63059">
        <ele>370.54220301212</ele>
        <time>2015-05-16T14:37:49Z</time>
      </trkpt>
      <trkpt lat="45.69937" lon="5.63062">
        <ele>369.0107502397</ele>
        <time>2015-05-16T14:37:54Z</time>
      </trkpt>
      <trkpt lat="45.69941" lon="5.63069">
        <ele>369.0107502397</ele>
        <time>2015-05-16T14:37:59Z</time>
      </trkpt>
      <trkpt lat="45.69945" lon="5.63079">
        <ele>367.45710473473</ele>
        <time>2015-05-16T14:38:04Z</time>
      </trkpt>
      <trkpt lat="45.6995" lon="5.63087">
        <ele>367.45710473473</ele>
        <time>2015-05-16T14:38:09Z</time>
      </trkpt>
      <trkpt lat="45.69952" lon="5.63094">
        <ele>365.9442611527</ele>
        <time>2015-05-16T14:38:14Z</time>
      </trkpt>
      <trkpt lat="45.69954" lon="5.63102">
        <ele>365.9442611527</ele>
        <time>2015-05-16T14:38:19Z</time>
      </trkpt>
      <trkpt lat="45.69952" lon="5.63114">
        <ele>364.35741670263</ele>
        <time>2015-05-16T14:38:24Z</time>
      </trkpt>
      <trkpt lat="45.6995" lon="5.63126">
        <ele>364.35741670263</ele>
        <time>2015-05-16T14:38:29Z</time>
      </trkpt>
      <trkpt lat="45.69951" lon="5.6313">
        <ele>362.51822990606</ele>
        <time>2015-05-16T14:38:34Z</time>
      </trkpt>
      <trkpt lat="45.6995" lon="5.63134">
        <ele>362.51822990606</ele>
        <time>2015-05-16T14:38:39Z</time>
      </trkpt>
      <trkpt lat="45.69949" lon="5.63138">
        <ele>362.51822990606</ele>
        <time>2015-05-16T14:38:44Z</time>
      </trkpt>
      <trkpt lat="45.69947" lon="5.63149">
        <ele>360.36291934209</ele>
        <time>2015-05-16T14:38:49Z</time>
      </trkpt>
      <trkpt lat="45.69948" lon="5.6316">
        <ele>360.36291934209</ele>
        <time>2015-05-16T14:38:54Z</time>
      </trkpt>
      <trkpt lat="45.69949" lon="5.63171">
        <ele>358.40959132526</ele>
        <time>2015-05-16T14:38:59Z</time>
      </trkpt>
      <trkpt lat="45.69951" lon="5.63179">
        <ele>358.40959132526</ele>
        <time>2015-05-16T14:39:04Z</time>
      </trkpt>
      <trkpt lat="45.69951" lon="5.63185">
        <ele>355.95588125405</ele>
        <time>2015-05-16T14:39:09Z</time>
      </trkpt>
      <trkpt lat="45.69953" lon="5.63192">
        <ele>355.95588125405</ele>
        <time>2015-05-16T14:39:14Z</time>
      </trkpt>
      <trkpt lat="45.69955" lon="5.63201">
        <ele>353.27459728104</ele>
        <time>2015-05-16T14:39:19Z</time>
      </trkpt>
      <trkpt lat="45.69957" lon="5.63215">
        <ele>350.99369229451</ele>
        <time>2015-05-16T14:39:24Z</time>
      </trkpt>
      <trkpt lat="45.69959" lon="5.63225">
        <ele>350.99369229451</ele>
        <time>2015-05-16T14:39:29Z</time>
      </trkpt>
      <trkpt lat="45.69962" lon="5.6324">
        <ele>348.74258639277</ele>
        <time>2015-05-16T14:39:34Z</time>
      </trkpt>
      <trkpt lat="45.69963" lon="5.63251">
        <ele>348.74258639277</ele>
        <time>2015-05-16T14:39:39Z</time>
      </trkpt>
      <trkpt lat="45.69965" lon="5.63263">
        <ele>346.39385441989</ele>
        <time>2015-05-16T14:39:44Z</time>
      </trkpt>
      <trkpt lat="45.69967" lon="5.63274">
        <ele>346.39385441989</ele>
        <time>2015-05-16T14:39:49Z</time>
      </trkpt>
      <trkpt lat="45.69969" lon="5.63285">
        <ele>344.37717474692</ele>
        <time>2015-05-16T14:39:54Z</time>
      </trkpt>
      <trkpt lat="45.69971" lon="5.63296">
        <ele>344.37717474692</ele>
        <time>2015-05-16T14:39:59Z</time>
      </trkpt>
      <trkpt lat="45.69972" lon="5.63308">
        <ele>342.78694338875</ele>
        <time>2015-05-16T14:40:04Z</time>
      </trkpt>
      <trkpt lat="45.69975" lon="5.63318">
        <ele>342.78694338875</ele>
        <time>2015-05-16T14:40:09Z</time>
      </trkpt>
      <trkpt lat="45.6998" lon="5.63327">
        <ele>341.33458494339</ele>
        <time>2015-05-16T14:40:14Z</time>
      </trkpt>
      <trkpt lat="45.69985" lon="5.63331">
        <ele>341.33458494339</ele>
        <time>2015-05-16T14:40:19Z</time>
      </trkpt>
      <trkpt lat="45.69988" lon="5.63325">
        <ele>338.58488492364</ele>
        <time>2015-05-16T14:40:24Z</time>
      </trkpt>
      <trkpt lat="45.69989" lon="5.63324">
        <ele>338.58488492364</ele>
        <time>2015-05-16T14:40:29Z</time>
      </trkpt>
      <trkpt lat="45.6999" lon="5.63324">
        <ele>338.58488492364</ele>
        <time>2015-05-16T14:40:34Z</time>
      </trkpt>
      <trkpt lat="45.6999" lon="5.63324">
        <ele>338.58488492364</ele>
        <time>2015-05-16T14:40:39Z</time>
      </trkpt>
      <trkpt lat="45.6999" lon="5.63323">
        <ele>338.58488492364</ele>
        <time>2015-05-16T14:40:44Z</time>
      </trkpt>
      <trkpt lat="45.69991" lon="5.63324">
        <ele>338.58488492364</ele>
        <time>2015-05-16T14:40:49Z</time>
      </trkpt>
      <trkpt lat="45.69992" lon="5.63323">
        <ele>338.58488492364</ele>
        <time>2015-05-16T14:40:54Z</time>
      </trkpt>
      <trkpt lat="45.69992" lon="5.63323">
        <ele>338.58488492364</ele>
        <time>2015-05-16T14:40:59Z</time>
      </trkpt>
      <trkpt lat="45.69992" lon="5.63323">
        <ele>338.58488492364</ele>
        <time>2015-05-16T14:41:04Z</time>
      </trkpt>
      <trkpt lat="45.69992" lon="5.63329">
        <ele>336.87197482051</ele>
        <time>2015-05-16T14:41:09Z</time>
      </trkpt>
      <trkpt lat="45.69994" lon="5.63325">
        <ele>336.87197482051</ele>
        <time>2015-05-16T14:41:14Z</time>
      </trkpt>
      <trkpt lat="45.69994" lon="5.63323">
        <ele>336.87197482051</ele>
        <time>2015-05-16T14:41:19Z</time>
      </trkpt>
      <trkpt lat="45.69993" lon="5.63321">
        <ele>336.87197482051</ele>
        <time>2015-05-16T14:41:24Z</time>
      </trkpt>
      <trkpt lat="45.69994" lon="5.63319">
        <ele>336.87197482051</ele>
        <time>2015-05-16T14:41:29Z</time>
      </trkpt>
      <trkpt lat="45.69994" lon="5.6332">
        <ele>336.87197482051</ele>
        <time>2015-05-16T14:41:34Z</time>
      </trkpt>
      <trkpt lat="45.69994" lon="5.6332">
        <ele>336.87197482051</ele>
        <time>2015-05-16T14:41:39Z</time>
      </trkpt>
      <trkpt lat="45.69994" lon="5.63319">
        <ele>336.87197482051</ele>
        <time>2015-05-16T14:41:44Z</time>
      </trkpt>
      <trkpt lat="45.69994" lon="5.63321">
        <ele>334.98326812249</ele>
        <time>2015-05-16T14:41:49Z</time>
      </trkpt>
      <trkpt lat="45.69993" lon="5.63322">
        <ele>334.98326812249</ele>
        <time>2015-05-16T14:41:54Z</time>
      </trkpt>
      <trkpt lat="45.69994" lon="5.63323">
        <ele>334.98326812249</ele>
        <time>2015-05-16T14:41:59Z</time>
      </trkpt>
      <trkpt lat="45.69995" lon="5.63323">
        <ele>334.98326812249</ele>
        <time>2015-05-16T14:42:04Z</time>
      </trkpt>
      <trkpt lat="45.69996" lon="5.63323">
        <ele>334.98326812249</ele>
        <time>2015-05-16T14:42:09Z</time>
      </trkpt>
      <trkpt lat="45.69996" lon="5.63323">
        <ele>334.98326812249</ele>
        <time>2015-05-16T14:42:14Z</time>
      </trkpt>
      <trkpt lat="45.69996" lon="5.63321">
        <ele>334.98326812249</ele>
        <time>2015-05-16T14:42:19Z</time>
      </trkpt>
      <trkpt lat="45.69996" lon="5.63321">
        <ele>334.98326812249</ele>
        <time>2015-05-16T14:42:24Z</time>
      </trkpt>
      <trkpt lat="45.69996" lon="5.63321">
        <ele>334.98326812249</ele>
        <time>2015-05-16T14:42:29Z</time>
      </trkpt>
      <trkpt lat="45.69996" lon="5.63321">
        <ele>334.98326812249</ele>
        <time>2015-05-16T14:42:34Z</time>
      </trkpt>
      <trkpt lat="45.69996" lon="5.63321">
        <ele>334.98326812249</ele>
        <time>2015-05-16T14:42:39Z</time>
      </trkpt>
      <trkpt lat="45.69996" lon="5.63321">
        <ele>334.98326812249</ele>
        <time>2015-05-16T14:42:44Z</time>
      </trkpt>
      <trkpt lat="45.69996" lon="5.63322">
        <ele>334.98326812249</ele>
        <time>2015-05-16T14:42:49Z</time>
      </trkpt>
      <trkpt lat="45.69996" lon="5.6332">
        <ele>334.98326812249</ele>
        <time>2015-05-16T14:42:54Z</time>
      </trkpt>
      <trkpt lat="45.69996" lon="5.6332">
        <ele>334.98326812249</ele>
        <time>2015-05-16T14:42:59Z</time>
      </trkpt>
      <trkpt lat="45.69996" lon="5.63321">
        <ele>334.98326812249</ele>
        <time>2015-05-16T14:43:04Z</time>
      </trkpt>
      <trkpt lat="45.69996" lon="5.63322">
        <ele>334.98326812249</ele>
        <time>2015-05-16T14:43:09Z</time>
      </trkpt>
      <trkpt lat="45.69996" lon="5.63322">
        <ele>334.98326812249</ele>
        <time>2015-05-16T14:43:14Z</time>
      </trkpt>
      <trkpt lat="45.69996" lon="5.63322">
        <ele>334.98326812249</ele>
        <time>2015-05-16T14:43:19Z</time>
      </trkpt>
      <trkpt lat="45.69996" lon="5.63322">
        <ele>334.98326812249</ele>
        <time>2015-05-16T14:43:24Z</time>
      </trkpt>
      <trkpt lat="45.69996" lon="5.63322">
        <ele>334.98326812249</ele>
        <time>2015-05-16T14:43:29Z</time>
      </trkpt>
      <trkpt lat="45.69996" lon="5.63322">
        <ele>334.98326812249</ele>
        <time>2015-05-16T14:43:34Z</time>
      </trkpt>
      <trkpt lat="45.69995" lon="5.63322">
        <ele>333.36641781448</ele>
        <time>2015-05-16T14:43:39Z</time>
      </trkpt>
      <trkpt lat="45.69993" lon="5.63324">
        <ele>333.36641781448</ele>
        <time>2015-05-16T14:43:44Z</time>
      </trkpt>
      <trkpt lat="45.69993" lon="5.63325">
        <ele>333.36641781448</ele>
        <time>2015-05-16T14:43:49Z</time>
      </trkpt>
      <trkpt lat="45.69993" lon="5.63326">
        <ele>333.36641781448</ele>
        <time>2015-05-16T14:43:54Z</time>
      </trkpt>
      <trkpt lat="45.69993" lon="5.63326">
        <ele>333.36641781448</ele>
        <time>2015-05-16T14:43:59Z</time>
      </trkpt>
      <trkpt lat="45.69991" lon="5.63329">
        <ele>333.36641781448</ele>
        <time>2015-05-16T14:44:04Z</time>
      </trkpt>
      <trkpt lat="45.69991" lon="5.6333">
        <ele>333.36641781448</ele>
        <time>2015-05-16T14:44:09Z</time>
      </trkpt>
      <trkpt lat="45.6999" lon="5.63331">
        <ele>333.36641781448</ele>
        <time>2015-05-16T14:44:14Z</time>
      </trkpt>
      <trkpt lat="45.69989" lon="5.63333">
        <ele>332.95409445153</ele>
        <time>2015-05-16T14:44:19Z</time>
      </trkpt>
      <trkpt lat="45.69995" lon="5.63333">
        <ele>332.95409445153</ele>
        <time>2015-05-16T14:44:24Z</time>
      </trkpt>
      <trkpt lat="45.70003" lon="5.63325">
        <ele>331.46532395799</ele>
        <time>2015-05-16T14:44:29Z</time>
      </trkpt>
      <trkpt lat="45.70018" lon="5.6332">
        <ele>329.78710238865</ele>
        <time>2015-05-16T14:44:34Z</time>
      </trkpt>
      <trkpt lat="45.70027" lon="5.63314">
        <ele>327.83378521761</ele>
        <time>2015-05-16T14:44:39Z</time>
      </trkpt>
      <trkpt lat="45.70033" lon="5.6331">
        <ele>327.83378521761</ele>
        <time>2015-05-16T14:44:44Z</time>
      </trkpt>
      <trkpt lat="45.7004" lon="5.63308">
        <ele>326.17518423289</ele>
        <time>2015-05-16T14:44:49Z</time>
      </trkpt>
      <trkpt lat="45.70047" lon="5.63304">
        <ele>326.17518423289</ele>
        <time>2015-05-16T14:44:54Z</time>
      </trkpt>
      <trkpt lat="45.70053" lon="5.63302">
        <ele>324.68982366911</ele>
        <time>2015-05-16T14:44:59Z</time>
      </trkpt>
      <trkpt lat="45.7006" lon="5.63299">
        <ele>324.68982366911</ele>
        <time>2015-05-16T14:45:04Z</time>
      </trkpt>
      <trkpt lat="45.70066" lon="5.63297">
        <ele>323.46632345061</ele>
        <time>2015-05-16T14:45:09Z</time>
      </trkpt>
      <trkpt lat="45.70075" lon="5.63295">
        <ele>322.58596788672</ele>
        <time>2015-05-16T14:45:14Z</time>
      </trkpt>
      <trkpt lat="45.70084" lon="5.63296">
        <ele>322.58596788672</ele>
        <time>2015-05-16T14:45:19Z</time>
      </trkpt>
      <trkpt lat="45.70092" lon="5.63302">
        <ele>322.07979178448</ele>
        <time>2015-05-16T14:45:24Z</time>
      </trkpt>
      <trkpt lat="45.70096" lon="5.63313">
        <ele>322.07979178448</ele>
        <time>2015-05-16T14:45:29Z</time>
      </trkpt>
      <trkpt lat="45.70099" lon="5.63321">
        <ele>321.7880840687</ele>
        <time>2015-05-16T14:45:34Z</time>
      </trkpt>
      <trkpt lat="45.70101" lon="5.63328">
        <ele>321.7880840687</ele>
        <time>2015-05-16T14:45:39Z</time>
      </trkpt>
      <trkpt lat="45.70105" lon="5.63335">
        <ele>321.25957061399</ele>
        <time>2015-05-16T14:45:44Z</time>
      </trkpt>
      <trkpt lat="45.70106" lon="5.63344">
        <ele>321.25957061399</ele>
        <time>2015-05-16T14:45:49Z</time>
      </trkpt>
      <trkpt lat="45.70106" lon="5.6335">
        <ele>320.86935563571</ele>
        <time>2015-05-16T14:45:54Z</time>
      </trkpt>
      <trkpt lat="45.70111" lon="5.63354">
        <ele>320.86935563571</ele>
        <time>2015-05-16T14:45:59Z</time>
      </trkpt>
      <trkpt lat="45.70113" lon="5.63361">
        <ele>320.67634308114</ele>
        <time>2015-05-16T14:46:04Z</time>
      </trkpt>
      <trkpt lat="45.70111" lon="5.63367">
        <ele>320.67634308114</ele>
        <time>2015-05-16T14:46:09Z</time>
      </trkpt>
      <trkpt lat="45.70108" lon="5.63375">
        <ele>319.59605403933</ele>
        <time>2015-05-16T14:46:14Z</time>
      </trkpt>
      <trkpt lat="45.70106" lon="5.63385">
        <ele>319.59605403933</ele>
        <time>2015-05-16T14:46:19Z</time>
      </trkpt>
      <trkpt lat="45.70107" lon="5.63394">
        <ele>318.70134967345</ele>
        <time>2015-05-16T14:46:24Z</time>
      </trkpt>
      <trkpt lat="45.70105" lon="5.63401">
        <ele>318.70134967345</ele>
        <time>2015-05-16T14:46:29Z</time>
      </trkpt>
      <trkpt lat="45.70102" lon="5.63406">
        <ele>317.3140611454</ele>
        <time>2015-05-16T14:46:34Z</time>
      </trkpt>
      <trkpt lat="45.70098" lon="5.63417">
        <ele>317.3140611454</ele>
        <time>2015-05-16T14:46:39Z</time>
      </trkpt>
      <trkpt lat="45.70096" lon="5.63425">
        <ele>315.97451637698</ele>
        <time>2015-05-16T14:46:44Z</time>
      </trkpt>
      <trkpt lat="45.70096" lon="5.63435">
        <ele>315.97451637698</ele>
        <time>2015-05-16T14:46:49Z</time>
      </trkpt>
      <trkpt lat="45.701" lon="5.63438">
        <ele>315.32732868787</ele>
        <time>2015-05-16T14:46:54Z</time>
      </trkpt>
      <trkpt lat="45.70103" lon="5.63444">
        <ele>315.32732868787</ele>
        <time>2015-05-16T14:46:59Z</time>
      </trkpt>
      <trkpt lat="45.70106" lon="5.63453">
        <ele>315.18962090623</ele>
        <time>2015-05-16T14:47:04Z</time>
      </trkpt>
      <trkpt lat="45.70106" lon="5.63463">
        <ele>315.18962090623</ele>
        <time>2015-05-16T14:47:09Z</time>
      </trkpt>
      <trkpt lat="45.70106" lon="5.63472">
        <ele>314.09352930749</ele>
        <time>2015-05-16T14:47:14Z</time>
      </trkpt>
      <trkpt lat="45.70108" lon="5.63482">
        <ele>314.09352930749</ele>
        <time>2015-05-16T14:47:19Z</time>
      </trkpt>
      <trkpt lat="45.70108" lon="5.63494">
        <ele>313.33336732038</ele>
        <time>2015-05-16T14:47:24Z</time>
      </trkpt>
      <trkpt lat="45.70111" lon="5.63504">
        <ele>313.33336732038</ele>
        <time>2015-05-16T14:47:29Z</time>
      </trkpt>
      <trkpt lat="45.70115" lon="5.63512">
        <ele>312.17635646092</ele>
        <time>2015-05-16T14:47:34Z</time>
      </trkpt>
      <trkpt lat="45.70119" lon="5.63517">
        <ele>312.17635646092</ele>
        <time>2015-05-16T14:47:39Z</time>
      </trkpt>
      <trkpt lat="45.70124" lon="5.63522">
        <ele>310.60759463339</ele>
        <time>2015-05-16T14:47:44Z</time>
      </trkpt>
      <trkpt lat="45.70127" lon="5.63529">
        <ele>310.60759463339</ele>
        <time>2015-05-16T14:47:49Z</time>
      </trkpt>
      <trkpt lat="45.70127" lon="5.63531">
        <ele>310.60759463339</ele>
        <time>2015-05-16T14:47:54Z</time>
      </trkpt>
      <trkpt lat="45.70128" lon="5.63532">
        <ele>310.60759463339</ele>
        <time>2015-05-16T14:47:59Z</time>
      </trkpt>
      <trkpt lat="45.70129" lon="5.63533">
        <ele>309.83939849109</ele>
        <time>2015-05-16T14:48:04Z</time>
      </trkpt>
      <trkpt lat="45.7013" lon="5.63538">
        <ele>309.83939849109</ele>
        <time>2015-05-16T14:48:09Z</time>
      </trkpt>
      <trkpt lat="45.7013" lon="5.63541">
        <ele>309.83939849109</ele>
        <time>2015-05-16T14:48:14Z</time>
      </trkpt>
      <trkpt lat="45.7013" lon="5.63543">
        <ele>309.83939849109</ele>
        <time>2015-05-16T14:48:19Z</time>
      </trkpt>
      <trkpt lat="45.7013" lon="5.63544">
        <ele>309.83939849109</ele>
        <time>2015-05-16T14:48:24Z</time>
      </trkpt>
      <trkpt lat="45.7013" lon="5.63545">
        <ele>309.83939849109</ele>
        <time>2015-05-16T14:48:29Z</time>
      </trkpt>
      <trkpt lat="45.7013" lon="5.63545">
        <ele>309.03289638354</ele>
        <time>2015-05-16T14:48:34Z</time>
      </trkpt>
      <trkpt lat="45.7013" lon="5.63546">
        <ele>309.03289638354</ele>
        <time>2015-05-16T14:48:39Z</time>
      </trkpt>
      <trkpt lat="45.70131" lon="5.63543">
        <ele>309.03289638354</ele>
        <time>2015-05-16T14:48:44Z</time>
      </trkpt>
      <trkpt lat="45.70131" lon="5.63541">
        <ele>309.03289638354</ele>
        <time>2015-05-16T14:48:49Z</time>
      </trkpt>
      <trkpt lat="45.70132" lon="5.63543">
        <ele>309.03289638354</ele>
        <time>2015-05-16T14:48:54Z</time>
      </trkpt>
      <trkpt lat="45.70135" lon="5.63545">
        <ele>309.03289638354</ele>
        <time>2015-05-16T14:48:59Z</time>
      </trkpt>
      <trkpt lat="45.70139" lon="5.6355">
        <ele>307.81448459327</ele>
        <time>2015-05-16T14:49:04Z</time>
      </trkpt>
      <trkpt lat="45.7014" lon="5.63551">
        <ele>307.81448459327</ele>
        <time>2015-05-16T14:49:09Z</time>
      </trkpt>
      <trkpt lat="45.70141" lon="5.63552">
        <ele>307.81448459327</ele>
        <time>2015-05-16T14:49:14Z</time>
      </trkpt>
      <trkpt lat="45.70144" lon="5.63556">
        <ele>307.81448459327</ele>
        <time>2015-05-16T14:49:19Z</time>
      </trkpt>
      <trkpt lat="45.70147" lon="5.63557">
        <ele>307.00648799795</ele>
        <time>2015-05-16T14:49:24Z</time>
      </trkpt>
      <trkpt lat="45.7015" lon="5.6356">
        <ele>307.00648799795</ele>
        <time>2015-05-16T14:49:29Z</time>
      </trkpt>
      <trkpt lat="45.70152" lon="5.63565">
        <ele>307.00648799795</ele>
        <time>2015-05-16T14:49:34Z</time>
      </trkpt>
      <trkpt lat="45.70151" lon="5.63571">
        <ele>306.15916889765</ele>
        <time>2015-05-16T14:49:39Z</time>
      </trkpt>
      <trkpt lat="45.70148" lon="5.63577">
        <ele>306.15916889765</ele>
        <time>2015-05-16T14:49:44Z</time>
      </trkpt>
      <trkpt lat="45.70146" lon="5.63578">
        <ele>306.15916889765</ele>
        <time>2015-05-16T14:49:49Z</time>
      </trkpt>
      <trkpt lat="45.70145" lon="5.63583">
        <ele>305.59093667779</ele>
        <time>2015-05-16T14:49:54Z</time>
      </trkpt>
      <trkpt lat="45.70143" lon="5.63591">
        <ele>305.59093667779</ele>
        <time>2015-05-16T14:49:59Z</time>
      </trkpt>
      <trkpt lat="45.7014" lon="5.63602">
        <ele>305.27901845149</ele>
        <time>2015-05-16T14:50:04Z</time>
      </trkpt>
      <trkpt lat="45.70137" lon="5.63613">
        <ele>305.27901845149</ele>
        <time>2015-05-16T14:50:09Z</time>
      </trkpt>
      <trkpt lat="45.70134" lon="5.63624">
        <ele>305.63396930178</ele>
        <time>2015-05-16T14:50:14Z</time>
      </trkpt>
      <trkpt lat="45.70133" lon="5.63632">
        <ele>305.63396930178</ele>
        <time>2015-05-16T14:50:19Z</time>
      </trkpt>
      <trkpt lat="45.70132" lon="5.63642">
        <ele>306.6020292471</ele>
        <time>2015-05-16T14:50:24Z</time>
      </trkpt>
      <trkpt lat="45.70132" lon="5.63652">
        <ele>306.6020292471</ele>
        <time>2015-05-16T14:50:29Z</time>
      </trkpt>
      <trkpt lat="45.70133" lon="5.63659">
        <ele>307.12294698313</ele>
        <time>2015-05-16T14:50:34Z</time>
      </trkpt>
      <trkpt lat="45.70134" lon="5.63674">
        <ele>307.46944621252</ele>
        <time>2015-05-16T14:50:39Z</time>
      </trkpt>
      <trkpt lat="45.70133" lon="5.63688">
        <ele>308.38476322984</ele>
        <time>2015-05-16T14:50:44Z</time>
      </trkpt>
      <trkpt lat="45.70132" lon="5.637">
        <ele>308.38476322984</ele>
        <time>2015-05-16T14:50:49Z</time>
      </trkpt>
      <trkpt lat="45.70127" lon="5.63719">
        <ele>309.61930898717</ele>
        <time>2015-05-16T14:50:54Z</time>
      </trkpt>
      <trkpt lat="45.70113" lon="5.63752">
        <ele>310.84015707838</ele>
        <time>2015-05-16T14:50:59Z</time>
      </trkpt>
      <trkpt lat="45.70104" lon="5.63782">
        <ele>312.02721079587</ele>
        <time>2015-05-16T14:51:04Z</time>
      </trkpt>
      <trkpt lat="45.70097" lon="5.63812">
        <ele>313.07560113881</ele>
        <time>2015-05-16T14:51:09Z</time>
      </trkpt>
      <trkpt lat="45.70091" lon="5.6385">
        <ele>313.97515135795</ele>
        <time>2015-05-16T14:51:14Z</time>
      </trkpt>
      <trkpt lat="45.70084" lon="5.63874">
        <ele>314.65934585209</ele>
        <time>2015-05-16T14:51:19Z</time>
      </trkpt>
      <trkpt lat="45.7008" lon="5.63905">
        <ele>316.13372948855</ele>
        <time>2015-05-16T14:51:24Z</time>
      </trkpt>
      <trkpt lat="45.7008" lon="5.63913">
        <ele>316.13372948855</ele>
        <time>2015-05-16T14:51:29Z</time>
      </trkpt>
      <trkpt lat="45.70076" lon="5.63925">
        <ele>317.95886187538</ele>
        <time>2015-05-16T14:51:34Z</time>
      </trkpt>
      <trkpt lat="45.70074" lon="5.63939">
        <ele>319.59706084577</ele>
        <time>2015-05-16T14:51:39Z</time>
      </trkpt>
      <trkpt lat="45.70071" lon="5.63948">
        <ele>319.59706084577</ele>
        <time>2015-05-16T14:51:44Z</time>
      </trkpt>
      <trkpt lat="45.7007" lon="5.63953">
        <ele>320.11849986914</ele>
        <time>2015-05-16T14:51:49Z</time>
      </trkpt>
      <trkpt lat="45.70067" lon="5.63959">
        <ele>320.11849986914</ele>
        <time>2015-05-16T14:51:54Z</time>
      </trkpt>
      <trkpt lat="45.70064" lon="5.6397">
        <ele>320.85545145759</ele>
        <time>2015-05-16T14:51:59Z</time>
      </trkpt>
      <trkpt lat="45.70063" lon="5.63977">
        <ele>320.85545145759</ele>
        <time>2015-05-16T14:52:04Z</time>
      </trkpt>
      <trkpt lat="45.70061" lon="5.63986">
        <ele>321.51431128508</ele>
        <time>2015-05-16T14:52:09Z</time>
      </trkpt>
      <trkpt lat="45.70061" lon="5.63997">
        <ele>321.51431128508</ele>
        <time>2015-05-16T14:52:14Z</time>
      </trkpt>
      <trkpt lat="45.70061" lon="5.64006">
        <ele>321.4055117086</ele>
        <time>2015-05-16T14:52:19Z</time>
      </trkpt>
      <trkpt lat="45.70061" lon="5.64015">
        <ele>321.4055117086</ele>
        <time>2015-05-16T14:52:24Z</time>
      </trkpt>
      <trkpt lat="45.7006" lon="5.64026">
        <ele>321.477684265</ele>
        <time>2015-05-16T14:52:29Z</time>
      </trkpt>
      <trkpt lat="45.70061" lon="5.64038">
        <ele>321.477684265</ele>
        <time>2015-05-16T14:52:34Z</time>
      </trkpt>
      <trkpt lat="45.70065" lon="5.64045">
        <ele>320.89450471582</ele>
        <time>2015-05-16T14:52:39Z</time>
      </trkpt>
      <trkpt lat="45.70065" lon="5.64055">
        <ele>320.89450471582</ele>
        <time>2015-05-16T14:52:44Z</time>
      </trkpt>
      <trkpt lat="45.70069" lon="5.64062">
        <ele>320.35300883253</ele>
        <time>2015-05-16T14:52:49Z</time>
      </trkpt>
      <trkpt lat="45.70067" lon="5.64069">
        <ele>320.35300883253</ele>
        <time>2015-05-16T14:52:54Z</time>
      </trkpt>
      <trkpt lat="45.70062" lon="5.64076">
        <ele>319.93701936571</ele>
        <time>2015-05-16T14:52:59Z</time>
      </trkpt>
      <trkpt lat="45.70058" lon="5.64083">
        <ele>319.93701936571</ele>
        <time>2015-05-16T14:53:04Z</time>
      </trkpt>
      <trkpt lat="45.70053" lon="5.64091">
        <ele>319.95455843226</ele>
        <time>2015-05-16T14:53:09Z</time>
      </trkpt>
      <trkpt lat="45.70047" lon="5.64095">
        <ele>319.95455843226</ele>
        <time>2015-05-16T14:53:14Z</time>
      </trkpt>
      <trkpt lat="45.70044" lon="5.64104">
        <ele>319.43615818243</ele>
        <time>2015-05-16T14:53:19Z</time>
      </trkpt>
      <trkpt lat="45.7004" lon="5.64111">
        <ele>319.43615818243</ele>
        <time>2015-05-16T14:53:24Z</time>
      </trkpt>
      <trkpt lat="45.70036" lon="5.64121">
        <ele>318.91188204958</ele>
        <time>2015-05-16T14:53:29Z</time>
      </trkpt>
      <trkpt lat="45.70035" lon="5.64131">
        <ele>318.91188204958</ele>
        <time>2015-05-16T14:53:34Z</time>
      </trkpt>
      <trkpt lat="45.70031" lon="5.64139">
        <ele>318.13800572773</ele>
        <time>2015-05-16T14:53:39Z</time>
      </trkpt>
      <trkpt lat="45.70027" lon="5.64148">
        <ele>318.13800572773</ele>
        <time>2015-05-16T14:53:44Z</time>
      </trkpt>
      <trkpt lat="45.70022" lon="5.64155">
        <ele>317.23536617352</ele>
        <time>2015-05-16T14:53:49Z</time>
      </trkpt>
      <trkpt lat="45.70017" lon="5.64164">
        <ele>317.23536617352</ele>
        <time>2015-05-16T14:53:54Z</time>
      </trkpt>
      <trkpt lat="45.70014" lon="5.64172">
        <ele>316.0281411444</ele>
        <time>2015-05-16T14:53:59Z</time>
      </trkpt>
      <trkpt lat="45.70012" lon="5.64176">
        <ele>316.0281411444</ele>
        <time>2015-05-16T14:54:04Z</time>
      </trkpt>
      <trkpt lat="45.70007" lon="5.64188">
        <ele>315.37753502566</ele>
        <time>2015-05-16T14:54:09Z</time>
      </trkpt>
      <trkpt lat="45.70002" lon="5.642">
        <ele>314.62446005048</ele>
        <time>2015-05-16T14:54:14Z</time>
      </trkpt>
      <trkpt lat="45.69998" lon="5.64209">
        <ele>314.62446005048</ele>
        <time>2015-05-16T14:54:19Z</time>
      </trkpt>
      <trkpt lat="45.69991" lon="5.64217">
        <ele>313.63414373277</ele>
        <time>2015-05-16T14:54:24Z</time>
      </trkpt>
      <trkpt lat="45.69987" lon="5.64228">
        <ele>313.04620404479</ele>
        <time>2015-05-16T14:54:29Z</time>
      </trkpt>
      <trkpt lat="45.69984" lon="5.6424">
        <ele>313.04620404479</ele>
        <time>2015-05-16T14:54:34Z</time>
      </trkpt>
      <trkpt lat="45.69981" lon="5.64251">
        <ele>313.00542785363</ele>
        <time>2015-05-16T14:54:39Z</time>
      </trkpt>
      <trkpt lat="45.69979" lon="5.64259">
        <ele>313.00542785363</ele>
        <time>2015-05-16T14:54:44Z</time>
      </trkpt>
      <trkpt lat="45.69975" lon="5.64264">
        <ele>312.80860856456</ele>
        <time>2015-05-16T14:54:49Z</time>
      </trkpt>
      <trkpt lat="45.69969" lon="5.64272">
        <ele>312.80860856456</ele>
        <time>2015-05-16T14:54:54Z</time>
      </trkpt>
      <trkpt lat="45.69964" lon="5.6428">
        <ele>312.88548666465</ele>
        <time>2015-05-16T14:54:59Z</time>
      </trkpt>
      <trkpt lat="45.69959" lon="5.6429">
        <ele>312.88548666465</ele>
        <time>2015-05-16T14:55:04Z</time>
      </trkpt>
      <trkpt lat="45.69956" lon="5.64297">
        <ele>313.28761670576</ele>
        <time>2015-05-16T14:55:09Z</time>
      </trkpt>
      <trkpt lat="45.69951" lon="5.64308">
        <ele>313.7592376513</ele>
        <time>2015-05-16T14:55:14Z</time>
      </trkpt>
      <trkpt lat="45.69946" lon="5.64318">
        <ele>313.7592376513</ele>
        <time>2015-05-16T14:55:19Z</time>
      </trkpt>
      <trkpt lat="45.69942" lon="5.64327">
        <ele>314.25054491005</ele>
        <time>2015-05-16T14:55:24Z</time>
      </trkpt>
      <trkpt lat="45.69938" lon="5.64337">
        <ele>314.25054491005</ele>
        <time>2015-05-16T14:55:29Z</time>
      </trkpt>
      <trkpt lat="45.69934" lon="5.64346">
        <ele>314.12450162977</ele>
        <time>2015-05-16T14:55:34Z</time>
      </trkpt>
      <trkpt lat="45.6993" lon="5.64354">
        <ele>314.12450162977</ele>
        <time>2015-05-16T14:55:39Z</time>
      </trkpt>
      <trkpt lat="45.69927" lon="5.64363">
        <ele>313.71493121251</ele>
        <time>2015-05-16T14:55:44Z</time>
      </trkpt>
      <trkpt lat="45.69924" lon="5.64373">
        <ele>313.71493121251</ele>
        <time>2015-05-16T14:55:49Z</time>
      </trkpt>
      <trkpt lat="45.69919" lon="5.6438">
        <ele>314.55689648389</ele>
        <time>2015-05-16T14:55:54Z</time>
      </trkpt>
      <trkpt lat="45.69915" lon="5.64387">
        <ele>314.55689648389</ele>
        <time>2015-05-16T14:55:59Z</time>
      </trkpt>
      <trkpt lat="45.69913" lon="5.64393">
        <ele>314.04850300358</ele>
        <time>2015-05-16T14:56:04Z</time>
      </trkpt>
      <trkpt lat="45.69911" lon="5.64401">
        <ele>314.04850300358</ele>
        <time>2015-05-16T14:56:09Z</time>
      </trkpt>
      <trkpt lat="45.69908" lon="5.64409">
        <ele>313.3135191637</ele>
        <time>2015-05-16T14:56:14Z</time>
      </trkpt>
      <trkpt lat="45.69904" lon="5.64417">
        <ele>313.3135191637</ele>
        <time>2015-05-16T14:56:19Z</time>
      </trkpt>
      <trkpt lat="45.69901" lon="5.64427">
        <ele>312.31297750798</ele>
        <time>2015-05-16T14:56:24Z</time>
      </trkpt>
      <trkpt lat="45.69897" lon="5.64438">
        <ele>312.31297750798</ele>
        <time>2015-05-16T14:56:29Z</time>
      </trkpt>
      <trkpt lat="45.69891" lon="5.64451">
        <ele>311.51591571341</ele>
        <time>2015-05-16T14:56:34Z</time>
      </trkpt>
      <trkpt lat="45.69887" lon="5.6446">
        <ele>311.51591571341</ele>
        <time>2015-05-16T14:56:39Z</time>
      </trkpt>
      <trkpt lat="45.69882" lon="5.6447">
        <ele>310.77990214332</ele>
        <time>2015-05-16T14:56:44Z</time>
      </trkpt>
      <trkpt lat="45.69877" lon="5.64479">
        <ele>310.77990214332</ele>
        <time>2015-05-16T14:56:49Z</time>
      </trkpt>
      <trkpt lat="45.69872" lon="5.64488">
        <ele>310.26101401685</ele>
        <time>2015-05-16T14:56:54Z</time>
      </trkpt>
      <trkpt lat="45.69867" lon="5.64498">
        <ele>310.26101401685</ele>
        <time>2015-05-16T14:56:59Z</time>
      </trkpt>
      <trkpt lat="45.69862" lon="5.64506">
        <ele>309.7573765847</ele>
        <time>2015-05-16T14:57:04Z</time>
      </trkpt>
      <trkpt lat="45.69858" lon="5.64513">
        <ele>309.7573765847</ele>
        <time>2015-05-16T14:57:09Z</time>
      </trkpt>
      <trkpt lat="45.69853" lon="5.64523">
        <ele>309.48539861524</ele>
        <time>2015-05-16T14:57:14Z</time>
      </trkpt>
      <trkpt lat="45.69847" lon="5.64532">
        <ele>309.48539861524</ele>
        <time>2015-05-16T14:57:19Z</time>
      </trkpt>
      <trkpt lat="45.69843" lon="5.64542">
        <ele>309.35670244823</ele>
        <time>2015-05-16T14:57:24Z</time>
      </trkpt>
      <trkpt lat="45.69838" lon="5.64552">
        <ele>309.35670244823</ele>
        <time>2015-05-16T14:57:29Z</time>
      </trkpt>
      <trkpt lat="45.69834" lon="5.64561">
        <ele>309.63485002499</ele>
        <time>2015-05-16T14:57:34Z</time>
      </trkpt>
      <trkpt lat="45.69829" lon="5.6457">
        <ele>309.63485002499</ele>
        <time>2015-05-16T14:57:39Z</time>
      </trkpt>
      <trkpt lat="45.69825" lon="5.64577">
        <ele>309.91438414778</ele>
        <time>2015-05-16T14:57:44Z</time>
      </trkpt>
      <trkpt lat="45.69821" lon="5.64582">
        <ele>309.91438414778</ele>
        <time>2015-05-16T14:57:49Z</time>
      </trkpt>
      <trkpt lat="45.69817" lon="5.64587">
        <ele>310.13665874534</ele>
        <time>2015-05-16T14:57:54Z</time>
      </trkpt>
      <trkpt lat="45.69813" lon="5.64592">
        <ele>310.13665874534</ele>
        <time>2015-05-16T14:57:59Z</time>
      </trkpt>
      <trkpt lat="45.69809" lon="5.64599">
        <ele>310.44924114652</ele>
        <time>2015-05-16T14:58:04Z</time>
      </trkpt>
      <trkpt lat="45.69804" lon="5.64609">
        <ele>310.48420817117</ele>
        <time>2015-05-16T14:58:09Z</time>
      </trkpt>
      <trkpt lat="45.69802" lon="5.64623">
        <ele>310.27612616709</ele>
        <time>2015-05-16T14:58:14Z</time>
      </trkpt>
      <trkpt lat="45.69804" lon="5.64636">
        <ele>310.27612616709</ele>
        <time>2015-05-16T14:58:19Z</time>
      </trkpt>
      <trkpt lat="45.69806" lon="5.6465">
        <ele>310.66472315024</ele>
        <time>2015-05-16T14:58:24Z</time>
      </trkpt>
      <trkpt lat="45.69809" lon="5.64661">
        <ele>310.66472315024</ele>
        <time>2015-05-16T14:58:29Z</time>
      </trkpt>
      <trkpt lat="45.69821" lon="5.64677">
        <ele>311.25906575567</ele>
        <time>2015-05-16T14:58:34Z</time>
      </trkpt>
      <trkpt lat="45.69829" lon="5.64685">
        <ele>311.53783998764</ele>
        <time>2015-05-16T14:58:39Z</time>
      </trkpt>
      <trkpt lat="45.69835" lon="5.64691">
        <ele>311.53783998764</ele>
        <time>2015-05-16T14:58:44Z</time>
      </trkpt>
      <trkpt lat="45.69841" lon="5.64698">
        <ele>311.7827056751</ele>
        <time>2015-05-16T14:58:49Z</time>
      </trkpt>
      <trkpt lat="45.69846" lon="5.64705">
        <ele>311.7827056751</ele>
        <time>2015-05-16T14:58:54Z</time>
      </trkpt>
      <trkpt lat="45.69853" lon="5.64714">
        <ele>312.5285464137</ele>
        <time>2015-05-16T14:58:59Z</time>
      </trkpt>
      <trkpt lat="45.69861" lon="5.64729">
        <ele>313.28960422158</ele>
        <time>2015-05-16T14:59:04Z</time>
      </trkpt>
      <trkpt lat="45.69866" lon="5.64737">
        <ele>313.28960422158</ele>
        <time>2015-05-16T14:59:09Z</time>
      </trkpt>
      <trkpt lat="45.69871" lon="5.64744">
        <ele>314.12016729496</ele>
        <time>2015-05-16T14:59:14Z</time>
      </trkpt>
      <trkpt lat="45.69875" lon="5.64754">
        <ele>314.12016729496</ele>
        <time>2015-05-16T14:59:19Z</time>
      </trkpt>
      <trkpt lat="45.69879" lon="5.64761">
        <ele>315.04154009516</ele>
        <time>2015-05-16T14:59:24Z</time>
      </trkpt>
      <trkpt lat="45.69883" lon="5.64769">
        <ele>315.04154009516</ele>
        <time>2015-05-16T14:59:29Z</time>
      </trkpt>
      <trkpt lat="45.69887" lon="5.64778">
        <ele>316.01559009612</ele>
        <time>2015-05-16T14:59:34Z</time>
      </trkpt>
      <trkpt lat="45.69891" lon="5.64786">
        <ele>316.01559009612</ele>
        <time>2015-05-16T14:59:39Z</time>
      </trkpt>
      <trkpt lat="45.69893" lon="5.64792">
        <ele>316.57453688261</ele>
        <time>2015-05-16T14:59:44Z</time>
      </trkpt>
      <trkpt lat="45.69897" lon="5.64801">
        <ele>316.57453688261</ele>
        <time>2015-05-16T14:59:49Z</time>
      </trkpt>
      <trkpt lat="45.69903" lon="5.64812">
        <ele>316.87701923393</ele>
        <time>2015-05-16T14:59:54Z</time>
      </trkpt>
      <trkpt lat="45.69906" lon="5.64822">
        <ele>316.87701923393</ele>
        <time>2015-05-16T14:59:59Z</time>
      </trkpt>
      <trkpt lat="45.69911" lon="5.6483">
        <ele>317.30135849017</ele>
        <time>2015-05-16T15:00:04Z</time>
      </trkpt>
      <trkpt lat="45.69917" lon="5.64837">
        <ele>317.30135849017</ele>
        <time>2015-05-16T15:00:09Z</time>
      </trkpt>
      <trkpt lat="45.69923" lon="5.64841">
        <ele>317.72221602946</ele>
        <time>2015-05-16T15:00:14Z</time>
      </trkpt>
      <trkpt lat="45.69928" lon="5.64847">
        <ele>317.72221602946</ele>
        <time>2015-05-16T15:00:19Z</time>
      </trkpt>
      <trkpt lat="45.69934" lon="5.64854">
        <ele>318.31173312294</ele>
        <time>2015-05-16T15:00:24Z</time>
      </trkpt>
      <trkpt lat="45.69941" lon="5.64859">
        <ele>318.31173312294</ele>
        <time>2015-05-16T15:00:29Z</time>
      </trkpt>
      <trkpt lat="45.69948" lon="5.64864">
        <ele>318.85428433117</ele>
        <time>2015-05-16T15:00:34Z</time>
      </trkpt>
      <trkpt lat="45.69953" lon="5.64868">
        <ele>318.85428433117</ele>
        <time>2015-05-16T15:00:39Z</time>
      </trkpt>
      <trkpt lat="45.6996" lon="5.64873">
        <ele>319.42406846676</ele>
        <time>2015-05-16T15:00:44Z</time>
      </trkpt>
      <trkpt lat="45.69967" lon="5.64878">
        <ele>319.42406846676</ele>
        <time>2015-05-16T15:00:49Z</time>
      </trkpt>
      <trkpt lat="45.69974" lon="5.64885">
        <ele>320.26273357416</ele>
        <time>2015-05-16T15:00:54Z</time>
      </trkpt>
      <trkpt lat="45.6998" lon="5.64891">
        <ele>320.26273357416</ele>
        <time>2015-05-16T15:00:59Z</time>
      </trkpt>
      <trkpt lat="45.69986" lon="5.64898">
        <ele>321.46376708503</ele>
        <time>2015-05-16T15:01:04Z</time>
      </trkpt>
      <trkpt lat="45.6999" lon="5.64904">
        <ele>321.46376708503</ele>
        <time>2015-05-16T15:01:09Z</time>
      </trkpt>
      <trkpt lat="45.69989" lon="5.64901">
        <ele>321.46376708503</ele>
        <time>2015-05-16T15:01:14Z</time>
      </trkpt>
      <trkpt lat="45.69988" lon="5.64901">
        <ele>321.46376708503</ele>
        <time>2015-05-16T15:01:19Z</time>
      </trkpt>
      <trkpt lat="45.69992" lon="5.64904">
        <ele>322.17609691309</ele>
        <time>2015-05-16T15:01:24Z</time>
      </trkpt>
      <trkpt lat="45.69999" lon="5.6491">
        <ele>322.17609691309</ele>
        <time>2015-05-16T15:01:29Z</time>
      </trkpt>
      <trkpt lat="45.70005" lon="5.64916">
        <ele>323.16899187381</ele>
        <time>2015-05-16T15:01:34Z</time>
      </trkpt>
      <trkpt lat="45.7001" lon="5.64921">
        <ele>323.16899187381</ele>
        <time>2015-05-16T15:01:39Z</time>
      </trkpt>
      <trkpt lat="45.70016" lon="5.64926">
        <ele>324.21775431115</ele>
        <time>2015-05-16T15:01:44Z</time>
      </trkpt>
      <trkpt lat="45.70021" lon="5.64932">
        <ele>324.21775431115</ele>
        <time>2015-05-16T15:01:49Z</time>
      </trkpt>
      <trkpt lat="45.70026" lon="5.64938">
        <ele>325.09968070351</ele>
        <time>2015-05-16T15:01:54Z</time>
      </trkpt>
      <trkpt lat="45.70032" lon="5.64942">
        <ele>325.09968070351</ele>
        <time>2015-05-16T15:01:59Z</time>
      </trkpt>
      <trkpt lat="45.70033" lon="5.64947">
        <ele>325.94040867633</ele>
        <time>2015-05-16T15:02:04Z</time>
      </trkpt>
      <trkpt lat="45.70038" lon="5.6496">
        <ele>326.55388780992</ele>
        <time>2015-05-16T15:02:09Z</time>
      </trkpt>
      <trkpt lat="45.70054" lon="5.64973">
        <ele>327.12870968577</ele>
        <time>2015-05-16T15:02:14Z</time>
      </trkpt>
      <trkpt lat="45.70067" lon="5.64988">
        <ele>327.62361234539</ele>
        <time>2015-05-16T15:02:19Z</time>
      </trkpt>
      <trkpt lat="45.70078" lon="5.65003">
        <ele>328.11593497877</ele>
        <time>2015-05-16T15:02:24Z</time>
      </trkpt>
      <trkpt lat="45.70089" lon="5.65016">
        <ele>328.44681926179</ele>
        <time>2015-05-16T15:02:29Z</time>
      </trkpt>
      <trkpt lat="45.701" lon="5.6503">
        <ele>328.91632571657</ele>
        <time>2015-05-16T15:02:34Z</time>
      </trkpt>
      <trkpt lat="45.7011" lon="5.65044">
        <ele>329.28333214281</ele>
        <time>2015-05-16T15:02:39Z</time>
      </trkpt>
      <trkpt lat="45.7012" lon="5.65059">
        <ele>329.28152803401</ele>
        <time>2015-05-16T15:02:44Z</time>
      </trkpt>
      <trkpt lat="45.7012" lon="5.65062">
        <ele>329.28152803401</ele>
        <time>2015-05-16T15:02:49Z</time>
      </trkpt>
      <trkpt lat="45.7012" lon="5.65064">
        <ele>329.28152803401</ele>
        <time>2015-05-16T15:02:54Z</time>
      </trkpt>
      <trkpt lat="45.7012" lon="5.65065">
        <ele>329.28152803401</ele>
        <time>2015-05-16T15:02:59Z</time>
      </trkpt>
      <trkpt lat="45.7012" lon="5.65065">
        <ele>329.28152803401</ele>
        <time>2015-05-16T15:03:04Z</time>
      </trkpt>
      <trkpt lat="45.7012" lon="5.65065">
        <ele>329.28152803401</ele>
        <time>2015-05-16T15:03:09Z</time>
      </trkpt>
      <trkpt lat="45.7012" lon="5.65066">
        <ele>329.28152803401</ele>
        <time>2015-05-16T15:03:14Z</time>
      </trkpt>
      <trkpt lat="45.70125" lon="5.65072">
        <ele>329.34256360695</ele>
        <time>2015-05-16T15:03:19Z</time>
      </trkpt>
      <trkpt lat="45.70131" lon="5.65078">
        <ele>329.34256360695</ele>
        <time>2015-05-16T15:03:24Z</time>
      </trkpt>
      <trkpt lat="45.70137" lon="5.65083">
        <ele>328.87187196131</ele>
        <time>2015-05-16T15:03:29Z</time>
      </trkpt>
      <trkpt lat="45.70144" lon="5.65083">
        <ele>328.87187196131</ele>
        <time>2015-05-16T15:03:34Z</time>
      </trkpt>
      <trkpt lat="45.70151" lon="5.65082">
        <ele>327.69477042074</ele>
        <time>2015-05-16T15:03:39Z</time>
      </trkpt>
      <trkpt lat="45.70158" lon="5.65081">
        <ele>327.69477042074</ele>
        <time>2015-05-16T15:03:44Z</time>
      </trkpt>
      <trkpt lat="45.70167" lon="5.6508">
        <ele>326.7466524789</ele>
        <time>2015-05-16T15:03:49Z</time>
      </trkpt>
      <trkpt lat="45.70176" lon="5.65079">
        <ele>326.7466524789</ele>
        <time>2015-05-16T15:03:54Z</time>
      </trkpt>
      <trkpt lat="45.70184" lon="5.65078">
        <ele>326.08654037879</ele>
        <time>2015-05-16T15:03:59Z</time>
      </trkpt>
      <trkpt lat="45.70191" lon="5.65079">
        <ele>326.08654037879</ele>
        <time>2015-05-16T15:04:04Z</time>
      </trkpt>
      <trkpt lat="45.70197" lon="5.65079">
        <ele>325.48008662287</ele>
        <time>2015-05-16T15:04:09Z</time>
      </trkpt>
      <trkpt lat="45.70204" lon="5.65077">
        <ele>325.48008662287</ele>
        <time>2015-05-16T15:04:14Z</time>
      </trkpt>
      <trkpt lat="45.70212" lon="5.65078">
        <ele>325.15673976423</ele>
        <time>2015-05-16T15:04:19Z</time>
      </trkpt>
      <trkpt lat="45.7022" lon="5.6508">
        <ele>325.15673976423</ele>
        <time>2015-05-16T15:04:24Z</time>
      </trkpt>
      <trkpt lat="45.70229" lon="5.65081">
        <ele>324.78065619647</ele>
        <time>2015-05-16T15:04:29Z</time>
      </trkpt>
      <trkpt lat="45.70236" lon="5.65083">
        <ele>324.78065619647</ele>
        <time>2015-05-16T15:04:34Z</time>
      </trkpt>
      <trkpt lat="45.70243" lon="5.65086">
        <ele>324.40106299017</ele>
        <time>2015-05-16T15:04:39Z</time>
      </trkpt>
      <trkpt lat="45.70253" lon="5.6509">
        <ele>324.17883937496</ele>
        <time>2015-05-16T15:04:44Z</time>
      </trkpt>
      <trkpt lat="45.70261" lon="5.65096">
        <ele>324.17883937496</ele>
        <time>2015-05-16T15:04:49Z</time>
      </trkpt>
      <trkpt lat="45.7027" lon="5.65099">
        <ele>324.72372819329</ele>
        <time>2015-05-16T15:04:54Z</time>
      </trkpt>
      <trkpt lat="45.70277" lon="5.65103">
        <ele>324.72372819329</ele>
        <time>2015-05-16T15:04:59Z</time>
      </trkpt>
      <trkpt lat="45.70282" lon="5.65107">
        <ele>324.99886138968</ele>
        <time>2015-05-16T15:05:04Z</time>
      </trkpt>
      <trkpt lat="45.70287" lon="5.6511">
        <ele>324.99886138968</ele>
        <time>2015-05-16T15:05:09Z</time>
      </trkpt>
      <trkpt lat="45.70294" lon="5.65113">
        <ele>324.75040619801</ele>
        <time>2015-05-16T15:05:14Z</time>
      </trkpt>
      <trkpt lat="45.70307" lon="5.65116">
        <ele>324.92632383468</ele>
        <time>2015-05-16T15:05:19Z</time>
      </trkpt>
      <trkpt lat="45.70314" lon="5.65113">
        <ele>324.92632383468</ele>
        <time>2015-05-16T15:05:24Z</time>
      </trkpt>
      <trkpt lat="45.70316" lon="5.65108">
        <ele>323.82412453345</ele>
        <time>2015-05-16T15:05:29Z</time>
      </trkpt>
      <trkpt lat="45.70322" lon="5.65104">
        <ele>323.82412453345</ele>
        <time>2015-05-16T15:05:34Z</time>
      </trkpt>
      <trkpt lat="45.7033" lon="5.651">
        <ele>323.0691992916</ele>
        <time>2015-05-16T15:05:39Z</time>
      </trkpt>
      <trkpt lat="45.70337" lon="5.65095">
        <ele>323.0691992916</ele>
        <time>2015-05-16T15:05:44Z</time>
      </trkpt>
      <trkpt lat="45.70344" lon="5.65091">
        <ele>321.84633320407</ele>
        <time>2015-05-16T15:05:49Z</time>
      </trkpt>
      <trkpt lat="45.70352" lon="5.65089">
        <ele>321.84633320407</ele>
        <time>2015-05-16T15:05:54Z</time>
      </trkpt>
      <trkpt lat="45.7036" lon="5.6509">
        <ele>320.81375090939</ele>
        <time>2015-05-16T15:05:59Z</time>
      </trkpt>
      <trkpt lat="45.70366" lon="5.65092">
        <ele>320.81375090939</ele>
        <time>2015-05-16T15:06:04Z</time>
      </trkpt>
      <trkpt lat="45.70371" lon="5.65099">
        <ele>319.70165709024</ele>
        <time>2015-05-16T15:06:09Z</time>
      </trkpt>
      <trkpt lat="45.70375" lon="5.65109">
        <ele>319.70165709024</ele>
        <time>2015-05-16T15:06:14Z</time>
      </trkpt>
      <trkpt lat="45.7038" lon="5.6512">
        <ele>319.09608201426</ele>
        <time>2015-05-16T15:06:19Z</time>
      </trkpt>
      <trkpt lat="45.70383" lon="5.65132">
        <ele>319.09608201426</ele>
        <time>2015-05-16T15:06:24Z</time>
      </trkpt>
      <trkpt lat="45.70385" lon="5.65144">
        <ele>318.35680744404</ele>
        <time>2015-05-16T15:06:29Z</time>
      </trkpt>
      <trkpt lat="45.70388" lon="5.65153">
        <ele>318.35680744404</ele>
        <time>2015-05-16T15:06:34Z</time>
      </trkpt>
      <trkpt lat="45.7039" lon="5.65161">
        <ele>317.12152694544</ele>
        <time>2015-05-16T15:06:39Z</time>
      </trkpt>
      <trkpt lat="45.70392" lon="5.6517">
        <ele>317.12152694544</ele>
        <time>2015-05-16T15:06:44Z</time>
      </trkpt>
      <trkpt lat="45.70394" lon="5.6518">
        <ele>315.67554271949</ele>
        <time>2015-05-16T15:06:49Z</time>
      </trkpt>
      <trkpt lat="45.70398" lon="5.65189">
        <ele>315.67554271949</ele>
        <time>2015-05-16T15:06:54Z</time>
      </trkpt>
      <trkpt lat="45.70405" lon="5.65196">
        <ele>314.02430905411</ele>
        <time>2015-05-16T15:06:59Z</time>
      </trkpt>
      <trkpt lat="45.70409" lon="5.65206">
        <ele>314.02430905411</ele>
        <time>2015-05-16T15:07:04Z</time>
      </trkpt>
      <trkpt lat="45.70412" lon="5.65218">
        <ele>312.74981353722</ele>
        <time>2015-05-16T15:07:09Z</time>
      </trkpt>
      <trkpt lat="45.70413" lon="5.65228">
        <ele>312.74981353722</ele>
        <time>2015-05-16T15:07:14Z</time>
      </trkpt>
      <trkpt lat="45.70414" lon="5.65239">
        <ele>311.17960760564</ele>
        <time>2015-05-16T15:07:19Z</time>
      </trkpt>
      <trkpt lat="45.70414" lon="5.65242">
        <ele>311.17960760564</ele>
        <time>2015-05-16T15:07:24Z</time>
      </trkpt>
      <trkpt lat="45.70414" lon="5.65243">
        <ele>311.17960760564</ele>
        <time>2015-05-16T15:07:29Z</time>
      </trkpt>
      <trkpt lat="45.70417" lon="5.65245">
        <ele>311.17960760564</ele>
        <time>2015-05-16T15:07:34Z</time>
      </trkpt>
      <trkpt lat="45.70419" lon="5.65246">
        <ele>311.17960760564</ele>
        <time>2015-05-16T15:07:39Z</time>
      </trkpt>
      <trkpt lat="45.70419" lon="5.65247">
        <ele>311.17960760564</ele>
        <time>2015-05-16T15:07:44Z</time>
      </trkpt>
      <trkpt lat="45.70419" lon="5.65247">
        <ele>311.17960760564</ele>
        <time>2015-05-16T15:07:49Z</time>
      </trkpt>
      <trkpt lat="45.70421" lon="5.6525">
        <ele>308.90753635316</ele>
        <time>2015-05-16T15:07:54Z</time>
      </trkpt>
      <trkpt lat="45.70427" lon="5.65258">
        <ele>308.90753635316</ele>
        <time>2015-05-16T15:07:59Z</time>
      </trkpt>
      <trkpt lat="45.70436" lon="5.65264">
        <ele>306.06352996117</ele>
        <time>2015-05-16T15:08:04Z</time>
      </trkpt>
      <trkpt lat="45.70443" lon="5.65267">
        <ele>306.06352996117</ele>
        <time>2015-05-16T15:08:09Z</time>
      </trkpt>
      <trkpt lat="45.70449" lon="5.65266">
        <ele>303.14414870808</ele>
        <time>2015-05-16T15:08:14Z</time>
      </trkpt>
      <trkpt lat="45.70456" lon="5.6527">
        <ele>303.14414870808</ele>
        <time>2015-05-16T15:08:19Z</time>
      </trkpt>
      <trkpt lat="45.70462" lon="5.65277">
        <ele>300.13398958663</ele>
        <time>2015-05-16T15:08:24Z</time>
      </trkpt>
      <trkpt lat="45.70466" lon="5.65284">
        <ele>300.13398958663</ele>
        <time>2015-05-16T15:08:29Z</time>
      </trkpt>
      <trkpt lat="45.70471" lon="5.65288">
        <ele>297.26388098723</ele>
        <time>2015-05-16T15:08:34Z</time>
      </trkpt>
      <trkpt lat="45.70474" lon="5.65295">
        <ele>297.26388098723</ele>
        <time>2015-05-16T15:08:39Z</time>
      </trkpt>
      <trkpt lat="45.70475" lon="5.65305">
        <ele>294.64626839191</ele>
        <time>2015-05-16T15:08:44Z</time>
      </trkpt>
      <trkpt lat="45.7048" lon="5.65314">
        <ele>294.64626839191</ele>
        <time>2015-05-16T15:08:49Z</time>
      </trkpt>
      <trkpt lat="45.70482" lon="5.65318">
        <ele>292.16829635498</ele>
        <time>2015-05-16T15:08:54Z</time>
      </trkpt>
      <trkpt lat="45.70484" lon="5.65324">
        <ele>292.16829635498</ele>
        <time>2015-05-16T15:08:59Z</time>
      </trkpt>
      <trkpt lat="45.70486" lon="5.65329">
        <ele>292.16829635498</ele>
        <time>2015-05-16T15:09:04Z</time>
      </trkpt>
      <trkpt lat="45.7049" lon="5.65335">
        <ele>289.92659050625</ele>
        <time>2015-05-16T15:09:09Z</time>
      </trkpt>
      <trkpt lat="45.70491" lon="5.65339">
        <ele>289.92659050625</ele>
        <time>2015-05-16T15:09:14Z</time>
      </trkpt>
      <trkpt lat="45.70496" lon="5.6534">
        <ele>289.92659050625</ele>
        <time>2015-05-16T15:09:19Z</time>
      </trkpt>
      <trkpt lat="45.70501" lon="5.65345">
        <ele>288.7159839498</ele>
        <time>2015-05-16T15:09:24Z</time>
      </trkpt>
      <trkpt lat="45.70505" lon="5.65348">
        <ele>288.7159839498</ele>
        <time>2015-05-16T15:09:29Z</time>
      </trkpt>
      <trkpt lat="45.7051" lon="5.65354">
        <ele>288.17460920366</ele>
        <time>2015-05-16T15:09:34Z</time>
      </trkpt>
      <trkpt lat="45.70518" lon="5.65356">
        <ele>288.17460920366</ele>
        <time>2015-05-16T15:09:39Z</time>
      </trkpt>
      <trkpt lat="45.70524" lon="5.65361">
        <ele>287.57603379996</ele>
        <time>2015-05-16T15:09:44Z</time>
      </trkpt>
      <trkpt lat="45.70529" lon="5.65364">
        <ele>287.57603379996</ele>
        <time>2015-05-16T15:09:49Z</time>
      </trkpt>
      <trkpt lat="45.70534" lon="5.65363">
        <ele>286.23277559887</ele>
        <time>2015-05-16T15:09:54Z</time>
      </trkpt>
      <trkpt lat="45.70536" lon="5.65366">
        <ele>286.23277559887</ele>
        <time>2015-05-16T15:09:59Z</time>
      </trkpt>
      <trkpt lat="45.70539" lon="5.65366">
        <ele>286.23277559887</ele>
        <time>2015-05-16T15:10:04Z</time>
      </trkpt>
      <trkpt lat="45.70541" lon="5.65368">
        <ele>286.23277559887</ele>
        <time>2015-05-16T15:10:09Z</time>
      </trkpt>
      <trkpt lat="45.70544" lon="5.65373">
        <ele>284.15828942174</ele>
        <time>2015-05-16T15:10:14Z</time>
      </trkpt>
      <trkpt lat="45.70547" lon="5.65375">
        <ele>284.15828942174</ele>
        <time>2015-05-16T15:10:19Z</time>
      </trkpt>
      <trkpt lat="45.70548" lon="5.65379">
        <ele>284.15828942174</ele>
        <time>2015-05-16T15:10:24Z</time>
      </trkpt>
      <trkpt lat="45.70553" lon="5.65382">
        <ele>281.53987718259</ele>
        <time>2015-05-16T15:10:29Z</time>
      </trkpt>
      <trkpt lat="45.70558" lon="5.65385">
        <ele>281.53987718259</ele>
        <time>2015-05-16T15:10:34Z</time>
      </trkpt>
      <trkpt lat="45.70565" lon="5.6539">
        <ele>279.10008249526</ele>
        <time>2015-05-16T15:10:39Z</time>
      </trkpt>
      <trkpt lat="45.70571" lon="5.65391">
        <ele>279.10008249526</ele>
        <time>2015-05-16T15:10:44Z</time>
      </trkpt>
      <trkpt lat="45.70579" lon="5.65397">
        <ele>276.9024549574</ele>
        <time>2015-05-16T15:10:49Z</time>
      </trkpt>
      <trkpt lat="45.70587" lon="5.654">
        <ele>276.9024549574</ele>
        <time>2015-05-16T15:10:54Z</time>
      </trkpt>
      <trkpt lat="45.70592" lon="5.65399">
        <ele>274.27007861918</ele>
        <time>2015-05-16T15:10:59Z</time>
      </trkpt>
      <trkpt lat="45.70598" lon="5.65401">
        <ele>274.27007861918</ele>
        <time>2015-05-16T15:11:04Z</time>
      </trkpt>
      <trkpt lat="45.70604" lon="5.65407">
        <ele>273.05554423638</ele>
        <time>2015-05-16T15:11:09Z</time>
      </trkpt>
      <trkpt lat="45.70611" lon="5.65412">
        <ele>273.05554423638</ele>
        <time>2015-05-16T15:11:14Z</time>
      </trkpt>
      <trkpt lat="45.70617" lon="5.65415">
        <ele>271.74313607409</ele>
        <time>2015-05-16T15:11:19Z</time>
      </trkpt>
      <trkpt lat="45.70622" lon="5.6542">
        <ele>271.74313607409</ele>
        <time>2015-05-16T15:11:24Z</time>
      </trkpt>
      <trkpt lat="45.70628" lon="5.65424">
        <ele>269.38976647561</ele>
        <time>2015-05-16T15:11:29Z</time>
      </trkpt>
      <trkpt lat="45.70634" lon="5.65429">
        <ele>269.38976647561</ele>
        <time>2015-05-16T15:11:34Z</time>
      </trkpt>
      <trkpt lat="45.70638" lon="5.65437">
        <ele>266.79609368295</ele>
        <time>2015-05-16T15:11:39Z</time>
      </trkpt>
      <trkpt lat="45.70645" lon="5.65442">
        <ele>266.79609368295</ele>
        <time>2015-05-16T15:11:44Z</time>
      </trkpt>
      <trkpt lat="45.7065" lon="5.65448">
        <ele>264.14246077145</ele>
        <time>2015-05-16T15:11:49Z</time>
      </trkpt>
      <trkpt lat="45.70655" lon="5.65453">
        <ele>264.14246077145</ele>
        <time>2015-05-16T15:11:54Z</time>
      </trkpt>
      <trkpt lat="45.7066" lon="5.65458">
        <ele>261.43746898395</ele>
        <time>2015-05-16T15:11:59Z</time>
      </trkpt>
      <trkpt lat="45.70666" lon="5.65464">
        <ele>261.43746898395</ele>
        <time>2015-05-16T15:12:04Z</time>
      </trkpt>
      <trkpt lat="45.70672" lon="5.65468">
        <ele>258.9196684651</ele>
        <time>2015-05-16T15:12:09Z</time>
      </trkpt>
      <trkpt lat="45.70677" lon="5.65475">
        <ele>258.9196684651</ele>
        <time>2015-05-16T15:12:14Z</time>
      </trkpt>
      <trkpt lat="45.70683" lon="5.65481">
        <ele>257.2993976957</ele>
        <time>2015-05-16T15:12:19Z</time>
      </trkpt>
      <trkpt lat="45.70688" lon="5.65486">
        <ele>257.2993976957</ele>
        <time>2015-05-16T15:12:24Z</time>
      </trkpt>
      <trkpt lat="45.70695" lon="5.65489">
        <ele>254.83991094682</ele>
        <time>2015-05-16T15:12:29Z</time>
      </trkpt>
      <trkpt lat="45.70701" lon="5.65494">
        <ele>254.83991094682</ele>
        <time>2015-05-16T15:12:34Z</time>
      </trkpt>
      <trkpt lat="45.70706" lon="5.65498">
        <ele>251.90858143102</ele>
        <time>2015-05-16T15:12:39Z</time>
      </trkpt>
      <trkpt lat="45.70712" lon="5.65502">
        <ele>251.90858143102</ele>
        <time>2015-05-16T15:12:44Z</time>
      </trkpt>
      <trkpt lat="45.70717" lon="5.65508">
        <ele>249.46666061168</ele>
        <time>2015-05-16T15:12:49Z</time>
      </trkpt>
      <trkpt lat="45.70724" lon="5.65512">
        <ele>249.46666061168</ele>
        <time>2015-05-16T15:12:54Z</time>
      </trkpt>
      <trkpt lat="45.70729" lon="5.65518">
        <ele>247.07745668773</ele>
        <time>2015-05-16T15:12:59Z</time>
      </trkpt>
      <trkpt lat="45.70736" lon="5.65524">
        <ele>247.07745668773</ele>
        <time>2015-05-16T15:13:04Z</time>
      </trkpt>
      <trkpt lat="45.7074" lon="5.65531">
        <ele>244.46577517127</ele>
        <time>2015-05-16T15:13:09Z</time>
      </trkpt>
      <trkpt lat="45.70745" lon="5.65536">
        <ele>244.46577517127</ele>
        <time>2015-05-16T15:13:14Z</time>
      </trkpt>
      <trkpt lat="45.70748" lon="5.65545">
        <ele>241.40594995204</ele>
        <time>2015-05-16T15:13:19Z</time>
      </trkpt>
      <trkpt lat="45.70743" lon="5.65553">
        <ele>241.40594995204</ele>
        <time>2015-05-16T15:13:24Z</time>
      </trkpt>
      <trkpt lat="45.70737" lon="5.65559">
        <ele>238.88613988298</ele>
        <time>2015-05-16T15:13:29Z</time>
      </trkpt>
      <trkpt lat="45.7073" lon="5.65564">
        <ele>238.88613988298</ele>
        <time>2015-05-16T15:13:34Z</time>
      </trkpt>
      <trkpt lat="45.70724" lon="5.65569">
        <ele>237.07089143819</ele>
        <time>2015-05-16T15:13:39Z</time>
      </trkpt>
      <trkpt lat="45.70717" lon="5.65575">
        <ele>237.07089143819</ele>
        <time>2015-05-16T15:13:44Z</time>
      </trkpt>
      <trkpt lat="45.70712" lon="5.65583">
        <ele>235.43323851023</ele>
        <time>2015-05-16T15:13:49Z</time>
      </trkpt>
      <trkpt lat="45.70707" lon="5.65593">
        <ele>235.43323851023</ele>
        <time>2015-05-16T15:13:54Z</time>
      </trkpt>
      <trkpt lat="45.70703" lon="5.65602">
        <ele>234.24809725166</ele>
        <time>2015-05-16T15:13:59Z</time>
      </trkpt>
      <trkpt lat="45.707" lon="5.65611">
        <ele>234.24809725166</ele>
        <time>2015-05-16T15:14:04Z</time>
      </trkpt>
      <trkpt lat="45.70695" lon="5.6562">
        <ele>233.33647657671</ele>
        <time>2015-05-16T15:14:09Z</time>
      </trkpt>
      <trkpt lat="45.70689" lon="5.65626">
        <ele>233.33647657671</ele>
        <time>2015-05-16T15:14:14Z</time>
      </trkpt>
      <trkpt lat="45.70683" lon="5.65631">
        <ele>232.28668068433</ele>
        <time>2015-05-16T15:14:19Z</time>
      </trkpt>
      <trkpt lat="45.70677" lon="5.65635">
        <ele>232.28668068433</ele>
        <time>2015-05-16T15:14:24Z</time>
      </trkpt>
      <trkpt lat="45.7067" lon="5.6564">
        <ele>230.96254884158</ele>
        <time>2015-05-16T15:14:29Z</time>
      </trkpt>
      <trkpt lat="45.70662" lon="5.65644">
        <ele>230.96254884158</ele>
        <time>2015-05-16T15:14:34Z</time>
      </trkpt>
      <trkpt lat="45.70655" lon="5.65649">
        <ele>229.57007563638</ele>
        <time>2015-05-16T15:14:39Z</time>
      </trkpt>
      <trkpt lat="45.70648" lon="5.65653">
        <ele>229.57007563638</ele>
        <time>2015-05-16T15:14:44Z</time>
      </trkpt>
      <trkpt lat="45.70641" lon="5.65656">
        <ele>228.51642118131</ele>
        <time>2015-05-16T15:14:49Z</time>
      </trkpt>
      <trkpt lat="45.70629" lon="5.65662">
        <ele>227.74550207491</ele>
        <time>2015-05-16T15:14:54Z</time>
      </trkpt>
      <trkpt lat="45.7062" lon="5.65667">
        <ele>227.19011188778</ele>
        <time>2015-05-16T15:14:59Z</time>
      </trkpt>
      <trkpt lat="45.70614" lon="5.65672">
        <ele>227.19011188778</ele>
        <time>2015-05-16T15:15:04Z</time>
      </trkpt>
      <trkpt lat="45.70608" lon="5.6568">
        <ele>226.67206093035</ele>
        <time>2015-05-16T15:15:09Z</time>
      </trkpt>
      <trkpt lat="45.70602" lon="5.65687">
        <ele>226.67206093035</ele>
        <time>2015-05-16T15:15:14Z</time>
      </trkpt>
      <trkpt lat="45.70595" lon="5.65693">
        <ele>226.70345390908</ele>
        <time>2015-05-16T15:15:19Z</time>
      </trkpt>
      <trkpt lat="45.70589" lon="5.65699">
        <ele>226.70345390908</ele>
        <time>2015-05-16T15:15:24Z</time>
      </trkpt>
      <trkpt lat="45.70583" lon="5.65706">
        <ele>226.83492515772</ele>
        <time>2015-05-16T15:15:29Z</time>
      </trkpt>
      <trkpt lat="45.70579" lon="5.65715">
        <ele>226.83492515772</ele>
        <time>2015-05-16T15:15:34Z</time>
      </trkpt>
      <trkpt lat="45.70576" lon="5.65727">
        <ele>227.08218838949</ele>
        <time>2015-05-16T15:15:39Z</time>
      </trkpt>
      <trkpt lat="45.70565" lon="5.65761">
        <ele>227.67567744848</ele>
        <time>2015-05-16T15:15:44Z</time>
      </trkpt>
      <trkpt lat="45.70555" lon="5.65794">
        <ele>228.26594272289</ele>
        <time>2015-05-16T15:15:49Z</time>
      </trkpt>
      <trkpt lat="45.70546" lon="5.65823">
        <ele>229.07690175897</ele>
        <time>2015-05-16T15:15:54Z</time>
      </trkpt>
      <trkpt lat="45.70533" lon="5.65845">
        <ele>230.17137489704</ele>
        <time>2015-05-16T15:15:59Z</time>
      </trkpt>
      <trkpt lat="45.70508" lon="5.65852">
        <ele>230.95836991929</ele>
        <time>2015-05-16T15:16:04Z</time>
      </trkpt>
      <trkpt lat="45.70479" lon="5.65861">
        <ele>231.77036200743</ele>
        <time>2015-05-16T15:16:09Z</time>
      </trkpt>
      <trkpt lat="45.70452" lon="5.65864">
        <ele>231.97873571182</ele>
        <time>2015-05-16T15:16:14Z</time>
      </trkpt>
      <trkpt lat="45.70422" lon="5.65869">
        <ele>231.86754897549</ele>
        <time>2015-05-16T15:16:19Z</time>
      </trkpt>
      <trkpt lat="45.70393" lon="5.6588">
        <ele>232.00366533738</ele>
        <time>2015-05-16T15:16:24Z</time>
      </trkpt>
      <trkpt lat="45.70369" lon="5.65914">
        <ele>233.43056257902</ele>
        <time>2015-05-16T15:16:29Z</time>
      </trkpt>
      <trkpt lat="45.70349" lon="5.65947">
        <ele>234.87787707331</ele>
        <time>2015-05-16T15:16:34Z</time>
      </trkpt>
      <trkpt lat="45.7033" lon="5.65974">
        <ele>235.64423815887</ele>
        <time>2015-05-16T15:16:39Z</time>
      </trkpt>
      <trkpt lat="45.7031" lon="5.66003">
        <ele>236.26359052187</ele>
        <time>2015-05-16T15:16:44Z</time>
      </trkpt>
      <trkpt lat="45.70289" lon="5.66031">
        <ele>236.84214606917</ele>
        <time>2015-05-16T15:16:49Z</time>
      </trkpt>
      <trkpt lat="45.70267" lon="5.66045">
        <ele>236.72923209226</ele>
        <time>2015-05-16T15:16:54Z</time>
      </trkpt>
      <trkpt lat="45.70242" lon="5.66071">
        <ele>236.82285147939</ele>
        <time>2015-05-16T15:16:59Z</time>
      </trkpt>
      <trkpt lat="45.70219" lon="5.66101">
        <ele>237.26290800606</ele>
        <time>2015-05-16T15:17:04Z</time>
      </trkpt>
      <trkpt lat="45.70195" lon="5.66129">
        <ele>238.00530207416</ele>
        <time>2015-05-16T15:17:09Z</time>
      </trkpt>
      <trkpt lat="45.7017" lon="5.66157">
        <ele>238.66263631544</ele>
        <time>2015-05-16T15:17:14Z</time>
      </trkpt>
      <trkpt lat="45.70149" lon="5.66174">
        <ele>239.09255352807</ele>
        <time>2015-05-16T15:17:19Z</time>
      </trkpt>
      <trkpt lat="45.70128" lon="5.6619">
        <ele>239.4233679938</ele>
        <time>2015-05-16T15:17:24Z</time>
      </trkpt>
      <trkpt lat="45.70112" lon="5.66209">
        <ele>239.68795353061</ele>
        <time>2015-05-16T15:17:29Z</time>
      </trkpt>
      <trkpt lat="45.70093" lon="5.66232">
        <ele>239.91712584064</ele>
        <time>2015-05-16T15:17:34Z</time>
      </trkpt>
      <trkpt lat="45.70072" lon="5.66252">
        <ele>240.21175884768</ele>
        <time>2015-05-16T15:17:39Z</time>
      </trkpt>
      <trkpt lat="45.70054" lon="5.66273">
        <ele>240.39148384125</ele>
        <time>2015-05-16T15:17:44Z</time>
      </trkpt>
      <trkpt lat="45.70035" lon="5.66295">
        <ele>240.57788398653</ele>
        <time>2015-05-16T15:17:49Z</time>
      </trkpt>
      <trkpt lat="45.70016" lon="5.66314">
        <ele>241.08550070934</ele>
        <time>2015-05-16T15:17:54Z</time>
      </trkpt>
      <trkpt lat="45.69999" lon="5.66338">
        <ele>241.6429831825</ele>
        <time>2015-05-16T15:17:59Z</time>
      </trkpt>
      <trkpt lat="45.69981" lon="5.66363">
        <ele>242.58977497268</ele>
        <time>2015-05-16T15:18:04Z</time>
      </trkpt>
      <trkpt lat="45.69965" lon="5.66389">
        <ele>243.17301203114</ele>
        <time>2015-05-16T15:18:09Z</time>
      </trkpt>
      <trkpt lat="45.69965" lon="5.6641">
        <ele>243.31597272777</ele>
        <time>2015-05-16T15:18:14Z</time>
      </trkpt>
      <trkpt lat="45.69979" lon="5.66439">
        <ele>243.42450923514</ele>
        <time>2015-05-16T15:18:19Z</time>
      </trkpt>
      <trkpt lat="45.69996" lon="5.66476">
        <ele>243.42814282529</ele>
        <time>2015-05-16T15:18:24Z</time>
      </trkpt>
      <trkpt lat="45.70018" lon="5.66521">
        <ele>243.18993448018</ele>
        <time>2015-05-16T15:18:29Z</time>
      </trkpt>
      <trkpt lat="45.70037" lon="5.66562">
        <ele>243.37641075525</ele>
        <time>2015-05-16T15:18:34Z</time>
      </trkpt>
      <trkpt lat="45.70056" lon="5.666">
        <ele>243.84026435808</ele>
        <time>2015-05-16T15:18:39Z</time>
      </trkpt>
      <trkpt lat="45.70076" lon="5.6664">
        <ele>244.41551219421</ele>
        <time>2015-05-16T15:18:44Z</time>
      </trkpt>
      <trkpt lat="45.7009" lon="5.66677">
        <ele>244.76080570433</ele>
        <time>2015-05-16T15:18:49Z</time>
      </trkpt>
      <trkpt lat="45.70104" lon="5.66708">
        <ele>245.30998983161</ele>
        <time>2015-05-16T15:18:54Z</time>
      </trkpt>
      <trkpt lat="45.70101" lon="5.66715">
        <ele>245.30998983161</ele>
        <time>2015-05-16T15:18:59Z</time>
      </trkpt>
      <trkpt lat="45.70094" lon="5.66719">
        <ele>245.1963801479</ele>
        <time>2015-05-16T15:19:04Z</time>
      </trkpt>
      <trkpt lat="45.70089" lon="5.66726">
        <ele>245.1963801479</ele>
        <time>2015-05-16T15:19:09Z</time>
      </trkpt>
      <trkpt lat="45.70084" lon="5.66731">
        <ele>244.93031494717</ele>
        <time>2015-05-16T15:19:14Z</time>
      </trkpt>
      <trkpt lat="45.70078" lon="5.66738">
        <ele>244.93031494717</ele>
        <time>2015-05-16T15:19:19Z</time>
      </trkpt>
      <trkpt lat="45.70072" lon="5.66745">
        <ele>244.50958303152</ele>
        <time>2015-05-16T15:19:24Z</time>
      </trkpt>
      <trkpt lat="45.70066" lon="5.66753">
        <ele>244.50958303152</ele>
        <time>2015-05-16T15:19:29Z</time>
      </trkpt>
      <trkpt lat="45.70059" lon="5.66761">
        <ele>244.35056308214</ele>
        <time>2015-05-16T15:19:34Z</time>
      </trkpt>
      <trkpt lat="45.70053" lon="5.66769">
        <ele>244.35056308214</ele>
        <time>2015-05-16T15:19:39Z</time>
      </trkpt>
      <trkpt lat="45.70047" lon="5.66776">
        <ele>244.20428628207</ele>
        <time>2015-05-16T15:19:44Z</time>
      </trkpt>
      <trkpt lat="45.70042" lon="5.66783">
        <ele>244.20428628207</ele>
        <time>2015-05-16T15:19:49Z</time>
      </trkpt>
      <trkpt lat="45.70036" lon="5.66791">
        <ele>243.92655845008</ele>
        <time>2015-05-16T15:19:54Z</time>
      </trkpt>
      <trkpt lat="45.70031" lon="5.66798">
        <ele>243.92655845008</ele>
        <time>2015-05-16T15:19:59Z</time>
      </trkpt>
      <trkpt lat="45.70025" lon="5.66806">
        <ele>243.57153800023</ele>
        <time>2015-05-16T15:20:04Z</time>
      </trkpt>
      <trkpt lat="45.7002" lon="5.66813">
        <ele>243.57153800023</ele>
        <time>2015-05-16T15:20:09Z</time>
      </trkpt>
      <trkpt lat="45.70015" lon="5.6682">
        <ele>243.16083906927</ele>
        <time>2015-05-16T15:20:14Z</time>
      </trkpt>
      <trkpt lat="45.7001" lon="5.66827">
        <ele>243.16083906927</ele>
        <time>2015-05-16T15:20:19Z</time>
      </trkpt>
      <trkpt lat="45.70005" lon="5.66833">
        <ele>242.70026522927</ele>
        <time>2015-05-16T15:20:24Z</time>
      </trkpt>
      <trkpt lat="45.7" lon="5.6684">
        <ele>242.70026522927</ele>
        <time>2015-05-16T15:20:29Z</time>
      </trkpt>
      <trkpt lat="45.69994" lon="5.66846">
        <ele>242.0080133425</ele>
        <time>2015-05-16T15:20:34Z</time>
      </trkpt>
      <trkpt lat="45.69988" lon="5.66851">
        <ele>242.0080133425</ele>
        <time>2015-05-16T15:20:39Z</time>
      </trkpt>
      <trkpt lat="45.69982" lon="5.66857">
        <ele>241.37745740847</ele>
        <time>2015-05-16T15:20:44Z</time>
      </trkpt>
      <trkpt lat="45.69976" lon="5.66863">
        <ele>241.37745740847</ele>
        <time>2015-05-16T15:20:49Z</time>
      </trkpt>
      <trkpt lat="45.6997" lon="5.6687">
        <ele>240.73438886703</ele>
        <time>2015-05-16T15:20:54Z</time>
      </trkpt>
      <trkpt lat="45.69965" lon="5.66876">
        <ele>240.73438886703</ele>
        <time>2015-05-16T15:20:59Z</time>
      </trkpt>
      <trkpt lat="45.6996" lon="5.66883">
        <ele>240.02449720337</ele>
        <time>2015-05-16T15:21:04Z</time>
      </trkpt>
      <trkpt lat="45.69954" lon="5.6689">
        <ele>240.02449720337</ele>
        <time>2015-05-16T15:21:09Z</time>
      </trkpt>
      <trkpt lat="45.69949" lon="5.66896">
        <ele>239.35616425098</ele>
        <time>2015-05-16T15:21:14Z</time>
      </trkpt>
      <trkpt lat="45.69945" lon="5.66901">
        <ele>239.35616425098</ele>
        <time>2015-05-16T15:21:19Z</time>
      </trkpt>
      <trkpt lat="45.69941" lon="5.66911">
        <ele>238.71439074415</ele>
        <time>2015-05-16T15:21:24Z</time>
      </trkpt>
      <trkpt lat="45.69934" lon="5.66923">
        <ele>238.08518448911</ele>
        <time>2015-05-16T15:21:29Z</time>
      </trkpt>
      <trkpt lat="45.69928" lon="5.66931">
        <ele>238.08518448911</ele>
        <time>2015-05-16T15:21:34Z</time>
      </trkpt>
      <trkpt lat="45.69922" lon="5.66937">
        <ele>237.34023076899</ele>
        <time>2015-05-16T15:21:39Z</time>
      </trkpt>
      <trkpt lat="45.69915" lon="5.66943">
        <ele>237.34023076899</ele>
        <time>2015-05-16T15:21:44Z</time>
      </trkpt>
      <trkpt lat="45.69909" lon="5.6695">
        <ele>236.57710059769</ele>
        <time>2015-05-16T15:21:49Z</time>
      </trkpt>
      <trkpt lat="45.69901" lon="5.66955">
        <ele>236.57710059769</ele>
        <time>2015-05-16T15:21:54Z</time>
      </trkpt>
      <trkpt lat="45.69895" lon="5.6696">
        <ele>235.67004467708</ele>
        <time>2015-05-16T15:21:59Z</time>
      </trkpt>
      <trkpt lat="45.69888" lon="5.66964">
        <ele>235.67004467708</ele>
        <time>2015-05-16T15:22:04Z</time>
      </trkpt>
      <trkpt lat="45.69881" lon="5.66968">
        <ele>234.8776018061</ele>
        <time>2015-05-16T15:22:09Z</time>
      </trkpt>
      <trkpt lat="45.69875" lon="5.66971">
        <ele>234.8776018061</ele>
        <time>2015-05-16T15:22:14Z</time>
      </trkpt>
      <trkpt lat="45.69867" lon="5.66973">
        <ele>234.19396126433</ele>
        <time>2015-05-16T15:22:19Z</time>
      </trkpt>
      <trkpt lat="45.69859" lon="5.66975">
        <ele>234.19396126433</ele>
        <time>2015-05-16T15:22:24Z</time>
      </trkpt>
      <trkpt lat="45.69851" lon="5.66976">
        <ele>233.75749448114</ele>
        <time>2015-05-16T15:22:29Z</time>
      </trkpt>
      <trkpt lat="45.69843" lon="5.66977">
        <ele>233.75749448114</ele>
        <time>2015-05-16T15:22:34Z</time>
      </trkpt>
      <trkpt lat="45.69836" lon="5.66976">
        <ele>233.19127213772</ele>
        <time>2015-05-16T15:22:39Z</time>
      </trkpt>
      <trkpt lat="45.69828" lon="5.66977">
        <ele>233.19127213772</ele>
        <time>2015-05-16T15:22:44Z</time>
      </trkpt>
      <trkpt lat="45.69821" lon="5.66977">
        <ele>232.62192933509</ele>
        <time>2015-05-16T15:22:49Z</time>
      </trkpt>
      <trkpt lat="45.69813" lon="5.66977">
        <ele>232.62192933509</ele>
        <time>2015-05-16T15:22:54Z</time>
      </trkpt>
      <trkpt lat="45.69805" lon="5.66976">
        <ele>231.74882786477</ele>
        <time>2015-05-16T15:22:59Z</time>
      </trkpt>
      <trkpt lat="45.69797" lon="5.66974">
        <ele>231.74882786477</ele>
        <time>2015-05-16T15:23:04Z</time>
      </trkpt>
      <trkpt lat="45.6979" lon="5.66972">
        <ele>230.43831788657</ele>
        <time>2015-05-16T15:23:09Z</time>
      </trkpt>
      <trkpt lat="45.69784" lon="5.66968">
        <ele>230.43831788657</ele>
        <time>2015-05-16T15:23:14Z</time>
      </trkpt>
      <trkpt lat="45.69777" lon="5.66966">
        <ele>228.8127197372</ele>
        <time>2015-05-16T15:23:19Z</time>
      </trkpt>
      <trkpt lat="45.69769" lon="5.66964">
        <ele>228.8127197372</ele>
        <time>2015-05-16T15:23:24Z</time>
      </trkpt>
      <trkpt lat="45.69762" lon="5.66959">
        <ele>227.47616135538</ele>
        <time>2015-05-16T15:23:29Z</time>
      </trkpt>
      <trkpt lat="45.69755" lon="5.66957">
        <ele>227.47616135538</ele>
        <time>2015-05-16T15:23:34Z</time>
      </trkpt>
      <trkpt lat="45.69747" lon="5.66954">
        <ele>226.23812840999</ele>
        <time>2015-05-16T15:23:39Z</time>
      </trkpt>
      <trkpt lat="45.69739" lon="5.66952">
        <ele>226.23812840999</ele>
        <time>2015-05-16T15:23:44Z</time>
      </trkpt>
      <trkpt lat="45.69732" lon="5.6695">
        <ele>225.12350100762</ele>
        <time>2015-05-16T15:23:49Z</time>
      </trkpt>
      <trkpt lat="45.69726" lon="5.66946">
        <ele>225.12350100762</ele>
        <time>2015-05-16T15:23:54Z</time>
      </trkpt>
      <trkpt lat="45.69718" lon="5.66943">
        <ele>224.14049040193</ele>
        <time>2015-05-16T15:23:59Z</time>
      </trkpt>
      <trkpt lat="45.69712" lon="5.6694">
        <ele>224.14049040193</ele>
        <time>2015-05-16T15:24:04Z</time>
      </trkpt>
      <trkpt lat="45.69704" lon="5.66937">
        <ele>223.58447221686</ele>
        <time>2015-05-16T15:24:09Z</time>
      </trkpt>
      <trkpt lat="45.69694" lon="5.6694">
        <ele>223.19462947934</ele>
        <time>2015-05-16T15:24:14Z</time>
      </trkpt>
      <trkpt lat="45.69687" lon="5.66964">
        <ele>222.58464363176</ele>
        <time>2015-05-16T15:24:19Z</time>
      </trkpt>
      <trkpt lat="45.69677" lon="5.67003">
        <ele>222.06002304303</ele>
        <time>2015-05-16T15:24:24Z</time>
      </trkpt>
      <trkpt lat="45.69666" lon="5.6704">
        <ele>222.37908527781</ele>
        <time>2015-05-16T15:24:29Z</time>
      </trkpt>
      <trkpt lat="45.69657" lon="5.67079">
        <ele>222.82971660862</ele>
        <time>2015-05-16T15:24:34Z</time>
      </trkpt>
      <trkpt lat="45.69646" lon="5.67129">
        <ele>222.89579436946</ele>
        <time>2015-05-16T15:24:39Z</time>
      </trkpt>
      <trkpt lat="45.69637" lon="5.67185">
        <ele>223.5700694853</ele>
        <time>2015-05-16T15:24:44Z</time>
      </trkpt>
      <trkpt lat="45.69634" lon="5.67239">
        <ele>224.30068304065</ele>
        <time>2015-05-16T15:24:49Z</time>
      </trkpt>
      <trkpt lat="45.69632" lon="5.67274">
        <ele>224.93640256266</ele>
        <time>2015-05-16T15:24:54Z</time>
      </trkpt>
      <trkpt lat="45.69629" lon="5.67289">
        <ele>225.3085260913</ele>
        <time>2015-05-16T15:24:59Z</time>
      </trkpt>
      <trkpt lat="45.69628" lon="5.67298">
        <ele>225.3085260913</ele>
        <time>2015-05-16T15:25:04Z</time>
      </trkpt>
      <trkpt lat="45.69628" lon="5.67307">
        <ele>225.70821510021</ele>
        <time>2015-05-16T15:25:09Z</time>
      </trkpt>
      <trkpt lat="45.69627" lon="5.67317">
        <ele>225.70821510021</ele>
        <time>2015-05-16T15:25:14Z</time>
      </trkpt>
      <trkpt lat="45.69627" lon="5.67327">
        <ele>226.00164854961</ele>
        <time>2015-05-16T15:25:19Z</time>
      </trkpt>
      <trkpt lat="45.69629" lon="5.67336">
        <ele>226.00164854961</ele>
        <time>2015-05-16T15:25:24Z</time>
      </trkpt>
      <trkpt lat="45.6963" lon="5.67346">
        <ele>226.18042395018</ele>
        <time>2015-05-16T15:25:29Z</time>
      </trkpt>
      <trkpt lat="45.6963" lon="5.67357">
        <ele>226.18042395018</ele>
        <time>2015-05-16T15:25:34Z</time>
      </trkpt>
      <trkpt lat="45.6963" lon="5.67369">
        <ele>226.32355078363</ele>
        <time>2015-05-16T15:25:39Z</time>
      </trkpt>
      <trkpt lat="45.69628" lon="5.6738">
        <ele>226.32355078363</ele>
        <time>2015-05-16T15:25:44Z</time>
      </trkpt>
      <trkpt lat="45.69629" lon="5.67388">
        <ele>226.27376710129</ele>
        <time>2015-05-16T15:25:49Z</time>
      </trkpt>
      <trkpt lat="45.69629" lon="5.67396">
        <ele>226.27376710129</ele>
        <time>2015-05-16T15:25:54Z</time>
      </trkpt>
      <trkpt lat="45.69628" lon="5.67405">
        <ele>226.53441870324</ele>
        <time>2015-05-16T15:25:59Z</time>
      </trkpt>
      <trkpt lat="45.69629" lon="5.67415">
        <ele>226.53441870324</ele>
        <time>2015-05-16T15:26:04Z</time>
      </trkpt>
      <trkpt lat="45.6963" lon="5.67426">
        <ele>226.63429915451</ele>
        <time>2015-05-16T15:26:09Z</time>
      </trkpt>
      <trkpt lat="45.6963" lon="5.67437">
        <ele>226.63429915451</ele>
        <time>2015-05-16T15:26:14Z</time>
      </trkpt>
      <trkpt lat="45.6963" lon="5.67448">
        <ele>226.56961995698</ele>
        <time>2015-05-16T15:26:19Z</time>
      </trkpt>
      <trkpt lat="45.69629" lon="5.67458">
        <ele>226.56961995698</ele>
        <time>2015-05-16T15:26:24Z</time>
      </trkpt>
      <trkpt lat="45.69628" lon="5.67468">
        <ele>226.30853062041</ele>
        <time>2015-05-16T15:26:29Z</time>
      </trkpt>
      <trkpt lat="45.69628" lon="5.67478">
        <ele>226.30853062041</ele>
        <time>2015-05-16T15:26:34Z</time>
      </trkpt>
      <trkpt lat="45.69628" lon="5.67487">
        <ele>226.06708143256</ele>
        <time>2015-05-16T15:26:39Z</time>
      </trkpt>
      <trkpt lat="45.69629" lon="5.67497">
        <ele>226.06708143256</ele>
        <time>2015-05-16T15:26:44Z</time>
      </trkpt>
      <trkpt lat="45.69629" lon="5.67506">
        <ele>226.01659558298</ele>
        <time>2015-05-16T15:26:49Z</time>
      </trkpt>
      <trkpt lat="45.6963" lon="5.67516">
        <ele>226.01659558298</ele>
        <time>2015-05-16T15:26:54Z</time>
      </trkpt>
      <trkpt lat="45.69631" lon="5.67529">
        <ele>226.17118528316</ele>
        <time>2015-05-16T15:26:59Z</time>
      </trkpt>
      <trkpt lat="45.69632" lon="5.67539">
        <ele>226.17118528316</ele>
        <time>2015-05-16T15:27:04Z</time>
      </trkpt>
      <trkpt lat="45.69632" lon="5.67549">
        <ele>226.32720563515</ele>
        <time>2015-05-16T15:27:09Z</time>
      </trkpt>
      <trkpt lat="45.69633" lon="5.67561">
        <ele>226.32720563515</ele>
        <time>2015-05-16T15:27:14Z</time>
      </trkpt>
      <trkpt lat="45.69634" lon="5.67573">
        <ele>227.17506944215</ele>
        <time>2015-05-16T15:27:19Z</time>
      </trkpt>
      <trkpt lat="45.69634" lon="5.67586">
        <ele>227.91144716837</ele>
        <time>2015-05-16T15:27:24Z</time>
      </trkpt>
      <trkpt lat="45.69637" lon="5.67597">
        <ele>227.91144716837</ele>
        <time>2015-05-16T15:27:29Z</time>
      </trkpt>
      <trkpt lat="45.69638" lon="5.67608">
        <ele>228.38322164741</ele>
        <time>2015-05-16T15:27:34Z</time>
      </trkpt>
      <trkpt lat="45.69641" lon="5.67618">
        <ele>228.38322164741</ele>
        <time>2015-05-16T15:27:39Z</time>
      </trkpt>
      <trkpt lat="45.69648" lon="5.67629">
        <ele>228.67987980862</ele>
        <time>2015-05-16T15:27:44Z</time>
      </trkpt>
      <trkpt lat="45.69658" lon="5.67643">
        <ele>229.1010330073</ele>
        <time>2015-05-16T15:27:49Z</time>
      </trkpt>
      <trkpt lat="45.69663" lon="5.67657">
        <ele>229.69339932812</ele>
        <time>2015-05-16T15:27:54Z</time>
      </trkpt>
      <trkpt lat="45.69666" lon="5.67668">
        <ele>229.69339932812</ele>
        <time>2015-05-16T15:27:59Z</time>
      </trkpt>
      <trkpt lat="45.69668" lon="5.67678">
        <ele>230.49983060681</ele>
        <time>2015-05-16T15:28:04Z</time>
      </trkpt>
      <trkpt lat="45.69669" lon="5.67684">
        <ele>230.49983060681</ele>
        <time>2015-05-16T15:28:09Z</time>
      </trkpt>
      <trkpt lat="45.6967" lon="5.67694">
        <ele>231.12714553726</ele>
        <time>2015-05-16T15:28:14Z</time>
      </trkpt>
      <trkpt lat="45.6967" lon="5.67705">
        <ele>231.12714553726</ele>
        <time>2015-05-16T15:28:19Z</time>
      </trkpt>
      <trkpt lat="45.69668" lon="5.67715">
        <ele>231.87451162892</ele>
        <time>2015-05-16T15:28:24Z</time>
      </trkpt>
      <trkpt lat="45.69668" lon="5.67724">
        <ele>231.87451162892</ele>
        <time>2015-05-16T15:28:29Z</time>
      </trkpt>
      <trkpt lat="45.69669" lon="5.67732">
        <ele>231.93800351456</ele>
        <time>2015-05-16T15:28:34Z</time>
      </trkpt>
      <trkpt lat="45.69672" lon="5.67741">
        <ele>231.93800351456</ele>
        <time>2015-05-16T15:28:39Z</time>
      </trkpt>
      <trkpt lat="45.69674" lon="5.67749">
        <ele>231.66996993301</ele>
        <time>2015-05-16T15:28:44Z</time>
      </trkpt>
      <trkpt lat="45.69675" lon="5.67759">
        <ele>231.66996993301</ele>
        <time>2015-05-16T15:28:49Z</time>
      </trkpt>
      <trkpt lat="45.69677" lon="5.67772">
        <ele>232.17606135194</ele>
        <time>2015-05-16T15:28:54Z</time>
      </trkpt>
      <trkpt lat="45.69678" lon="5.67782">
        <ele>232.17606135194</ele>
        <time>2015-05-16T15:28:59Z</time>
      </trkpt>
      <trkpt lat="45.69679" lon="5.67792">
        <ele>232.67720015054</ele>
        <time>2015-05-16T15:29:04Z</time>
      </trkpt>
      <trkpt lat="45.69681" lon="5.67802">
        <ele>232.67720015054</ele>
        <time>2015-05-16T15:29:09Z</time>
      </trkpt>
      <trkpt lat="45.69682" lon="5.67813">
        <ele>233.28745047983</ele>
        <time>2015-05-16T15:29:14Z</time>
      </trkpt>
      <trkpt lat="45.69684" lon="5.67823">
        <ele>233.28745047983</ele>
        <time>2015-05-16T15:29:19Z</time>
      </trkpt>
      <trkpt lat="45.69686" lon="5.67831">
        <ele>233.75196577718</ele>
        <time>2015-05-16T15:29:24Z</time>
      </trkpt>
      <trkpt lat="45.69688" lon="5.67842">
        <ele>233.75196577718</ele>
        <time>2015-05-16T15:29:29Z</time>
      </trkpt>
      <trkpt lat="45.6969" lon="5.67853">
        <ele>234.23859364441</ele>
        <time>2015-05-16T15:29:34Z</time>
      </trkpt>
      <trkpt lat="45.69692" lon="5.67863">
        <ele>234.23859364441</ele>
        <time>2015-05-16T15:29:39Z</time>
      </trkpt>
      <trkpt lat="45.69694" lon="5.67873">
        <ele>234.81637684282</ele>
        <time>2015-05-16T15:29:44Z</time>
      </trkpt>
      <trkpt lat="45.69695" lon="5.67883">
        <ele>234.81637684282</ele>
        <time>2015-05-16T15:29:49Z</time>
      </trkpt>
      <trkpt lat="45.69696" lon="5.67893">
        <ele>235.1888066778</ele>
        <time>2015-05-16T15:29:54Z</time>
      </trkpt>
      <trkpt lat="45.69698" lon="5.67903">
        <ele>235.1888066778</ele>
        <time>2015-05-16T15:29:59Z</time>
      </trkpt>
      <trkpt lat="45.69698" lon="5.67915">
        <ele>235.64381932243</ele>
        <time>2015-05-16T15:30:04Z</time>
      </trkpt>
      <trkpt lat="45.69699" lon="5.67926">
        <ele>235.64381932243</ele>
        <time>2015-05-16T15:30:09Z</time>
      </trkpt>
      <trkpt lat="45.697" lon="5.67937">
        <ele>235.66982011607</ele>
        <time>2015-05-16T15:30:14Z</time>
      </trkpt>
      <trkpt lat="45.69701" lon="5.67947">
        <ele>235.66982011607</ele>
        <time>2015-05-16T15:30:19Z</time>
      </trkpt>
      <trkpt lat="45.69701" lon="5.67956">
        <ele>235.71636170882</ele>
        <time>2015-05-16T15:30:24Z</time>
      </trkpt>
      <trkpt lat="45.69702" lon="5.67965">
        <ele>235.71636170882</ele>
        <time>2015-05-16T15:30:29Z</time>
      </trkpt>
      <trkpt lat="45.69703" lon="5.67976">
        <ele>235.82527438609</ele>
        <time>2015-05-16T15:30:34Z</time>
      </trkpt>
      <trkpt lat="45.69704" lon="5.67987">
        <ele>235.82527438609</ele>
        <time>2015-05-16T15:30:39Z</time>
      </trkpt>
      <trkpt lat="45.69705" lon="5.67998">
        <ele>235.99195226396</ele>
        <time>2015-05-16T15:30:44Z</time>
      </trkpt>
      <trkpt lat="45.69706" lon="5.68008">
        <ele>235.99195226396</ele>
        <time>2015-05-16T15:30:49Z</time>
      </trkpt>
      <trkpt lat="45.69706" lon="5.68042">
        <ele>235.59232831737</ele>
        <time>2015-05-16T15:30:54Z</time>
      </trkpt>
      <trkpt lat="45.69713" lon="5.68076">
        <ele>235.00093702872</ele>
        <time>2015-05-16T15:30:59Z</time>
      </trkpt>
      <trkpt lat="45.69721" lon="5.68123">
        <ele>234.7527124849</ele>
        <time>2015-05-16T15:31:04Z</time>
      </trkpt>
      <trkpt lat="45.69729" lon="5.68166">
        <ele>234.16064216077</ele>
        <time>2015-05-16T15:31:09Z</time>
      </trkpt>
      <trkpt lat="45.69732" lon="5.68205">
        <ele>234.17438602312</ele>
        <time>2015-05-16T15:31:14Z</time>
      </trkpt>
      <trkpt lat="45.69737" lon="5.68239">
        <ele>234.67778931714</ele>
        <time>2015-05-16T15:31:19Z</time>
      </trkpt>
      <trkpt lat="45.69735" lon="5.68253">
        <ele>235.24482284202</ele>
        <time>2015-05-16T15:31:24Z</time>
      </trkpt>
      <trkpt lat="45.69732" lon="5.68262">
        <ele>235.24482284202</ele>
        <time>2015-05-16T15:31:29Z</time>
      </trkpt>
      <trkpt lat="45.69728" lon="5.68269">
        <ele>235.91291931214</ele>
        <time>2015-05-16T15:31:34Z</time>
      </trkpt>
      <trkpt lat="45.69725" lon="5.68276">
        <ele>235.91291931214</ele>
        <time>2015-05-16T15:31:39Z</time>
      </trkpt>
      <trkpt lat="45.69722" lon="5.68284">
        <ele>236.03916778118</ele>
        <time>2015-05-16T15:31:44Z</time>
      </trkpt>
      <trkpt lat="45.69718" lon="5.6829">
        <ele>236.03916778118</ele>
        <time>2015-05-16T15:31:49Z</time>
      </trkpt>
      <trkpt lat="45.69713" lon="5.68297">
        <ele>236.12466333128</ele>
        <time>2015-05-16T15:31:54Z</time>
      </trkpt>
      <trkpt lat="45.69709" lon="5.68307">
        <ele>236.12466333128</ele>
        <time>2015-05-16T15:31:59Z</time>
      </trkpt>
      <trkpt lat="45.6971" lon="5.68316">
        <ele>236.05737367815</ele>
        <time>2015-05-16T15:32:04Z</time>
      </trkpt>
      <trkpt lat="45.69711" lon="5.6832">
        <ele>236.05737367815</ele>
        <time>2015-05-16T15:32:09Z</time>
      </trkpt>
      <trkpt lat="45.69712" lon="5.68327">
        <ele>236.05737367815</ele>
        <time>2015-05-16T15:32:14Z</time>
      </trkpt>
      <trkpt lat="45.69713" lon="5.68337">
        <ele>235.11425716317</ele>
        <time>2015-05-16T15:32:19Z</time>
      </trkpt>
      <trkpt lat="45.69713" lon="5.68348">
        <ele>235.11425716317</ele>
        <time>2015-05-16T15:32:24Z</time>
      </trkpt>
      <trkpt lat="45.69713" lon="5.68356">
        <ele>234.09778224241</ele>
        <time>2015-05-16T15:32:29Z</time>
      </trkpt>
      <trkpt lat="45.69716" lon="5.68362">
        <ele>234.09778224241</ele>
        <time>2015-05-16T15:32:34Z</time>
      </trkpt>
      <trkpt lat="45.69718" lon="5.68369">
        <ele>232.54113757131</ele>
        <time>2015-05-16T15:32:39Z</time>
      </trkpt>
      <trkpt lat="45.6972" lon="5.68378">
        <ele>232.54113757131</ele>
        <time>2015-05-16T15:32:44Z</time>
      </trkpt>
      <trkpt lat="45.69722" lon="5.68385">
        <ele>231.49765160951</ele>
        <time>2015-05-16T15:32:49Z</time>
      </trkpt>
      <trkpt lat="45.69721" lon="5.68389">
        <ele>231.49765160951</ele>
        <time>2015-05-16T15:32:54Z</time>
      </trkpt>
      <trkpt lat="45.69721" lon="5.68392">
        <ele>231.49765160951</ele>
        <time>2015-05-16T15:32:59Z</time>
      </trkpt>
      <trkpt lat="45.69721" lon="5.68393">
        <ele>231.49765160951</ele>
        <time>2015-05-16T15:33:04Z</time>
      </trkpt>
      <trkpt lat="45.69721" lon="5.68396">
        <ele>231.49765160951</ele>
        <time>2015-05-16T15:33:09Z</time>
      </trkpt>
      <trkpt lat="45.69723" lon="5.68403">
        <ele>229.90984542507</ele>
        <time>2015-05-16T15:33:14Z</time>
      </trkpt>
      <trkpt lat="45.69724" lon="5.68414">
        <ele>229.90984542507</ele>
        <time>2015-05-16T15:33:19Z</time>
      </trkpt>
      <trkpt lat="45.69728" lon="5.68426">
        <ele>227.96671400293</ele>
        <time>2015-05-16T15:33:24Z</time>
      </trkpt>
      <trkpt lat="45.6973" lon="5.6844">
        <ele>226.10371850797</ele>
        <time>2015-05-16T15:33:29Z</time>
      </trkpt>
      <trkpt lat="45.69731" lon="5.68457">
        <ele>224.17642486642</ele>
        <time>2015-05-16T15:33:34Z</time>
      </trkpt>
      <trkpt lat="45.6973" lon="5.68472">
        <ele>222.77167458238</ele>
        <time>2015-05-16T15:33:39Z</time>
      </trkpt>
      <trkpt lat="45.69731" lon="5.68486">
        <ele>222.01373224548</ele>
        <time>2015-05-16T15:33:44Z</time>
      </trkpt>
      <trkpt lat="45.6973" lon="5.68505">
        <ele>221.56908977843</ele>
        <time>2015-05-16T15:33:49Z</time>
      </trkpt>
      <trkpt lat="45.69731" lon="5.68523">
        <ele>221.79068471455</ele>
        <time>2015-05-16T15:33:54Z</time>
      </trkpt>
      <trkpt lat="45.69733" lon="5.68539">
        <ele>222.23978693079</ele>
        <time>2015-05-16T15:33:59Z</time>
      </trkpt>
      <trkpt lat="45.69734" lon="5.68556">
        <ele>223.28738182508</ele>
        <time>2015-05-16T15:34:04Z</time>
      </trkpt>
      <trkpt lat="45.69735" lon="5.68573">
        <ele>223.86316798506</ele>
        <time>2015-05-16T15:34:09Z</time>
      </trkpt>
      <trkpt lat="45.69734" lon="5.68591">
        <ele>223.92786881618</ele>
        <time>2015-05-16T15:34:14Z</time>
      </trkpt>
      <trkpt lat="45.69733" lon="5.68598">
        <ele>223.92786881618</ele>
        <time>2015-05-16T15:34:19Z</time>
      </trkpt>
      <trkpt lat="45.69733" lon="5.68606">
        <ele>223.44647876363</ele>
        <time>2015-05-16T15:34:24Z</time>
      </trkpt>
      <trkpt lat="45.69734" lon="5.68613">
        <ele>223.44647876363</ele>
        <time>2015-05-16T15:34:29Z</time>
      </trkpt>
      <trkpt lat="45.69734" lon="5.68621">
        <ele>223.03655396111</ele>
        <time>2015-05-16T15:34:34Z</time>
      </trkpt>
      <trkpt lat="45.69735" lon="5.68631">
        <ele>223.03655396111</ele>
        <time>2015-05-16T15:34:39Z</time>
      </trkpt>
      <trkpt lat="45.69738" lon="5.68644">
        <ele>222.72242342328</ele>
        <time>2015-05-16T15:34:44Z</time>
      </trkpt>
      <trkpt lat="45.69739" lon="5.68651">
        <ele>222.72242342328</ele>
        <time>2015-05-16T15:34:49Z</time>
      </trkpt>
      <trkpt lat="45.69739" lon="5.68659">
        <ele>222.26692247197</ele>
        <time>2015-05-16T15:34:54Z</time>
      </trkpt>
      <trkpt lat="45.69737" lon="5.68668">
        <ele>222.26692247197</ele>
        <time>2015-05-16T15:34:59Z</time>
      </trkpt>
      <trkpt lat="45.69732" lon="5.68678">
        <ele>222.14240215679</ele>
        <time>2015-05-16T15:35:04Z</time>
      </trkpt>
      <trkpt lat="45.69727" lon="5.68686">
        <ele>222.14240215679</ele>
        <time>2015-05-16T15:35:09Z</time>
      </trkpt>
      <trkpt lat="45.69719" lon="5.68689">
        <ele>222.88643097959</ele>
        <time>2015-05-16T15:35:14Z</time>
      </trkpt>
      <trkpt lat="45.69712" lon="5.68693">
        <ele>222.88643097959</ele>
        <time>2015-05-16T15:35:19Z</time>
      </trkpt>
      <trkpt lat="45.69704" lon="5.687">
        <ele>222.90500977878</ele>
        <time>2015-05-16T15:35:24Z</time>
      </trkpt>
      <trkpt lat="45.69695" lon="5.68708">
        <ele>223.11548928136</ele>
        <time>2015-05-16T15:35:29Z</time>
      </trkpt>
      <trkpt lat="45.69685" lon="5.68709">
        <ele>224.33845411345</ele>
        <time>2015-05-16T15:35:34Z</time>
      </trkpt>
      <trkpt lat="45.6968" lon="5.68714">
        <ele>224.33845411345</ele>
        <time>2015-05-16T15:35:39Z</time>
      </trkpt>
      <trkpt lat="45.69678" lon="5.68723">
        <ele>224.57883475811</ele>
        <time>2015-05-16T15:35:44Z</time>
      </trkpt>
      <trkpt lat="45.69684" lon="5.6873">
        <ele>224.57883475811</ele>
        <time>2015-05-16T15:35:49Z</time>
      </trkpt>
      <trkpt lat="45.69687" lon="5.68737">
        <ele>224.06606967765</ele>
        <time>2015-05-16T15:35:54Z</time>
      </trkpt>
      <trkpt lat="45.69693" lon="5.68747">
        <ele>223.69217642093</ele>
        <time>2015-05-16T15:35:59Z</time>
      </trkpt>
      <trkpt lat="45.69699" lon="5.68762">
        <ele>223.83651224189</ele>
        <time>2015-05-16T15:36:04Z</time>
      </trkpt>
      <trkpt lat="45.69704" lon="5.68776">
        <ele>224.61853816427</ele>
        <time>2015-05-16T15:36:09Z</time>
      </trkpt>
      <trkpt lat="45.6971" lon="5.68788">
        <ele>225.41218944974</ele>
        <time>2015-05-16T15:36:14Z</time>
      </trkpt>
      <trkpt lat="45.69711" lon="5.6879">
        <ele>225.41218944974</ele>
        <time>2015-05-16T15:36:19Z</time>
      </trkpt>
      <trkpt lat="45.69714" lon="5.68794">
        <ele>225.41218944974</ele>
        <time>2015-05-16T15:36:24Z</time>
      </trkpt>
      <trkpt lat="45.69719" lon="5.68801">
        <ele>226.37233713114</ele>
        <time>2015-05-16T15:36:29Z</time>
      </trkpt>
      <trkpt lat="45.69726" lon="5.68809">
        <ele>226.37233713114</ele>
        <time>2015-05-16T15:36:34Z</time>
      </trkpt>
      <trkpt lat="45.69729" lon="5.68818">
        <ele>226.27296882484</ele>
        <time>2015-05-16T15:36:39Z</time>
      </trkpt>
      <trkpt lat="45.69732" lon="5.68824">
        <ele>226.27296882484</ele>
        <time>2015-05-16T15:36:44Z</time>
      </trkpt>
      <trkpt lat="45.69736" lon="5.68831">
        <ele>225.99868378522</ele>
        <time>2015-05-16T15:36:49Z</time>
      </trkpt>
      <trkpt lat="45.69741" lon="5.6884">
        <ele>225.99868378522</ele>
        <time>2015-05-16T15:36:54Z</time>
      </trkpt>
      <trkpt lat="45.69747" lon="5.6885">
        <ele>225.72111242954</ele>
        <time>2015-05-16T15:36:59Z</time>
      </trkpt>
      <trkpt lat="45.69752" lon="5.68859">
        <ele>225.72111242954</ele>
        <time>2015-05-16T15:37:04Z</time>
      </trkpt>
      <trkpt lat="45.69756" lon="5.68868">
        <ele>225.52725343612</ele>
        <time>2015-05-16T15:37:09Z</time>
      </trkpt>
      <trkpt lat="45.69761" lon="5.68877">
        <ele>225.52725343612</ele>
        <time>2015-05-16T15:37:14Z</time>
      </trkpt>
      <trkpt lat="45.69765" lon="5.68885">
        <ele>225.39662247366</ele>
        <time>2015-05-16T15:37:19Z</time>
      </trkpt>
      <trkpt lat="45.69771" lon="5.68894">
        <ele>225.39662247366</ele>
        <time>2015-05-16T15:37:24Z</time>
      </trkpt>
      <trkpt lat="45.69776" lon="5.68903">
        <ele>225.43978159657</ele>
        <time>2015-05-16T15:37:29Z</time>
      </trkpt>
      <trkpt lat="45.69778" lon="5.68909">
        <ele>225.43978159657</ele>
        <time>2015-05-16T15:37:34Z</time>
      </trkpt>
      <trkpt lat="45.6978" lon="5.68913">
        <ele>225.43978159657</ele>
        <time>2015-05-16T15:37:39Z</time>
      </trkpt>
      <trkpt lat="45.69783" lon="5.68921">
        <ele>225.61459052182</ele>
        <time>2015-05-16T15:37:44Z</time>
      </trkpt>
      <trkpt lat="45.69788" lon="5.68931">
        <ele>225.61459052182</ele>
        <time>2015-05-16T15:37:49Z</time>
      </trkpt>
      <trkpt lat="45.69798" lon="5.68949">
        <ele>225.95370932378</ele>
        <time>2015-05-16T15:37:54Z</time>
      </trkpt>
      <trkpt lat="45.69803" lon="5.68961">
        <ele>226.22755737584</ele>
        <time>2015-05-16T15:37:59Z</time>
      </trkpt>
      <trkpt lat="45.6981" lon="5.68969">
        <ele>226.22755737584</ele>
        <time>2015-05-16T15:38:04Z</time>
      </trkpt>
      <trkpt lat="45.69816" lon="5.68975">
        <ele>226.91535750518</ele>
        <time>2015-05-16T15:38:09Z</time>
      </trkpt>
      <trkpt lat="45.69823" lon="5.6898">
        <ele>226.91535750518</ele>
        <time>2015-05-16T15:38:14Z</time>
      </trkpt>
      <trkpt lat="45.6983" lon="5.68984">
        <ele>227.53768121494</ele>
        <time>2015-05-16T15:38:19Z</time>
      </trkpt>
      <trkpt lat="45.69838" lon="5.68987">
        <ele>227.53768121494</ele>
        <time>2015-05-16T15:38:24Z</time>
      </trkpt>
      <trkpt lat="45.69844" lon="5.68988">
        <ele>227.70817422359</ele>
        <time>2015-05-16T15:38:29Z</time>
      </trkpt>
      <trkpt lat="45.69851" lon="5.68991">
        <ele>227.70817422359</ele>
        <time>2015-05-16T15:38:34Z</time>
      </trkpt>
      <trkpt lat="45.69857" lon="5.68994">
        <ele>227.86277245898</ele>
        <time>2015-05-16T15:38:39Z</time>
      </trkpt>
      <trkpt lat="45.69864" lon="5.68996">
        <ele>227.86277245898</ele>
        <time>2015-05-16T15:38:44Z</time>
      </trkpt>
      <trkpt lat="45.6987" lon="5.68996">
        <ele>227.8866639245</ele>
        <time>2015-05-16T15:38:49Z</time>
      </trkpt>
      <trkpt lat="45.69877" lon="5.69">
        <ele>227.8866639245</ele>
        <time>2015-05-16T15:38:54Z</time>
      </trkpt>
      <trkpt lat="45.69884" lon="5.69004">
        <ele>228.10620240767</ele>
        <time>2015-05-16T15:38:59Z</time>
      </trkpt>
      <trkpt lat="45.69892" lon="5.69007">
        <ele>228.10620240767</ele>
        <time>2015-05-16T15:39:04Z</time>
      </trkpt>
      <trkpt lat="45.699" lon="5.6901">
        <ele>228.40532797654</ele>
        <time>2015-05-16T15:39:09Z</time>
      </trkpt>
      <trkpt lat="45.69907" lon="5.69012">
        <ele>228.40532797654</ele>
        <time>2015-05-16T15:39:14Z</time>
      </trkpt>
      <trkpt lat="45.69915" lon="5.69015">
        <ele>228.77719217355</ele>
        <time>2015-05-16T15:39:19Z</time>
      </trkpt>
      <trkpt lat="45.69922" lon="5.69018">
        <ele>228.77719217355</ele>
        <time>2015-05-16T15:39:24Z</time>
      </trkpt>
      <trkpt lat="45.69929" lon="5.6902">
        <ele>229.18645497449</ele>
        <time>2015-05-16T15:39:29Z</time>
      </trkpt>
      <trkpt lat="45.69936" lon="5.69024">
        <ele>229.18645497449</ele>
        <time>2015-05-16T15:39:34Z</time>
      </trkpt>
      <trkpt lat="45.69942" lon="5.69028">
        <ele>229.47059977236</ele>
        <time>2015-05-16T15:39:39Z</time>
      </trkpt>
      <trkpt lat="45.69949" lon="5.69033">
        <ele>229.47059977236</ele>
        <time>2015-05-16T15:39:44Z</time>
      </trkpt>
      <trkpt lat="45.69956" lon="5.69035">
        <ele>229.50825415539</ele>
        <time>2015-05-16T15:39:49Z</time>
      </trkpt>
      <trkpt lat="45.69962" lon="5.69037">
        <ele>229.50825415539</ele>
        <time>2015-05-16T15:39:54Z</time>
      </trkpt>
      <trkpt lat="45.69968" lon="5.69041">
        <ele>229.66325252115</ele>
        <time>2015-05-16T15:39:59Z</time>
      </trkpt>
      <trkpt lat="45.69974" lon="5.69045">
        <ele>229.66325252115</ele>
        <time>2015-05-16T15:40:04Z</time>
      </trkpt>
      <trkpt lat="45.69982" lon="5.69049">
        <ele>229.91212710276</ele>
        <time>2015-05-16T15:40:09Z</time>
      </trkpt>
      <trkpt lat="45.69989" lon="5.69053">
        <ele>229.91212710276</ele>
        <time>2015-05-16T15:40:14Z</time>
      </trkpt>
      <trkpt lat="45.69996" lon="5.69057">
        <ele>230.14643509544</ele>
        <time>2015-05-16T15:40:19Z</time>
      </trkpt>
      <trkpt lat="45.70004" lon="5.69059">
        <ele>230.14643509544</ele>
        <time>2015-05-16T15:40:24Z</time>
      </trkpt>
      <trkpt lat="45.70011" lon="5.69061">
        <ele>230.35223757208</ele>
        <time>2015-05-16T15:40:29Z</time>
      </trkpt>
      <trkpt lat="45.70018" lon="5.69063">
        <ele>230.35223757208</ele>
        <time>2015-05-16T15:40:34Z</time>
      </trkpt>
      <trkpt lat="45.70026" lon="5.69066">
        <ele>230.34379525679</ele>
        <time>2015-05-16T15:40:39Z</time>
      </trkpt>
      <trkpt lat="45.70032" lon="5.6907">
        <ele>230.34379525679</ele>
        <time>2015-05-16T15:40:44Z</time>
      </trkpt>
      <trkpt lat="45.70036" lon="5.69076">
        <ele>230.25227534849</ele>
        <time>2015-05-16T15:40:49Z</time>
      </trkpt>
      <trkpt lat="45.70036" lon="5.69086">
        <ele>230.25227534849</ele>
        <time>2015-05-16T15:40:54Z</time>
      </trkpt>
      <trkpt lat="45.70033" lon="5.69097">
        <ele>230.12741266854</ele>
        <time>2015-05-16T15:40:59Z</time>
      </trkpt>
      <trkpt lat="45.70029" lon="5.69111">
        <ele>229.95776046052</ele>
        <time>2015-05-16T15:41:04Z</time>
      </trkpt>
      <trkpt lat="45.70028" lon="5.69122">
        <ele>229.95776046052</ele>
        <time>2015-05-16T15:41:09Z</time>
      </trkpt>
      <trkpt lat="45.70024" lon="5.69128">
        <ele>229.73285802128</ele>
        <time>2015-05-16T15:41:14Z</time>
      </trkpt>
      <trkpt lat="45.70025" lon="5.69131">
        <ele>229.73285802128</ele>
        <time>2015-05-16T15:41:19Z</time>
      </trkpt>
      <trkpt lat="45.70024" lon="5.69142">
        <ele>229.48641746173</ele>
        <time>2015-05-16T15:41:24Z</time>
      </trkpt>
      <trkpt lat="45.70024" lon="5.69152">
        <ele>229.48641746173</ele>
        <time>2015-05-16T15:41:29Z</time>
      </trkpt>
      <trkpt lat="45.70024" lon="5.69162">
        <ele>229.19210276727</ele>
        <time>2015-05-16T15:41:34Z</time>
      </trkpt>
      <trkpt lat="45.70024" lon="5.69172">
        <ele>229.19210276727</ele>
        <time>2015-05-16T15:41:39Z</time>
      </trkpt>
      <trkpt lat="45.70024" lon="5.69183">
        <ele>228.73918858807</ele>
        <time>2015-05-16T15:41:44Z</time>
      </trkpt>
      <trkpt lat="45.70023" lon="5.69195">
        <ele>228.73918858807</ele>
        <time>2015-05-16T15:41:49Z</time>
      </trkpt>
      <trkpt lat="45.70022" lon="5.69207">
        <ele>227.95347647553</ele>
        <time>2015-05-16T15:41:54Z</time>
      </trkpt>
      <trkpt lat="45.70023" lon="5.69218">
        <ele>227.95347647553</ele>
        <time>2015-05-16T15:41:59Z</time>
      </trkpt>
      <trkpt lat="45.70021" lon="5.69228">
        <ele>227.25094141101</ele>
        <time>2015-05-16T15:42:04Z</time>
      </trkpt>
      <trkpt lat="45.7002" lon="5.69237">
        <ele>227.25094141101</ele>
        <time>2015-05-16T15:42:09Z</time>
      </trkpt>
      <trkpt lat="45.7002" lon="5.69247">
        <ele>226.54119389533</ele>
        <time>2015-05-16T15:42:14Z</time>
      </trkpt>
      <trkpt lat="45.70021" lon="5.69258">
        <ele>226.54119389533</ele>
        <time>2015-05-16T15:42:19Z</time>
      </trkpt>
      <trkpt lat="45.70022" lon="5.69266">
        <ele>226.14400348103</ele>
        <time>2015-05-16T15:42:24Z</time>
      </trkpt>
      <trkpt lat="45.70022" lon="5.69274">
        <ele>226.14400348103</ele>
        <time>2015-05-16T15:42:29Z</time>
      </trkpt>
      <trkpt lat="45.70023" lon="5.69284">
        <ele>225.85036668974</ele>
        <time>2015-05-16T15:42:34Z</time>
      </trkpt>
      <trkpt lat="45.70023" lon="5.69295">
        <ele>225.85036668974</ele>
        <time>2015-05-16T15:42:39Z</time>
      </trkpt>
      <trkpt lat="45.70023" lon="5.69304">
        <ele>225.40867768664</ele>
        <time>2015-05-16T15:42:44Z</time>
      </trkpt>
      <trkpt lat="45.70024" lon="5.6931">
        <ele>225.40867768664</ele>
        <time>2015-05-16T15:42:49Z</time>
      </trkpt>
      <trkpt lat="45.70025" lon="5.69317">
        <ele>224.91766106862</ele>
        <time>2015-05-16T15:42:54Z</time>
      </trkpt>
      <trkpt lat="45.70025" lon="5.69327">
        <ele>224.91766106862</ele>
        <time>2015-05-16T15:42:59Z</time>
      </trkpt>
      <trkpt lat="45.70025" lon="5.69334">
        <ele>224.25273491538</ele>
        <time>2015-05-16T15:43:04Z</time>
      </trkpt>
      <trkpt lat="45.70025" lon="5.69344">
        <ele>224.25273491538</ele>
        <time>2015-05-16T15:43:09Z</time>
      </trkpt>
      <trkpt lat="45.70024" lon="5.69355">
        <ele>223.32775005742</ele>
        <time>2015-05-16T15:43:14Z</time>
      </trkpt>
      <trkpt lat="45.70024" lon="5.69364">
        <ele>223.32775005742</ele>
        <time>2015-05-16T15:43:19Z</time>
      </trkpt>
      <trkpt lat="45.70024" lon="5.69376">
        <ele>222.19328210886</ele>
        <time>2015-05-16T15:43:24Z</time>
      </trkpt>
      <trkpt lat="45.70024" lon="5.69388">
        <ele>222.19328210886</ele>
        <time>2015-05-16T15:43:29Z</time>
      </trkpt>
      <trkpt lat="45.70022" lon="5.69402">
        <ele>221.71817559308</ele>
        <time>2015-05-16T15:43:34Z</time>
      </trkpt>
      <trkpt lat="45.7002" lon="5.69413">
        <ele>221.71817559308</ele>
        <time>2015-05-16T15:43:39Z</time>
      </trkpt>
      <trkpt lat="45.70016" lon="5.69422">
        <ele>221.50943739129</ele>
        <time>2015-05-16T15:43:44Z</time>
      </trkpt>
      <trkpt lat="45.70013" lon="5.69433">
        <ele>221.50943739129</ele>
        <time>2015-05-16T15:43:49Z</time>
      </trkpt>
      <trkpt lat="45.7001" lon="5.69443">
        <ele>221.31744271507</ele>
        <time>2015-05-16T15:43:54Z</time>
      </trkpt>
      <trkpt lat="45.70011" lon="5.69453">
        <ele>221.31744271507</ele>
        <time>2015-05-16T15:43:59Z</time>
      </trkpt>
      <trkpt lat="45.7001" lon="5.69464">
        <ele>220.93963652324</ele>
        <time>2015-05-16T15:44:04Z</time>
      </trkpt>
      <trkpt lat="45.70009" lon="5.69475">
        <ele>220.93963652324</ele>
        <time>2015-05-16T15:44:09Z</time>
      </trkpt>
      <trkpt lat="45.70006" lon="5.69487">
        <ele>220.70762322303</ele>
        <time>2015-05-16T15:44:14Z</time>
      </trkpt>
      <trkpt lat="45.70005" lon="5.69499">
        <ele>220.70762322303</ele>
        <time>2015-05-16T15:44:19Z</time>
      </trkpt>
      <trkpt lat="45.70005" lon="5.69511">
        <ele>220.51027632609</ele>
        <time>2015-05-16T15:44:24Z</time>
      </trkpt>
      <trkpt lat="45.70005" lon="5.69522">
        <ele>220.51027632609</ele>
        <time>2015-05-16T15:44:29Z</time>
      </trkpt>
      <trkpt lat="45.70005" lon="5.69531">
        <ele>220.38860815264</ele>
        <time>2015-05-16T15:44:34Z</time>
      </trkpt>
      <trkpt lat="45.70006" lon="5.69535">
        <ele>220.38860815264</ele>
        <time>2015-05-16T15:44:39Z</time>
      </trkpt>
      <trkpt lat="45.70006" lon="5.69542">
        <ele>220.38860815264</ele>
        <time>2015-05-16T15:44:44Z</time>
      </trkpt>
      <trkpt lat="45.70007" lon="5.69552">
        <ele>220.06332452705</ele>
        <time>2015-05-16T15:44:49Z</time>
      </trkpt>
      <trkpt lat="45.70008" lon="5.69561">
        <ele>220.06332452705</ele>
        <time>2015-05-16T15:44:54Z</time>
      </trkpt>
      <trkpt lat="45.70009" lon="5.69571">
        <ele>220.0255625931</ele>
        <time>2015-05-16T15:44:59Z</time>
      </trkpt>
      <trkpt lat="45.70014" lon="5.69578">
        <ele>220.0255625931</ele>
        <time>2015-05-16T15:45:04Z</time>
      </trkpt>
      <trkpt lat="45.70022" lon="5.6958">
        <ele>219.98016371203</ele>
        <time>2015-05-16T15:45:09Z</time>
      </trkpt>
      <trkpt lat="45.70034" lon="5.69579">
        <ele>219.94186515808</ele>
        <time>2015-05-16T15:45:14Z</time>
      </trkpt>
      <trkpt lat="45.70045" lon="5.69579">
        <ele>220.12603034844</ele>
        <time>2015-05-16T15:45:19Z</time>
      </trkpt>
      <trkpt lat="45.7005" lon="5.69579">
        <ele>220.12603034844</ele>
        <time>2015-05-16T15:45:24Z</time>
      </trkpt>
      <trkpt lat="45.70054" lon="5.69579">
        <ele>220.12603034844</ele>
        <time>2015-05-16T15:45:29Z</time>
      </trkpt>
      <trkpt lat="45.7006" lon="5.6958">
        <ele>220.24157667</ele>
        <time>2015-05-16T15:45:34Z</time>
      </trkpt>
      <trkpt lat="45.70066" lon="5.6958">
        <ele>220.24157667</ele>
        <time>2015-05-16T15:45:39Z</time>
      </trkpt>
      <trkpt lat="45.70073" lon="5.69579">
        <ele>220.48013283153</ele>
        <time>2015-05-16T15:45:44Z</time>
      </trkpt>
      <trkpt lat="45.70081" lon="5.69579">
        <ele>220.48013283153</ele>
        <time>2015-05-16T15:45:49Z</time>
      </trkpt>
      <trkpt lat="45.70089" lon="5.69579">
        <ele>220.75948993255</ele>
        <time>2015-05-16T15:45:54Z</time>
      </trkpt>
      <trkpt lat="45.70096" lon="5.69578">
        <ele>220.75948993255</ele>
        <time>2015-05-16T15:45:59Z</time>
      </trkpt>
      <trkpt lat="45.70103" lon="5.69577">
        <ele>221.17628614082</ele>
        <time>2015-05-16T15:46:04Z</time>
      </trkpt>
      <trkpt lat="45.70111" lon="5.69577">
        <ele>221.17628614082</ele>
        <time>2015-05-16T15:46:09Z</time>
      </trkpt>
      <trkpt lat="45.70119" lon="5.69577">
        <ele>221.63232445495</ele>
        <time>2015-05-16T15:46:14Z</time>
      </trkpt>
      <trkpt lat="45.70126" lon="5.69575">
        <ele>221.63232445495</ele>
        <time>2015-05-16T15:46:19Z</time>
      </trkpt>
      <trkpt lat="45.70133" lon="5.69572">
        <ele>222.15179922896</ele>
        <time>2015-05-16T15:46:24Z</time>
      </trkpt>
      <trkpt lat="45.70144" lon="5.69571">
        <ele>222.59843139347</ele>
        <time>2015-05-16T15:46:29Z</time>
      </trkpt>
      <trkpt lat="45.70158" lon="5.69582">
        <ele>222.94704397415</ele>
        <time>2015-05-16T15:46:34Z</time>
      </trkpt>
      <trkpt lat="45.70164" lon="5.69616">
        <ele>223.04489725868</ele>
        <time>2015-05-16T15:46:39Z</time>
      </trkpt>
      <trkpt lat="45.70176" lon="5.69635">
        <ele>223.38528053049</ele>
        <time>2015-05-16T15:46:44Z</time>
      </trkpt>
      <trkpt lat="45.70202" lon="5.69636">
        <ele>223.87696262947</ele>
        <time>2015-05-16T15:46:49Z</time>
      </trkpt>
      <trkpt lat="45.7023" lon="5.69637">
        <ele>224.79529015268</ele>
        <time>2015-05-16T15:46:54Z</time>
      </trkpt>
      <trkpt lat="45.70255" lon="5.69637">
        <ele>225.35661159649</ele>
        <time>2015-05-16T15:46:59Z</time>
      </trkpt>
      <trkpt lat="45.7028" lon="5.6962">
        <ele>225.52760658627</ele>
        <time>2015-05-16T15:47:04Z</time>
      </trkpt>
      <trkpt lat="45.70305" lon="5.69593">
        <ele>225.71086331127</ele>
        <time>2015-05-16T15:47:09Z</time>
      </trkpt>
      <trkpt lat="45.70328" lon="5.69567">
        <ele>225.55883934765</ele>
        <time>2015-05-16T15:47:14Z</time>
      </trkpt>
      <trkpt lat="45.7035" lon="5.69545">
        <ele>225.6007520696</ele>
        <time>2015-05-16T15:47:19Z</time>
      </trkpt>
      <trkpt lat="45.70368" lon="5.69527">
        <ele>225.67793028838</ele>
        <time>2015-05-16T15:47:24Z</time>
      </trkpt>
      <trkpt lat="45.70395" lon="5.69525">
        <ele>225.9315125934</ele>
        <time>2015-05-16T15:47:29Z</time>
      </trkpt>
      <trkpt lat="45.70423" lon="5.69529">
        <ele>226.49180476032</ele>
        <time>2015-05-16T15:47:34Z</time>
      </trkpt>
      <trkpt lat="45.7045" lon="5.6953">
        <ele>227.219310748</ele>
        <time>2015-05-16T15:47:39Z</time>
      </trkpt>
      <trkpt lat="45.70475" lon="5.69533">
        <ele>228.11404591502</ele>
        <time>2015-05-16T15:47:44Z</time>
      </trkpt>
      <trkpt lat="45.70503" lon="5.69535">
        <ele>228.70002451845</ele>
        <time>2015-05-16T15:47:49Z</time>
      </trkpt>
      <trkpt lat="45.7053" lon="5.69539">
        <ele>229.43062130766</ele>
        <time>2015-05-16T15:47:54Z</time>
      </trkpt>
      <trkpt lat="45.70552" lon="5.6954">
        <ele>229.88969813424</ele>
        <time>2015-05-16T15:47:59Z</time>
      </trkpt>
      <trkpt lat="45.70565" lon="5.69543">
        <ele>229.99512479145</ele>
        <time>2015-05-16T15:48:04Z</time>
      </trkpt>
      <trkpt lat="45.70573" lon="5.69543">
        <ele>229.99512479145</ele>
        <time>2015-05-16T15:48:09Z</time>
      </trkpt>
      <trkpt lat="45.7058" lon="5.69545">
        <ele>229.81595053887</ele>
        <time>2015-05-16T15:48:14Z</time>
      </trkpt>
      <trkpt lat="45.70587" lon="5.69546">
        <ele>229.81595053887</ele>
        <time>2015-05-16T15:48:19Z</time>
      </trkpt>
      <trkpt lat="45.70594" lon="5.69548">
        <ele>229.67639174045</ele>
        <time>2015-05-16T15:48:24Z</time>
      </trkpt>
      <trkpt lat="45.70602" lon="5.69549">
        <ele>229.67639174045</ele>
        <time>2015-05-16T15:48:29Z</time>
      </trkpt>
      <trkpt lat="45.70609" lon="5.6955">
        <ele>229.31474026968</ele>
        <time>2015-05-16T15:48:34Z</time>
      </trkpt>
      <trkpt lat="45.70615" lon="5.6955">
        <ele>229.31474026968</ele>
        <time>2015-05-16T15:48:39Z</time>
      </trkpt>
      <trkpt lat="45.70622" lon="5.6955">
        <ele>229.05120154723</ele>
        <time>2015-05-16T15:48:44Z</time>
      </trkpt>
      <trkpt lat="45.70629" lon="5.69552">
        <ele>229.05120154723</ele>
        <time>2015-05-16T15:48:49Z</time>
      </trkpt>
      <trkpt lat="45.70636" lon="5.69554">
        <ele>228.749876874</ele>
        <time>2015-05-16T15:48:54Z</time>
      </trkpt>
      <trkpt lat="45.70643" lon="5.69554">
        <ele>228.749876874</ele>
        <time>2015-05-16T15:48:59Z</time>
      </trkpt>
      <trkpt lat="45.7065" lon="5.69557">
        <ele>228.44350034828</ele>
        <time>2015-05-16T15:49:04Z</time>
      </trkpt>
      <trkpt lat="45.70655" lon="5.69564">
        <ele>228.44350034828</ele>
        <time>2015-05-16T15:49:09Z</time>
      </trkpt>
      <trkpt lat="45.70654" lon="5.69574">
        <ele>228.24889888401</ele>
        <time>2015-05-16T15:49:14Z</time>
      </trkpt>
      <trkpt lat="45.70653" lon="5.69583">
        <ele>228.24889888401</ele>
        <time>2015-05-16T15:49:19Z</time>
      </trkpt>
      <trkpt lat="45.70651" lon="5.69593">
        <ele>228.12990495079</ele>
        <time>2015-05-16T15:49:24Z</time>
      </trkpt>
      <trkpt lat="45.7065" lon="5.69603">
        <ele>228.12990495079</ele>
        <time>2015-05-16T15:49:29Z</time>
      </trkpt>
      <trkpt lat="45.70649" lon="5.69614">
        <ele>228.02398217842</ele>
        <time>2015-05-16T15:49:34Z</time>
      </trkpt>
      <trkpt lat="45.70647" lon="5.69624">
        <ele>228.02398217842</ele>
        <time>2015-05-16T15:49:39Z</time>
      </trkpt>
      <trkpt lat="45.70645" lon="5.69635">
        <ele>228.21902435714</ele>
        <time>2015-05-16T15:49:44Z</time>
      </trkpt>
      <trkpt lat="45.70644" lon="5.69645">
        <ele>228.21902435714</ele>
        <time>2015-05-16T15:49:49Z</time>
      </trkpt>
      <trkpt lat="45.70643" lon="5.69656">
        <ele>228.30361434325</ele>
        <time>2015-05-16T15:49:54Z</time>
      </trkpt>
      <trkpt lat="45.70644" lon="5.69666">
        <ele>228.30361434325</ele>
        <time>2015-05-16T15:49:59Z</time>
      </trkpt>
      <trkpt lat="45.70651" lon="5.6967">
        <ele>228.41567083712</ele>
        <time>2015-05-16T15:50:04Z</time>
      </trkpt>
      <trkpt lat="45.70658" lon="5.69673">
        <ele>228.41567083712</ele>
        <time>2015-05-16T15:50:09Z</time>
      </trkpt>
      <trkpt lat="45.70665" lon="5.69677">
        <ele>228.43791772823</ele>
        <time>2015-05-16T15:50:14Z</time>
      </trkpt>
      <trkpt lat="45.70669" lon="5.69679">
        <ele>228.43791772823</ele>
        <time>2015-05-16T15:50:19Z</time>
      </trkpt>
      <trkpt lat="45.70676" lon="5.6968">
        <ele>228.53575936778</ele>
        <time>2015-05-16T15:50:24Z</time>
      </trkpt>
      <trkpt lat="45.70684" lon="5.69681">
        <ele>228.53575936778</ele>
        <time>2015-05-16T15:50:29Z</time>
      </trkpt>
      <trkpt lat="45.70691" lon="5.69682">
        <ele>228.47313883727</ele>
        <time>2015-05-16T15:50:34Z</time>
      </trkpt>
      <trkpt lat="45.70699" lon="5.69684">
        <ele>228.47313883727</ele>
        <time>2015-05-16T15:50:39Z</time>
      </trkpt>
      <trkpt lat="45.70707" lon="5.69686">
        <ele>228.78116916592</ele>
        <time>2015-05-16T15:50:44Z</time>
      </trkpt>
      <trkpt lat="45.70715" lon="5.69687">
        <ele>228.78116916592</ele>
        <time>2015-05-16T15:50:49Z</time>
      </trkpt>
      <trkpt lat="45.7072" lon="5.69686">
        <ele>229.21594265427</ele>
        <time>2015-05-16T15:50:54Z</time>
      </trkpt>
      <trkpt lat="45.70727" lon="5.69685">
        <ele>229.21594265427</ele>
        <time>2015-05-16T15:50:59Z</time>
      </trkpt>
      <trkpt lat="45.70734" lon="5.69684">
        <ele>229.24848129765</ele>
        <time>2015-05-16T15:51:04Z</time>
      </trkpt>
      <trkpt lat="45.70741" lon="5.69685">
        <ele>229.24848129765</ele>
        <time>2015-05-16T15:51:09Z</time>
      </trkpt>
      <trkpt lat="45.70748" lon="5.69685">
        <ele>229.2400514356</ele>
        <time>2015-05-16T15:51:14Z</time>
      </trkpt>
      <trkpt lat="45.70756" lon="5.69686">
        <ele>229.2400514356</ele>
        <time>2015-05-16T15:51:19Z</time>
      </trkpt>
      <trkpt lat="45.70762" lon="5.69683">
        <ele>229.48226479856</ele>
        <time>2015-05-16T15:51:24Z</time>
      </trkpt>
      <trkpt lat="45.70769" lon="5.69679">
        <ele>229.48226479856</ele>
        <time>2015-05-16T15:51:29Z</time>
      </trkpt>
      <trkpt lat="45.70775" lon="5.69675">
        <ele>229.14936485859</ele>
        <time>2015-05-16T15:51:34Z</time>
      </trkpt>
      <trkpt lat="45.70781" lon="5.6967">
        <ele>229.14936485859</ele>
        <time>2015-05-16T15:51:39Z</time>
      </trkpt>
      <trkpt lat="45.70787" lon="5.69668">
        <ele>228.58752329937</ele>
        <time>2015-05-16T15:51:44Z</time>
      </trkpt>
      <trkpt lat="45.70792" lon="5.69669">
        <ele>228.58752329937</ele>
        <time>2015-05-16T15:51:49Z</time>
      </trkpt>
      <trkpt lat="45.70793" lon="5.69679">
        <ele>228.16135437968</ele>
        <time>2015-05-16T15:51:54Z</time>
      </trkpt>
      <trkpt lat="45.70798" lon="5.69689">
        <ele>228.16135437968</ele>
        <time>2015-05-16T15:51:59Z</time>
      </trkpt>
      <trkpt lat="45.70803" lon="5.697">
        <ele>227.87684490629</ele>
        <time>2015-05-16T15:52:04Z</time>
      </trkpt>
      <trkpt lat="45.70809" lon="5.69708">
        <ele>227.87684490629</ele>
        <time>2015-05-16T15:52:09Z</time>
      </trkpt>
      <trkpt lat="45.70812" lon="5.69717">
        <ele>227.49414467601</ele>
        <time>2015-05-16T15:52:14Z</time>
      </trkpt>
      <trkpt lat="45.70814" lon="5.69727">
        <ele>227.49414467601</ele>
        <time>2015-05-16T15:52:19Z</time>
      </trkpt>
      <trkpt lat="45.70818" lon="5.69736">
        <ele>227.06509492121</ele>
        <time>2015-05-16T15:52:24Z</time>
      </trkpt>
      <trkpt lat="45.70822" lon="5.69746">
        <ele>227.06509492121</ele>
        <time>2015-05-16T15:52:29Z</time>
      </trkpt>
      <trkpt lat="45.70825" lon="5.69757">
        <ele>227.40163157355</ele>
        <time>2015-05-16T15:52:34Z</time>
      </trkpt>
      <trkpt lat="45.70825" lon="5.69759">
        <ele>227.40163157355</ele>
        <time>2015-05-16T15:52:39Z</time>
      </trkpt>
      <trkpt lat="45.70825" lon="5.69761">
        <ele>227.40163157355</ele>
        <time>2015-05-16T15:52:44Z</time>
      </trkpt>
      <trkpt lat="45.70825" lon="5.69762">
        <ele>227.40163157355</ele>
        <time>2015-05-16T15:52:49Z</time>
      </trkpt>
      <trkpt lat="45.70826" lon="5.69763">
        <ele>227.40163157355</ele>
        <time>2015-05-16T15:52:54Z</time>
      </trkpt>
      <trkpt lat="45.70826" lon="5.69763">
        <ele>227.40163157355</ele>
        <time>2015-05-16T15:52:59Z</time>
      </trkpt>
      <trkpt lat="45.70826" lon="5.69763">
        <ele>227.40163157355</ele>
        <time>2015-05-16T15:53:04Z</time>
      </trkpt>
      <trkpt lat="45.70826" lon="5.69763">
        <ele>227.40163157355</ele>
        <time>2015-05-16T15:53:09Z</time>
      </trkpt>
      <trkpt lat="45.70827" lon="5.69764">
        <ele>227.40163157355</ele>
        <time>2015-05-16T15:53:14Z</time>
      </trkpt>
      <trkpt lat="45.70827" lon="5.69765">
        <ele>227.40163157355</ele>
        <time>2015-05-16T15:53:19Z</time>
      </trkpt>
      <trkpt lat="45.70827" lon="5.69765">
        <ele>227.40163157355</ele>
        <time>2015-05-16T15:53:24Z</time>
      </trkpt>
      <trkpt lat="45.70827" lon="5.69765">
        <ele>227.40163157355</ele>
        <time>2015-05-16T15:53:29Z</time>
      </trkpt>
      <trkpt lat="45.70827" lon="5.69765">
        <ele>227.40163157355</ele>
        <time>2015-05-16T15:53:34Z</time>
      </trkpt>
      <trkpt lat="45.70827" lon="5.69765">
        <ele>227.40163157355</ele>
        <time>2015-05-16T15:53:39Z</time>
      </trkpt>
      <trkpt lat="45.70827" lon="5.69765">
        <ele>227.40163157355</ele>
        <time>2015-05-16T15:53:44Z</time>
      </trkpt>
      <trkpt lat="45.70827" lon="5.69765">
        <ele>227.40163157355</ele>
        <time>2015-05-16T15:53:49Z</time>
      </trkpt>
      <trkpt lat="45.70827" lon="5.69765">
        <ele>227.40163157355</ele>
        <time>2015-05-16T15:53:54Z</time>
      </trkpt>
      <trkpt lat="45.70827" lon="5.69765">
        <ele>227.40163157355</ele>
        <time>2015-05-16T15:53:59Z</time>
      </trkpt>
      <trkpt lat="45.70827" lon="5.69765">
        <ele>227.40163157355</ele>
        <time>2015-05-16T15:54:04Z</time>
      </trkpt>
      <trkpt lat="45.70826" lon="5.69765">
        <ele>227.40163157355</ele>
        <time>2015-05-16T15:54:09Z</time>
      </trkpt>
      <trkpt lat="45.70826" lon="5.69766">
        <ele>227.40163157355</ele>
        <time>2015-05-16T15:54:14Z</time>
      </trkpt>
      <trkpt lat="45.70827" lon="5.69766">
        <ele>227.40163157355</ele>
        <time>2015-05-16T15:54:19Z</time>
      </trkpt>
      <trkpt lat="45.7083" lon="5.69768">
        <ele>227.89923688986</ele>
        <time>2015-05-16T15:54:24Z</time>
      </trkpt>
      <trkpt lat="45.70829" lon="5.69768">
        <ele>227.89923688986</ele>
        <time>2015-05-16T15:54:29Z</time>
      </trkpt>
      <trkpt lat="45.70829" lon="5.6977">
        <ele>227.89923688986</ele>
        <time>2015-05-16T15:54:34Z</time>
      </trkpt>
      <trkpt lat="45.70829" lon="5.6977">
        <ele>227.89923688986</ele>
        <time>2015-05-16T15:54:39Z</time>
      </trkpt>
      <trkpt lat="45.70829" lon="5.6977">
        <ele>227.89923688986</ele>
        <time>2015-05-16T15:54:44Z</time>
      </trkpt>
      <trkpt lat="45.70829" lon="5.69773">
        <ele>227.89923688986</ele>
        <time>2015-05-16T15:54:49Z</time>
      </trkpt>
      <trkpt lat="45.7083" lon="5.69779">
        <ele>227.79557669297</ele>
        <time>2015-05-16T15:54:54Z</time>
      </trkpt>
      <trkpt lat="45.70832" lon="5.69787">
        <ele>227.79557669297</ele>
        <time>2015-05-16T15:54:59Z</time>
      </trkpt>
      <trkpt lat="45.70834" lon="5.69793">
        <ele>228.20179049013</ele>
        <time>2015-05-16T15:55:04Z</time>
      </trkpt>
      <trkpt lat="45.70834" lon="5.69794">
        <ele>228.20179049013</ele>
        <time>2015-05-16T15:55:09Z</time>
      </trkpt>
      <trkpt lat="45.70834" lon="5.69794">
        <ele>228.20179049013</ele>
        <time>2015-05-16T15:55:14Z</time>
      </trkpt>
      <trkpt lat="45.70834" lon="5.69795">
        <ele>228.20179049013</ele>
        <time>2015-05-16T15:55:19Z</time>
      </trkpt>
      <trkpt lat="45.70834" lon="5.69795">
        <ele>228.20179049013</ele>
        <time>2015-05-16T15:55:24Z</time>
      </trkpt>
      <trkpt lat="45.70834" lon="5.69796">
        <ele>228.20179049013</ele>
        <time>2015-05-16T15:55:29Z</time>
      </trkpt>
      <trkpt lat="45.70834" lon="5.69797">
        <ele>228.20179049013</ele>
        <time>2015-05-16T15:55:34Z</time>
      </trkpt>
      <trkpt lat="45.70834" lon="5.69797">
        <ele>228.20179049013</ele>
        <time>2015-05-16T15:55:39Z</time>
      </trkpt>
      <trkpt lat="45.70835" lon="5.69796">
        <ele>228.20179049013</ele>
        <time>2015-05-16T15:55:44Z</time>
      </trkpt>
      <trkpt lat="45.70836" lon="5.69797">
        <ele>228.20179049013</ele>
        <time>2015-05-16T15:55:49Z</time>
      </trkpt>
      <trkpt lat="45.70838" lon="5.698">
        <ele>228.20179049013</ele>
        <time>2015-05-16T15:55:54Z</time>
      </trkpt>
      <trkpt lat="45.70841" lon="5.69807">
        <ele>227.79693880407</ele>
        <time>2015-05-16T15:55:59Z</time>
      </trkpt>
      <trkpt lat="45.70843" lon="5.69817">
        <ele>227.79693880407</ele>
        <time>2015-05-16T15:56:04Z</time>
      </trkpt>
      <trkpt lat="45.70844" lon="5.69829">
        <ele>227.29046966598</ele>
        <time>2015-05-16T15:56:09Z</time>
      </trkpt>
      <trkpt lat="45.70848" lon="5.69837">
        <ele>227.29046966598</ele>
        <time>2015-05-16T15:56:14Z</time>
      </trkpt>
      <trkpt lat="45.70854" lon="5.69845">
        <ele>226.93647525324</ele>
        <time>2015-05-16T15:56:19Z</time>
      </trkpt>
      <trkpt lat="45.7086" lon="5.6985">
        <ele>226.93647525324</ele>
        <time>2015-05-16T15:56:24Z</time>
      </trkpt>
      <trkpt lat="45.70867" lon="5.69854">
        <ele>226.73936095464</ele>
        <time>2015-05-16T15:56:29Z</time>
      </trkpt>
      <trkpt lat="45.70871" lon="5.69855">
        <ele>226.73936095464</ele>
        <time>2015-05-16T15:56:34Z</time>
      </trkpt>
      <trkpt lat="45.70878" lon="5.69855">
        <ele>226.93332896245</ele>
        <time>2015-05-16T15:56:39Z</time>
      </trkpt>
      <trkpt lat="45.70886" lon="5.69856">
        <ele>226.93332896245</ele>
        <time>2015-05-16T15:56:44Z</time>
      </trkpt>
      <trkpt lat="45.70894" lon="5.69856">
        <ele>226.65342765178</ele>
        <time>2015-05-16T15:56:49Z</time>
      </trkpt>
      <trkpt lat="45.70903" lon="5.69857">
        <ele>226.09392111</ele>
        <time>2015-05-16T15:56:54Z</time>
      </trkpt>
      <trkpt lat="45.70919" lon="5.69856">
        <ele>225.82466727518</ele>
        <time>2015-05-16T15:56:59Z</time>
      </trkpt>
      <trkpt lat="45.70934" lon="5.69856">
        <ele>225.30640407762</ele>
        <time>2015-05-16T15:57:04Z</time>
      </trkpt>
      <trkpt lat="45.70952" lon="5.69857">
        <ele>224.99129190968</ele>
        <time>2015-05-16T15:57:09Z</time>
      </trkpt>
      <trkpt lat="45.7097" lon="5.69858">
        <ele>224.92299179381</ele>
        <time>2015-05-16T15:57:14Z</time>
      </trkpt>
      <trkpt lat="45.70988" lon="5.6986">
        <ele>224.88183948422</ele>
        <time>2015-05-16T15:57:19Z</time>
      </trkpt>
      <trkpt lat="45.71006" lon="5.6986">
        <ele>225.18300655465</ele>
        <time>2015-05-16T15:57:24Z</time>
      </trkpt>
      <trkpt lat="45.71018" lon="5.6986">
        <ele>225.95900800642</ele>
        <time>2015-05-16T15:57:29Z</time>
      </trkpt>
      <trkpt lat="45.71025" lon="5.6986">
        <ele>225.95900800642</ele>
        <time>2015-05-16T15:57:34Z</time>
      </trkpt>
      <trkpt lat="45.71032" lon="5.69862">
        <ele>226.16397374572</ele>
        <time>2015-05-16T15:57:39Z</time>
      </trkpt>
      <trkpt lat="45.71039" lon="5.69862">
        <ele>226.16397374572</ele>
        <time>2015-05-16T15:57:44Z</time>
      </trkpt>
      <trkpt lat="45.71044" lon="5.69861">
        <ele>226.17068424362</ele>
        <time>2015-05-16T15:57:49Z</time>
      </trkpt>
      <trkpt lat="45.71048" lon="5.6986">
        <ele>226.17068424362</ele>
        <time>2015-05-16T15:57:54Z</time>
      </trkpt>
      <trkpt lat="45.71055" lon="5.69862">
        <ele>225.96480303343</ele>
        <time>2015-05-16T15:57:59Z</time>
      </trkpt>
      <trkpt lat="45.71059" lon="5.69862">
        <ele>225.96480303343</ele>
        <time>2015-05-16T15:58:04Z</time>
      </trkpt>
      <trkpt lat="45.71063" lon="5.69863">
        <ele>225.96480303343</ele>
        <time>2015-05-16T15:58:09Z</time>
      </trkpt>
      <trkpt lat="45.7107" lon="5.69861">
        <ele>225.31746656675</ele>
        <time>2015-05-16T15:58:14Z</time>
      </trkpt>
      <trkpt lat="45.71078" lon="5.69859">
        <ele>225.31746656675</ele>
        <time>2015-05-16T15:58:19Z</time>
      </trkpt>
      <trkpt lat="45.71086" lon="5.69857">
        <ele>224.45018397849</ele>
        <time>2015-05-16T15:58:24Z</time>
      </trkpt>
      <trkpt lat="45.71096" lon="5.69854">
        <ele>224.04436243698</ele>
        <time>2015-05-16T15:58:29Z</time>
      </trkpt>
      <trkpt lat="45.71105" lon="5.69851">
        <ele>223.79331933486</ele>
        <time>2015-05-16T15:58:34Z</time>
      </trkpt>
      <trkpt lat="45.71113" lon="5.69847">
        <ele>223.79331933486</ele>
        <time>2015-05-16T15:58:39Z</time>
      </trkpt>
      <trkpt lat="45.71121" lon="5.69844">
        <ele>223.75831428385</ele>
        <time>2015-05-16T15:58:44Z</time>
      </trkpt>
      <trkpt lat="45.7113" lon="5.69842">
        <ele>223.75831428385</ele>
        <time>2015-05-16T15:58:49Z</time>
      </trkpt>
      <trkpt lat="45.71136" lon="5.69839">
        <ele>223.31815769746</ele>
        <time>2015-05-16T15:58:54Z</time>
      </trkpt>
      <trkpt lat="45.71144" lon="5.69836">
        <ele>223.31815769746</ele>
        <time>2015-05-16T15:58:59Z</time>
      </trkpt>
      <trkpt lat="45.71154" lon="5.69835">
        <ele>223.45480935734</ele>
        <time>2015-05-16T15:59:04Z</time>
      </trkpt>
      <trkpt lat="45.71162" lon="5.69831">
        <ele>223.45480935734</ele>
        <time>2015-05-16T15:59:09Z</time>
      </trkpt>
      <trkpt lat="45.7117" lon="5.69827">
        <ele>223.52005714389</ele>
        <time>2015-05-16T15:59:14Z</time>
      </trkpt>
      <trkpt lat="45.71177" lon="5.69824">
        <ele>223.52005714389</ele>
        <time>2015-05-16T15:59:19Z</time>
      </trkpt>
      <trkpt lat="45.71184" lon="5.69821">
        <ele>223.57640046121</ele>
        <time>2015-05-16T15:59:24Z</time>
      </trkpt>
      <trkpt lat="45.71186" lon="5.69819">
        <ele>223.57640046121</ele>
        <time>2015-05-16T15:59:29Z</time>
      </trkpt>
      <trkpt lat="45.71213" lon="5.69815">
        <ele>224.63289246803</ele>
        <time>2015-05-16T15:59:44Z</time>
      </trkpt>
      <trkpt lat="45.71219" lon="5.69806">
        <ele>224.63289246803</ele>
        <time>2015-05-16T15:59:49Z</time>
      </trkpt>
      <trkpt lat="45.71225" lon="5.69801">
        <ele>224.85471196001</ele>
        <time>2015-05-16T15:59:54Z</time>
      </trkpt>
      <trkpt lat="45.71232" lon="5.69797">
        <ele>224.85471196001</ele>
        <time>2015-05-16T15:59:59Z</time>
      </trkpt>
      <trkpt lat="45.71239" lon="5.69793">
        <ele>224.79229252759</ele>
        <time>2015-05-16T16:00:04Z</time>
      </trkpt>
      <trkpt lat="45.71246" lon="5.69791">
        <ele>224.79229252759</ele>
        <time>2015-05-16T16:00:09Z</time>
      </trkpt>
      <trkpt lat="45.71255" lon="5.69789">
        <ele>224.91319538807</ele>
        <time>2015-05-16T16:00:14Z</time>
      </trkpt>
      <trkpt lat="45.71262" lon="5.69784">
        <ele>224.91319538807</ele>
        <time>2015-05-16T16:00:19Z</time>
      </trkpt>
      <trkpt lat="45.7127" lon="5.69781">
        <ele>224.90074353215</ele>
        <time>2015-05-16T16:00:24Z</time>
      </trkpt>
      <trkpt lat="45.71277" lon="5.69778">
        <ele>224.90074353215</ele>
        <time>2015-05-16T16:00:29Z</time>
      </trkpt>
      <trkpt lat="45.71284" lon="5.69776">
        <ele>224.51954270579</ele>
        <time>2015-05-16T16:00:34Z</time>
      </trkpt>
      <trkpt lat="45.71289" lon="5.69773">
        <ele>224.51954270579</ele>
        <time>2015-05-16T16:00:39Z</time>
      </trkpt>
      <trkpt lat="45.71297" lon="5.69772">
        <ele>224.31631537631</ele>
        <time>2015-05-16T16:00:44Z</time>
      </trkpt>
      <trkpt lat="45.71305" lon="5.69769">
        <ele>224.31631537631</ele>
        <time>2015-05-16T16:00:49Z</time>
      </trkpt>
      <trkpt lat="45.71313" lon="5.69767">
        <ele>224.43684599619</ele>
        <time>2015-05-16T16:00:54Z</time>
      </trkpt>
      <trkpt lat="45.71319" lon="5.69767">
        <ele>224.43684599619</ele>
        <time>2015-05-16T16:00:59Z</time>
      </trkpt>
      <trkpt lat="45.71328" lon="5.69766">
        <ele>224.58296896923</ele>
        <time>2015-05-16T16:01:04Z</time>
      </trkpt>
      <trkpt lat="45.71337" lon="5.69765">
        <ele>224.86745170238</ele>
        <time>2015-05-16T16:01:09Z</time>
      </trkpt>
      <trkpt lat="45.71344" lon="5.69763">
        <ele>224.86745170238</ele>
        <time>2015-05-16T16:01:14Z</time>
      </trkpt>
      <trkpt lat="45.71352" lon="5.69763">
        <ele>225.10617052251</ele>
        <time>2015-05-16T16:01:19Z</time>
      </trkpt>
      <trkpt lat="45.71359" lon="5.69763">
        <ele>225.10617052251</ele>
        <time>2015-05-16T16:01:24Z</time>
      </trkpt>
      <trkpt lat="45.71367" lon="5.69762">
        <ele>225.33041680399</ele>
        <time>2015-05-16T16:01:29Z</time>
      </trkpt>
      <trkpt lat="45.71374" lon="5.69761">
        <ele>225.33041680399</ele>
        <time>2015-05-16T16:01:34Z</time>
      </trkpt>
      <trkpt lat="45.71381" lon="5.69761">
        <ele>225.78539865142</ele>
        <time>2015-05-16T16:01:39Z</time>
      </trkpt>
      <trkpt lat="45.71387" lon="5.69762">
        <ele>225.78539865142</ele>
        <time>2015-05-16T16:01:44Z</time>
      </trkpt>
      <trkpt lat="45.71394" lon="5.69764">
        <ele>225.96270740303</ele>
        <time>2015-05-16T16:01:49Z</time>
      </trkpt>
      <trkpt lat="45.71401" lon="5.69766">
        <ele>225.96270740303</ele>
        <time>2015-05-16T16:01:54Z</time>
      </trkpt>
      <trkpt lat="45.7141" lon="5.69768">
        <ele>225.95410637375</ele>
        <time>2015-05-16T16:01:59Z</time>
      </trkpt>
      <trkpt lat="45.71418" lon="5.69768">
        <ele>225.95410637375</ele>
        <time>2015-05-16T16:02:04Z</time>
      </trkpt>
      <trkpt lat="45.71426" lon="5.69767">
        <ele>225.77309693114</ele>
        <time>2015-05-16T16:02:09Z</time>
      </trkpt>
      <trkpt lat="45.71434" lon="5.69768">
        <ele>225.77309693114</ele>
        <time>2015-05-16T16:02:14Z</time>
      </trkpt>
      <trkpt lat="45.71441" lon="5.69774">
        <ele>226.19647546302</ele>
        <time>2015-05-16T16:02:19Z</time>
      </trkpt>
      <trkpt lat="45.71448" lon="5.69781">
        <ele>226.19647546302</ele>
        <time>2015-05-16T16:02:24Z</time>
      </trkpt>
      <trkpt lat="45.71454" lon="5.69788">
        <ele>226.70293855119</ele>
        <time>2015-05-16T16:02:29Z</time>
      </trkpt>
      <trkpt lat="45.7146" lon="5.69796">
        <ele>226.70293855119</ele>
        <time>2015-05-16T16:02:34Z</time>
      </trkpt>
      <trkpt lat="45.71465" lon="5.69805">
        <ele>227.48658341928</ele>
        <time>2015-05-16T16:02:39Z</time>
      </trkpt>
      <trkpt lat="45.7147" lon="5.69814">
        <ele>227.48658341928</ele>
        <time>2015-05-16T16:02:44Z</time>
      </trkpt>
      <trkpt lat="45.71474" lon="5.69824">
        <ele>228.6256140359</ele>
        <time>2015-05-16T16:02:49Z</time>
      </trkpt>
      <trkpt lat="45.71477" lon="5.69833">
        <ele>228.6256140359</ele>
        <time>2015-05-16T16:02:54Z</time>
      </trkpt>
      <trkpt lat="45.7148" lon="5.69843">
        <ele>229.71595155619</ele>
        <time>2015-05-16T16:02:59Z</time>
      </trkpt>
      <trkpt lat="45.71482" lon="5.69853">
        <ele>229.71595155619</ele>
        <time>2015-05-16T16:03:04Z</time>
      </trkpt>
      <trkpt lat="45.71483" lon="5.69863">
        <ele>230.64276900901</ele>
        <time>2015-05-16T16:03:09Z</time>
      </trkpt>
      <trkpt lat="45.71483" lon="5.69874">
        <ele>230.64276900901</ele>
        <time>2015-05-16T16:03:14Z</time>
      </trkpt>
      <trkpt lat="45.71483" lon="5.69885">
        <ele>231.48751560179</ele>
        <time>2015-05-16T16:03:19Z</time>
      </trkpt>
      <trkpt lat="45.71483" lon="5.69896">
        <ele>231.48751560179</ele>
        <time>2015-05-16T16:03:24Z</time>
      </trkpt>
      <trkpt lat="45.71483" lon="5.69907">
        <ele>232.23946392267</ele>
        <time>2015-05-16T16:03:29Z</time>
      </trkpt>
      <trkpt lat="45.71484" lon="5.69917">
        <ele>232.23946392267</ele>
        <time>2015-05-16T16:03:34Z</time>
      </trkpt>
      <trkpt lat="45.71484" lon="5.69926">
        <ele>232.96103752957</ele>
        <time>2015-05-16T16:03:39Z</time>
      </trkpt>
      <trkpt lat="45.71484" lon="5.69936">
        <ele>232.96103752957</ele>
        <time>2015-05-16T16:03:44Z</time>
      </trkpt>
      <trkpt lat="45.71484" lon="5.69946">
        <ele>233.6381538722</ele>
        <time>2015-05-16T16:03:49Z</time>
      </trkpt>
      <trkpt lat="45.71484" lon="5.69956">
        <ele>233.6381538722</ele>
        <time>2015-05-16T16:03:54Z</time>
      </trkpt>
      <trkpt lat="45.71484" lon="5.69966">
        <ele>234.07059657957</ele>
        <time>2015-05-16T16:03:59Z</time>
      </trkpt>
      <trkpt lat="45.71484" lon="5.69977">
        <ele>234.07059657957</ele>
        <time>2015-05-16T16:04:04Z</time>
      </trkpt>
      <trkpt lat="45.71484" lon="5.69987">
        <ele>234.23211747122</ele>
        <time>2015-05-16T16:04:09Z</time>
      </trkpt>
      <trkpt lat="45.71485" lon="5.69999">
        <ele>234.23211747122</ele>
        <time>2015-05-16T16:04:14Z</time>
      </trkpt>
      <trkpt lat="45.71485" lon="5.7001">
        <ele>234.50271885386</ele>
        <time>2015-05-16T16:04:19Z</time>
      </trkpt>
      <trkpt lat="45.71486" lon="5.70022">
        <ele>234.50271885386</ele>
        <time>2015-05-16T16:04:24Z</time>
      </trkpt>
      <trkpt lat="45.71486" lon="5.70032">
        <ele>234.68660895311</ele>
        <time>2015-05-16T16:04:29Z</time>
      </trkpt>
      <trkpt lat="45.71486" lon="5.70043">
        <ele>234.68660895311</ele>
        <time>2015-05-16T16:04:34Z</time>
      </trkpt>
      <trkpt lat="45.71486" lon="5.70054">
        <ele>234.84765734333</ele>
        <time>2015-05-16T16:04:39Z</time>
      </trkpt>
      <trkpt lat="45.71486" lon="5.70065">
        <ele>234.84765734333</ele>
        <time>2015-05-16T16:04:44Z</time>
      </trkpt>
      <trkpt lat="45.71487" lon="5.70075">
        <ele>234.91544898383</ele>
        <time>2015-05-16T16:04:49Z</time>
      </trkpt>
      <trkpt lat="45.71487" lon="5.70086">
        <ele>234.91544898383</ele>
        <time>2015-05-16T16:04:54Z</time>
      </trkpt>
      <trkpt lat="45.71486" lon="5.70097">
        <ele>235.07003213419</ele>
        <time>2015-05-16T16:04:59Z</time>
      </trkpt>
      <trkpt lat="45.71487" lon="5.70108">
        <ele>235.07003213419</ele>
        <time>2015-05-16T16:05:04Z</time>
      </trkpt>
      <trkpt lat="45.71487" lon="5.70119">
        <ele>234.93039920844</ele>
        <time>2015-05-16T16:05:09Z</time>
      </trkpt>
      <trkpt lat="45.71487" lon="5.7013">
        <ele>234.93039920844</ele>
        <time>2015-05-16T16:05:14Z</time>
      </trkpt>
      <trkpt lat="45.71487" lon="5.70142">
        <ele>234.93700053755</ele>
        <time>2015-05-16T16:05:19Z</time>
      </trkpt>
      <trkpt lat="45.71487" lon="5.70151">
        <ele>234.93700053755</ele>
        <time>2015-05-16T16:05:24Z</time>
      </trkpt>
      <trkpt lat="45.71487" lon="5.70161">
        <ele>234.87787148267</ele>
        <time>2015-05-16T16:05:29Z</time>
      </trkpt>
      <trkpt lat="45.71486" lon="5.70169">
        <ele>234.87787148267</ele>
        <time>2015-05-16T16:05:34Z</time>
      </trkpt>
      <trkpt lat="45.71479" lon="5.70168">
        <ele>234.49918199246</ele>
        <time>2015-05-16T16:05:39Z</time>
      </trkpt>
      <trkpt lat="45.71473" lon="5.70161">
        <ele>234.49918199246</ele>
        <time>2015-05-16T16:05:44Z</time>
      </trkpt>
      <trkpt lat="45.71471" lon="5.7015">
        <ele>232.99021688889</ele>
        <time>2015-05-16T16:05:49Z</time>
      </trkpt>
      <trkpt lat="45.71471" lon="5.7014">
        <ele>232.99021688889</ele>
        <time>2015-05-16T16:05:54Z</time>
      </trkpt>
      <trkpt lat="45.7147" lon="5.70129">
        <ele>231.20262813073</ele>
        <time>2015-05-16T16:05:59Z</time>
      </trkpt>
      <trkpt lat="45.7147" lon="5.70119">
        <ele>231.20262813073</ele>
        <time>2015-05-16T16:06:04Z</time>
      </trkpt>
      <trkpt lat="45.71469" lon="5.70108">
        <ele>229.47953885853</ele>
        <time>2015-05-16T16:06:09Z</time>
      </trkpt>
      <trkpt lat="45.71468" lon="5.70095">
        <ele>229.47953885853</ele>
        <time>2015-05-16T16:06:14Z</time>
      </trkpt>
      <trkpt lat="45.71469" lon="5.70086">
        <ele>228.00896805713</ele>
        <time>2015-05-16T16:06:19Z</time>
      </trkpt>
      <trkpt lat="45.71472" lon="5.70079">
        <ele>228.00896805713</ele>
        <time>2015-05-16T16:06:24Z</time>
      </trkpt>
      <trkpt lat="45.71478" lon="5.70073">
        <ele>226.61851625485</ele>
        <time>2015-05-16T16:06:29Z</time>
      </trkpt>
      <trkpt lat="45.71486" lon="5.70072">
        <ele>226.61851625485</ele>
        <time>2015-05-16T16:06:34Z</time>
      </trkpt>
      <trkpt lat="45.71493" lon="5.7007">
        <ele>225.34993550223</ele>
        <time>2015-05-16T16:06:39Z</time>
      </trkpt>
      <trkpt lat="45.71501" lon="5.7007">
        <ele>225.34993550223</ele>
        <time>2015-05-16T16:06:44Z</time>
      </trkpt>
      <trkpt lat="45.7151" lon="5.70072">
        <ele>224.97648344219</ele>
        <time>2015-05-16T16:06:49Z</time>
      </trkpt>
      <trkpt lat="45.71518" lon="5.70075">
        <ele>224.97648344219</ele>
        <time>2015-05-16T16:06:54Z</time>
      </trkpt>
      <trkpt lat="45.71527" lon="5.70077">
        <ele>224.90063417674</ele>
        <time>2015-05-16T16:06:59Z</time>
      </trkpt>
      <trkpt lat="45.71552" lon="5.70078">
        <ele>224.85608325455</ele>
        <time>2015-05-16T16:07:04Z</time>
      </trkpt>
      <trkpt lat="45.71578" lon="5.70076">
        <ele>224.76887519275</ele>
        <time>2015-05-16T16:07:09Z</time>
      </trkpt>
      <trkpt lat="45.71611" lon="5.70076">
        <ele>224.68583930767</ele>
        <time>2015-05-16T16:07:14Z</time>
      </trkpt>
      <trkpt lat="45.71646" lon="5.70075">
        <ele>224.78000001352</ele>
        <time>2015-05-16T16:07:19Z</time>
      </trkpt>
      <trkpt lat="45.71675" lon="5.70075">
        <ele>224.99495807367</ele>
        <time>2015-05-16T16:07:24Z</time>
      </trkpt>
      <trkpt lat="45.71706" lon="5.70076">
        <ele>224.93220561243</ele>
        <time>2015-05-16T16:07:29Z</time>
      </trkpt>
      <trkpt lat="45.71737" lon="5.70072">
        <ele>225.03026838272</ele>
        <time>2015-05-16T16:07:34Z</time>
      </trkpt>
      <trkpt lat="45.71767" lon="5.70071">
        <ele>224.88794595055</ele>
        <time>2015-05-16T16:07:39Z</time>
      </trkpt>
      <trkpt lat="45.71798" lon="5.70071">
        <ele>224.20620306555</ele>
        <time>2015-05-16T16:07:44Z</time>
      </trkpt>
      <trkpt lat="45.71831" lon="5.70071">
        <ele>223.76146055583</ele>
        <time>2015-05-16T16:07:49Z</time>
      </trkpt>
      <trkpt lat="45.71864" lon="5.7007">
        <ele>223.42214770059</ele>
        <time>2015-05-16T16:07:54Z</time>
      </trkpt>
      <trkpt lat="45.71897" lon="5.70069">
        <ele>223.2245498103</ele>
        <time>2015-05-16T16:07:59Z</time>
      </trkpt>
      <trkpt lat="45.71929" lon="5.7007">
        <ele>222.8415753731</ele>
        <time>2015-05-16T16:08:04Z</time>
      </trkpt>
      <trkpt lat="45.71961" lon="5.7007">
        <ele>222.60473483914</ele>
        <time>2015-05-16T16:08:09Z</time>
      </trkpt>
      <trkpt lat="45.71992" lon="5.70068">
        <ele>222.34517509426</ele>
        <time>2015-05-16T16:08:14Z</time>
      </trkpt>
      <trkpt lat="45.7202" lon="5.70066">
        <ele>222.35322256438</ele>
        <time>2015-05-16T16:08:19Z</time>
      </trkpt>
      <trkpt lat="45.72042" lon="5.70068">
        <ele>222.21977223591</ele>
        <time>2015-05-16T16:08:24Z</time>
      </trkpt>
      <trkpt lat="45.72051" lon="5.70068">
        <ele>222.21977223591</ele>
        <time>2015-05-16T16:08:29Z</time>
      </trkpt>
      <trkpt lat="45.7206" lon="5.7007">
        <ele>222.60374103267</ele>
        <time>2015-05-16T16:08:34Z</time>
      </trkpt>
      <trkpt lat="45.72068" lon="5.70071">
        <ele>222.60374103267</ele>
        <time>2015-05-16T16:08:39Z</time>
      </trkpt>
      <trkpt lat="45.72067" lon="5.7007">
        <ele>222.60374103267</ele>
        <time>2015-05-16T16:08:44Z</time>
      </trkpt>
      <trkpt lat="45.72072" lon="5.70072">
        <ele>222.96127709241</ele>
        <time>2015-05-16T16:08:49Z</time>
      </trkpt>
      <trkpt lat="45.7208" lon="5.70081">
        <ele>223.26410083338</ele>
        <time>2015-05-16T16:08:54Z</time>
      </trkpt>
      <trkpt lat="45.72087" lon="5.70083">
        <ele>223.26410083338</ele>
        <time>2015-05-16T16:08:59Z</time>
      </trkpt>
      <trkpt lat="45.72094" lon="5.70084">
        <ele>223.67349346034</ele>
        <time>2015-05-16T16:09:04Z</time>
      </trkpt>
      <trkpt lat="45.721" lon="5.70088">
        <ele>223.67349346034</ele>
        <time>2015-05-16T16:09:09Z</time>
      </trkpt>
      <trkpt lat="45.72106" lon="5.70093">
        <ele>224.3818143281</ele>
        <time>2015-05-16T16:09:14Z</time>
      </trkpt>
      <trkpt lat="45.72113" lon="5.70099">
        <ele>224.3818143281</ele>
        <time>2015-05-16T16:09:19Z</time>
      </trkpt>
      <trkpt lat="45.7212" lon="5.70103">
        <ele>225.27822901796</ele>
        <time>2015-05-16T16:09:24Z</time>
      </trkpt>
      <trkpt lat="45.72127" lon="5.70109">
        <ele>225.27822901796</ele>
        <time>2015-05-16T16:09:29Z</time>
      </trkpt>
      <trkpt lat="45.72134" lon="5.70111">
        <ele>226.07217722911</ele>
        <time>2015-05-16T16:09:34Z</time>
      </trkpt>
      <trkpt lat="45.72142" lon="5.70114">
        <ele>226.07217722911</ele>
        <time>2015-05-16T16:09:39Z</time>
      </trkpt>
      <trkpt lat="45.72149" lon="5.70119">
        <ele>226.84060889527</ele>
        <time>2015-05-16T16:09:44Z</time>
      </trkpt>
      <trkpt lat="45.72155" lon="5.70125">
        <ele>226.84060889527</ele>
        <time>2015-05-16T16:09:49Z</time>
      </trkpt>
      <trkpt lat="45.72162" lon="5.70129">
        <ele>227.65491160406</ele>
        <time>2015-05-16T16:09:54Z</time>
      </trkpt>
      <trkpt lat="45.7217" lon="5.70133">
        <ele>227.65491160406</ele>
        <time>2015-05-16T16:09:59Z</time>
      </trkpt>
      <trkpt lat="45.72177" lon="5.70133">
        <ele>228.03350237868</ele>
        <time>2015-05-16T16:10:04Z</time>
      </trkpt>
      <trkpt lat="45.72184" lon="5.70131">
        <ele>228.03350237868</ele>
        <time>2015-05-16T16:10:09Z</time>
      </trkpt>
      <trkpt lat="45.72191" lon="5.70131">
        <ele>228.35286020035</ele>
        <time>2015-05-16T16:10:14Z</time>
      </trkpt>
      <trkpt lat="45.72198" lon="5.70134">
        <ele>228.35286020035</ele>
        <time>2015-05-16T16:10:19Z</time>
      </trkpt>
      <trkpt lat="45.72205" lon="5.70139">
        <ele>228.71701780232</ele>
        <time>2015-05-16T16:10:24Z</time>
      </trkpt>
      <trkpt lat="45.72211" lon="5.70143">
        <ele>228.71701780232</ele>
        <time>2015-05-16T16:10:29Z</time>
      </trkpt>
      <trkpt lat="45.72211" lon="5.70145">
        <ele>228.71701780232</ele>
        <time>2015-05-16T16:10:34Z</time>
      </trkpt>
      <trkpt lat="45.72212" lon="5.70146">
        <ele>229.00610774224</ele>
        <time>2015-05-16T16:10:39Z</time>
      </trkpt>
      <trkpt lat="45.72213" lon="5.70145">
        <ele>229.00610774224</ele>
        <time>2015-05-16T16:10:44Z</time>
      </trkpt>
      <trkpt lat="45.7222" lon="5.70145">
        <ele>229.00610774224</ele>
        <time>2015-05-16T16:10:49Z</time>
      </trkpt>
      <trkpt lat="45.72229" lon="5.70148">
        <ele>228.99402450356</ele>
        <time>2015-05-16T16:10:54Z</time>
      </trkpt>
      <trkpt lat="45.72236" lon="5.70152">
        <ele>228.99402450356</ele>
        <time>2015-05-16T16:10:59Z</time>
      </trkpt>
      <trkpt lat="45.72244" lon="5.70156">
        <ele>229.06300758839</ele>
        <time>2015-05-16T16:11:04Z</time>
      </trkpt>
      <trkpt lat="45.72251" lon="5.7016">
        <ele>229.06300758839</ele>
        <time>2015-05-16T16:11:09Z</time>
      </trkpt>
      <trkpt lat="45.72259" lon="5.70164">
        <ele>229.32203532081</ele>
        <time>2015-05-16T16:11:14Z</time>
      </trkpt>
      <trkpt lat="45.72265" lon="5.70168">
        <ele>229.32203532081</ele>
        <time>2015-05-16T16:11:19Z</time>
      </trkpt>
      <trkpt lat="45.72273" lon="5.7017">
        <ele>229.66982542279</ele>
        <time>2015-05-16T16:11:24Z</time>
      </trkpt>
      <trkpt lat="45.72281" lon="5.7017">
        <ele>229.66982542279</ele>
        <time>2015-05-16T16:11:29Z</time>
      </trkpt>
      <trkpt lat="45.72289" lon="5.7017">
        <ele>229.89703079946</ele>
        <time>2015-05-16T16:11:34Z</time>
      </trkpt>
      <trkpt lat="45.72296" lon="5.70169">
        <ele>229.89703079946</ele>
        <time>2015-05-16T16:11:39Z</time>
      </trkpt>
      <trkpt lat="45.72304" lon="5.70169">
        <ele>230.11268735901</ele>
        <time>2015-05-16T16:11:44Z</time>
      </trkpt>
      <trkpt lat="45.72311" lon="5.70169">
        <ele>230.11268735901</ele>
        <time>2015-05-16T16:11:49Z</time>
      </trkpt>
      <trkpt lat="45.72318" lon="5.7017">
        <ele>230.30259734696</ele>
        <time>2015-05-16T16:11:54Z</time>
      </trkpt>
      <trkpt lat="45.72325" lon="5.70172">
        <ele>230.30259734696</ele>
        <time>2015-05-16T16:11:59Z</time>
      </trkpt>
      <trkpt lat="45.72332" lon="5.70176">
        <ele>230.49694369833</ele>
        <time>2015-05-16T16:12:04Z</time>
      </trkpt>
      <trkpt lat="45.72339" lon="5.70178">
        <ele>230.49694369833</ele>
        <time>2015-05-16T16:12:09Z</time>
      </trkpt>
      <trkpt lat="45.72345" lon="5.70181">
        <ele>230.85341143758</ele>
        <time>2015-05-16T16:12:14Z</time>
      </trkpt>
      <trkpt lat="45.7235" lon="5.70187">
        <ele>230.85341143758</ele>
        <time>2015-05-16T16:12:19Z</time>
      </trkpt>
      <trkpt lat="45.72355" lon="5.70192">
        <ele>231.22945639756</ele>
        <time>2015-05-16T16:12:24Z</time>
      </trkpt>
      <trkpt lat="45.72361" lon="5.70197">
        <ele>231.22945639756</ele>
        <time>2015-05-16T16:12:29Z</time>
      </trkpt>
      <trkpt lat="45.72368" lon="5.70201">
        <ele>231.40651499116</ele>
        <time>2015-05-16T16:12:34Z</time>
      </trkpt>
      <trkpt lat="45.72374" lon="5.70206">
        <ele>231.40651499116</ele>
        <time>2015-05-16T16:12:39Z</time>
      </trkpt>
      <trkpt lat="45.7238" lon="5.70212">
        <ele>231.45647902324</ele>
        <time>2015-05-16T16:12:44Z</time>
      </trkpt>
      <trkpt lat="45.72385" lon="5.7022">
        <ele>231.45647902324</ele>
        <time>2015-05-16T16:12:49Z</time>
      </trkpt>
      <trkpt lat="45.72389" lon="5.70228">
        <ele>231.69133446888</ele>
        <time>2015-05-16T16:12:54Z</time>
      </trkpt>
      <trkpt lat="45.72392" lon="5.70237">
        <ele>231.69133446888</ele>
        <time>2015-05-16T16:12:59Z</time>
      </trkpt>
      <trkpt lat="45.72394" lon="5.70246">
        <ele>232.11143703599</ele>
        <time>2015-05-16T16:13:04Z</time>
      </trkpt>
      <trkpt lat="45.72399" lon="5.70254">
        <ele>232.11143703599</ele>
        <time>2015-05-16T16:13:09Z</time>
      </trkpt>
      <trkpt lat="45.72404" lon="5.70261">
        <ele>232.47163593068</ele>
        <time>2015-05-16T16:13:14Z</time>
      </trkpt>
      <trkpt lat="45.72409" lon="5.70268">
        <ele>232.47163593068</ele>
        <time>2015-05-16T16:13:19Z</time>
      </trkpt>
      <trkpt lat="45.72414" lon="5.70275">
        <ele>233.09260791625</ele>
        <time>2015-05-16T16:13:24Z</time>
      </trkpt>
      <trkpt lat="45.72419" lon="5.70282">
        <ele>233.09260791625</ele>
        <time>2015-05-16T16:13:29Z</time>
      </trkpt>
      <trkpt lat="45.72424" lon="5.70289">
        <ele>233.55021471973</ele>
        <time>2015-05-16T16:13:34Z</time>
      </trkpt>
      <trkpt lat="45.72431" lon="5.70293">
        <ele>233.55021471973</ele>
        <time>2015-05-16T16:13:39Z</time>
      </trkpt>
      <trkpt lat="45.72437" lon="5.70297">
        <ele>233.71136289475</ele>
        <time>2015-05-16T16:13:44Z</time>
      </trkpt>
      <trkpt lat="45.72444" lon="5.703">
        <ele>233.71136289475</ele>
        <time>2015-05-16T16:13:49Z</time>
      </trkpt>
      <trkpt lat="45.7245" lon="5.70304">
        <ele>233.6841746513</ele>
        <time>2015-05-16T16:13:54Z</time>
      </trkpt>
      <trkpt lat="45.72457" lon="5.70307">
        <ele>233.6841746513</ele>
        <time>2015-05-16T16:13:59Z</time>
      </trkpt>
      <trkpt lat="45.72463" lon="5.70311">
        <ele>233.72790830167</ele>
        <time>2015-05-16T16:14:04Z</time>
      </trkpt>
      <trkpt lat="45.72471" lon="5.70314">
        <ele>233.72790830167</ele>
        <time>2015-05-16T16:14:09Z</time>
      </trkpt>
      <trkpt lat="45.72478" lon="5.70318">
        <ele>233.57821469045</ele>
        <time>2015-05-16T16:14:14Z</time>
      </trkpt>
      <trkpt lat="45.72484" lon="5.70321">
        <ele>233.57821469045</ele>
        <time>2015-05-16T16:14:19Z</time>
      </trkpt>
      <trkpt lat="45.72491" lon="5.70323">
        <ele>233.32218393543</ele>
        <time>2015-05-16T16:14:24Z</time>
      </trkpt>
      <trkpt lat="45.72497" lon="5.70327">
        <ele>233.32218393543</ele>
        <time>2015-05-16T16:14:29Z</time>
      </trkpt>
      <trkpt lat="45.72504" lon="5.70331">
        <ele>232.82465778512</ele>
        <time>2015-05-16T16:14:34Z</time>
      </trkpt>
      <trkpt lat="45.7251" lon="5.70334">
        <ele>232.82465778512</ele>
        <time>2015-05-16T16:14:39Z</time>
      </trkpt>
      <trkpt lat="45.72518" lon="5.70338">
        <ele>232.43666387598</ele>
        <time>2015-05-16T16:14:44Z</time>
      </trkpt>
      <trkpt lat="45.72524" lon="5.70342">
        <ele>232.43666387598</ele>
        <time>2015-05-16T16:14:49Z</time>
      </trkpt>
      <trkpt lat="45.72532" lon="5.70345">
        <ele>232.23815532582</ele>
        <time>2015-05-16T16:14:54Z</time>
      </trkpt>
      <trkpt lat="45.72538" lon="5.70348">
        <ele>232.23815532582</ele>
        <time>2015-05-16T16:14:59Z</time>
      </trkpt>
      <trkpt lat="45.72545" lon="5.70347">
        <ele>231.92799446772</ele>
        <time>2015-05-16T16:15:04Z</time>
      </trkpt>
      <trkpt lat="45.72552" lon="5.70345">
        <ele>231.92799446772</ele>
        <time>2015-05-16T16:15:09Z</time>
      </trkpt>
      <trkpt lat="45.7256" lon="5.70344">
        <ele>231.24188742655</ele>
        <time>2015-05-16T16:15:14Z</time>
      </trkpt>
      <trkpt lat="45.72567" lon="5.70345">
        <ele>231.24188742655</ele>
        <time>2015-05-16T16:15:19Z</time>
      </trkpt>
      <trkpt lat="45.72574" lon="5.70344">
        <ele>230.35392505913</ele>
        <time>2015-05-16T16:15:24Z</time>
      </trkpt>
      <trkpt lat="45.72581" lon="5.70341">
        <ele>230.35392505913</ele>
        <time>2015-05-16T16:15:29Z</time>
      </trkpt>
      <trkpt lat="45.72588" lon="5.70337">
        <ele>229.38272940141</ele>
        <time>2015-05-16T16:15:34Z</time>
      </trkpt>
      <trkpt lat="45.72595" lon="5.70333">
        <ele>229.38272940141</ele>
        <time>2015-05-16T16:15:39Z</time>
      </trkpt>
      <trkpt lat="45.72602" lon="5.70329">
        <ele>228.56812238475</ele>
        <time>2015-05-16T16:15:44Z</time>
      </trkpt>
      <trkpt lat="45.72608" lon="5.70323">
        <ele>228.56812238475</ele>
        <time>2015-05-16T16:15:49Z</time>
      </trkpt>
      <trkpt lat="45.72614" lon="5.70319">
        <ele>227.95890976869</ele>
        <time>2015-05-16T16:15:54Z</time>
      </trkpt>
      <trkpt lat="45.72616" lon="5.70319">
        <ele>227.95890976869</ele>
        <time>2015-05-16T16:15:59Z</time>
      </trkpt>
      <trkpt lat="45.72616" lon="5.70319">
        <ele>227.95890976869</ele>
        <time>2015-05-16T16:16:04Z</time>
      </trkpt>
      <trkpt lat="45.7262" lon="5.70316">
        <ele>227.95890976869</ele>
        <time>2015-05-16T16:16:09Z</time>
      </trkpt>
      <trkpt lat="45.72626" lon="5.70308">
        <ele>227.51323731162</ele>
        <time>2015-05-16T16:16:14Z</time>
      </trkpt>
      <trkpt lat="45.72632" lon="5.70301">
        <ele>227.51323731162</ele>
        <time>2015-05-16T16:16:19Z</time>
      </trkpt>
      <trkpt lat="45.7264" lon="5.70296">
        <ele>227.16300845754</ele>
        <time>2015-05-16T16:16:24Z</time>
      </trkpt>
      <trkpt lat="45.72647" lon="5.70293">
        <ele>227.16300845754</ele>
        <time>2015-05-16T16:16:29Z</time>
      </trkpt>
      <trkpt lat="45.72654" lon="5.7029">
        <ele>226.71512260389</ele>
        <time>2015-05-16T16:16:34Z</time>
      </trkpt>
      <trkpt lat="45.72661" lon="5.70287">
        <ele>226.71512260389</ele>
        <time>2015-05-16T16:16:39Z</time>
      </trkpt>
      <trkpt lat="45.72667" lon="5.70282">
        <ele>226.63939877663</ele>
        <time>2015-05-16T16:16:44Z</time>
      </trkpt>
      <trkpt lat="45.72675" lon="5.70279">
        <ele>226.63939877663</ele>
        <time>2015-05-16T16:16:49Z</time>
      </trkpt>
      <trkpt lat="45.72681" lon="5.70273">
        <ele>226.57744818081</ele>
        <time>2015-05-16T16:16:54Z</time>
      </trkpt>
      <trkpt lat="45.72688" lon="5.70269">
        <ele>226.57744818081</ele>
        <time>2015-05-16T16:16:59Z</time>
      </trkpt>
      <trkpt lat="45.72695" lon="5.70266">
        <ele>226.70152079966</ele>
        <time>2015-05-16T16:17:04Z</time>
      </trkpt>
      <trkpt lat="45.72702" lon="5.70265">
        <ele>226.70152079966</ele>
        <time>2015-05-16T16:17:09Z</time>
      </trkpt>
      <trkpt lat="45.72709" lon="5.70262">
        <ele>226.79596558112</ele>
        <time>2015-05-16T16:17:14Z</time>
      </trkpt>
      <trkpt lat="45.72715" lon="5.70257">
        <ele>226.79596558112</ele>
        <time>2015-05-16T16:17:19Z</time>
      </trkpt>
      <trkpt lat="45.72721" lon="5.70254">
        <ele>226.81954434468</ele>
        <time>2015-05-16T16:17:24Z</time>
      </trkpt>
      <trkpt lat="45.72728" lon="5.70251">
        <ele>226.81954434468</ele>
        <time>2015-05-16T16:17:29Z</time>
      </trkpt>
      <trkpt lat="45.72735" lon="5.7025">
        <ele>227.05126062382</ele>
        <time>2015-05-16T16:17:34Z</time>
      </trkpt>
      <trkpt lat="45.72742" lon="5.70245">
        <ele>227.05126062382</ele>
        <time>2015-05-16T16:17:39Z</time>
      </trkpt>
      <trkpt lat="45.72749" lon="5.70241">
        <ele>227.3022663841</ele>
        <time>2015-05-16T16:17:44Z</time>
      </trkpt>
      <trkpt lat="45.72756" lon="5.70236">
        <ele>227.3022663841</ele>
        <time>2015-05-16T16:17:49Z</time>
      </trkpt>
      <trkpt lat="45.72762" lon="5.70233">
        <ele>227.49838569225</ele>
        <time>2015-05-16T16:17:54Z</time>
      </trkpt>
      <trkpt lat="45.72769" lon="5.70231">
        <ele>227.49838569225</ele>
        <time>2015-05-16T16:17:59Z</time>
      </trkpt>
      <trkpt lat="45.72776" lon="5.70228">
        <ele>227.67190247966</ele>
        <time>2015-05-16T16:18:04Z</time>
      </trkpt>
      <trkpt lat="45.72781" lon="5.70225">
        <ele>227.67190247966</ele>
        <time>2015-05-16T16:18:09Z</time>
      </trkpt>
      <trkpt lat="45.72788" lon="5.70222">
        <ele>227.75189710489</ele>
        <time>2015-05-16T16:18:14Z</time>
      </trkpt>
      <trkpt lat="45.72795" lon="5.70219">
        <ele>227.75189710489</ele>
        <time>2015-05-16T16:18:19Z</time>
      </trkpt>
      <trkpt lat="45.72802" lon="5.70218">
        <ele>227.98995202738</ele>
        <time>2015-05-16T16:18:24Z</time>
      </trkpt>
      <trkpt lat="45.7281" lon="5.70216">
        <ele>227.98995202738</ele>
        <time>2015-05-16T16:18:29Z</time>
      </trkpt>
      <trkpt lat="45.72817" lon="5.70214">
        <ele>228.15755758464</ele>
        <time>2015-05-16T16:18:34Z</time>
      </trkpt>
      <trkpt lat="45.72825" lon="5.70213">
        <ele>228.15755758464</ele>
        <time>2015-05-16T16:18:39Z</time>
      </trkpt>
      <trkpt lat="45.72832" lon="5.70213">
        <ele>228.34581203408</ele>
        <time>2015-05-16T16:18:44Z</time>
      </trkpt>
      <trkpt lat="45.7284" lon="5.70215">
        <ele>228.34581203408</ele>
        <time>2015-05-16T16:18:49Z</time>
      </trkpt>
      <trkpt lat="45.72848" lon="5.70217">
        <ele>228.48053440243</ele>
        <time>2015-05-16T16:18:54Z</time>
      </trkpt>
      <trkpt lat="45.72854" lon="5.7022">
        <ele>228.48053440243</ele>
        <time>2015-05-16T16:18:59Z</time>
      </trkpt>
      <trkpt lat="45.7286" lon="5.70224">
        <ele>228.08962624013</ele>
        <time>2015-05-16T16:19:04Z</time>
      </trkpt>
      <trkpt lat="45.72865" lon="5.70231">
        <ele>228.08962624013</ele>
        <time>2015-05-16T16:19:09Z</time>
      </trkpt>
      <trkpt lat="45.72871" lon="5.70237">
        <ele>227.81797237221</ele>
        <time>2015-05-16T16:19:14Z</time>
      </trkpt>
      <trkpt lat="45.72877" lon="5.70242">
        <ele>227.81797237221</ele>
        <time>2015-05-16T16:19:19Z</time>
      </trkpt>
      <trkpt lat="45.72883" lon="5.70247">
        <ele>227.6718891062</ele>
        <time>2015-05-16T16:19:24Z</time>
      </trkpt>
      <trkpt lat="45.72889" lon="5.70252">
        <ele>227.6718891062</ele>
        <time>2015-05-16T16:19:29Z</time>
      </trkpt>
      <trkpt lat="45.72895" lon="5.70258">
        <ele>227.42629221774</ele>
        <time>2015-05-16T16:19:34Z</time>
      </trkpt>
      <trkpt lat="45.72901" lon="5.70264">
        <ele>227.42629221774</ele>
        <time>2015-05-16T16:19:39Z</time>
      </trkpt>
      <trkpt lat="45.72908" lon="5.7027">
        <ele>227.39170402879</ele>
        <time>2015-05-16T16:19:44Z</time>
      </trkpt>
      <trkpt lat="45.72914" lon="5.70276">
        <ele>227.39170402879</ele>
        <time>2015-05-16T16:19:49Z</time>
      </trkpt>
      <trkpt lat="45.72922" lon="5.7028">
        <ele>227.58142555711</ele>
        <time>2015-05-16T16:19:54Z</time>
      </trkpt>
      <trkpt lat="45.72927" lon="5.70287">
        <ele>227.58142555711</ele>
        <time>2015-05-16T16:19:59Z</time>
      </trkpt>
      <trkpt lat="45.72934" lon="5.70292">
        <ele>227.53157759809</ele>
        <time>2015-05-16T16:20:04Z</time>
      </trkpt>
      <trkpt lat="45.72939" lon="5.70299">
        <ele>227.53157759809</ele>
        <time>2015-05-16T16:20:09Z</time>
      </trkpt>
      <trkpt lat="45.72945" lon="5.70305">
        <ele>227.15888925704</ele>
        <time>2015-05-16T16:20:14Z</time>
      </trkpt>
      <trkpt lat="45.7295" lon="5.70312">
        <ele>227.15888925704</ele>
        <time>2015-05-16T16:20:19Z</time>
      </trkpt>
      <trkpt lat="45.72955" lon="5.70321">
        <ele>226.93472817807</ele>
        <time>2015-05-16T16:20:24Z</time>
      </trkpt>
      <trkpt lat="45.72962" lon="5.70326">
        <ele>226.93472817807</ele>
        <time>2015-05-16T16:20:29Z</time>
      </trkpt>
      <trkpt lat="45.72969" lon="5.70333">
        <ele>226.96395674418</ele>
        <time>2015-05-16T16:20:34Z</time>
      </trkpt>
      <trkpt lat="45.72975" lon="5.70339">
        <ele>226.96395674418</ele>
        <time>2015-05-16T16:20:39Z</time>
      </trkpt>
      <trkpt lat="45.72981" lon="5.70346">
        <ele>227.51595091365</ele>
        <time>2015-05-16T16:20:44Z</time>
      </trkpt>
      <trkpt lat="45.72987" lon="5.70353">
        <ele>227.51595091365</ele>
        <time>2015-05-16T16:20:49Z</time>
      </trkpt>
      <trkpt lat="45.72993" lon="5.70358">
        <ele>227.78681577626</ele>
        <time>2015-05-16T16:20:54Z</time>
      </trkpt>
      <trkpt lat="45.72998" lon="5.70362">
        <ele>227.78681577626</ele>
        <time>2015-05-16T16:20:59Z</time>
      </trkpt>
      <trkpt lat="45.73004" lon="5.70366">
        <ele>228.48802015549</ele>
        <time>2015-05-16T16:21:04Z</time>
      </trkpt>
      <trkpt lat="45.7301" lon="5.70369">
        <ele>228.48802015549</ele>
        <time>2015-05-16T16:21:09Z</time>
      </trkpt>
      <trkpt lat="45.7301" lon="5.70378">
        <ele>228.77880780596</ele>
        <time>2015-05-16T16:21:14Z</time>
      </trkpt>
      <trkpt lat="45.73014" lon="5.70385">
        <ele>228.77880780596</ele>
        <time>2015-05-16T16:21:19Z</time>
      </trkpt>
      <trkpt lat="45.7302" lon="5.70391">
        <ele>229.23598682349</ele>
        <time>2015-05-16T16:21:24Z</time>
      </trkpt>
      <trkpt lat="45.73028" lon="5.70396">
        <ele>229.23598682349</ele>
        <time>2015-05-16T16:21:29Z</time>
      </trkpt>
      <trkpt lat="45.73035" lon="5.70399">
        <ele>229.96120380361</ele>
        <time>2015-05-16T16:21:34Z</time>
      </trkpt>
      <trkpt lat="45.73042" lon="5.70405">
        <ele>229.96120380361</ele>
        <time>2015-05-16T16:21:39Z</time>
      </trkpt>
      <trkpt lat="45.73049" lon="5.7041">
        <ele>231.01907992212</ele>
        <time>2015-05-16T16:21:44Z</time>
      </trkpt>
      <trkpt lat="45.73055" lon="5.70415">
        <ele>231.01907992212</ele>
        <time>2015-05-16T16:21:49Z</time>
      </trkpt>
      <trkpt lat="45.7306" lon="5.7042">
        <ele>231.89213199613</ele>
        <time>2015-05-16T16:21:54Z</time>
      </trkpt>
      <trkpt lat="45.73061" lon="5.70418">
        <ele>231.89213199613</ele>
        <time>2015-05-16T16:21:59Z</time>
      </trkpt>
      <trkpt lat="45.73064" lon="5.70421">
        <ele>231.89213199613</ele>
        <time>2015-05-16T16:22:04Z</time>
      </trkpt>
      <trkpt lat="45.73067" lon="5.70429">
        <ele>232.36083495367</ele>
        <time>2015-05-16T16:22:09Z</time>
      </trkpt>
      <trkpt lat="45.73061" lon="5.70439">
        <ele>232.36083495367</ele>
        <time>2015-05-16T16:22:14Z</time>
      </trkpt>
      <trkpt lat="45.73049" lon="5.70443">
        <ele>232.7129321177</ele>
        <time>2015-05-16T16:22:19Z</time>
      </trkpt>
      <trkpt lat="45.73039" lon="5.70446">
        <ele>232.97040033013</ele>
        <time>2015-05-16T16:22:24Z</time>
      </trkpt>
      <trkpt lat="45.73035" lon="5.70445">
        <ele>232.97040033013</ele>
        <time>2015-05-16T16:22:29Z</time>
      </trkpt>
      <trkpt lat="45.73035" lon="5.70445">
        <ele>232.97040033013</ele>
        <time>2015-05-16T16:22:34Z</time>
      </trkpt>
      <trkpt lat="45.73035" lon="5.70446">
        <ele>232.97040033013</ele>
        <time>2015-05-16T16:22:39Z</time>
      </trkpt>
      <trkpt lat="45.73034" lon="5.70446">
        <ele>232.97040033013</ele>
        <time>2015-05-16T16:22:44Z</time>
      </trkpt>
      <trkpt lat="45.73033" lon="5.70447">
        <ele>232.97040033013</ele>
        <time>2015-05-16T16:22:49Z</time>
      </trkpt>
      <trkpt lat="45.73033" lon="5.70447">
        <ele>232.97040033013</ele>
        <time>2015-05-16T16:22:54Z</time>
      </trkpt>
      <trkpt lat="45.73033" lon="5.70447">
        <ele>232.97040033013</ele>
        <time>2015-05-16T16:22:59Z</time>
      </trkpt>
      <trkpt lat="45.73033" lon="5.70447">
        <ele>232.97040033013</ele>
        <time>2015-05-16T16:23:04Z</time>
      </trkpt>
      <trkpt lat="45.73033" lon="5.70447">
        <ele>232.97040033013</ele>
        <time>2015-05-16T16:23:09Z</time>
      </trkpt>
      <trkpt lat="45.73033" lon="5.70447">
        <ele>232.97040033013</ele>
        <time>2015-05-16T16:23:14Z</time>
      </trkpt>
      <trkpt lat="45.73033" lon="5.70447">
        <ele>232.97040033013</ele>
        <time>2015-05-16T16:23:19Z</time>
      </trkpt>
      <trkpt lat="45.73033" lon="5.70447">
        <ele>232.97040033013</ele>
        <time>2015-05-16T16:23:24Z</time>
      </trkpt>
      <trkpt lat="45.73031" lon="5.70446">
        <ele>233.49976877576</ele>
        <time>2015-05-16T16:23:29Z</time>
      </trkpt>
      <trkpt lat="45.7303" lon="5.70446">
        <ele>233.49976877576</ele>
        <time>2015-05-16T16:23:34Z</time>
      </trkpt>
      <trkpt lat="45.7303" lon="5.70446">
        <ele>233.49976877576</ele>
        <time>2015-05-16T16:23:39Z</time>
      </trkpt>
      <trkpt lat="45.7303" lon="5.70447">
        <ele>233.49976877576</ele>
        <time>2015-05-16T16:23:44Z</time>
      </trkpt>
      <trkpt lat="45.7303" lon="5.70447">
        <ele>233.49976877576</ele>
        <time>2015-05-16T16:23:49Z</time>
      </trkpt>
      <trkpt lat="45.7303" lon="5.70447">
        <ele>233.49976877576</ele>
        <time>2015-05-16T16:23:54Z</time>
      </trkpt>
      <trkpt lat="45.7303" lon="5.70447">
        <ele>233.49976877576</ele>
        <time>2015-05-16T16:23:59Z</time>
      </trkpt>
      <trkpt lat="45.7303" lon="5.70447">
        <ele>233.49976877576</ele>
        <time>2015-05-16T16:24:04Z</time>
      </trkpt>
      <trkpt lat="45.7303" lon="5.70446">
        <ele>233.49976877576</ele>
        <time>2015-05-16T16:24:09Z</time>
      </trkpt>
      <trkpt lat="45.7303" lon="5.70446">
        <ele>233.49976877576</ele>
        <time>2015-05-16T16:24:14Z</time>
      </trkpt>
      <trkpt lat="45.73031" lon="5.70445">
        <ele>233.49976877576</ele>
        <time>2015-05-16T16:24:19Z</time>
      </trkpt>
      <trkpt lat="45.73031" lon="5.70445">
        <ele>233.49976877576</ele>
        <time>2015-05-16T16:24:24Z</time>
      </trkpt>
      <trkpt lat="45.73031" lon="5.70445">
        <ele>233.49976877576</ele>
        <time>2015-05-16T16:24:29Z</time>
      </trkpt>
      <trkpt lat="45.73031" lon="5.70445">
        <ele>233.49976877576</ele>
        <time>2015-05-16T16:24:34Z</time>
      </trkpt>
      <trkpt lat="45.73031" lon="5.70445">
        <ele>233.49976877576</ele>
        <time>2015-05-16T16:24:39Z</time>
      </trkpt>
      <trkpt lat="45.73031" lon="5.70445">
        <ele>233.49976877576</ele>
        <time>2015-05-16T16:24:44Z</time>
      </trkpt>
      <trkpt lat="45.73031" lon="5.70446">
        <ele>233.49976877576</ele>
        <time>2015-05-16T16:24:49Z</time>
      </trkpt>
      <trkpt lat="45.73031" lon="5.70446">
        <ele>233.49976877576</ele>
        <time>2015-05-16T16:24:54Z</time>
      </trkpt>
      <trkpt lat="45.73031" lon="5.70446">
        <ele>233.49976877576</ele>
        <time>2015-05-16T16:24:59Z</time>
      </trkpt>
      <trkpt lat="45.73031" lon="5.70445">
        <ele>233.49976877576</ele>
        <time>2015-05-16T16:25:04Z</time>
      </trkpt>
      <trkpt lat="45.73031" lon="5.70445">
        <ele>233.49976877576</ele>
        <time>2015-05-16T16:25:09Z</time>
      </trkpt>
      <trkpt lat="45.73031" lon="5.70445">
        <ele>233.49976877576</ele>
        <time>2015-05-16T16:25:14Z</time>
      </trkpt>
      <trkpt lat="45.73031" lon="5.70445">
        <ele>233.49976877576</ele>
        <time>2015-05-16T16:25:19Z</time>
      </trkpt>
      <trkpt lat="45.7303" lon="5.70445">
        <ele>233.49976877576</ele>
        <time>2015-05-16T16:25:24Z</time>
      </trkpt>
      <trkpt lat="45.7303" lon="5.70444">
        <ele>233.49976877576</ele>
        <time>2015-05-16T16:25:29Z</time>
      </trkpt>
      <trkpt lat="45.7303" lon="5.70445">
        <ele>233.49976877576</ele>
        <time>2015-05-16T16:25:34Z</time>
      </trkpt>
      <trkpt lat="45.7303" lon="5.70445">
        <ele>233.49976877576</ele>
        <time>2015-05-16T16:25:39Z</time>
      </trkpt>
      <trkpt lat="45.7303" lon="5.70446">
        <ele>233.49976877576</ele>
        <time>2015-05-16T16:25:44Z</time>
      </trkpt>
      <trkpt lat="45.7303" lon="5.70446">
        <ele>233.49976877576</ele>
        <time>2015-05-16T16:25:49Z</time>
      </trkpt>
      <trkpt lat="45.7303" lon="5.70446">
        <ele>233.49976877576</ele>
        <time>2015-05-16T16:25:54Z</time>
      </trkpt>
      <trkpt lat="45.7303" lon="5.70446">
        <ele>233.49976877576</ele>
        <time>2015-05-16T16:25:59Z</time>
      </trkpt>
      <trkpt lat="45.7303" lon="5.70446">
        <ele>233.49976877576</ele>
        <time>2015-05-16T16:26:04Z</time>
      </trkpt>
      <trkpt lat="45.7303" lon="5.70446">
        <ele>233.49976877576</ele>
        <time>2015-05-16T16:26:09Z</time>
      </trkpt>
      <trkpt lat="45.7303" lon="5.70446">
        <ele>233.49976877576</ele>
        <time>2015-05-16T16:26:14Z</time>
      </trkpt>
      <trkpt lat="45.7303" lon="5.70446">
        <ele>233.49976877576</ele>
        <time>2015-05-16T16:26:19Z</time>
      </trkpt>
      <trkpt lat="45.73031" lon="5.70446">
        <ele>233.49976877576</ele>
        <time>2015-05-16T16:26:24Z</time>
      </trkpt>
      <trkpt lat="45.73031" lon="5.70445">
        <ele>233.6743687172</ele>
        <time>2015-05-16T16:26:29Z</time>
      </trkpt>
      <trkpt lat="45.73031" lon="5.70445">
        <ele>233.6743687172</ele>
        <time>2015-05-16T16:26:34Z</time>
      </trkpt>
      <trkpt lat="45.73031" lon="5.70445">
        <ele>233.6743687172</ele>
        <time>2015-05-16T16:26:39Z</time>
      </trkpt>
      <trkpt lat="45.73032" lon="5.70445">
        <ele>233.6743687172</ele>
        <time>2015-05-16T16:26:44Z</time>
      </trkpt>
      <trkpt lat="45.73032" lon="5.70445">
        <ele>233.6743687172</ele>
        <time>2015-05-16T16:26:49Z</time>
      </trkpt>
      <trkpt lat="45.73032" lon="5.70445">
        <ele>233.6743687172</ele>
        <time>2015-05-16T16:26:54Z</time>
      </trkpt>
      <trkpt lat="45.73031" lon="5.70445">
        <ele>233.6743687172</ele>
        <time>2015-05-16T16:26:59Z</time>
      </trkpt>
      <trkpt lat="45.73031" lon="5.70444">
        <ele>233.6743687172</ele>
        <time>2015-05-16T16:27:04Z</time>
      </trkpt>
      <trkpt lat="45.7303" lon="5.70444">
        <ele>233.6743687172</ele>
        <time>2015-05-16T16:27:09Z</time>
      </trkpt>
      <trkpt lat="45.7303" lon="5.70444">
        <ele>233.6743687172</ele>
        <time>2015-05-16T16:27:14Z</time>
      </trkpt>
      <trkpt lat="45.7303" lon="5.70444">
        <ele>233.6743687172</ele>
        <time>2015-05-16T16:27:19Z</time>
      </trkpt>
      <trkpt lat="45.73029" lon="5.70443">
        <ele>233.6743687172</ele>
        <time>2015-05-16T16:27:24Z</time>
      </trkpt>
      <trkpt lat="45.73029" lon="5.70444">
        <ele>233.6743687172</ele>
        <time>2015-05-16T16:27:29Z</time>
      </trkpt>
      <trkpt lat="45.73029" lon="5.70444">
        <ele>233.6743687172</ele>
        <time>2015-05-16T16:27:34Z</time>
      </trkpt>
      <trkpt lat="45.73029" lon="5.70444">
        <ele>233.6743687172</ele>
        <time>2015-05-16T16:27:39Z</time>
      </trkpt>
      <trkpt lat="45.73029" lon="5.70444">
        <ele>233.6743687172</ele>
        <time>2015-05-16T16:27:44Z</time>
      </trkpt>
      <trkpt lat="45.73029" lon="5.70444">
        <ele>233.6743687172</ele>
        <time>2015-05-16T16:27:49Z</time>
      </trkpt>
      <trkpt lat="45.73029" lon="5.70444">
        <ele>233.6743687172</ele>
        <time>2015-05-16T16:27:54Z</time>
      </trkpt>
      <trkpt lat="45.73029" lon="5.70444">
        <ele>233.6743687172</ele>
        <time>2015-05-16T16:27:59Z</time>
      </trkpt>
      <trkpt lat="45.73029" lon="5.70444">
        <ele>233.6743687172</ele>
        <time>2015-05-16T16:28:04Z</time>
      </trkpt>
      <trkpt lat="45.73028" lon="5.70444">
        <ele>233.6743687172</ele>
        <time>2015-05-16T16:28:09Z</time>
      </trkpt>
      <trkpt lat="45.73028" lon="5.70443">
        <ele>233.6743687172</ele>
        <time>2015-05-16T16:28:14Z</time>
      </trkpt>
      <trkpt lat="45.73027" lon="5.70443">
        <ele>233.6743687172</ele>
        <time>2015-05-16T16:28:19Z</time>
      </trkpt>
      <trkpt lat="45.73027" lon="5.70443">
        <ele>233.6743687172</ele>
        <time>2015-05-16T16:28:24Z</time>
      </trkpt>
      <trkpt lat="45.73027" lon="5.70443">
        <ele>233.6743687172</ele>
        <time>2015-05-16T16:28:29Z</time>
      </trkpt>
      <trkpt lat="45.73027" lon="5.70443">
        <ele>233.6743687172</ele>
        <time>2015-05-16T16:28:34Z</time>
      </trkpt>
      <trkpt lat="45.73027" lon="5.70443">
        <ele>233.6743687172</ele>
        <time>2015-05-16T16:28:39Z</time>
      </trkpt>
      <trkpt lat="45.73027" lon="5.70443">
        <ele>233.6743687172</ele>
        <time>2015-05-16T16:28:44Z</time>
      </trkpt>
      <trkpt lat="45.73027" lon="5.70443">
        <ele>233.6743687172</ele>
        <time>2015-05-16T16:28:49Z</time>
      </trkpt>
      <trkpt lat="45.73028" lon="5.70444">
        <ele>233.6743687172</ele>
        <time>2015-05-16T16:28:54Z</time>
      </trkpt>
      <trkpt lat="45.73028" lon="5.70444">
        <ele>233.6743687172</ele>
        <time>2015-05-16T16:28:59Z</time>
      </trkpt>
      <trkpt lat="45.73027" lon="5.70444">
        <ele>233.6743687172</ele>
        <time>2015-05-16T16:29:04Z</time>
      </trkpt>
      <trkpt lat="45.73027" lon="5.70443">
        <ele>234.12513011803</ele>
        <time>2015-05-16T16:29:09Z</time>
      </trkpt>
      <trkpt lat="45.73026" lon="5.70443">
        <ele>234.12513011803</ele>
        <time>2015-05-16T16:29:14Z</time>
      </trkpt>
      <trkpt lat="45.73025" lon="5.70443">
        <ele>234.12513011803</ele>
        <time>2015-05-16T16:29:19Z</time>
      </trkpt>
      <trkpt lat="45.73025" lon="5.70444">
        <ele>234.12513011803</ele>
        <time>2015-05-16T16:29:24Z</time>
      </trkpt>
      <trkpt lat="45.73025" lon="5.70443">
        <ele>234.12513011803</ele>
        <time>2015-05-16T16:29:29Z</time>
      </trkpt>
      <trkpt lat="45.73025" lon="5.70443">
        <ele>234.12513011803</ele>
        <time>2015-05-16T16:29:34Z</time>
      </trkpt>
      <trkpt lat="45.73025" lon="5.70443">
        <ele>234.12513011803</ele>
        <time>2015-05-16T16:29:39Z</time>
      </trkpt>
      <trkpt lat="45.73025" lon="5.70443">
        <ele>234.12513011803</ele>
        <time>2015-05-16T16:29:44Z</time>
      </trkpt>
      <trkpt lat="45.73024" lon="5.70443">
        <ele>234.12513011803</ele>
        <time>2015-05-16T16:29:49Z</time>
      </trkpt>
      <trkpt lat="45.73023" lon="5.70446">
        <ele>234.12513011803</ele>
        <time>2015-05-16T16:29:54Z</time>
      </trkpt>
      <trkpt lat="45.73023" lon="5.70446">
        <ele>234.12513011803</ele>
        <time>2015-05-16T16:29:59Z</time>
      </trkpt>
      <trkpt lat="45.73023" lon="5.70446">
        <ele>234.12513011803</ele>
        <time>2015-05-16T16:30:04Z</time>
      </trkpt>
      <trkpt lat="45.73023" lon="5.70446">
        <ele>234.12513011803</ele>
        <time>2015-05-16T16:30:09Z</time>
      </trkpt>
      <trkpt lat="45.73022" lon="5.70446">
        <ele>234.12513011803</ele>
        <time>2015-05-16T16:30:14Z</time>
      </trkpt>
      <trkpt lat="45.73022" lon="5.70446">
        <ele>234.12513011803</ele>
        <time>2015-05-16T16:30:19Z</time>
      </trkpt>
      <trkpt lat="45.73023" lon="5.70445">
        <ele>234.12513011803</ele>
        <time>2015-05-16T16:30:24Z</time>
      </trkpt>
      <trkpt lat="45.73023" lon="5.70446">
        <ele>234.12513011803</ele>
        <time>2015-05-16T16:30:29Z</time>
      </trkpt>
      <trkpt lat="45.73025" lon="5.70445">
        <ele>234.42711722339</ele>
        <time>2015-05-16T16:30:34Z</time>
      </trkpt>
      <trkpt lat="45.73026" lon="5.70446">
        <ele>234.42711722339</ele>
        <time>2015-05-16T16:30:39Z</time>
      </trkpt>
      <trkpt lat="45.73026" lon="5.70447">
        <ele>234.42711722339</ele>
        <time>2015-05-16T16:30:44Z</time>
      </trkpt>
      <trkpt lat="45.73032" lon="5.70447">
        <ele>234.42711722339</ele>
        <time>2015-05-16T16:30:49Z</time>
      </trkpt>
      <trkpt lat="45.73042" lon="5.70447">
        <ele>234.84997352637</ele>
        <time>2015-05-16T16:30:54Z</time>
      </trkpt>
      <trkpt lat="45.73049" lon="5.70449">
        <ele>234.84997352637</ele>
        <time>2015-05-16T16:30:59Z</time>
      </trkpt>
      <trkpt lat="45.73055" lon="5.70448">
        <ele>235.26854145062</ele>
        <time>2015-05-16T16:31:04Z</time>
      </trkpt>
      <trkpt lat="45.73062" lon="5.70444">
        <ele>235.26854145062</ele>
        <time>2015-05-16T16:31:09Z</time>
      </trkpt>
      <trkpt lat="45.73069" lon="5.70441">
        <ele>235.86953822668</ele>
        <time>2015-05-16T16:31:14Z</time>
      </trkpt>
      <trkpt lat="45.73077" lon="5.70439">
        <ele>235.86953822668</ele>
        <time>2015-05-16T16:31:19Z</time>
      </trkpt>
      <trkpt lat="45.73084" lon="5.70447">
        <ele>236.68137827558</ele>
        <time>2015-05-16T16:31:24Z</time>
      </trkpt>
      <trkpt lat="45.73089" lon="5.70456">
        <ele>236.68137827558</ele>
        <time>2015-05-16T16:31:29Z</time>
      </trkpt>
      <trkpt lat="45.73094" lon="5.70463">
        <ele>237.48484606751</ele>
        <time>2015-05-16T16:31:34Z</time>
      </trkpt>
      <trkpt lat="45.731" lon="5.70471">
        <ele>237.48484606751</ele>
        <time>2015-05-16T16:31:39Z</time>
      </trkpt>
      <trkpt lat="45.73105" lon="5.70478">
        <ele>238.10571483765</ele>
        <time>2015-05-16T16:31:44Z</time>
      </trkpt>
      <trkpt lat="45.7311" lon="5.70484">
        <ele>238.10571483765</ele>
        <time>2015-05-16T16:31:49Z</time>
      </trkpt>
      <trkpt lat="45.73114" lon="5.7049">
        <ele>238.65692129196</ele>
        <time>2015-05-16T16:31:54Z</time>
      </trkpt>
      <trkpt lat="45.73118" lon="5.70497">
        <ele>238.65692129196</ele>
        <time>2015-05-16T16:31:59Z</time>
      </trkpt>
      <trkpt lat="45.73123" lon="5.70503">
        <ele>239.28657754708</ele>
        <time>2015-05-16T16:32:04Z</time>
      </trkpt>
      <trkpt lat="45.73128" lon="5.70511">
        <ele>239.28657754708</ele>
        <time>2015-05-16T16:32:09Z</time>
      </trkpt>
      <trkpt lat="45.73132" lon="5.70518">
        <ele>240.08850609705</ele>
        <time>2015-05-16T16:32:14Z</time>
      </trkpt>
      <trkpt lat="45.73137" lon="5.70525">
        <ele>240.08850609705</ele>
        <time>2015-05-16T16:32:19Z</time>
      </trkpt>
      <trkpt lat="45.73142" lon="5.70528">
        <ele>241.16361055481</ele>
        <time>2015-05-16T16:32:24Z</time>
      </trkpt>
      <trkpt lat="45.73146" lon="5.70524">
        <ele>241.16361055481</ele>
        <time>2015-05-16T16:32:29Z</time>
      </trkpt>
      <trkpt lat="45.73146" lon="5.70523">
        <ele>241.16361055481</ele>
        <time>2015-05-16T16:32:34Z</time>
      </trkpt>
      <trkpt lat="45.73146" lon="5.70523">
        <ele>241.16361055481</ele>
        <time>2015-05-16T16:32:39Z</time>
      </trkpt>
      <trkpt lat="45.73145" lon="5.70524">
        <ele>241.16361055481</ele>
        <time>2015-05-16T16:32:44Z</time>
      </trkpt>
      <trkpt lat="45.73145" lon="5.70525">
        <ele>241.16361055481</ele>
        <time>2015-05-16T16:32:49Z</time>
      </trkpt>
      <trkpt lat="45.73147" lon="5.70528">
        <ele>242.34526331196</ele>
        <time>2015-05-16T16:32:54Z</time>
      </trkpt>
      <trkpt lat="45.73151" lon="5.70532">
        <ele>242.34526331196</ele>
        <time>2015-05-16T16:32:59Z</time>
      </trkpt>
      <trkpt lat="45.73156" lon="5.70541">
        <ele>243.62294006286</ele>
        <time>2015-05-16T16:33:04Z</time>
      </trkpt>
      <trkpt lat="45.73161" lon="5.70549">
        <ele>243.62294006286</ele>
        <time>2015-05-16T16:33:09Z</time>
      </trkpt>
      <trkpt lat="45.73167" lon="5.70556">
        <ele>244.48228496135</ele>
        <time>2015-05-16T16:33:14Z</time>
      </trkpt>
      <trkpt lat="45.73173" lon="5.70562">
        <ele>244.48228496135</ele>
        <time>2015-05-16T16:33:19Z</time>
      </trkpt>
      <trkpt lat="45.73179" lon="5.70568">
        <ele>245.29821255586</ele>
        <time>2015-05-16T16:33:24Z</time>
      </trkpt>
      <trkpt lat="45.73185" lon="5.70574">
        <ele>245.29821255586</ele>
        <time>2015-05-16T16:33:29Z</time>
      </trkpt>
      <trkpt lat="45.73189" lon="5.70579">
        <ele>246.01476534884</ele>
        <time>2015-05-16T16:33:34Z</time>
      </trkpt>
      <trkpt lat="45.73195" lon="5.70584">
        <ele>246.01476534884</ele>
        <time>2015-05-16T16:33:39Z</time>
      </trkpt>
      <trkpt lat="45.73201" lon="5.70589">
        <ele>247.21452411958</ele>
        <time>2015-05-16T16:33:44Z</time>
      </trkpt>
      <trkpt lat="45.73208" lon="5.70597">
        <ele>248.28308911942</ele>
        <time>2015-05-16T16:33:49Z</time>
      </trkpt>
      <trkpt lat="45.73214" lon="5.70604">
        <ele>248.28308911942</ele>
        <time>2015-05-16T16:33:54Z</time>
      </trkpt>
      <trkpt lat="45.73221" lon="5.70613">
        <ele>249.40100156253</ele>
        <time>2015-05-16T16:33:59Z</time>
      </trkpt>
      <trkpt lat="45.73227" lon="5.7062">
        <ele>249.40100156253</ele>
        <time>2015-05-16T16:34:04Z</time>
      </trkpt>
      <trkpt lat="45.73228" lon="5.7062">
        <ele>249.40100156253</ele>
        <time>2015-05-16T16:34:09Z</time>
      </trkpt>
      <trkpt lat="45.73233" lon="5.70626">
        <ele>250.44724212938</ele>
        <time>2015-05-16T16:34:14Z</time>
      </trkpt>
      <trkpt lat="45.73237" lon="5.70632">
        <ele>250.44724212938</ele>
        <time>2015-05-16T16:34:19Z</time>
      </trkpt>
      <trkpt lat="45.7324" lon="5.70636">
        <ele>251.65581371935</ele>
        <time>2015-05-16T16:34:24Z</time>
      </trkpt>
      <trkpt lat="45.73246" lon="5.70635">
        <ele>251.65581371935</ele>
        <time>2015-05-16T16:34:29Z</time>
      </trkpt>
      <trkpt lat="45.73261" lon="5.70612">
        <ele>252.76757279685</ele>
        <time>2015-05-16T16:34:34Z</time>
      </trkpt>
      <trkpt lat="45.73278" lon="5.70593">
        <ele>253.75891700954</ele>
        <time>2015-05-16T16:34:39Z</time>
      </trkpt>
      <trkpt lat="45.73294" lon="5.70611">
        <ele>254.55073752134</ele>
        <time>2015-05-16T16:34:44Z</time>
      </trkpt>
      <trkpt lat="45.73305" lon="5.70636">
        <ele>255.41622916596</ele>
        <time>2015-05-16T16:34:49Z</time>
      </trkpt>
      <trkpt lat="45.73327" lon="5.70626">
        <ele>256.29133133135</ele>
        <time>2015-05-16T16:34:54Z</time>
      </trkpt>
      <trkpt lat="45.73341" lon="5.70618">
        <ele>257.14554719166</ele>
        <time>2015-05-16T16:34:59Z</time>
      </trkpt>
      <trkpt lat="45.73347" lon="5.70615">
        <ele>257.14554719166</ele>
        <time>2015-05-16T16:35:04Z</time>
      </trkpt>
      <trkpt lat="45.73354" lon="5.70612">
        <ele>258.23896215609</ele>
        <time>2015-05-16T16:35:09Z</time>
      </trkpt>
      <trkpt lat="45.73361" lon="5.70611">
        <ele>258.23896215609</ele>
        <time>2015-05-16T16:35:14Z</time>
      </trkpt>
      <trkpt lat="45.73369" lon="5.70609">
        <ele>259.62460062011</ele>
        <time>2015-05-16T16:35:19Z</time>
      </trkpt>
      <trkpt lat="45.73376" lon="5.70607">
        <ele>259.62460062011</ele>
        <time>2015-05-16T16:35:24Z</time>
      </trkpt>
      <trkpt lat="45.73383" lon="5.70606">
        <ele>261.01937659627</ele>
        <time>2015-05-16T16:35:29Z</time>
      </trkpt>
      <trkpt lat="45.7339" lon="5.70606">
        <ele>261.01937659627</ele>
        <time>2015-05-16T16:35:34Z</time>
      </trkpt>
      <trkpt lat="45.73398" lon="5.70606">
        <ele>262.37720154183</ele>
        <time>2015-05-16T16:35:39Z</time>
      </trkpt>
      <trkpt lat="45.73405" lon="5.70607">
        <ele>262.37720154183</ele>
        <time>2015-05-16T16:35:44Z</time>
      </trkpt>
      <trkpt lat="45.73413" lon="5.70608">
        <ele>263.8861167534</ele>
        <time>2015-05-16T16:35:49Z</time>
      </trkpt>
      <trkpt lat="45.7342" lon="5.7061">
        <ele>263.8861167534</ele>
        <time>2015-05-16T16:35:54Z</time>
      </trkpt>
      <trkpt lat="45.73417" lon="5.70613">
        <ele>264.95620090656</ele>
        <time>2015-05-16T16:35:59Z</time>
      </trkpt>
      <trkpt lat="45.73416" lon="5.70619">
        <ele>264.95620090656</ele>
        <time>2015-05-16T16:36:04Z</time>
      </trkpt>
      <trkpt lat="45.73415" lon="5.70628">
        <ele>265.69066300518</ele>
        <time>2015-05-16T16:36:09Z</time>
      </trkpt>
      <trkpt lat="45.73413" lon="5.70634">
        <ele>265.69066300518</ele>
        <time>2015-05-16T16:36:14Z</time>
      </trkpt>
      <trkpt lat="45.73413" lon="5.70636">
        <ele>265.69066300518</ele>
        <time>2015-05-16T16:36:19Z</time>
      </trkpt>
      <trkpt lat="45.73413" lon="5.70637">
        <ele>265.69066300518</ele>
        <time>2015-05-16T16:36:24Z</time>
      </trkpt>
      <trkpt lat="45.73412" lon="5.70637">
        <ele>265.69066300518</ele>
        <time>2015-05-16T16:36:29Z</time>
      </trkpt>
      <trkpt lat="45.73414" lon="5.70645">
        <ele>266.40230101128</ele>
        <time>2015-05-16T16:36:34Z</time>
      </trkpt>
      <trkpt lat="45.73419" lon="5.70656">
        <ele>267.09283608768</ele>
        <time>2015-05-16T16:36:39Z</time>
      </trkpt>
      <trkpt lat="45.73429" lon="5.70665">
        <ele>267.77838852806</ele>
        <time>2015-05-16T16:36:44Z</time>
      </trkpt>
      <trkpt lat="45.7344" lon="5.7067">
        <ele>268.53160364305</ele>
        <time>2015-05-16T16:36:49Z</time>
      </trkpt>
      <trkpt lat="45.73447" lon="5.70681">
        <ele>269.11701317227</ele>
        <time>2015-05-16T16:36:54Z</time>
      </trkpt>
      <trkpt lat="45.73449" lon="5.70691">
        <ele>269.11701317227</ele>
        <time>2015-05-16T16:36:59Z</time>
      </trkpt>
      <trkpt lat="45.73451" lon="5.70704">
        <ele>269.4610693805</ele>
        <time>2015-05-16T16:37:04Z</time>
      </trkpt>
      <trkpt lat="45.73456" lon="5.70712">
        <ele>269.4610693805</ele>
        <time>2015-05-16T16:37:09Z</time>
      </trkpt>
      <trkpt lat="45.73461" lon="5.7072">
        <ele>269.77015157281</ele>
        <time>2015-05-16T16:37:14Z</time>
      </trkpt>
      <trkpt lat="45.73462" lon="5.70722">
        <ele>269.77015157281</ele>
        <time>2015-05-16T16:37:19Z</time>
      </trkpt>
      <trkpt lat="45.73462" lon="5.70723">
        <ele>269.77015157281</ele>
        <time>2015-05-16T16:37:24Z</time>
      </trkpt>
      <trkpt lat="45.73463" lon="5.70731">
        <ele>269.77015157281</ele>
        <time>2015-05-16T16:37:29Z</time>
      </trkpt>
      <trkpt lat="45.73461" lon="5.70739">
        <ele>269.90415089592</ele>
        <time>2015-05-16T16:37:34Z</time>
      </trkpt>
      <trkpt lat="45.7346" lon="5.70749">
        <ele>269.90415089592</ele>
        <time>2015-05-16T16:37:39Z</time>
      </trkpt>
      <trkpt lat="45.7346" lon="5.70759">
        <ele>270.15168775228</ele>
        <time>2015-05-16T16:37:44Z</time>
      </trkpt>
      <trkpt lat="45.73459" lon="5.70769">
        <ele>270.15168775228</ele>
        <time>2015-05-16T16:37:49Z</time>
      </trkpt>
      <trkpt lat="45.73459" lon="5.70777">
        <ele>270.67900152829</ele>
        <time>2015-05-16T16:37:54Z</time>
      </trkpt>
      <trkpt lat="45.73457" lon="5.70788">
        <ele>270.67900152829</ele>
        <time>2015-05-16T16:37:59Z</time>
      </trkpt>
      <trkpt lat="45.73456" lon="5.70796">
        <ele>270.97643475803</ele>
        <time>2015-05-16T16:38:04Z</time>
      </trkpt>
      <trkpt lat="45.73455" lon="5.70806">
        <ele>270.97643475803</ele>
        <time>2015-05-16T16:38:09Z</time>
      </trkpt>
      <trkpt lat="45.73456" lon="5.70816">
        <ele>270.78858582361</ele>
        <time>2015-05-16T16:38:14Z</time>
      </trkpt>
      <trkpt lat="45.73453" lon="5.70829">
        <ele>270.96100947286</ele>
        <time>2015-05-16T16:38:19Z</time>
      </trkpt>
      <trkpt lat="45.7345" lon="5.70841">
        <ele>270.96100947286</ele>
        <time>2015-05-16T16:38:24Z</time>
      </trkpt>
      <trkpt lat="45.73449" lon="5.70851">
        <ele>270.86383988421</ele>
        <time>2015-05-16T16:38:29Z</time>
      </trkpt>
      <trkpt lat="45.73448" lon="5.70861">
        <ele>270.86383988421</ele>
        <time>2015-05-16T16:38:34Z</time>
      </trkpt>
      <trkpt lat="45.73448" lon="5.70872">
        <ele>270.80771335882</ele>
        <time>2015-05-16T16:38:39Z</time>
      </trkpt>
      <trkpt lat="45.73449" lon="5.70883">
        <ele>270.80771335882</ele>
        <time>2015-05-16T16:38:44Z</time>
      </trkpt>
      <trkpt lat="45.7345" lon="5.70895">
        <ele>270.56151203074</ele>
        <time>2015-05-16T16:38:49Z</time>
      </trkpt>
      <trkpt lat="45.73451" lon="5.70906">
        <ele>270.56151203074</ele>
        <time>2015-05-16T16:38:54Z</time>
      </trkpt>
      <trkpt lat="45.73453" lon="5.70917">
        <ele>270.63215939951</ele>
        <time>2015-05-16T16:38:59Z</time>
      </trkpt>
      <trkpt lat="45.73454" lon="5.70928">
        <ele>270.63215939951</ele>
        <time>2015-05-16T16:39:04Z</time>
      </trkpt>
      <trkpt lat="45.73454" lon="5.70938">
        <ele>270.47964226199</ele>
        <time>2015-05-16T16:39:09Z</time>
      </trkpt>
      <trkpt lat="45.73456" lon="5.70948">
        <ele>270.47964226199</ele>
        <time>2015-05-16T16:39:14Z</time>
      </trkpt>
      <trkpt lat="45.73457" lon="5.70958">
        <ele>270.36799504273</ele>
        <time>2015-05-16T16:39:19Z</time>
      </trkpt>
      <trkpt lat="45.73457" lon="5.70968">
        <ele>270.36799504273</ele>
        <time>2015-05-16T16:39:24Z</time>
      </trkpt>
      <trkpt lat="45.73458" lon="5.70979">
        <ele>270.08054422541</ele>
        <time>2015-05-16T16:39:29Z</time>
      </trkpt>
      <trkpt lat="45.73459" lon="5.70989">
        <ele>270.08054422541</ele>
        <time>2015-05-16T16:39:34Z</time>
      </trkpt>
      <trkpt lat="45.7346" lon="5.71">
        <ele>269.97901356994</ele>
        <time>2015-05-16T16:39:39Z</time>
      </trkpt>
      <trkpt lat="45.7346" lon="5.71011">
        <ele>269.97901356994</ele>
        <time>2015-05-16T16:39:44Z</time>
      </trkpt>
      <trkpt lat="45.73461" lon="5.71021">
        <ele>269.92241604786</ele>
        <time>2015-05-16T16:39:49Z</time>
      </trkpt>
      <trkpt lat="45.73462" lon="5.71032">
        <ele>269.92241604786</ele>
        <time>2015-05-16T16:39:54Z</time>
      </trkpt>
      <trkpt lat="45.73462" lon="5.71043">
        <ele>269.67906332033</ele>
        <time>2015-05-16T16:39:59Z</time>
      </trkpt>
      <trkpt lat="45.73463" lon="5.71054">
        <ele>269.67906332033</ele>
        <time>2015-05-16T16:40:04Z</time>
      </trkpt>
      <trkpt lat="45.73464" lon="5.71064">
        <ele>269.48149760095</ele>
        <time>2015-05-16T16:40:09Z</time>
      </trkpt>
      <trkpt lat="45.73465" lon="5.7107">
        <ele>269.48149760095</ele>
        <time>2015-05-16T16:40:14Z</time>
      </trkpt>
      <trkpt lat="45.73466" lon="5.71079">
        <ele>269.09824471091</ele>
        <time>2015-05-16T16:40:19Z</time>
      </trkpt>
      <trkpt lat="45.73467" lon="5.71089">
        <ele>269.09824471091</ele>
        <time>2015-05-16T16:40:24Z</time>
      </trkpt>
      <trkpt lat="45.73469" lon="5.711">
        <ele>268.73321354164</ele>
        <time>2015-05-16T16:40:29Z</time>
      </trkpt>
      <trkpt lat="45.7347" lon="5.71111">
        <ele>268.73321354164</ele>
        <time>2015-05-16T16:40:34Z</time>
      </trkpt>
      <trkpt lat="45.73472" lon="5.71119">
        <ele>268.82020509373</ele>
        <time>2015-05-16T16:40:39Z</time>
      </trkpt>
      <trkpt lat="45.73475" lon="5.71132">
        <ele>269.31307308465</ele>
        <time>2015-05-16T16:40:44Z</time>
      </trkpt>
      <trkpt lat="45.73478" lon="5.71137">
        <ele>269.31307308465</ele>
        <time>2015-05-16T16:40:49Z</time>
      </trkpt>
      <trkpt lat="45.73482" lon="5.71142">
        <ele>269.6490546266</ele>
        <time>2015-05-16T16:40:54Z</time>
      </trkpt>
      <trkpt lat="45.73487" lon="5.7115">
        <ele>269.6490546266</ele>
        <time>2015-05-16T16:41:00Z</time>
      </trkpt>
      <trkpt lat="45.73492" lon="5.71157">
        <ele>269.95560159692</ele>
        <time>2015-05-16T16:41:04Z</time>
      </trkpt>
      <trkpt lat="45.73497" lon="5.71163">
        <ele>269.95560159692</ele>
        <time>2015-05-16T16:41:09Z</time>
      </trkpt>
      <trkpt lat="45.73502" lon="5.71171">
        <ele>270.32200092078</ele>
        <time>2015-05-16T16:41:14Z</time>
      </trkpt>
      <trkpt lat="45.73505" lon="5.71177">
        <ele>270.32200092078</ele>
        <time>2015-05-16T16:41:19Z</time>
      </trkpt>
      <trkpt lat="45.73508" lon="5.71182">
        <ele>271.17662084176</ele>
        <time>2015-05-16T16:41:24Z</time>
      </trkpt>
      <trkpt lat="45.73513" lon="5.71191">
        <ele>271.17662084176</ele>
        <time>2015-05-16T16:41:29Z</time>
      </trkpt>
      <trkpt lat="45.73517" lon="5.71199">
        <ele>271.81969298234</ele>
        <time>2015-05-16T16:41:34Z</time>
      </trkpt>
      <trkpt lat="45.73521" lon="5.71205">
        <ele>271.81969298234</ele>
        <time>2015-05-16T16:41:39Z</time>
      </trkpt>
      <trkpt lat="45.73526" lon="5.71213">
        <ele>271.77632951363</ele>
        <time>2015-05-16T16:41:44Z</time>
      </trkpt>
      <trkpt lat="45.73531" lon="5.71221">
        <ele>271.77632951363</ele>
        <time>2015-05-16T16:41:49Z</time>
      </trkpt>
      <trkpt lat="45.73536" lon="5.71229">
        <ele>271.81893948443</ele>
        <time>2015-05-16T16:41:54Z</time>
      </trkpt>
      <trkpt lat="45.73541" lon="5.71237">
        <ele>271.81893948443</ele>
        <time>2015-05-16T16:41:59Z</time>
      </trkpt>
      <trkpt lat="45.73546" lon="5.71245">
        <ele>271.43795899767</ele>
        <time>2015-05-16T16:42:04Z</time>
      </trkpt>
      <trkpt lat="45.73552" lon="5.71254">
        <ele>271.43795899767</ele>
        <time>2015-05-16T16:42:09Z</time>
      </trkpt>
      <trkpt lat="45.73557" lon="5.71264">
        <ele>271.15676520966</ele>
        <time>2015-05-16T16:42:14Z</time>
      </trkpt>
      <trkpt lat="45.73563" lon="5.71273">
        <ele>271.15676520966</ele>
        <time>2015-05-16T16:42:19Z</time>
      </trkpt>
      <trkpt lat="45.73568" lon="5.71283">
        <ele>270.98439340419</ele>
        <time>2015-05-16T16:42:24Z</time>
      </trkpt>
      <trkpt lat="45.73574" lon="5.71291">
        <ele>270.98439340419</ele>
        <time>2015-05-16T16:42:29Z</time>
      </trkpt>
      <trkpt lat="45.73578" lon="5.71301">
        <ele>270.84239343036</ele>
        <time>2015-05-16T16:42:34Z</time>
      </trkpt>
      <trkpt lat="45.73583" lon="5.71308">
        <ele>270.84239343036</ele>
        <time>2015-05-16T16:42:39Z</time>
      </trkpt>
      <trkpt lat="45.73587" lon="5.71316">
        <ele>270.58588586982</ele>
        <time>2015-05-16T16:42:44Z</time>
      </trkpt>
      <trkpt lat="45.73591" lon="5.71326">
        <ele>270.58588586982</ele>
        <time>2015-05-16T16:42:49Z</time>
      </trkpt>
      <trkpt lat="45.73594" lon="5.71334">
        <ele>270.42676976241</ele>
        <time>2015-05-16T16:42:54Z</time>
      </trkpt>
      <trkpt lat="45.736" lon="5.71341">
        <ele>270.42676976241</ele>
        <time>2015-05-16T16:42:59Z</time>
      </trkpt>
      <trkpt lat="45.73606" lon="5.71348">
        <ele>270.46017454165</ele>
        <time>2015-05-16T16:43:04Z</time>
      </trkpt>
      <trkpt lat="45.73614" lon="5.71351">
        <ele>270.46017454165</ele>
        <time>2015-05-16T16:43:09Z</time>
      </trkpt>
      <trkpt lat="45.73624" lon="5.71354">
        <ele>270.16838152541</ele>
        <time>2015-05-16T16:43:14Z</time>
      </trkpt>
      <trkpt lat="45.73631" lon="5.71358">
        <ele>270.16838152541</ele>
        <time>2015-05-16T16:43:19Z</time>
      </trkpt>
      <trkpt lat="45.73637" lon="5.71359">
        <ele>270.326330363</ele>
        <time>2015-05-16T16:43:24Z</time>
      </trkpt>
      <trkpt lat="45.73645" lon="5.71361">
        <ele>270.326330363</ele>
        <time>2015-05-16T16:43:29Z</time>
      </trkpt>
      <trkpt lat="45.73651" lon="5.71361">
        <ele>270.31048702806</ele>
        <time>2015-05-16T16:43:34Z</time>
      </trkpt>
      <trkpt lat="45.73661" lon="5.71363">
        <ele>270.37940407364</ele>
        <time>2015-05-16T16:43:39Z</time>
      </trkpt>
      <trkpt lat="45.7367" lon="5.71364">
        <ele>270.74353291528</ele>
        <time>2015-05-16T16:43:44Z</time>
      </trkpt>
      <trkpt lat="45.73679" lon="5.71366">
        <ele>271.27994787587</ele>
        <time>2015-05-16T16:43:49Z</time>
      </trkpt>
      <trkpt lat="45.73688" lon="5.71368">
        <ele>271.27994787587</ele>
        <time>2015-05-16T16:43:54Z</time>
      </trkpt>
      <trkpt lat="45.73695" lon="5.71368">
        <ele>271.88864045421</ele>
        <time>2015-05-16T16:43:59Z</time>
      </trkpt>
      <trkpt lat="45.73704" lon="5.71368">
        <ele>271.88864045421</ele>
        <time>2015-05-16T16:44:04Z</time>
      </trkpt>
      <trkpt lat="45.73712" lon="5.71368">
        <ele>272.80816652921</ele>
        <time>2015-05-16T16:44:09Z</time>
      </trkpt>
      <trkpt lat="45.7372" lon="5.71368">
        <ele>272.80816652921</ele>
        <time>2015-05-16T16:44:14Z</time>
      </trkpt>
      <trkpt lat="45.73726" lon="5.71368">
        <ele>273.78309052239</ele>
        <time>2015-05-16T16:44:19Z</time>
      </trkpt>
      <trkpt lat="45.73728" lon="5.71368">
        <ele>273.78309052239</ele>
        <time>2015-05-16T16:44:24Z</time>
      </trkpt>
      <trkpt lat="45.73736" lon="5.71366">
        <ele>274.77832013552</ele>
        <time>2015-05-16T16:44:29Z</time>
      </trkpt>
      <trkpt lat="45.73745" lon="5.71366">
        <ele>274.77832013552</ele>
        <time>2015-05-16T16:44:34Z</time>
      </trkpt>
      <trkpt lat="45.73753" lon="5.71368">
        <ele>275.91979313375</ele>
        <time>2015-05-16T16:44:39Z</time>
      </trkpt>
      <trkpt lat="45.73759" lon="5.71371">
        <ele>275.91979313375</ele>
        <time>2015-05-16T16:44:44Z</time>
      </trkpt>
      <trkpt lat="45.73765" lon="5.71372">
        <ele>277.06438068039</ele>
        <time>2015-05-16T16:44:49Z</time>
      </trkpt>
      <trkpt lat="45.73773" lon="5.71374">
        <ele>277.06438068039</ele>
        <time>2015-05-16T16:44:54Z</time>
      </trkpt>
      <trkpt lat="45.7378" lon="5.71378">
        <ele>278.29562932592</ele>
        <time>2015-05-16T16:44:59Z</time>
      </trkpt>
      <trkpt lat="45.73786" lon="5.71383">
        <ele>278.29562932592</ele>
        <time>2015-05-16T16:45:04Z</time>
      </trkpt>
      <trkpt lat="45.73791" lon="5.71388">
        <ele>279.82041696229</ele>
        <time>2015-05-16T16:45:09Z</time>
      </trkpt>
      <trkpt lat="45.73798" lon="5.71394">
        <ele>279.82041696229</ele>
        <time>2015-05-16T16:45:14Z</time>
      </trkpt>
      <trkpt lat="45.73803" lon="5.71399">
        <ele>280.83525319968</ele>
        <time>2015-05-16T16:45:19Z</time>
      </trkpt>
      <trkpt lat="45.73811" lon="5.71405">
        <ele>282.0670629084</ele>
        <time>2015-05-16T16:45:24Z</time>
      </trkpt>
      <trkpt lat="45.73815" lon="5.71408">
        <ele>282.0670629084</ele>
        <time>2015-05-16T16:45:29Z</time>
      </trkpt>
      <trkpt lat="45.73815" lon="5.71409">
        <ele>282.0670629084</ele>
        <time>2015-05-16T16:45:34Z</time>
      </trkpt>
      <trkpt lat="45.73814" lon="5.71408">
        <ele>282.0670629084</ele>
        <time>2015-05-16T16:45:39Z</time>
      </trkpt>
      <trkpt lat="45.73815" lon="5.71409">
        <ele>282.0670629084</ele>
        <time>2015-05-16T16:45:44Z</time>
      </trkpt>
      <trkpt lat="45.73815" lon="5.71409">
        <ele>282.0670629084</ele>
        <time>2015-05-16T16:45:49Z</time>
      </trkpt>
      <trkpt lat="45.73816" lon="5.71408">
        <ele>282.0670629084</ele>
        <time>2015-05-16T16:45:54Z</time>
      </trkpt>
      <trkpt lat="45.73816" lon="5.71407">
        <ele>282.0670629084</ele>
        <time>2015-05-16T16:45:59Z</time>
      </trkpt>
      <trkpt lat="45.73816" lon="5.71407">
        <ele>282.0670629084</ele>
        <time>2015-05-16T16:46:04Z</time>
      </trkpt>
      <trkpt lat="45.73816" lon="5.71407">
        <ele>282.0670629084</ele>
        <time>2015-05-16T16:46:09Z</time>
      </trkpt>
      <trkpt lat="45.73816" lon="5.71407">
        <ele>282.0670629084</ele>
        <time>2015-05-16T16:46:14Z</time>
      </trkpt>
      <trkpt lat="45.73817" lon="5.71406">
        <ele>282.0670629084</ele>
        <time>2015-05-16T16:46:19Z</time>
      </trkpt>
      <trkpt lat="45.73817" lon="5.71407">
        <ele>282.0670629084</ele>
        <time>2015-05-16T16:46:24Z</time>
      </trkpt>
      <trkpt lat="45.73817" lon="5.71407">
        <ele>282.77650613436</ele>
        <time>2015-05-16T16:46:29Z</time>
      </trkpt>
      <trkpt lat="45.73817" lon="5.71408">
        <ele>282.77650613436</ele>
        <time>2015-05-16T16:46:34Z</time>
      </trkpt>
      <trkpt lat="45.73817" lon="5.71408">
        <ele>282.77650613436</ele>
        <time>2015-05-16T16:46:39Z</time>
      </trkpt>
      <trkpt lat="45.73817" lon="5.71408">
        <ele>282.77650613436</ele>
        <time>2015-05-16T16:46:44Z</time>
      </trkpt>
      <trkpt lat="45.73819" lon="5.71409">
        <ele>282.77650613436</ele>
        <time>2015-05-16T16:46:49Z</time>
      </trkpt>
      <trkpt lat="45.73824" lon="5.71416">
        <ele>283.08707885789</ele>
        <time>2015-05-16T16:46:54Z</time>
      </trkpt>
      <trkpt lat="45.73827" lon="5.71422">
        <ele>283.08707885789</ele>
        <time>2015-05-16T16:46:59Z</time>
      </trkpt>
      <trkpt lat="45.7383" lon="5.7143">
        <ele>283.71962956467</ele>
        <time>2015-05-16T16:47:04Z</time>
      </trkpt>
      <trkpt lat="45.73832" lon="5.7144">
        <ele>283.71962956467</ele>
        <time>2015-05-16T16:47:09Z</time>
      </trkpt>
      <trkpt lat="45.73831" lon="5.71449">
        <ele>284.23153345547</ele>
        <time>2015-05-16T16:47:14Z</time>
      </trkpt>
      <trkpt lat="45.73827" lon="5.71456">
        <ele>284.23153345547</ele>
        <time>2015-05-16T16:47:19Z</time>
      </trkpt>
      <trkpt lat="45.73823" lon="5.71462">
        <ele>284.57333509691</ele>
        <time>2015-05-16T16:47:24Z</time>
      </trkpt>
      <trkpt lat="45.73821" lon="5.71471">
        <ele>284.57333509691</ele>
        <time>2015-05-16T16:47:29Z</time>
      </trkpt>
      <trkpt lat="45.73819" lon="5.71481">
        <ele>285.1464708508</ele>
        <time>2015-05-16T16:47:34Z</time>
      </trkpt>
      <trkpt lat="45.73815" lon="5.71491">
        <ele>285.1464708508</ele>
        <time>2015-05-16T16:47:39Z</time>
      </trkpt>
      <trkpt lat="45.73811" lon="5.71501">
        <ele>285.76024149133</ele>
        <time>2015-05-16T16:47:44Z</time>
      </trkpt>
      <trkpt lat="45.73808" lon="5.71509">
        <ele>285.76024149133</ele>
        <time>2015-05-16T16:47:49Z</time>
      </trkpt>
      <trkpt lat="45.73805" lon="5.71517">
        <ele>285.63260962278</ele>
        <time>2015-05-16T16:47:54Z</time>
      </trkpt>
      <trkpt lat="45.73802" lon="5.71525">
        <ele>285.63260962278</ele>
        <time>2015-05-16T16:47:59Z</time>
      </trkpt>
      <trkpt lat="45.73798" lon="5.71534">
        <ele>285.77043148504</ele>
        <time>2015-05-16T16:48:04Z</time>
      </trkpt>
      <trkpt lat="45.73797" lon="5.71542">
        <ele>285.77043148504</ele>
        <time>2015-05-16T16:48:09Z</time>
      </trkpt>
      <trkpt lat="45.73795" lon="5.71545">
        <ele>285.77043148504</ele>
        <time>2015-05-16T16:48:14Z</time>
      </trkpt>
      <trkpt lat="45.73789" lon="5.71555">
        <ele>285.17479345798</ele>
        <time>2015-05-16T16:48:19Z</time>
      </trkpt>
      <trkpt lat="45.73784" lon="5.71565">
        <ele>285.17479345798</ele>
        <time>2015-05-16T16:48:24Z</time>
      </trkpt>
      <trkpt lat="45.73779" lon="5.71572">
        <ele>284.50746344053</ele>
        <time>2015-05-16T16:48:29Z</time>
      </trkpt>
      <trkpt lat="45.73775" lon="5.7158">
        <ele>284.50746344053</ele>
        <time>2015-05-16T16:48:34Z</time>
      </trkpt>
      <trkpt lat="45.7377" lon="5.71588">
        <ele>283.77654417065</ele>
        <time>2015-05-16T16:48:39Z</time>
      </trkpt>
      <trkpt lat="45.73766" lon="5.71594">
        <ele>283.77654417065</ele>
        <time>2015-05-16T16:48:44Z</time>
      </trkpt>
      <trkpt lat="45.73763" lon="5.716">
        <ele>282.94649314303</ele>
        <time>2015-05-16T16:48:49Z</time>
      </trkpt>
      <trkpt lat="45.73761" lon="5.71605">
        <ele>282.94649314303</ele>
        <time>2015-05-16T16:48:54Z</time>
      </trkpt>
      <trkpt lat="45.73759" lon="5.71617">
        <ele>281.95582979797</ele>
        <time>2015-05-16T16:48:59Z</time>
      </trkpt>
      <trkpt lat="45.73755" lon="5.71625">
        <ele>281.95582979797</ele>
        <time>2015-05-16T16:49:04Z</time>
      </trkpt>
      <trkpt lat="45.7375" lon="5.71622">
        <ele>280.93537041336</ele>
        <time>2015-05-16T16:49:09Z</time>
      </trkpt>
      <trkpt lat="45.73745" lon="5.71618">
        <ele>280.93537041336</ele>
        <time>2015-05-16T16:49:14Z</time>
      </trkpt>
      <trkpt lat="45.73742" lon="5.71615">
        <ele>280.38107084875</ele>
        <time>2015-05-16T16:49:19Z</time>
      </trkpt>
      <trkpt lat="45.73744" lon="5.71614">
        <ele>280.38107084875</ele>
        <time>2015-05-16T16:49:24Z</time>
      </trkpt>
      <trkpt lat="45.73744" lon="5.71613">
        <ele>280.38107084875</ele>
        <time>2015-05-16T16:49:29Z</time>
      </trkpt>
      <trkpt lat="45.73745" lon="5.71613">
        <ele>280.38107084875</ele>
        <time>2015-05-16T16:49:34Z</time>
      </trkpt>
      <trkpt lat="45.73745" lon="5.71612">
        <ele>280.38107084875</ele>
        <time>2015-05-16T16:49:39Z</time>
      </trkpt>
      <trkpt lat="45.73747" lon="5.71609">
        <ele>280.38107084875</ele>
        <time>2015-05-16T16:49:44Z</time>
      </trkpt>
      <trkpt lat="45.73748" lon="5.7161">
        <ele>280.38107084875</ele>
        <time>2015-05-16T16:49:50Z</time>
      </trkpt>
      <trkpt lat="45.73748" lon="5.7161">
        <ele>280.38107084875</ele>
        <time>2015-05-16T16:49:54Z</time>
      </trkpt>
      <trkpt lat="45.73748" lon="5.7161">
        <ele>280.38107084875</ele>
        <time>2015-05-16T16:49:59Z</time>
      </trkpt>
      <trkpt lat="45.73748" lon="5.7161">
        <ele>280.38107084875</ele>
        <time>2015-05-16T16:50:04Z</time>
      </trkpt>
      <trkpt lat="45.73748" lon="5.7161">
        <ele>280.38107084875</ele>
        <time>2015-05-16T16:50:09Z</time>
      </trkpt>
      <trkpt lat="45.73748" lon="5.7161">
        <ele>280.38107084875</ele>
        <time>2015-05-16T16:50:14Z</time>
      </trkpt>
      <trkpt lat="45.73748" lon="5.7161">
        <ele>280.38107084875</ele>
        <time>2015-05-16T16:50:19Z</time>
      </trkpt>
      <trkpt lat="45.73748" lon="5.7161">
        <ele>280.38107084875</ele>
        <time>2015-05-16T16:50:24Z</time>
      </trkpt>
      <trkpt lat="45.73748" lon="5.71609">
        <ele>280.38107084875</ele>
        <time>2015-05-16T16:50:29Z</time>
      </trkpt>
      <trkpt lat="45.73749" lon="5.71609">
        <ele>280.38107084875</ele>
        <time>2015-05-16T16:50:34Z</time>
      </trkpt>
      <trkpt lat="45.73748" lon="5.71609">
        <ele>280.38107084875</ele>
        <time>2015-05-16T16:50:39Z</time>
      </trkpt>
      <trkpt lat="45.73748" lon="5.71609">
        <ele>280.38107084875</ele>
        <time>2015-05-16T16:50:44Z</time>
      </trkpt>
      <trkpt lat="45.73748" lon="5.71609">
        <ele>280.38107084875</ele>
        <time>2015-05-16T16:50:49Z</time>
      </trkpt>
      <trkpt lat="45.73748" lon="5.71609">
        <ele>280.38107084875</ele>
        <time>2015-05-16T16:50:54Z</time>
      </trkpt>
      <trkpt lat="45.73748" lon="5.71609">
        <ele>280.38107084875</ele>
        <time>2015-05-16T16:50:59Z</time>
      </trkpt>
      <trkpt lat="45.73748" lon="5.71609">
        <ele>280.38107084875</ele>
        <time>2015-05-16T16:51:04Z</time>
      </trkpt>
      <trkpt lat="45.73748" lon="5.71608">
        <ele>280.38107084875</ele>
        <time>2015-05-16T16:51:09Z</time>
      </trkpt>
      <trkpt lat="45.73747" lon="5.71608">
        <ele>279.85762616023</ele>
        <time>2015-05-16T16:51:14Z</time>
      </trkpt>
      <trkpt lat="45.73747" lon="5.71608">
        <ele>279.85762616023</ele>
        <time>2015-05-16T16:51:19Z</time>
      </trkpt>
      <trkpt lat="45.73747" lon="5.71608">
        <ele>279.85762616023</ele>
        <time>2015-05-16T16:51:24Z</time>
      </trkpt>
      <trkpt lat="45.73747" lon="5.71608">
        <ele>279.85762616023</ele>
        <time>2015-05-16T16:51:29Z</time>
      </trkpt>
      <trkpt lat="45.73748" lon="5.71608">
        <ele>279.85762616023</ele>
        <time>2015-05-16T16:51:34Z</time>
      </trkpt>
      <trkpt lat="45.73746" lon="5.71607">
        <ele>279.85762616023</ele>
        <time>2015-05-16T16:51:39Z</time>
      </trkpt>
      <trkpt lat="45.73747" lon="5.71607">
        <ele>279.85762616023</ele>
        <time>2015-05-16T16:51:44Z</time>
      </trkpt>
      <trkpt lat="45.73745" lon="5.71608">
        <ele>279.85762616023</ele>
        <time>2015-05-16T16:51:49Z</time>
      </trkpt>
      <trkpt lat="45.73744" lon="5.7161">
        <ele>279.85762616023</ele>
        <time>2015-05-16T16:51:54Z</time>
      </trkpt>
      <trkpt lat="45.73744" lon="5.71611">
        <ele>279.85762616023</ele>
        <time>2015-05-16T16:51:59Z</time>
      </trkpt>
      <trkpt lat="45.73744" lon="5.71611">
        <ele>279.85762616023</ele>
        <time>2015-05-16T16:52:04Z</time>
      </trkpt>
      <trkpt lat="45.73744" lon="5.71608">
        <ele>278.87511690448</ele>
        <time>2015-05-16T16:52:09Z</time>
      </trkpt>
      <trkpt lat="45.73743" lon="5.71602">
        <ele>278.87511690448</ele>
        <time>2015-05-16T16:52:14Z</time>
      </trkpt>
      <trkpt lat="45.7374" lon="5.71598">
        <ele>278.87511690448</ele>
        <time>2015-05-16T16:52:19Z</time>
      </trkpt>
      <trkpt lat="45.73737" lon="5.71604">
        <ele>277.8311116797</ele>
        <time>2015-05-16T16:52:24Z</time>
      </trkpt>
      <trkpt lat="45.73738" lon="5.71609">
        <ele>277.8311116797</ele>
        <time>2015-05-16T16:52:29Z</time>
      </trkpt>
      <trkpt lat="45.73739" lon="5.7161">
        <ele>277.8311116797</ele>
        <time>2015-05-16T16:52:34Z</time>
      </trkpt>
      <trkpt lat="45.7374" lon="5.7161">
        <ele>277.8311116797</ele>
        <time>2015-05-16T16:52:39Z</time>
      </trkpt>
      <trkpt lat="45.73742" lon="5.71609">
        <ele>277.8311116797</ele>
        <time>2015-05-16T16:52:44Z</time>
      </trkpt>
      <trkpt lat="45.73743" lon="5.71611">
        <ele>276.97880692573</ele>
        <time>2015-05-16T16:52:49Z</time>
      </trkpt>
      <trkpt lat="45.73743" lon="5.71611">
        <ele>276.97880692573</ele>
        <time>2015-05-16T16:52:54Z</time>
      </trkpt>
      <trkpt lat="45.73743" lon="5.71611">
        <ele>276.97880692573</ele>
        <time>2015-05-16T16:52:59Z</time>
      </trkpt>
      <trkpt lat="45.73743" lon="5.71613">
        <ele>276.97880692573</ele>
        <time>2015-05-16T16:53:04Z</time>
      </trkpt>
    </trkseg>
  </trk>
</gpx>